<?xml version="1.0" encoding="UTF-8" standalone="no" ?>
<gpx xmlns="http://www.topografix.com/GPX/1/1" xmlns:xsi="http://www.w3.org/2001/XMLSchema-instance" xsi:schemaLocation="http://www.topografix.com/GPX/1/1 http://www.topografix.com/GPX/1/1/gpx.xsd" version="1.1" creator="VisuGPX - https://www.visugpx.com">
  <metadata>
    <name>ballade à la rochelle</name>
    <desc><![CDATA[Ballade dans la ville de la rochelle]]></desc>
  </metadata>
  <trk>
    <name><![CDATA[Entraînement libre]]></name>
    <trkseg>
      <trkpt lat="46.14908" lon="-1.15119">
        <ele>5</ele>
        <time>2010-12-29T15:33:45Z</time>
      </trkpt>
      <trkpt lat="46.14909" lon="-1.15121">
        <ele>5</ele>
        <time>2010-12-29T15:33:48Z</time>
      </trkpt>
      <trkpt lat="46.14909" lon="-1.15122">
        <ele>5</ele>
        <time>2010-12-29T15:33:49Z</time>
      </trkpt>
      <trkpt lat="46.14909" lon="-1.15123">
        <ele>5</ele>
        <time>2010-12-29T15:33:50Z</time>
      </trkpt>
      <trkpt lat="46.1491" lon="-1.15124">
        <ele>5</ele>
        <time>2010-12-29T15:33:51Z</time>
      </trkpt>
      <trkpt lat="46.14911" lon="-1.15124">
        <ele>5</ele>
        <time>2010-12-29T15:33:52Z</time>
      </trkpt>
      <trkpt lat="46.14912" lon="-1.15124">
        <ele>5</ele>
        <time>2010-12-29T15:33:53Z</time>
      </trkpt>
      <trkpt lat="46.14912" lon="-1.15125">
        <ele>5</ele>
        <time>2010-12-29T15:33:54Z</time>
      </trkpt>
      <trkpt lat="46.14914" lon="-1.15125">
        <ele>5</ele>
        <time>2010-12-29T15:33:55Z</time>
      </trkpt>
      <trkpt lat="46.14914" lon="-1.15125">
        <ele>5</ele>
        <time>2010-12-29T15:33:56Z</time>
      </trkpt>
      <trkpt lat="46.14915" lon="-1.15125">
        <ele>5</ele>
        <time>2010-12-29T15:33:57Z</time>
      </trkpt>
      <trkpt lat="46.14916" lon="-1.15125">
        <ele>5</ele>
        <time>2010-12-29T15:33:58Z</time>
      </trkpt>
      <trkpt lat="46.14917" lon="-1.15125">
        <ele>5</ele>
        <time>2010-12-29T15:33:59Z</time>
      </trkpt>
      <trkpt lat="46.14918" lon="-1.15126">
        <ele>4.9</ele>
        <time>2010-12-29T15:34:00Z</time>
      </trkpt>
      <trkpt lat="46.14919" lon="-1.15126">
        <ele>4.9</ele>
        <time>2010-12-29T15:34:01Z</time>
      </trkpt>
      <trkpt lat="46.1492" lon="-1.15127">
        <ele>4.9</ele>
        <time>2010-12-29T15:34:02Z</time>
      </trkpt>
      <trkpt lat="46.14921" lon="-1.15127">
        <ele>4.8</ele>
        <time>2010-12-29T15:34:03Z</time>
      </trkpt>
      <trkpt lat="46.14922" lon="-1.15128">
        <ele>4.8</ele>
        <time>2010-12-29T15:34:04Z</time>
      </trkpt>
      <trkpt lat="46.14923" lon="-1.15128">
        <ele>4.8</ele>
        <time>2010-12-29T15:34:05Z</time>
      </trkpt>
      <trkpt lat="46.14924" lon="-1.15128">
        <ele>4.7</ele>
        <time>2010-12-29T15:34:06Z</time>
      </trkpt>
      <trkpt lat="46.14925" lon="-1.15128">
        <ele>4.7</ele>
        <time>2010-12-29T15:34:07Z</time>
      </trkpt>
      <trkpt lat="46.14926" lon="-1.15129">
        <ele>4.7</ele>
        <time>2010-12-29T15:34:08Z</time>
      </trkpt>
      <trkpt lat="46.14927" lon="-1.15129">
        <ele>4.6</ele>
        <time>2010-12-29T15:34:09Z</time>
      </trkpt>
      <trkpt lat="46.14928" lon="-1.15129">
        <ele>4.6</ele>
        <time>2010-12-29T15:34:10Z</time>
      </trkpt>
      <trkpt lat="46.1493" lon="-1.15129">
        <ele>4.5</ele>
        <time>2010-12-29T15:34:11Z</time>
      </trkpt>
      <trkpt lat="46.1493" lon="-1.1513">
        <ele>4.5</ele>
        <time>2010-12-29T15:34:12Z</time>
      </trkpt>
      <trkpt lat="46.14931" lon="-1.1513">
        <ele>4.5</ele>
        <time>2010-12-29T15:34:13Z</time>
      </trkpt>
      <trkpt lat="46.14932" lon="-1.15131">
        <ele>4.4</ele>
        <time>2010-12-29T15:34:14Z</time>
      </trkpt>
      <trkpt lat="46.14933" lon="-1.15131">
        <ele>4.4</ele>
        <time>2010-12-29T15:34:15Z</time>
      </trkpt>
      <trkpt lat="46.14934" lon="-1.15132">
        <ele>4.4</ele>
        <time>2010-12-29T15:34:16Z</time>
      </trkpt>
      <trkpt lat="46.14935" lon="-1.15132">
        <ele>4.3</ele>
        <time>2010-12-29T15:34:17Z</time>
      </trkpt>
      <trkpt lat="46.14937" lon="-1.15132">
        <ele>4.3</ele>
        <time>2010-12-29T15:34:18Z</time>
      </trkpt>
      <trkpt lat="46.14938" lon="-1.15132">
        <ele>4.2</ele>
        <time>2010-12-29T15:34:19Z</time>
      </trkpt>
      <trkpt lat="46.14939" lon="-1.15133">
        <ele>4.2</ele>
        <time>2010-12-29T15:34:20Z</time>
      </trkpt>
      <trkpt lat="46.1494" lon="-1.15133">
        <ele>4.2</ele>
        <time>2010-12-29T15:34:21Z</time>
      </trkpt>
      <trkpt lat="46.14941" lon="-1.15133">
        <ele>4.1</ele>
        <time>2010-12-29T15:34:22Z</time>
      </trkpt>
      <trkpt lat="46.14942" lon="-1.15134">
        <ele>4.1</ele>
        <time>2010-12-29T15:34:23Z</time>
      </trkpt>
      <trkpt lat="46.14943" lon="-1.15134">
        <ele>4</ele>
        <time>2010-12-29T15:34:24Z</time>
      </trkpt>
      <trkpt lat="46.14945" lon="-1.15134">
        <ele>4</ele>
        <time>2010-12-29T15:34:25Z</time>
      </trkpt>
      <trkpt lat="46.14946" lon="-1.15134">
        <ele>4</ele>
        <time>2010-12-29T15:34:26Z</time>
      </trkpt>
      <trkpt lat="46.14947" lon="-1.15134">
        <ele>4</ele>
        <time>2010-12-29T15:34:27Z</time>
      </trkpt>
      <trkpt lat="46.14948" lon="-1.15135">
        <ele>4</ele>
        <time>2010-12-29T15:34:28Z</time>
      </trkpt>
      <trkpt lat="46.14949" lon="-1.15135">
        <ele>4</ele>
        <time>2010-12-29T15:34:29Z</time>
      </trkpt>
      <trkpt lat="46.1495" lon="-1.15135">
        <ele>4</ele>
        <time>2010-12-29T15:34:30Z</time>
      </trkpt>
      <trkpt lat="46.14951" lon="-1.15136">
        <ele>4</ele>
        <time>2010-12-29T15:34:31Z</time>
      </trkpt>
      <trkpt lat="46.14952" lon="-1.15136">
        <ele>4</ele>
        <time>2010-12-29T15:34:32Z</time>
      </trkpt>
      <trkpt lat="46.14953" lon="-1.15136">
        <ele>4</ele>
        <time>2010-12-29T15:34:33Z</time>
      </trkpt>
      <trkpt lat="46.14954" lon="-1.15136">
        <ele>4</ele>
        <time>2010-12-29T15:34:34Z</time>
      </trkpt>
      <trkpt lat="46.14955" lon="-1.15136">
        <ele>4</ele>
        <time>2010-12-29T15:34:35Z</time>
      </trkpt>
      <trkpt lat="46.14956" lon="-1.15136">
        <ele>4</ele>
        <time>2010-12-29T15:34:36Z</time>
      </trkpt>
      <trkpt lat="46.14957" lon="-1.15135">
        <ele>4.1</ele>
        <time>2010-12-29T15:34:37Z</time>
      </trkpt>
      <trkpt lat="46.14957" lon="-1.15135">
        <ele>4.1</ele>
        <time>2010-12-29T15:34:38Z</time>
      </trkpt>
      <trkpt lat="46.14959" lon="-1.15135">
        <ele>4.1</ele>
        <time>2010-12-29T15:34:39Z</time>
      </trkpt>
      <trkpt lat="46.1496" lon="-1.15135">
        <ele>4.1</ele>
        <time>2010-12-29T15:34:40Z</time>
      </trkpt>
      <trkpt lat="46.14961" lon="-1.15135">
        <ele>4.1</ele>
        <time>2010-12-29T15:34:41Z</time>
      </trkpt>
      <trkpt lat="46.14962" lon="-1.15134">
        <ele>4.1</ele>
        <time>2010-12-29T15:34:42Z</time>
      </trkpt>
      <trkpt lat="46.14964" lon="-1.15134">
        <ele>4.1</ele>
        <time>2010-12-29T15:34:43Z</time>
      </trkpt>
      <trkpt lat="46.14965" lon="-1.15134">
        <ele>4.1</ele>
        <time>2010-12-29T15:34:44Z</time>
      </trkpt>
      <trkpt lat="46.14966" lon="-1.15133">
        <ele>4.2</ele>
        <time>2010-12-29T15:34:45Z</time>
      </trkpt>
      <trkpt lat="46.14967" lon="-1.15133">
        <ele>4.2</ele>
        <time>2010-12-29T15:34:46Z</time>
      </trkpt>
      <trkpt lat="46.14968" lon="-1.15132">
        <ele>4.2</ele>
        <time>2010-12-29T15:34:47Z</time>
      </trkpt>
      <trkpt lat="46.14969" lon="-1.15131">
        <ele>4.3</ele>
        <time>2010-12-29T15:34:48Z</time>
      </trkpt>
      <trkpt lat="46.1497" lon="-1.15129">
        <ele>4.3</ele>
        <time>2010-12-29T15:34:49Z</time>
      </trkpt>
      <trkpt lat="46.1497" lon="-1.15128">
        <ele>4.4</ele>
        <time>2010-12-29T15:34:50Z</time>
      </trkpt>
      <trkpt lat="46.14971" lon="-1.15127">
        <ele>4.4</ele>
        <time>2010-12-29T15:34:51Z</time>
      </trkpt>
      <trkpt lat="46.14972" lon="-1.15126">
        <ele>4.4</ele>
        <time>2010-12-29T15:34:52Z</time>
      </trkpt>
      <trkpt lat="46.14972" lon="-1.15126">
        <ele>4.5</ele>
        <time>2010-12-29T15:34:53Z</time>
      </trkpt>
      <trkpt lat="46.14973" lon="-1.15126">
        <ele>4.5</ele>
        <time>2010-12-29T15:34:54Z</time>
      </trkpt>
      <trkpt lat="46.14975" lon="-1.15126">
        <ele>4.5</ele>
        <time>2010-12-29T15:34:55Z</time>
      </trkpt>
      <trkpt lat="46.14976" lon="-1.15126">
        <ele>4.5</ele>
        <time>2010-12-29T15:34:56Z</time>
      </trkpt>
      <trkpt lat="46.14977" lon="-1.15126">
        <ele>4.5</ele>
        <time>2010-12-29T15:34:57Z</time>
      </trkpt>
      <trkpt lat="46.14978" lon="-1.15126">
        <ele>4.5</ele>
        <time>2010-12-29T15:34:58Z</time>
      </trkpt>
      <trkpt lat="46.14979" lon="-1.15126">
        <ele>4.5</ele>
        <time>2010-12-29T15:34:59Z</time>
      </trkpt>
      <trkpt lat="46.1498" lon="-1.15126">
        <ele>4.5</ele>
        <time>2010-12-29T15:35:00Z</time>
      </trkpt>
      <trkpt lat="46.14982" lon="-1.15126">
        <ele>4.5</ele>
        <time>2010-12-29T15:35:01Z</time>
      </trkpt>
      <trkpt lat="46.14983" lon="-1.15126">
        <ele>4.5</ele>
        <time>2010-12-29T15:35:02Z</time>
      </trkpt>
      <trkpt lat="46.14985" lon="-1.15127">
        <ele>4.4</ele>
        <time>2010-12-29T15:35:03Z</time>
      </trkpt>
      <trkpt lat="46.14986" lon="-1.15127">
        <ele>4.4</ele>
        <time>2010-12-29T15:35:04Z</time>
      </trkpt>
      <trkpt lat="46.14987" lon="-1.15128">
        <ele>4.4</ele>
        <time>2010-12-29T15:35:05Z</time>
      </trkpt>
      <trkpt lat="46.14988" lon="-1.15128">
        <ele>4.4</ele>
        <time>2010-12-29T15:35:06Z</time>
      </trkpt>
      <trkpt lat="46.1499" lon="-1.15128">
        <ele>4.4</ele>
        <time>2010-12-29T15:35:07Z</time>
      </trkpt>
      <trkpt lat="46.14991" lon="-1.15129">
        <ele>4.4</ele>
        <time>2010-12-29T15:35:08Z</time>
      </trkpt>
      <trkpt lat="46.14992" lon="-1.15129">
        <ele>4.4</ele>
        <time>2010-12-29T15:35:09Z</time>
      </trkpt>
      <trkpt lat="46.14993" lon="-1.15129">
        <ele>4.3</ele>
        <time>2010-12-29T15:35:10Z</time>
      </trkpt>
      <trkpt lat="46.14994" lon="-1.1513">
        <ele>4.3</ele>
        <time>2010-12-29T15:35:11Z</time>
      </trkpt>
      <trkpt lat="46.14995" lon="-1.1513">
        <ele>4.3</ele>
        <time>2010-12-29T15:35:12Z</time>
      </trkpt>
      <trkpt lat="46.14996" lon="-1.1513">
        <ele>4.3</ele>
        <time>2010-12-29T15:35:13Z</time>
      </trkpt>
      <trkpt lat="46.14997" lon="-1.1513">
        <ele>4.3</ele>
        <time>2010-12-29T15:35:14Z</time>
      </trkpt>
      <trkpt lat="46.14998" lon="-1.1513">
        <ele>4.3</ele>
        <time>2010-12-29T15:35:15Z</time>
      </trkpt>
      <trkpt lat="46.14999" lon="-1.15131">
        <ele>4.3</ele>
        <time>2010-12-29T15:35:16Z</time>
      </trkpt>
      <trkpt lat="46.15001" lon="-1.15131">
        <ele>4.3</ele>
        <time>2010-12-29T15:35:17Z</time>
      </trkpt>
      <trkpt lat="46.15002" lon="-1.15131">
        <ele>4.3</ele>
        <time>2010-12-29T15:35:18Z</time>
      </trkpt>
      <trkpt lat="46.15003" lon="-1.15131">
        <ele>4.2</ele>
        <time>2010-12-29T15:35:19Z</time>
      </trkpt>
      <trkpt lat="46.15005" lon="-1.15132">
        <ele>4.2</ele>
        <time>2010-12-29T15:35:20Z</time>
      </trkpt>
      <trkpt lat="46.15006" lon="-1.15132">
        <ele>4.2</ele>
        <time>2010-12-29T15:35:21Z</time>
      </trkpt>
      <trkpt lat="46.15007" lon="-1.15133">
        <ele>4.2</ele>
        <time>2010-12-29T15:35:22Z</time>
      </trkpt>
      <trkpt lat="46.15009" lon="-1.15133">
        <ele>4.2</ele>
        <time>2010-12-29T15:35:23Z</time>
      </trkpt>
      <trkpt lat="46.1501" lon="-1.15133">
        <ele>4.1</ele>
        <time>2010-12-29T15:35:24Z</time>
      </trkpt>
      <trkpt lat="46.1501" lon="-1.15133">
        <ele>4.1</ele>
        <time>2010-12-29T15:35:25Z</time>
      </trkpt>
      <trkpt lat="46.15011" lon="-1.15133">
        <ele>4.1</ele>
        <time>2010-12-29T15:35:26Z</time>
      </trkpt>
      <trkpt lat="46.15012" lon="-1.15133">
        <ele>4.1</ele>
        <time>2010-12-29T15:35:27Z</time>
      </trkpt>
      <trkpt lat="46.15014" lon="-1.15133">
        <ele>4.1</ele>
        <time>2010-12-29T15:35:28Z</time>
      </trkpt>
      <trkpt lat="46.15015" lon="-1.15133">
        <ele>4.1</ele>
        <time>2010-12-29T15:35:29Z</time>
      </trkpt>
      <trkpt lat="46.15016" lon="-1.15133">
        <ele>4.1</ele>
        <time>2010-12-29T15:35:30Z</time>
      </trkpt>
      <trkpt lat="46.15017" lon="-1.15133">
        <ele>4.1</ele>
        <time>2010-12-29T15:35:31Z</time>
      </trkpt>
      <trkpt lat="46.15018" lon="-1.15133">
        <ele>4.1</ele>
        <time>2010-12-29T15:35:32Z</time>
      </trkpt>
      <trkpt lat="46.15019" lon="-1.15133">
        <ele>4.1</ele>
        <time>2010-12-29T15:35:33Z</time>
      </trkpt>
      <trkpt lat="46.15022" lon="-1.15135">
        <ele>4</ele>
        <time>2010-12-29T15:35:36Z</time>
      </trkpt>
      <trkpt lat="46.15022" lon="-1.15135">
        <ele>4</ele>
        <time>2010-12-29T15:35:37Z</time>
      </trkpt>
      <trkpt lat="46.15023" lon="-1.15135">
        <ele>4</ele>
        <time>2010-12-29T15:35:38Z</time>
      </trkpt>
      <trkpt lat="46.15025" lon="-1.15135">
        <ele>4</ele>
        <time>2010-12-29T15:35:39Z</time>
      </trkpt>
      <trkpt lat="46.15026" lon="-1.15135">
        <ele>4</ele>
        <time>2010-12-29T15:35:40Z</time>
      </trkpt>
      <trkpt lat="46.15027" lon="-1.15135">
        <ele>4</ele>
        <time>2010-12-29T15:35:41Z</time>
      </trkpt>
      <trkpt lat="46.15028" lon="-1.15135">
        <ele>4</ele>
        <time>2010-12-29T15:35:42Z</time>
      </trkpt>
      <trkpt lat="46.1503" lon="-1.15135">
        <ele>4</ele>
        <time>2010-12-29T15:35:43Z</time>
      </trkpt>
      <trkpt lat="46.15031" lon="-1.15135">
        <ele>4</ele>
        <time>2010-12-29T15:35:44Z</time>
      </trkpt>
      <trkpt lat="46.15032" lon="-1.15135">
        <ele>4</ele>
        <time>2010-12-29T15:35:45Z</time>
      </trkpt>
      <trkpt lat="46.15033" lon="-1.15135">
        <ele>4</ele>
        <time>2010-12-29T15:35:46Z</time>
      </trkpt>
      <trkpt lat="46.15034" lon="-1.15135">
        <ele>4</ele>
        <time>2010-12-29T15:35:47Z</time>
      </trkpt>
      <trkpt lat="46.15035" lon="-1.15135">
        <ele>4</ele>
        <time>2010-12-29T15:35:48Z</time>
      </trkpt>
      <trkpt lat="46.15036" lon="-1.15135">
        <ele>4</ele>
        <time>2010-12-29T15:35:49Z</time>
      </trkpt>
      <trkpt lat="46.15037" lon="-1.15134">
        <ele>4</ele>
        <time>2010-12-29T15:35:50Z</time>
      </trkpt>
      <trkpt lat="46.15038" lon="-1.15134">
        <ele>4</ele>
        <time>2010-12-29T15:35:51Z</time>
      </trkpt>
      <trkpt lat="46.15039" lon="-1.15135">
        <ele>4</ele>
        <time>2010-12-29T15:35:52Z</time>
      </trkpt>
      <trkpt lat="46.15041" lon="-1.15135">
        <ele>4</ele>
        <time>2010-12-29T15:35:53Z</time>
      </trkpt>
      <trkpt lat="46.15042" lon="-1.15135">
        <ele>4</ele>
        <time>2010-12-29T15:35:54Z</time>
      </trkpt>
      <trkpt lat="46.15043" lon="-1.15135">
        <ele>4</ele>
        <time>2010-12-29T15:35:55Z</time>
      </trkpt>
      <trkpt lat="46.15044" lon="-1.15135">
        <ele>4</ele>
        <time>2010-12-29T15:35:56Z</time>
      </trkpt>
      <trkpt lat="46.15045" lon="-1.15136">
        <ele>4</ele>
        <time>2010-12-29T15:35:57Z</time>
      </trkpt>
      <trkpt lat="46.15046" lon="-1.15136">
        <ele>4</ele>
        <time>2010-12-29T15:35:58Z</time>
      </trkpt>
      <trkpt lat="46.15047" lon="-1.15136">
        <ele>4</ele>
        <time>2010-12-29T15:35:59Z</time>
      </trkpt>
      <trkpt lat="46.15048" lon="-1.15136">
        <ele>4</ele>
        <time>2010-12-29T15:36:00Z</time>
      </trkpt>
      <trkpt lat="46.15049" lon="-1.15136">
        <ele>4</ele>
        <time>2010-12-29T15:36:01Z</time>
      </trkpt>
      <trkpt lat="46.1505" lon="-1.15136">
        <ele>4</ele>
        <time>2010-12-29T15:36:02Z</time>
      </trkpt>
      <trkpt lat="46.15051" lon="-1.15136">
        <ele>4</ele>
        <time>2010-12-29T15:36:03Z</time>
      </trkpt>
      <trkpt lat="46.15052" lon="-1.15136">
        <ele>4</ele>
        <time>2010-12-29T15:36:04Z</time>
      </trkpt>
      <trkpt lat="46.15053" lon="-1.15135">
        <ele>4</ele>
        <time>2010-12-29T15:36:05Z</time>
      </trkpt>
      <trkpt lat="46.15054" lon="-1.15135">
        <ele>4</ele>
        <time>2010-12-29T15:36:06Z</time>
      </trkpt>
      <trkpt lat="46.15056" lon="-1.15134">
        <ele>4</ele>
        <time>2010-12-29T15:36:07Z</time>
      </trkpt>
      <trkpt lat="46.15057" lon="-1.15134">
        <ele>4</ele>
        <time>2010-12-29T15:36:08Z</time>
      </trkpt>
      <trkpt lat="46.15058" lon="-1.15134">
        <ele>4</ele>
        <time>2010-12-29T15:36:09Z</time>
      </trkpt>
      <trkpt lat="46.15059" lon="-1.15134">
        <ele>4</ele>
        <time>2010-12-29T15:36:10Z</time>
      </trkpt>
      <trkpt lat="46.15059" lon="-1.15134">
        <ele>4</ele>
        <time>2010-12-29T15:36:11Z</time>
      </trkpt>
      <trkpt lat="46.1506" lon="-1.15134">
        <ele>4</ele>
        <time>2010-12-29T15:36:12Z</time>
      </trkpt>
      <trkpt lat="46.15061" lon="-1.15134">
        <ele>4</ele>
        <time>2010-12-29T15:36:13Z</time>
      </trkpt>
      <trkpt lat="46.15062" lon="-1.15134">
        <ele>4</ele>
        <time>2010-12-29T15:36:14Z</time>
      </trkpt>
      <trkpt lat="46.15063" lon="-1.15134">
        <ele>4</ele>
        <time>2010-12-29T15:36:15Z</time>
      </trkpt>
      <trkpt lat="46.15064" lon="-1.15135">
        <ele>4</ele>
        <time>2010-12-29T15:36:16Z</time>
      </trkpt>
      <trkpt lat="46.15064" lon="-1.15142">
        <ele>1</ele>
        <time>2010-12-29T15:36:24Z</time>
      </trkpt>
      <trkpt lat="46.15062" lon="-1.15149">
        <ele>1</ele>
        <time>2010-12-29T15:36:27Z</time>
      </trkpt>
      <trkpt lat="46.1506" lon="-1.15155">
        <ele>1</ele>
        <time>2010-12-29T15:36:31Z</time>
      </trkpt>
      <trkpt lat="46.15059" lon="-1.15148">
        <ele>1</ele>
        <time>2010-12-29T15:36:46Z</time>
      </trkpt>
      <trkpt lat="46.15061" lon="-1.1514">
        <ele>1</ele>
        <time>2010-12-29T15:36:50Z</time>
      </trkpt>
      <trkpt lat="46.15062" lon="-1.15133">
        <ele>4</ele>
        <time>2010-12-29T15:37:02Z</time>
      </trkpt>
      <trkpt lat="46.15063" lon="-1.15127">
        <ele>4</ele>
        <time>2010-12-29T15:37:11Z</time>
      </trkpt>
      <trkpt lat="46.1506" lon="-1.15132">
        <ele>4</ele>
        <time>2010-12-29T15:37:27Z</time>
      </trkpt>
      <trkpt lat="46.1506" lon="-1.15135">
        <ele>4</ele>
        <time>2010-12-29T15:37:33Z</time>
      </trkpt>
      <trkpt lat="46.15061" lon="-1.15135">
        <ele>4</ele>
        <time>2010-12-29T15:37:34Z</time>
      </trkpt>
      <trkpt lat="46.15062" lon="-1.15136">
        <ele>4</ele>
        <time>2010-12-29T15:37:35Z</time>
      </trkpt>
      <trkpt lat="46.15063" lon="-1.15136">
        <ele>4</ele>
        <time>2010-12-29T15:37:36Z</time>
      </trkpt>
      <trkpt lat="46.15064" lon="-1.15136">
        <ele>4</ele>
        <time>2010-12-29T15:37:37Z</time>
      </trkpt>
      <trkpt lat="46.15065" lon="-1.15136">
        <ele>4</ele>
        <time>2010-12-29T15:37:38Z</time>
      </trkpt>
      <trkpt lat="46.15066" lon="-1.15136">
        <ele>4</ele>
        <time>2010-12-29T15:37:39Z</time>
      </trkpt>
      <trkpt lat="46.15067" lon="-1.15135">
        <ele>4</ele>
        <time>2010-12-29T15:37:40Z</time>
      </trkpt>
      <trkpt lat="46.15068" lon="-1.15135">
        <ele>4</ele>
        <time>2010-12-29T15:37:41Z</time>
      </trkpt>
      <trkpt lat="46.15069" lon="-1.15134">
        <ele>4</ele>
        <time>2010-12-29T15:37:42Z</time>
      </trkpt>
      <trkpt lat="46.1507" lon="-1.15133">
        <ele>4</ele>
        <time>2010-12-29T15:37:43Z</time>
      </trkpt>
      <trkpt lat="46.15071" lon="-1.15132">
        <ele>4</ele>
        <time>2010-12-29T15:37:44Z</time>
      </trkpt>
      <trkpt lat="46.15075" lon="-1.15128">
        <ele>4</ele>
        <time>2010-12-29T15:37:48Z</time>
      </trkpt>
      <trkpt lat="46.15079" lon="-1.15127">
        <ele>4</ele>
        <time>2010-12-29T15:37:58Z</time>
      </trkpt>
      <trkpt lat="46.1508" lon="-1.15128">
        <ele>4</ele>
        <time>2010-12-29T15:37:59Z</time>
      </trkpt>
      <trkpt lat="46.15081" lon="-1.15129">
        <ele>4</ele>
        <time>2010-12-29T15:38:00Z</time>
      </trkpt>
      <trkpt lat="46.15082" lon="-1.1513">
        <ele>4</ele>
        <time>2010-12-29T15:38:01Z</time>
      </trkpt>
      <trkpt lat="46.15083" lon="-1.15131">
        <ele>4</ele>
        <time>2010-12-29T15:38:02Z</time>
      </trkpt>
      <trkpt lat="46.15084" lon="-1.15132">
        <ele>4</ele>
        <time>2010-12-29T15:38:03Z</time>
      </trkpt>
      <trkpt lat="46.15085" lon="-1.15132">
        <ele>4</ele>
        <time>2010-12-29T15:38:04Z</time>
      </trkpt>
      <trkpt lat="46.15086" lon="-1.15132">
        <ele>4</ele>
        <time>2010-12-29T15:38:05Z</time>
      </trkpt>
      <trkpt lat="46.15087" lon="-1.15133">
        <ele>4</ele>
        <time>2010-12-29T15:38:06Z</time>
      </trkpt>
      <trkpt lat="46.15088" lon="-1.15133">
        <ele>4</ele>
        <time>2010-12-29T15:38:07Z</time>
      </trkpt>
      <trkpt lat="46.15089" lon="-1.15133">
        <ele>4</ele>
        <time>2010-12-29T15:38:08Z</time>
      </trkpt>
      <trkpt lat="46.15091" lon="-1.15134">
        <ele>4</ele>
        <time>2010-12-29T15:38:09Z</time>
      </trkpt>
      <trkpt lat="46.15092" lon="-1.15134">
        <ele>4</ele>
        <time>2010-12-29T15:38:10Z</time>
      </trkpt>
      <trkpt lat="46.15093" lon="-1.15134">
        <ele>4</ele>
        <time>2010-12-29T15:38:11Z</time>
      </trkpt>
      <trkpt lat="46.15095" lon="-1.15134">
        <ele>4</ele>
        <time>2010-12-29T15:38:12Z</time>
      </trkpt>
      <trkpt lat="46.15096" lon="-1.15134">
        <ele>4</ele>
        <time>2010-12-29T15:38:13Z</time>
      </trkpt>
      <trkpt lat="46.15097" lon="-1.15134">
        <ele>4</ele>
        <time>2010-12-29T15:38:14Z</time>
      </trkpt>
      <trkpt lat="46.15098" lon="-1.15135">
        <ele>4</ele>
        <time>2010-12-29T15:38:15Z</time>
      </trkpt>
      <trkpt lat="46.15099" lon="-1.15135">
        <ele>4</ele>
        <time>2010-12-29T15:38:16Z</time>
      </trkpt>
      <trkpt lat="46.15101" lon="-1.15134">
        <ele>4</ele>
        <time>2010-12-29T15:38:17Z</time>
      </trkpt>
      <trkpt lat="46.15102" lon="-1.15134">
        <ele>4</ele>
        <time>2010-12-29T15:38:18Z</time>
      </trkpt>
      <trkpt lat="46.15103" lon="-1.15134">
        <ele>4</ele>
        <time>2010-12-29T15:38:19Z</time>
      </trkpt>
      <trkpt lat="46.15104" lon="-1.15133">
        <ele>4</ele>
        <time>2010-12-29T15:38:20Z</time>
      </trkpt>
      <trkpt lat="46.15105" lon="-1.15133">
        <ele>4</ele>
        <time>2010-12-29T15:38:21Z</time>
      </trkpt>
      <trkpt lat="46.15106" lon="-1.15133">
        <ele>4</ele>
        <time>2010-12-29T15:38:22Z</time>
      </trkpt>
      <trkpt lat="46.15107" lon="-1.15133">
        <ele>4</ele>
        <time>2010-12-29T15:38:23Z</time>
      </trkpt>
      <trkpt lat="46.15109" lon="-1.15133">
        <ele>4</ele>
        <time>2010-12-29T15:38:24Z</time>
      </trkpt>
      <trkpt lat="46.1511" lon="-1.15132">
        <ele>4</ele>
        <time>2010-12-29T15:38:25Z</time>
      </trkpt>
      <trkpt lat="46.15111" lon="-1.15132">
        <ele>4</ele>
        <time>2010-12-29T15:38:26Z</time>
      </trkpt>
      <trkpt lat="46.15112" lon="-1.15132">
        <ele>4</ele>
        <time>2010-12-29T15:38:27Z</time>
      </trkpt>
      <trkpt lat="46.15113" lon="-1.15131">
        <ele>4</ele>
        <time>2010-12-29T15:38:28Z</time>
      </trkpt>
      <trkpt lat="46.15114" lon="-1.15131">
        <ele>4</ele>
        <time>2010-12-29T15:38:29Z</time>
      </trkpt>
      <trkpt lat="46.15115" lon="-1.1513">
        <ele>4</ele>
        <time>2010-12-29T15:38:30Z</time>
      </trkpt>
      <trkpt lat="46.15116" lon="-1.1513">
        <ele>4</ele>
        <time>2010-12-29T15:38:31Z</time>
      </trkpt>
      <trkpt lat="46.15117" lon="-1.15129">
        <ele>4</ele>
        <time>2010-12-29T15:38:32Z</time>
      </trkpt>
      <trkpt lat="46.15118" lon="-1.15129">
        <ele>4</ele>
        <time>2010-12-29T15:38:33Z</time>
      </trkpt>
      <trkpt lat="46.1512" lon="-1.15128">
        <ele>4</ele>
        <time>2010-12-29T15:38:34Z</time>
      </trkpt>
      <trkpt lat="46.15121" lon="-1.15127">
        <ele>4</ele>
        <time>2010-12-29T15:38:35Z</time>
      </trkpt>
      <trkpt lat="46.15122" lon="-1.15127">
        <ele>4</ele>
        <time>2010-12-29T15:38:36Z</time>
      </trkpt>
      <trkpt lat="46.15123" lon="-1.15127">
        <ele>4</ele>
        <time>2010-12-29T15:38:37Z</time>
      </trkpt>
      <trkpt lat="46.15125" lon="-1.15126">
        <ele>4</ele>
        <time>2010-12-29T15:38:38Z</time>
      </trkpt>
      <trkpt lat="46.15126" lon="-1.15126">
        <ele>4</ele>
        <time>2010-12-29T15:38:39Z</time>
      </trkpt>
      <trkpt lat="46.15127" lon="-1.15126">
        <ele>4</ele>
        <time>2010-12-29T15:38:40Z</time>
      </trkpt>
      <trkpt lat="46.15128" lon="-1.15126">
        <ele>4</ele>
        <time>2010-12-29T15:38:41Z</time>
      </trkpt>
      <trkpt lat="46.15126" lon="-1.1513">
        <ele>4</ele>
        <time>2010-12-29T15:38:50Z</time>
      </trkpt>
      <trkpt lat="46.15127" lon="-1.1513">
        <ele>4</ele>
        <time>2010-12-29T15:38:51Z</time>
      </trkpt>
      <trkpt lat="46.15128" lon="-1.15129">
        <ele>4</ele>
        <time>2010-12-29T15:38:52Z</time>
      </trkpt>
      <trkpt lat="46.1513" lon="-1.15128">
        <ele>4</ele>
        <time>2010-12-29T15:38:53Z</time>
      </trkpt>
      <trkpt lat="46.15131" lon="-1.15127">
        <ele>4</ele>
        <time>2010-12-29T15:38:54Z</time>
      </trkpt>
      <trkpt lat="46.15132" lon="-1.15125">
        <ele>4</ele>
        <time>2010-12-29T15:38:55Z</time>
      </trkpt>
      <trkpt lat="46.15133" lon="-1.15124">
        <ele>4</ele>
        <time>2010-12-29T15:38:56Z</time>
      </trkpt>
      <trkpt lat="46.15134" lon="-1.15123">
        <ele>4</ele>
        <time>2010-12-29T15:38:57Z</time>
      </trkpt>
      <trkpt lat="46.15136" lon="-1.15122">
        <ele>4</ele>
        <time>2010-12-29T15:38:58Z</time>
      </trkpt>
      <trkpt lat="46.15137" lon="-1.15121">
        <ele>4</ele>
        <time>2010-12-29T15:38:59Z</time>
      </trkpt>
      <trkpt lat="46.15138" lon="-1.15122">
        <ele>4</ele>
        <time>2010-12-29T15:39:00Z</time>
      </trkpt>
      <trkpt lat="46.15139" lon="-1.15122">
        <ele>4</ele>
        <time>2010-12-29T15:39:01Z</time>
      </trkpt>
      <trkpt lat="46.1514" lon="-1.15123">
        <ele>4</ele>
        <time>2010-12-29T15:39:02Z</time>
      </trkpt>
      <trkpt lat="46.15141" lon="-1.15123">
        <ele>4</ele>
        <time>2010-12-29T15:39:03Z</time>
      </trkpt>
      <trkpt lat="46.15142" lon="-1.15124">
        <ele>4</ele>
        <time>2010-12-29T15:39:04Z</time>
      </trkpt>
      <trkpt lat="46.15143" lon="-1.15124">
        <ele>4</ele>
        <time>2010-12-29T15:39:05Z</time>
      </trkpt>
      <trkpt lat="46.15144" lon="-1.15124">
        <ele>4</ele>
        <time>2010-12-29T15:39:06Z</time>
      </trkpt>
      <trkpt lat="46.15145" lon="-1.15124">
        <ele>4</ele>
        <time>2010-12-29T15:39:07Z</time>
      </trkpt>
      <trkpt lat="46.15146" lon="-1.15124">
        <ele>4</ele>
        <time>2010-12-29T15:39:08Z</time>
      </trkpt>
      <trkpt lat="46.15147" lon="-1.15124">
        <ele>4</ele>
        <time>2010-12-29T15:39:09Z</time>
      </trkpt>
      <trkpt lat="46.15149" lon="-1.15124">
        <ele>4</ele>
        <time>2010-12-29T15:39:10Z</time>
      </trkpt>
      <trkpt lat="46.1515" lon="-1.15124">
        <ele>4</ele>
        <time>2010-12-29T15:39:11Z</time>
      </trkpt>
      <trkpt lat="46.15151" lon="-1.15124">
        <ele>4</ele>
        <time>2010-12-29T15:39:12Z</time>
      </trkpt>
      <trkpt lat="46.15152" lon="-1.15123">
        <ele>4</ele>
        <time>2010-12-29T15:39:13Z</time>
      </trkpt>
      <trkpt lat="46.15154" lon="-1.15123">
        <ele>4</ele>
        <time>2010-12-29T15:39:14Z</time>
      </trkpt>
      <trkpt lat="46.15155" lon="-1.15123">
        <ele>4</ele>
        <time>2010-12-29T15:39:15Z</time>
      </trkpt>
      <trkpt lat="46.15156" lon="-1.15122">
        <ele>4</ele>
        <time>2010-12-29T15:39:16Z</time>
      </trkpt>
      <trkpt lat="46.15157" lon="-1.15122">
        <ele>4</ele>
        <time>2010-12-29T15:39:17Z</time>
      </trkpt>
      <trkpt lat="46.15159" lon="-1.15122">
        <ele>4</ele>
        <time>2010-12-29T15:39:18Z</time>
      </trkpt>
      <trkpt lat="46.1516" lon="-1.15122">
        <ele>4</ele>
        <time>2010-12-29T15:39:19Z</time>
      </trkpt>
      <trkpt lat="46.15161" lon="-1.15123">
        <ele>4</ele>
        <time>2010-12-29T15:39:20Z</time>
      </trkpt>
      <trkpt lat="46.15163" lon="-1.15123">
        <ele>4</ele>
        <time>2010-12-29T15:39:21Z</time>
      </trkpt>
      <trkpt lat="46.15164" lon="-1.15123">
        <ele>4</ele>
        <time>2010-12-29T15:39:22Z</time>
      </trkpt>
      <trkpt lat="46.15165" lon="-1.15124">
        <ele>4</ele>
        <time>2010-12-29T15:39:23Z</time>
      </trkpt>
      <trkpt lat="46.15167" lon="-1.15124">
        <ele>4</ele>
        <time>2010-12-29T15:39:24Z</time>
      </trkpt>
      <trkpt lat="46.15168" lon="-1.15124">
        <ele>4</ele>
        <time>2010-12-29T15:39:25Z</time>
      </trkpt>
      <trkpt lat="46.15169" lon="-1.15124">
        <ele>4</ele>
        <time>2010-12-29T15:39:26Z</time>
      </trkpt>
      <trkpt lat="46.1517" lon="-1.15124">
        <ele>4</ele>
        <time>2010-12-29T15:39:27Z</time>
      </trkpt>
      <trkpt lat="46.15171" lon="-1.15124">
        <ele>4</ele>
        <time>2010-12-29T15:39:28Z</time>
      </trkpt>
      <trkpt lat="46.15172" lon="-1.15124">
        <ele>4</ele>
        <time>2010-12-29T15:39:29Z</time>
      </trkpt>
      <trkpt lat="46.15173" lon="-1.15124">
        <ele>4</ele>
        <time>2010-12-29T15:39:30Z</time>
      </trkpt>
      <trkpt lat="46.15175" lon="-1.15124">
        <ele>4</ele>
        <time>2010-12-29T15:39:31Z</time>
      </trkpt>
      <trkpt lat="46.15175" lon="-1.15124">
        <ele>4</ele>
        <time>2010-12-29T15:39:32Z</time>
      </trkpt>
      <trkpt lat="46.15176" lon="-1.15124">
        <ele>4</ele>
        <time>2010-12-29T15:39:33Z</time>
      </trkpt>
      <trkpt lat="46.15178" lon="-1.15124">
        <ele>4</ele>
        <time>2010-12-29T15:39:34Z</time>
      </trkpt>
      <trkpt lat="46.15178" lon="-1.15124">
        <ele>4</ele>
        <time>2010-12-29T15:39:35Z</time>
      </trkpt>
      <trkpt lat="46.15179" lon="-1.15124">
        <ele>4</ele>
        <time>2010-12-29T15:39:36Z</time>
      </trkpt>
      <trkpt lat="46.15181" lon="-1.15124">
        <ele>4</ele>
        <time>2010-12-29T15:39:37Z</time>
      </trkpt>
      <trkpt lat="46.15182" lon="-1.15124">
        <ele>4</ele>
        <time>2010-12-29T15:39:38Z</time>
      </trkpt>
      <trkpt lat="46.15184" lon="-1.15124">
        <ele>4</ele>
        <time>2010-12-29T15:39:39Z</time>
      </trkpt>
      <trkpt lat="46.15186" lon="-1.15124">
        <ele>4</ele>
        <time>2010-12-29T15:39:40Z</time>
      </trkpt>
      <trkpt lat="46.15187" lon="-1.15124">
        <ele>4</ele>
        <time>2010-12-29T15:39:41Z</time>
      </trkpt>
      <trkpt lat="46.15189" lon="-1.15124">
        <ele>4</ele>
        <time>2010-12-29T15:39:42Z</time>
      </trkpt>
      <trkpt lat="46.1519" lon="-1.15124">
        <ele>4</ele>
        <time>2010-12-29T15:39:43Z</time>
      </trkpt>
      <trkpt lat="46.15192" lon="-1.15124">
        <ele>4</ele>
        <time>2010-12-29T15:39:44Z</time>
      </trkpt>
      <trkpt lat="46.15193" lon="-1.15124">
        <ele>4</ele>
        <time>2010-12-29T15:39:45Z</time>
      </trkpt>
      <trkpt lat="46.15194" lon="-1.15124">
        <ele>4</ele>
        <time>2010-12-29T15:39:46Z</time>
      </trkpt>
      <trkpt lat="46.15196" lon="-1.15123">
        <ele>4</ele>
        <time>2010-12-29T15:39:47Z</time>
      </trkpt>
      <trkpt lat="46.15197" lon="-1.15123">
        <ele>4</ele>
        <time>2010-12-29T15:39:48Z</time>
      </trkpt>
      <trkpt lat="46.15198" lon="-1.15123">
        <ele>4</ele>
        <time>2010-12-29T15:39:49Z</time>
      </trkpt>
      <trkpt lat="46.15199" lon="-1.15123">
        <ele>4</ele>
        <time>2010-12-29T15:39:50Z</time>
      </trkpt>
      <trkpt lat="46.15199" lon="-1.15123">
        <ele>4</ele>
        <time>2010-12-29T15:39:51Z</time>
      </trkpt>
      <trkpt lat="46.152" lon="-1.15123">
        <ele>4</ele>
        <time>2010-12-29T15:39:52Z</time>
      </trkpt>
      <trkpt lat="46.15201" lon="-1.15123">
        <ele>4</ele>
        <time>2010-12-29T15:39:53Z</time>
      </trkpt>
      <trkpt lat="46.15202" lon="-1.15123">
        <ele>4</ele>
        <time>2010-12-29T15:39:54Z</time>
      </trkpt>
      <trkpt lat="46.15203" lon="-1.15123">
        <ele>4</ele>
        <time>2010-12-29T15:39:55Z</time>
      </trkpt>
      <trkpt lat="46.15204" lon="-1.15124">
        <ele>4</ele>
        <time>2010-12-29T15:39:56Z</time>
      </trkpt>
      <trkpt lat="46.15206" lon="-1.15124">
        <ele>4</ele>
        <time>2010-12-29T15:39:57Z</time>
      </trkpt>
      <trkpt lat="46.15207" lon="-1.15124">
        <ele>4</ele>
        <time>2010-12-29T15:39:58Z</time>
      </trkpt>
      <trkpt lat="46.15208" lon="-1.15124">
        <ele>4</ele>
        <time>2010-12-29T15:39:59Z</time>
      </trkpt>
      <trkpt lat="46.15209" lon="-1.15124">
        <ele>4</ele>
        <time>2010-12-29T15:40:00Z</time>
      </trkpt>
      <trkpt lat="46.1521" lon="-1.15124">
        <ele>4</ele>
        <time>2010-12-29T15:40:01Z</time>
      </trkpt>
      <trkpt lat="46.15212" lon="-1.15125">
        <ele>4</ele>
        <time>2010-12-29T15:40:02Z</time>
      </trkpt>
      <trkpt lat="46.15213" lon="-1.15125">
        <ele>4</ele>
        <time>2010-12-29T15:40:03Z</time>
      </trkpt>
      <trkpt lat="46.15214" lon="-1.15126">
        <ele>4</ele>
        <time>2010-12-29T15:40:04Z</time>
      </trkpt>
      <trkpt lat="46.15215" lon="-1.15126">
        <ele>4</ele>
        <time>2010-12-29T15:40:05Z</time>
      </trkpt>
      <trkpt lat="46.15216" lon="-1.15126">
        <ele>4</ele>
        <time>2010-12-29T15:40:06Z</time>
      </trkpt>
      <trkpt lat="46.15217" lon="-1.15126">
        <ele>4</ele>
        <time>2010-12-29T15:40:07Z</time>
      </trkpt>
      <trkpt lat="46.15218" lon="-1.15126">
        <ele>4</ele>
        <time>2010-12-29T15:40:08Z</time>
      </trkpt>
      <trkpt lat="46.15219" lon="-1.15126">
        <ele>4</ele>
        <time>2010-12-29T15:40:09Z</time>
      </trkpt>
      <trkpt lat="46.1522" lon="-1.15126">
        <ele>4</ele>
        <time>2010-12-29T15:40:10Z</time>
      </trkpt>
      <trkpt lat="46.15221" lon="-1.15127">
        <ele>4</ele>
        <time>2010-12-29T15:40:11Z</time>
      </trkpt>
      <trkpt lat="46.15222" lon="-1.15127">
        <ele>4</ele>
        <time>2010-12-29T15:40:12Z</time>
      </trkpt>
      <trkpt lat="46.15223" lon="-1.15128">
        <ele>4</ele>
        <time>2010-12-29T15:40:13Z</time>
      </trkpt>
      <trkpt lat="46.15224" lon="-1.15128">
        <ele>4</ele>
        <time>2010-12-29T15:40:14Z</time>
      </trkpt>
      <trkpt lat="46.15225" lon="-1.15129">
        <ele>4</ele>
        <time>2010-12-29T15:40:15Z</time>
      </trkpt>
      <trkpt lat="46.15225" lon="-1.15129">
        <ele>4</ele>
        <time>2010-12-29T15:40:16Z</time>
      </trkpt>
      <trkpt lat="46.15226" lon="-1.15129">
        <ele>4</ele>
        <time>2010-12-29T15:40:17Z</time>
      </trkpt>
      <trkpt lat="46.15227" lon="-1.15129">
        <ele>4</ele>
        <time>2010-12-29T15:40:18Z</time>
      </trkpt>
      <trkpt lat="46.15228" lon="-1.15129">
        <ele>4</ele>
        <time>2010-12-29T15:40:19Z</time>
      </trkpt>
      <trkpt lat="46.15228" lon="-1.15129">
        <ele>4</ele>
        <time>2010-12-29T15:40:20Z</time>
      </trkpt>
      <trkpt lat="46.15229" lon="-1.1513">
        <ele>4</ele>
        <time>2010-12-29T15:40:21Z</time>
      </trkpt>
      <trkpt lat="46.15231" lon="-1.1513">
        <ele>4</ele>
        <time>2010-12-29T15:40:22Z</time>
      </trkpt>
      <trkpt lat="46.15231" lon="-1.15131">
        <ele>4</ele>
        <time>2010-12-29T15:40:23Z</time>
      </trkpt>
      <trkpt lat="46.15233" lon="-1.15131">
        <ele>4</ele>
        <time>2010-12-29T15:40:24Z</time>
      </trkpt>
      <trkpt lat="46.15234" lon="-1.15131">
        <ele>4</ele>
        <time>2010-12-29T15:40:25Z</time>
      </trkpt>
      <trkpt lat="46.15235" lon="-1.15131">
        <ele>4</ele>
        <time>2010-12-29T15:40:26Z</time>
      </trkpt>
      <trkpt lat="46.15236" lon="-1.15131">
        <ele>4</ele>
        <time>2010-12-29T15:40:27Z</time>
      </trkpt>
      <trkpt lat="46.15237" lon="-1.1513">
        <ele>4</ele>
        <time>2010-12-29T15:40:28Z</time>
      </trkpt>
      <trkpt lat="46.15238" lon="-1.1513">
        <ele>4</ele>
        <time>2010-12-29T15:40:29Z</time>
      </trkpt>
      <trkpt lat="46.15239" lon="-1.1513">
        <ele>4</ele>
        <time>2010-12-29T15:40:30Z</time>
      </trkpt>
      <trkpt lat="46.1524" lon="-1.1513">
        <ele>4</ele>
        <time>2010-12-29T15:40:31Z</time>
      </trkpt>
      <trkpt lat="46.15241" lon="-1.15129">
        <ele>4</ele>
        <time>2010-12-29T15:40:32Z</time>
      </trkpt>
      <trkpt lat="46.15242" lon="-1.15129">
        <ele>4</ele>
        <time>2010-12-29T15:40:33Z</time>
      </trkpt>
      <trkpt lat="46.15243" lon="-1.15129">
        <ele>4</ele>
        <time>2010-12-29T15:40:34Z</time>
      </trkpt>
      <trkpt lat="46.15244" lon="-1.15129">
        <ele>4</ele>
        <time>2010-12-29T15:40:35Z</time>
      </trkpt>
      <trkpt lat="46.15245" lon="-1.15129">
        <ele>4</ele>
        <time>2010-12-29T15:40:36Z</time>
      </trkpt>
      <trkpt lat="46.15247" lon="-1.1513">
        <ele>4</ele>
        <time>2010-12-29T15:40:37Z</time>
      </trkpt>
      <trkpt lat="46.15248" lon="-1.1513">
        <ele>4</ele>
        <time>2010-12-29T15:40:38Z</time>
      </trkpt>
      <trkpt lat="46.15249" lon="-1.1513">
        <ele>4</ele>
        <time>2010-12-29T15:40:39Z</time>
      </trkpt>
      <trkpt lat="46.1525" lon="-1.1513">
        <ele>4</ele>
        <time>2010-12-29T15:40:40Z</time>
      </trkpt>
      <trkpt lat="46.15251" lon="-1.15131">
        <ele>1.9</ele>
        <time>2010-12-29T15:40:41Z</time>
      </trkpt>
      <trkpt lat="46.15252" lon="-1.1513">
        <ele>1.9</ele>
        <time>2010-12-29T15:40:42Z</time>
      </trkpt>
      <trkpt lat="46.15253" lon="-1.1513">
        <ele>1.9</ele>
        <time>2010-12-29T15:40:43Z</time>
      </trkpt>
      <trkpt lat="46.15254" lon="-1.1513">
        <ele>1.9</ele>
        <time>2010-12-29T15:40:44Z</time>
      </trkpt>
      <trkpt lat="46.15255" lon="-1.1513">
        <ele>1.9</ele>
        <time>2010-12-29T15:40:45Z</time>
      </trkpt>
      <trkpt lat="46.15257" lon="-1.1513">
        <ele>1.9</ele>
        <time>2010-12-29T15:40:46Z</time>
      </trkpt>
      <trkpt lat="46.15257" lon="-1.1513">
        <ele>1.9</ele>
        <time>2010-12-29T15:40:47Z</time>
      </trkpt>
      <trkpt lat="46.15258" lon="-1.1513">
        <ele>1.9</ele>
        <time>2010-12-29T15:40:48Z</time>
      </trkpt>
      <trkpt lat="46.15259" lon="-1.1513">
        <ele>1.9</ele>
        <time>2010-12-29T15:40:49Z</time>
      </trkpt>
      <trkpt lat="46.1526" lon="-1.1513">
        <ele>1.9</ele>
        <time>2010-12-29T15:40:50Z</time>
      </trkpt>
      <trkpt lat="46.15262" lon="-1.1513">
        <ele>1.9</ele>
        <time>2010-12-29T15:40:51Z</time>
      </trkpt>
      <trkpt lat="46.15262" lon="-1.1513">
        <ele>2</ele>
        <time>2010-12-29T15:40:52Z</time>
      </trkpt>
      <trkpt lat="46.15263" lon="-1.15129">
        <ele>2</ele>
        <time>2010-12-29T15:40:53Z</time>
      </trkpt>
      <trkpt lat="46.15265" lon="-1.15129">
        <ele>2.1</ele>
        <time>2010-12-29T15:40:54Z</time>
      </trkpt>
      <trkpt lat="46.15266" lon="-1.15128">
        <ele>2.2</ele>
        <time>2010-12-29T15:40:55Z</time>
      </trkpt>
      <trkpt lat="46.15268" lon="-1.15127">
        <ele>2.3</ele>
        <time>2010-12-29T15:40:56Z</time>
      </trkpt>
      <trkpt lat="46.15269" lon="-1.15126">
        <ele>2.3</ele>
        <time>2010-12-29T15:40:57Z</time>
      </trkpt>
      <trkpt lat="46.15271" lon="-1.15126">
        <ele>2.4</ele>
        <time>2010-12-29T15:41:00Z</time>
      </trkpt>
      <trkpt lat="46.15272" lon="-1.15126">
        <ele>2.4</ele>
        <time>2010-12-29T15:41:01Z</time>
      </trkpt>
      <trkpt lat="46.15273" lon="-1.15126">
        <ele>2.4</ele>
        <time>2010-12-29T15:41:02Z</time>
      </trkpt>
      <trkpt lat="46.15274" lon="-1.15125">
        <ele>2.5</ele>
        <time>2010-12-29T15:41:03Z</time>
      </trkpt>
      <trkpt lat="46.15276" lon="-1.15125">
        <ele>2.5</ele>
        <time>2010-12-29T15:41:04Z</time>
      </trkpt>
      <trkpt lat="46.15277" lon="-1.15124">
        <ele>2.6</ele>
        <time>2010-12-29T15:41:05Z</time>
      </trkpt>
      <trkpt lat="46.15279" lon="-1.15124">
        <ele>2.6</ele>
        <time>2010-12-29T15:41:06Z</time>
      </trkpt>
      <trkpt lat="46.1528" lon="-1.15124">
        <ele>2.6</ele>
        <time>2010-12-29T15:41:07Z</time>
      </trkpt>
      <trkpt lat="46.15281" lon="-1.15124">
        <ele>2.6</ele>
        <time>2010-12-29T15:41:08Z</time>
      </trkpt>
      <trkpt lat="46.15282" lon="-1.15125">
        <ele>2.5</ele>
        <time>2010-12-29T15:41:09Z</time>
      </trkpt>
      <trkpt lat="46.15283" lon="-1.15125">
        <ele>2.5</ele>
        <time>2010-12-29T15:41:10Z</time>
      </trkpt>
      <trkpt lat="46.15284" lon="-1.15126">
        <ele>2.4</ele>
        <time>2010-12-29T15:41:11Z</time>
      </trkpt>
      <trkpt lat="46.15285" lon="-1.15126">
        <ele>2.4</ele>
        <time>2010-12-29T15:41:12Z</time>
      </trkpt>
      <trkpt lat="46.15285" lon="-1.15128">
        <ele>2.2</ele>
        <time>2010-12-29T15:41:13Z</time>
      </trkpt>
      <trkpt lat="46.15286" lon="-1.15129">
        <ele>2.1</ele>
        <time>2010-12-29T15:41:14Z</time>
      </trkpt>
      <trkpt lat="46.15286" lon="-1.15131">
        <ele>1.9</ele>
        <time>2010-12-29T15:41:15Z</time>
      </trkpt>
      <trkpt lat="46.15286" lon="-1.15132">
        <ele>1.7</ele>
        <time>2010-12-29T15:41:16Z</time>
      </trkpt>
      <trkpt lat="46.15285" lon="-1.15134">
        <ele>1.5</ele>
        <time>2010-12-29T15:41:17Z</time>
      </trkpt>
      <trkpt lat="46.15285" lon="-1.15136">
        <ele>1.3</ele>
        <time>2010-12-29T15:41:18Z</time>
      </trkpt>
      <trkpt lat="46.15284" lon="-1.15137">
        <ele>1.2</ele>
        <time>2010-12-29T15:41:19Z</time>
      </trkpt>
      <trkpt lat="46.15284" lon="-1.15139">
        <ele>1</ele>
        <time>2010-12-29T15:41:20Z</time>
      </trkpt>
      <trkpt lat="46.15284" lon="-1.1514">
        <ele>1</ele>
        <time>2010-12-29T15:41:21Z</time>
      </trkpt>
      <trkpt lat="46.15284" lon="-1.15142">
        <ele>1</ele>
        <time>2010-12-29T15:41:22Z</time>
      </trkpt>
      <trkpt lat="46.15284" lon="-1.15143">
        <ele>1</ele>
        <time>2010-12-29T15:41:23Z</time>
      </trkpt>
      <trkpt lat="46.15285" lon="-1.15145">
        <ele>1</ele>
        <time>2010-12-29T15:41:24Z</time>
      </trkpt>
      <trkpt lat="46.15285" lon="-1.15147">
        <ele>1</ele>
        <time>2010-12-29T15:41:25Z</time>
      </trkpt>
      <trkpt lat="46.15285" lon="-1.15149">
        <ele>1</ele>
        <time>2010-12-29T15:41:26Z</time>
      </trkpt>
      <trkpt lat="46.15285" lon="-1.1515">
        <ele>1</ele>
        <time>2010-12-29T15:41:27Z</time>
      </trkpt>
      <trkpt lat="46.15285" lon="-1.15152">
        <ele>1</ele>
        <time>2010-12-29T15:41:28Z</time>
      </trkpt>
      <trkpt lat="46.15285" lon="-1.15153">
        <ele>1</ele>
        <time>2010-12-29T15:41:29Z</time>
      </trkpt>
      <trkpt lat="46.15285" lon="-1.15154">
        <ele>1</ele>
        <time>2010-12-29T15:41:30Z</time>
      </trkpt>
      <trkpt lat="46.15284" lon="-1.15156">
        <ele>1</ele>
        <time>2010-12-29T15:41:31Z</time>
      </trkpt>
      <trkpt lat="46.15284" lon="-1.15157">
        <ele>1</ele>
        <time>2010-12-29T15:41:32Z</time>
      </trkpt>
      <trkpt lat="46.15284" lon="-1.15158">
        <ele>1</ele>
        <time>2010-12-29T15:41:33Z</time>
      </trkpt>
      <trkpt lat="46.15283" lon="-1.1516">
        <ele>1</ele>
        <time>2010-12-29T15:41:34Z</time>
      </trkpt>
      <trkpt lat="46.15283" lon="-1.15161">
        <ele>1</ele>
        <time>2010-12-29T15:41:35Z</time>
      </trkpt>
      <trkpt lat="46.15283" lon="-1.15162">
        <ele>1</ele>
        <time>2010-12-29T15:41:36Z</time>
      </trkpt>
      <trkpt lat="46.15283" lon="-1.15163">
        <ele>1</ele>
        <time>2010-12-29T15:41:37Z</time>
      </trkpt>
      <trkpt lat="46.15284" lon="-1.15165">
        <ele>1</ele>
        <time>2010-12-29T15:41:38Z</time>
      </trkpt>
      <trkpt lat="46.15284" lon="-1.15166">
        <ele>1</ele>
        <time>2010-12-29T15:41:39Z</time>
      </trkpt>
      <trkpt lat="46.15284" lon="-1.15168">
        <time>2010-12-29T15:41:40Z</time>
      </trkpt>
      <trkpt lat="46.15285" lon="-1.15169">
        <time>2010-12-29T15:41:41Z</time>
      </trkpt>
      <trkpt lat="46.15285" lon="-1.1517">
        <time>2010-12-29T15:41:42Z</time>
      </trkpt>
      <trkpt lat="46.15285" lon="-1.15172">
        <time>2010-12-29T15:41:43Z</time>
      </trkpt>
      <trkpt lat="46.15285" lon="-1.15173">
        <time>2010-12-29T15:41:44Z</time>
      </trkpt>
      <trkpt lat="46.15286" lon="-1.15175">
        <time>2010-12-29T15:41:45Z</time>
      </trkpt>
      <trkpt lat="46.15285" lon="-1.15176">
        <time>2010-12-29T15:41:46Z</time>
      </trkpt>
      <trkpt lat="46.15285" lon="-1.15177">
        <time>2010-12-29T15:41:47Z</time>
      </trkpt>
      <trkpt lat="46.15284" lon="-1.15179">
        <time>2010-12-29T15:41:48Z</time>
      </trkpt>
      <trkpt lat="46.15284" lon="-1.1518">
        <time>2010-12-29T15:41:49Z</time>
      </trkpt>
      <trkpt lat="46.15284" lon="-1.15182">
        <time>2010-12-29T15:41:50Z</time>
      </trkpt>
      <trkpt lat="46.15284" lon="-1.15183">
        <time>2010-12-29T15:41:51Z</time>
      </trkpt>
      <trkpt lat="46.15284" lon="-1.15185">
        <time>2010-12-29T15:41:52Z</time>
      </trkpt>
      <trkpt lat="46.15284" lon="-1.15186">
        <time>2010-12-29T15:41:53Z</time>
      </trkpt>
      <trkpt lat="46.15284" lon="-1.15187">
        <time>2010-12-29T15:41:54Z</time>
      </trkpt>
      <trkpt lat="46.15284" lon="-1.15189">
        <time>2010-12-29T15:41:55Z</time>
      </trkpt>
      <trkpt lat="46.15284" lon="-1.1519">
        <time>2010-12-29T15:41:56Z</time>
      </trkpt>
      <trkpt lat="46.15284" lon="-1.15191">
        <time>2010-12-29T15:41:57Z</time>
      </trkpt>
      <trkpt lat="46.15285" lon="-1.15192">
        <time>2010-12-29T15:41:58Z</time>
      </trkpt>
      <trkpt lat="46.15285" lon="-1.15194">
        <time>2010-12-29T15:41:59Z</time>
      </trkpt>
      <trkpt lat="46.15285" lon="-1.15195">
        <ele>1</ele>
        <time>2010-12-29T15:42:00Z</time>
      </trkpt>
      <trkpt lat="46.15285" lon="-1.15197">
        <ele>1</ele>
        <time>2010-12-29T15:42:01Z</time>
      </trkpt>
      <trkpt lat="46.15285" lon="-1.15198">
        <ele>1</ele>
        <time>2010-12-29T15:42:02Z</time>
      </trkpt>
      <trkpt lat="46.15284" lon="-1.152">
        <ele>1</ele>
        <time>2010-12-29T15:42:03Z</time>
      </trkpt>
      <trkpt lat="46.15284" lon="-1.15201">
        <ele>1</ele>
        <time>2010-12-29T15:42:04Z</time>
      </trkpt>
      <trkpt lat="46.15285" lon="-1.15202">
        <ele>1</ele>
        <time>2010-12-29T15:42:05Z</time>
      </trkpt>
      <trkpt lat="46.15285" lon="-1.15204">
        <ele>1</ele>
        <time>2010-12-29T15:42:06Z</time>
      </trkpt>
      <trkpt lat="46.15285" lon="-1.15204">
        <ele>1</ele>
        <time>2010-12-29T15:42:07Z</time>
      </trkpt>
      <trkpt lat="46.15286" lon="-1.15205">
        <ele>1</ele>
        <time>2010-12-29T15:42:08Z</time>
      </trkpt>
      <trkpt lat="46.15286" lon="-1.15207">
        <ele>1</ele>
        <time>2010-12-29T15:42:09Z</time>
      </trkpt>
      <trkpt lat="46.15286" lon="-1.15207">
        <ele>1</ele>
        <time>2010-12-29T15:42:10Z</time>
      </trkpt>
      <trkpt lat="46.15286" lon="-1.15208">
        <ele>1</ele>
        <time>2010-12-29T15:42:11Z</time>
      </trkpt>
      <trkpt lat="46.15286" lon="-1.1521">
        <ele>1</ele>
        <time>2010-12-29T15:42:12Z</time>
      </trkpt>
      <trkpt lat="46.15286" lon="-1.15211">
        <ele>1</ele>
        <time>2010-12-29T15:42:13Z</time>
      </trkpt>
      <trkpt lat="46.15286" lon="-1.15213">
        <ele>1</ele>
        <time>2010-12-29T15:42:14Z</time>
      </trkpt>
      <trkpt lat="46.15287" lon="-1.15214">
        <ele>1</ele>
        <time>2010-12-29T15:42:15Z</time>
      </trkpt>
      <trkpt lat="46.15287" lon="-1.15216">
        <ele>1</ele>
        <time>2010-12-29T15:42:16Z</time>
      </trkpt>
      <trkpt lat="46.15287" lon="-1.15218">
        <ele>1</ele>
        <time>2010-12-29T15:42:17Z</time>
      </trkpt>
      <trkpt lat="46.15287" lon="-1.15219">
        <ele>1</ele>
        <time>2010-12-29T15:42:18Z</time>
      </trkpt>
      <trkpt lat="46.15287" lon="-1.15221">
        <ele>1</ele>
        <time>2010-12-29T15:42:19Z</time>
      </trkpt>
      <trkpt lat="46.15287" lon="-1.15222">
        <ele>1</ele>
        <time>2010-12-29T15:42:20Z</time>
      </trkpt>
      <trkpt lat="46.15287" lon="-1.15224">
        <ele>1.2</ele>
        <time>2010-12-29T15:42:21Z</time>
      </trkpt>
      <trkpt lat="46.15287" lon="-1.15225">
        <ele>1.3</ele>
        <time>2010-12-29T15:42:22Z</time>
      </trkpt>
      <trkpt lat="46.15287" lon="-1.15226">
        <ele>1.4</ele>
        <time>2010-12-29T15:42:23Z</time>
      </trkpt>
      <trkpt lat="46.15287" lon="-1.15228">
        <ele>1.6</ele>
        <time>2010-12-29T15:42:24Z</time>
      </trkpt>
      <trkpt lat="46.15287" lon="-1.1523">
        <ele>1.8</ele>
        <time>2010-12-29T15:42:25Z</time>
      </trkpt>
      <trkpt lat="46.15287" lon="-1.15232">
        <ele>2</ele>
        <time>2010-12-29T15:42:26Z</time>
      </trkpt>
      <trkpt lat="46.15287" lon="-1.15233">
        <ele>2.2</ele>
        <time>2010-12-29T15:42:27Z</time>
      </trkpt>
      <trkpt lat="46.15288" lon="-1.15235">
        <ele>2.3</ele>
        <time>2010-12-29T15:42:28Z</time>
      </trkpt>
      <trkpt lat="46.15289" lon="-1.15235">
        <ele>2.4</ele>
        <time>2010-12-29T15:42:29Z</time>
      </trkpt>
      <trkpt lat="46.1529" lon="-1.15235">
        <ele>2.4</ele>
        <time>2010-12-29T15:42:30Z</time>
      </trkpt>
      <trkpt lat="46.15291" lon="-1.15236">
        <ele>2.5</ele>
        <time>2010-12-29T15:42:31Z</time>
      </trkpt>
      <trkpt lat="46.15292" lon="-1.15236">
        <ele>2.5</ele>
        <time>2010-12-29T15:42:32Z</time>
      </trkpt>
      <trkpt lat="46.15294" lon="-1.15237">
        <ele>2.5</ele>
        <time>2010-12-29T15:42:33Z</time>
      </trkpt>
      <trkpt lat="46.15295" lon="-1.15237">
        <ele>2.6</ele>
        <time>2010-12-29T15:42:34Z</time>
      </trkpt>
      <trkpt lat="46.15296" lon="-1.15238">
        <ele>2.7</ele>
        <time>2010-12-29T15:42:35Z</time>
      </trkpt>
      <trkpt lat="46.15297" lon="-1.15238">
        <ele>2.7</ele>
        <time>2010-12-29T15:42:36Z</time>
      </trkpt>
      <trkpt lat="46.15298" lon="-1.15238">
        <ele>2.7</ele>
        <time>2010-12-29T15:42:37Z</time>
      </trkpt>
      <trkpt lat="46.15299" lon="-1.15238">
        <ele>2.7</ele>
        <time>2010-12-29T15:42:38Z</time>
      </trkpt>
      <trkpt lat="46.153" lon="-1.15237">
        <ele>2.6</ele>
        <time>2010-12-29T15:42:39Z</time>
      </trkpt>
      <trkpt lat="46.15301" lon="-1.15237">
        <ele>2.6</ele>
        <time>2010-12-29T15:42:40Z</time>
      </trkpt>
      <trkpt lat="46.15302" lon="-1.15237">
        <ele>2.6</ele>
        <time>2010-12-29T15:42:41Z</time>
      </trkpt>
      <trkpt lat="46.15303" lon="-1.15237">
        <ele>2.6</ele>
        <time>2010-12-29T15:42:42Z</time>
      </trkpt>
      <trkpt lat="46.15304" lon="-1.15237">
        <ele>2.6</ele>
        <time>2010-12-29T15:42:43Z</time>
      </trkpt>
      <trkpt lat="46.15305" lon="-1.15238">
        <ele>2.7</ele>
        <time>2010-12-29T15:42:44Z</time>
      </trkpt>
      <trkpt lat="46.15306" lon="-1.15238">
        <ele>2.7</ele>
        <time>2010-12-29T15:42:45Z</time>
      </trkpt>
      <trkpt lat="46.15307" lon="-1.15238">
        <ele>2.7</ele>
        <time>2010-12-29T15:42:46Z</time>
      </trkpt>
      <trkpt lat="46.15307" lon="-1.15238">
        <ele>2.7</ele>
        <time>2010-12-29T15:42:47Z</time>
      </trkpt>
      <trkpt lat="46.15308" lon="-1.15238">
        <ele>2.8</ele>
        <time>2010-12-29T15:42:48Z</time>
      </trkpt>
      <trkpt lat="46.1531" lon="-1.15238">
        <ele>2.8</ele>
        <time>2010-12-29T15:42:49Z</time>
      </trkpt>
      <trkpt lat="46.15311" lon="-1.15238">
        <ele>2.9</ele>
        <time>2010-12-29T15:42:50Z</time>
      </trkpt>
      <trkpt lat="46.15313" lon="-1.15238">
        <ele>2.9</ele>
        <time>2010-12-29T15:42:51Z</time>
      </trkpt>
      <trkpt lat="46.15314" lon="-1.15238">
        <ele>2.9</ele>
        <time>2010-12-29T15:42:52Z</time>
      </trkpt>
      <trkpt lat="46.15316" lon="-1.15238">
        <ele>3</ele>
        <time>2010-12-29T15:42:53Z</time>
      </trkpt>
      <trkpt lat="46.15318" lon="-1.15237">
        <ele>3</ele>
        <time>2010-12-29T15:42:54Z</time>
      </trkpt>
      <trkpt lat="46.15319" lon="-1.15237">
        <ele>3</ele>
        <time>2010-12-29T15:42:55Z</time>
      </trkpt>
      <trkpt lat="46.1532" lon="-1.15236">
        <ele>3</ele>
        <time>2010-12-29T15:42:56Z</time>
      </trkpt>
      <trkpt lat="46.15321" lon="-1.15236">
        <ele>3.1</ele>
        <time>2010-12-29T15:42:57Z</time>
      </trkpt>
      <trkpt lat="46.15323" lon="-1.15236">
        <ele>3.1</ele>
        <time>2010-12-29T15:42:58Z</time>
      </trkpt>
      <trkpt lat="46.15323" lon="-1.15235">
        <ele>3.1</ele>
        <time>2010-12-29T15:42:59Z</time>
      </trkpt>
      <trkpt lat="46.15324" lon="-1.15235">
        <ele>3.1</ele>
        <time>2010-12-29T15:43:00Z</time>
      </trkpt>
      <trkpt lat="46.15325" lon="-1.15235">
        <ele>3.1</ele>
        <time>2010-12-29T15:43:01Z</time>
      </trkpt>
      <trkpt lat="46.15326" lon="-1.15235">
        <ele>3.2</ele>
        <time>2010-12-29T15:43:02Z</time>
      </trkpt>
      <trkpt lat="46.15327" lon="-1.15235">
        <ele>3.2</ele>
        <time>2010-12-29T15:43:03Z</time>
      </trkpt>
      <trkpt lat="46.15328" lon="-1.15235">
        <ele>3.3</ele>
        <time>2010-12-29T15:43:04Z</time>
      </trkpt>
      <trkpt lat="46.15329" lon="-1.15235">
        <ele>3.3</ele>
        <time>2010-12-29T15:43:05Z</time>
      </trkpt>
      <trkpt lat="46.15329" lon="-1.15235">
        <ele>3.3</ele>
        <time>2010-12-29T15:43:06Z</time>
      </trkpt>
      <trkpt lat="46.1533" lon="-1.15235">
        <ele>3.3</ele>
        <time>2010-12-29T15:43:07Z</time>
      </trkpt>
      <trkpt lat="46.15331" lon="-1.15235">
        <ele>3.4</ele>
        <time>2010-12-29T15:43:08Z</time>
      </trkpt>
      <trkpt lat="46.15332" lon="-1.15235">
        <ele>3.4</ele>
        <time>2010-12-29T15:43:09Z</time>
      </trkpt>
      <trkpt lat="46.15332" lon="-1.15234">
        <ele>3.4</ele>
        <time>2010-12-29T15:43:10Z</time>
      </trkpt>
      <trkpt lat="46.15333" lon="-1.15235">
        <ele>3.4</ele>
        <time>2010-12-29T15:43:11Z</time>
      </trkpt>
      <trkpt lat="46.15334" lon="-1.15235">
        <ele>3.5</ele>
        <time>2010-12-29T15:43:12Z</time>
      </trkpt>
      <trkpt lat="46.15336" lon="-1.15235">
        <ele>3.5</ele>
        <time>2010-12-29T15:43:13Z</time>
      </trkpt>
      <trkpt lat="46.15337" lon="-1.15235">
        <ele>3.5</ele>
        <time>2010-12-29T15:43:14Z</time>
      </trkpt>
      <trkpt lat="46.15338" lon="-1.15236">
        <ele>3.5</ele>
        <time>2010-12-29T15:43:15Z</time>
      </trkpt>
      <trkpt lat="46.15339" lon="-1.15236">
        <ele>3.5</ele>
        <time>2010-12-29T15:43:16Z</time>
      </trkpt>
      <trkpt lat="46.1534" lon="-1.15237">
        <ele>3.5</ele>
        <time>2010-12-29T15:43:17Z</time>
      </trkpt>
      <trkpt lat="46.15342" lon="-1.15237">
        <ele>3.5</ele>
        <time>2010-12-29T15:43:18Z</time>
      </trkpt>
      <trkpt lat="46.15343" lon="-1.15238">
        <ele>3.6</ele>
        <time>2010-12-29T15:43:19Z</time>
      </trkpt>
      <trkpt lat="46.15344" lon="-1.15239">
        <ele>3.6</ele>
        <time>2010-12-29T15:43:20Z</time>
      </trkpt>
      <trkpt lat="46.15345" lon="-1.15238">
        <ele>3.6</ele>
        <time>2010-12-29T15:43:21Z</time>
      </trkpt>
      <trkpt lat="46.15346" lon="-1.15238">
        <ele>3.6</ele>
        <time>2010-12-29T15:43:22Z</time>
      </trkpt>
      <trkpt lat="46.15348" lon="-1.15238">
        <ele>3.5</ele>
        <time>2010-12-29T15:43:23Z</time>
      </trkpt>
      <trkpt lat="46.15348" lon="-1.15238">
        <ele>3.5</ele>
        <time>2010-12-29T15:43:24Z</time>
      </trkpt>
      <trkpt lat="46.1535" lon="-1.15237">
        <ele>3.5</ele>
        <time>2010-12-29T15:43:25Z</time>
      </trkpt>
      <trkpt lat="46.15352" lon="-1.15236">
        <ele>3.5</ele>
        <time>2010-12-29T15:43:26Z</time>
      </trkpt>
      <trkpt lat="46.15353" lon="-1.15236">
        <ele>3.5</ele>
        <time>2010-12-29T15:43:27Z</time>
      </trkpt>
      <trkpt lat="46.15354" lon="-1.15236">
        <ele>3.5</ele>
        <time>2010-12-29T15:43:28Z</time>
      </trkpt>
      <trkpt lat="46.15355" lon="-1.15236">
        <ele>3.5</ele>
        <time>2010-12-29T15:43:29Z</time>
      </trkpt>
      <trkpt lat="46.15356" lon="-1.15236">
        <ele>3.5</ele>
        <time>2010-12-29T15:43:30Z</time>
      </trkpt>
      <trkpt lat="46.15357" lon="-1.15236">
        <ele>3.5</ele>
        <time>2010-12-29T15:43:31Z</time>
      </trkpt>
      <trkpt lat="46.15358" lon="-1.15236">
        <ele>3.5</ele>
        <time>2010-12-29T15:43:32Z</time>
      </trkpt>
      <trkpt lat="46.15359" lon="-1.15236">
        <ele>3.5</ele>
        <time>2010-12-29T15:43:33Z</time>
      </trkpt>
      <trkpt lat="46.1536" lon="-1.15236">
        <ele>3.5</ele>
        <time>2010-12-29T15:43:34Z</time>
      </trkpt>
      <trkpt lat="46.15361" lon="-1.15237">
        <ele>3.5</ele>
        <time>2010-12-29T15:43:35Z</time>
      </trkpt>
      <trkpt lat="46.15362" lon="-1.15237">
        <ele>3.5</ele>
        <time>2010-12-29T15:43:36Z</time>
      </trkpt>
      <trkpt lat="46.15363" lon="-1.15237">
        <ele>3.5</ele>
        <time>2010-12-29T15:43:37Z</time>
      </trkpt>
      <trkpt lat="46.15364" lon="-1.15238">
        <ele>3.5</ele>
        <time>2010-12-29T15:43:38Z</time>
      </trkpt>
      <trkpt lat="46.15365" lon="-1.15238">
        <ele>3.6</ele>
        <time>2010-12-29T15:43:39Z</time>
      </trkpt>
      <trkpt lat="46.15366" lon="-1.15238">
        <ele>3.6</ele>
        <time>2010-12-29T15:43:40Z</time>
      </trkpt>
      <trkpt lat="46.15367" lon="-1.15238">
        <ele>3.5</ele>
        <time>2010-12-29T15:43:41Z</time>
      </trkpt>
      <trkpt lat="46.15368" lon="-1.15237">
        <ele>3.5</ele>
        <time>2010-12-29T15:43:42Z</time>
      </trkpt>
      <trkpt lat="46.15369" lon="-1.15237">
        <ele>3.5</ele>
        <time>2010-12-29T15:43:43Z</time>
      </trkpt>
      <trkpt lat="46.1537" lon="-1.15238">
        <ele>3.5</ele>
        <time>2010-12-29T15:43:44Z</time>
      </trkpt>
      <trkpt lat="46.15371" lon="-1.15238">
        <ele>3.6</ele>
        <time>2010-12-29T15:43:45Z</time>
      </trkpt>
      <trkpt lat="46.15373" lon="-1.15238">
        <ele>3.6</ele>
        <time>2010-12-29T15:43:46Z</time>
      </trkpt>
      <trkpt lat="46.15374" lon="-1.15238">
        <ele>3.6</ele>
        <time>2010-12-29T15:43:47Z</time>
      </trkpt>
      <trkpt lat="46.15375" lon="-1.15238">
        <ele>3.6</ele>
        <time>2010-12-29T15:43:48Z</time>
      </trkpt>
      <trkpt lat="46.15376" lon="-1.15237">
        <ele>3.5</ele>
        <time>2010-12-29T15:43:49Z</time>
      </trkpt>
      <trkpt lat="46.15377" lon="-1.15237">
        <ele>3.5</ele>
        <time>2010-12-29T15:43:50Z</time>
      </trkpt>
      <trkpt lat="46.15378" lon="-1.15237">
        <ele>3.5</ele>
        <time>2010-12-29T15:43:51Z</time>
      </trkpt>
      <trkpt lat="46.15379" lon="-1.15238">
        <ele>3.6</ele>
        <time>2010-12-29T15:43:52Z</time>
      </trkpt>
      <trkpt lat="46.1538" lon="-1.15238">
        <ele>3.6</ele>
        <time>2010-12-29T15:43:53Z</time>
      </trkpt>
      <trkpt lat="46.15381" lon="-1.15239">
        <ele>3.6</ele>
        <time>2010-12-29T15:43:54Z</time>
      </trkpt>
      <trkpt lat="46.15381" lon="-1.15239">
        <ele>3.6</ele>
        <time>2010-12-29T15:43:55Z</time>
      </trkpt>
      <trkpt lat="46.15381" lon="-1.1524">
        <ele>3.6</ele>
        <time>2010-12-29T15:43:58Z</time>
      </trkpt>
      <trkpt lat="46.15381" lon="-1.1524">
        <ele>3.6</ele>
        <time>2010-12-29T15:43:59Z</time>
      </trkpt>
      <trkpt lat="46.15382" lon="-1.1524">
        <ele>3.6</ele>
        <time>2010-12-29T15:44:00Z</time>
      </trkpt>
      <trkpt lat="46.15382" lon="-1.1524">
        <ele>3.7</ele>
        <time>2010-12-29T15:44:01Z</time>
      </trkpt>
      <trkpt lat="46.15383" lon="-1.15241">
        <ele>3.7</ele>
        <time>2010-12-29T15:44:02Z</time>
      </trkpt>
      <trkpt lat="46.15384" lon="-1.15241">
        <ele>3.7</ele>
        <time>2010-12-29T15:44:03Z</time>
      </trkpt>
      <trkpt lat="46.15385" lon="-1.15242">
        <ele>3.7</ele>
        <time>2010-12-29T15:44:04Z</time>
      </trkpt>
      <trkpt lat="46.15387" lon="-1.15242">
        <ele>3.7</ele>
        <time>2010-12-29T15:44:05Z</time>
      </trkpt>
      <trkpt lat="46.15388" lon="-1.15242">
        <ele>3.7</ele>
        <time>2010-12-29T15:44:06Z</time>
      </trkpt>
      <trkpt lat="46.15389" lon="-1.15243">
        <ele>3.7</ele>
        <time>2010-12-29T15:44:07Z</time>
      </trkpt>
      <trkpt lat="46.1539" lon="-1.15243">
        <ele>3.8</ele>
        <time>2010-12-29T15:44:08Z</time>
      </trkpt>
      <trkpt lat="46.15392" lon="-1.15243">
        <ele>3.8</ele>
        <time>2010-12-29T15:44:09Z</time>
      </trkpt>
      <trkpt lat="46.15393" lon="-1.15244">
        <ele>3.9</ele>
        <time>2010-12-29T15:44:10Z</time>
      </trkpt>
      <trkpt lat="46.15394" lon="-1.15244">
        <ele>3.9</ele>
        <time>2010-12-29T15:44:11Z</time>
      </trkpt>
      <trkpt lat="46.15395" lon="-1.15245">
        <ele>3.9</ele>
        <time>2010-12-29T15:44:12Z</time>
      </trkpt>
      <trkpt lat="46.15397" lon="-1.15245">
        <ele>4</ele>
        <time>2010-12-29T15:44:13Z</time>
      </trkpt>
      <trkpt lat="46.15398" lon="-1.15247">
        <ele>4.1</ele>
        <time>2010-12-29T15:44:14Z</time>
      </trkpt>
      <trkpt lat="46.15399" lon="-1.15247">
        <ele>4.2</ele>
        <time>2010-12-29T15:44:15Z</time>
      </trkpt>
      <trkpt lat="46.154" lon="-1.15248">
        <ele>4.3</ele>
        <time>2010-12-29T15:44:16Z</time>
      </trkpt>
      <trkpt lat="46.15401" lon="-1.15248">
        <ele>4.3</ele>
        <time>2010-12-29T15:44:17Z</time>
      </trkpt>
      <trkpt lat="46.15402" lon="-1.15249">
        <ele>4.4</ele>
        <time>2010-12-29T15:44:18Z</time>
      </trkpt>
      <trkpt lat="46.15403" lon="-1.15249">
        <ele>4.4</ele>
        <time>2010-12-29T15:44:19Z</time>
      </trkpt>
      <trkpt lat="46.15404" lon="-1.15249">
        <ele>4.5</ele>
        <time>2010-12-29T15:44:20Z</time>
      </trkpt>
      <trkpt lat="46.15405" lon="-1.15249">
        <ele>4.5</ele>
        <time>2010-12-29T15:44:21Z</time>
      </trkpt>
      <trkpt lat="46.15406" lon="-1.1525">
        <ele>4.6</ele>
        <time>2010-12-29T15:44:22Z</time>
      </trkpt>
      <trkpt lat="46.15407" lon="-1.1525">
        <ele>4.6</ele>
        <time>2010-12-29T15:44:23Z</time>
      </trkpt>
      <trkpt lat="46.15408" lon="-1.1525">
        <ele>4.7</ele>
        <time>2010-12-29T15:44:24Z</time>
      </trkpt>
      <trkpt lat="46.15409" lon="-1.1525">
        <ele>4.7</ele>
        <time>2010-12-29T15:44:25Z</time>
      </trkpt>
      <trkpt lat="46.1541" lon="-1.1525">
        <ele>4.7</ele>
        <time>2010-12-29T15:44:26Z</time>
      </trkpt>
      <trkpt lat="46.15411" lon="-1.1525">
        <ele>4.8</ele>
        <time>2010-12-29T15:44:27Z</time>
      </trkpt>
      <trkpt lat="46.15412" lon="-1.1525">
        <ele>4.8</ele>
        <time>2010-12-29T15:44:28Z</time>
      </trkpt>
      <trkpt lat="46.15413" lon="-1.1525">
        <ele>4.9</ele>
        <time>2010-12-29T15:44:29Z</time>
      </trkpt>
      <trkpt lat="46.15414" lon="-1.15251">
        <ele>4.9</ele>
        <time>2010-12-29T15:44:30Z</time>
      </trkpt>
      <trkpt lat="46.15416" lon="-1.15251">
        <ele>4.9</ele>
        <time>2010-12-29T15:44:31Z</time>
      </trkpt>
      <trkpt lat="46.15416" lon="-1.15252">
        <ele>4.9</ele>
        <time>2010-12-29T15:44:32Z</time>
      </trkpt>
      <trkpt lat="46.15418" lon="-1.15253">
        <ele>4.9</ele>
        <time>2010-12-29T15:44:33Z</time>
      </trkpt>
      <trkpt lat="46.15419" lon="-1.15253">
        <ele>4.9</ele>
        <time>2010-12-29T15:44:34Z</time>
      </trkpt>
      <trkpt lat="46.1542" lon="-1.15254">
        <ele>4.8</ele>
        <time>2010-12-29T15:44:35Z</time>
      </trkpt>
      <trkpt lat="46.15421" lon="-1.15255">
        <ele>4.8</ele>
        <time>2010-12-29T15:44:36Z</time>
      </trkpt>
      <trkpt lat="46.15422" lon="-1.15256">
        <ele>4.8</ele>
        <time>2010-12-29T15:44:37Z</time>
      </trkpt>
      <trkpt lat="46.15423" lon="-1.15256">
        <ele>4.8</ele>
        <time>2010-12-29T15:44:38Z</time>
      </trkpt>
      <trkpt lat="46.15424" lon="-1.15257">
        <ele>4.8</ele>
        <time>2010-12-29T15:44:39Z</time>
      </trkpt>
      <trkpt lat="46.15424" lon="-1.15257">
        <ele>4.7</ele>
        <time>2010-12-29T15:44:40Z</time>
      </trkpt>
      <trkpt lat="46.15426" lon="-1.15258">
        <ele>4.7</ele>
        <time>2010-12-29T15:44:41Z</time>
      </trkpt>
      <trkpt lat="46.15427" lon="-1.15259">
        <ele>4.7</ele>
        <time>2010-12-29T15:44:42Z</time>
      </trkpt>
      <trkpt lat="46.15427" lon="-1.15259">
        <ele>4.7</ele>
        <time>2010-12-29T15:44:43Z</time>
      </trkpt>
      <trkpt lat="46.15429" lon="-1.1526">
        <ele>4.7</ele>
        <time>2010-12-29T15:44:44Z</time>
      </trkpt>
      <trkpt lat="46.15429" lon="-1.1526">
        <ele>4.6</ele>
        <time>2010-12-29T15:44:45Z</time>
      </trkpt>
      <trkpt lat="46.15431" lon="-1.1526">
        <ele>4.6</ele>
        <time>2010-12-29T15:44:46Z</time>
      </trkpt>
      <trkpt lat="46.15432" lon="-1.15261">
        <ele>4.6</ele>
        <time>2010-12-29T15:44:47Z</time>
      </trkpt>
      <trkpt lat="46.15432" lon="-1.15261">
        <ele>4.6</ele>
        <time>2010-12-29T15:44:48Z</time>
      </trkpt>
      <trkpt lat="46.15434" lon="-1.15261">
        <ele>4.6</ele>
        <time>2010-12-29T15:44:49Z</time>
      </trkpt>
      <trkpt lat="46.15435" lon="-1.15261">
        <ele>4.6</ele>
        <time>2010-12-29T15:44:50Z</time>
      </trkpt>
      <trkpt lat="46.15436" lon="-1.15261">
        <ele>4.6</ele>
        <time>2010-12-29T15:44:51Z</time>
      </trkpt>
      <trkpt lat="46.15437" lon="-1.15261">
        <ele>4.6</ele>
        <time>2010-12-29T15:44:52Z</time>
      </trkpt>
      <trkpt lat="46.15437" lon="-1.15261">
        <ele>4.6</ele>
        <time>2010-12-29T15:44:53Z</time>
      </trkpt>
      <trkpt lat="46.15438" lon="-1.15261">
        <ele>4.6</ele>
        <time>2010-12-29T15:44:54Z</time>
      </trkpt>
      <trkpt lat="46.1544" lon="-1.15262">
        <ele>4.6</ele>
        <time>2010-12-29T15:45:01Z</time>
      </trkpt>
      <trkpt lat="46.15441" lon="-1.15263">
        <ele>4.5</ele>
        <time>2010-12-29T15:45:02Z</time>
      </trkpt>
      <trkpt lat="46.15442" lon="-1.15263">
        <ele>4.5</ele>
        <time>2010-12-29T15:45:03Z</time>
      </trkpt>
      <trkpt lat="46.15442" lon="-1.15262">
        <ele>4.6</ele>
        <time>2010-12-29T15:45:04Z</time>
      </trkpt>
      <trkpt lat="46.15443" lon="-1.15262">
        <ele>4.6</ele>
        <time>2010-12-29T15:45:05Z</time>
      </trkpt>
      <trkpt lat="46.15445" lon="-1.15262">
        <ele>4</ele>
        <time>2010-12-29T15:45:06Z</time>
      </trkpt>
      <trkpt lat="46.15446" lon="-1.15262">
        <ele>4</ele>
        <time>2010-12-29T15:45:07Z</time>
      </trkpt>
      <trkpt lat="46.15451" lon="-1.15262">
        <ele>4</ele>
        <time>2010-12-29T15:45:14Z</time>
      </trkpt>
      <trkpt lat="46.15456" lon="-1.15263">
        <ele>4</ele>
        <time>2010-12-29T15:45:18Z</time>
      </trkpt>
      <trkpt lat="46.15458" lon="-1.15263">
        <ele>4</ele>
        <time>2010-12-29T15:45:19Z</time>
      </trkpt>
      <trkpt lat="46.1546" lon="-1.15263">
        <ele>4</ele>
        <time>2010-12-29T15:45:20Z</time>
      </trkpt>
      <trkpt lat="46.15463" lon="-1.15264">
        <ele>4</ele>
        <time>2010-12-29T15:45:21Z</time>
      </trkpt>
      <trkpt lat="46.15465" lon="-1.15265">
        <ele>4</ele>
        <time>2010-12-29T15:45:22Z</time>
      </trkpt>
      <trkpt lat="46.15467" lon="-1.15265">
        <ele>4</ele>
        <time>2010-12-29T15:45:23Z</time>
      </trkpt>
      <trkpt lat="46.15469" lon="-1.15265">
        <ele>4</ele>
        <time>2010-12-29T15:45:24Z</time>
      </trkpt>
      <trkpt lat="46.15471" lon="-1.15265">
        <ele>4</ele>
        <time>2010-12-29T15:45:25Z</time>
      </trkpt>
      <trkpt lat="46.15472" lon="-1.15264">
        <ele>4</ele>
        <time>2010-12-29T15:45:26Z</time>
      </trkpt>
      <trkpt lat="46.15473" lon="-1.15263">
        <ele>4</ele>
        <time>2010-12-29T15:45:27Z</time>
      </trkpt>
      <trkpt lat="46.15475" lon="-1.15262">
        <ele>4</ele>
        <time>2010-12-29T15:45:28Z</time>
      </trkpt>
      <trkpt lat="46.15476" lon="-1.15261">
        <ele>4</ele>
        <time>2010-12-29T15:45:29Z</time>
      </trkpt>
      <trkpt lat="46.15477" lon="-1.1526">
        <ele>4</ele>
        <time>2010-12-29T15:45:30Z</time>
      </trkpt>
      <trkpt lat="46.15478" lon="-1.15259">
        <ele>4</ele>
        <time>2010-12-29T15:45:31Z</time>
      </trkpt>
      <trkpt lat="46.15479" lon="-1.15257">
        <ele>4</ele>
        <time>2010-12-29T15:45:32Z</time>
      </trkpt>
      <trkpt lat="46.1548" lon="-1.15256">
        <ele>4</ele>
        <time>2010-12-29T15:45:33Z</time>
      </trkpt>
      <trkpt lat="46.15481" lon="-1.15255">
        <ele>4</ele>
        <time>2010-12-29T15:45:34Z</time>
      </trkpt>
      <trkpt lat="46.15482" lon="-1.15253">
        <ele>4</ele>
        <time>2010-12-29T15:45:35Z</time>
      </trkpt>
      <trkpt lat="46.15483" lon="-1.15252">
        <ele>4</ele>
        <time>2010-12-29T15:45:36Z</time>
      </trkpt>
      <trkpt lat="46.15483" lon="-1.1525">
        <ele>4</ele>
        <time>2010-12-29T15:45:37Z</time>
      </trkpt>
      <trkpt lat="46.15484" lon="-1.15249">
        <ele>4</ele>
        <time>2010-12-29T15:45:38Z</time>
      </trkpt>
      <trkpt lat="46.15484" lon="-1.15247">
        <ele>4</ele>
        <time>2010-12-29T15:45:39Z</time>
      </trkpt>
      <trkpt lat="46.15484" lon="-1.15246">
        <ele>4</ele>
        <time>2010-12-29T15:45:40Z</time>
      </trkpt>
      <trkpt lat="46.15485" lon="-1.15243">
        <ele>4</ele>
        <time>2010-12-29T15:45:41Z</time>
      </trkpt>
      <trkpt lat="46.15486" lon="-1.15241">
        <ele>4</ele>
        <time>2010-12-29T15:45:42Z</time>
      </trkpt>
      <trkpt lat="46.15488" lon="-1.15241">
        <ele>4</ele>
        <time>2010-12-29T15:45:43Z</time>
      </trkpt>
      <trkpt lat="46.1549" lon="-1.1524">
        <ele>4</ele>
        <time>2010-12-29T15:45:44Z</time>
      </trkpt>
      <trkpt lat="46.15491" lon="-1.15241">
        <ele>4</ele>
        <time>2010-12-29T15:45:45Z</time>
      </trkpt>
      <trkpt lat="46.15493" lon="-1.15242">
        <ele>4</ele>
        <time>2010-12-29T15:45:46Z</time>
      </trkpt>
      <trkpt lat="46.15494" lon="-1.15242">
        <ele>4</ele>
        <time>2010-12-29T15:45:47Z</time>
      </trkpt>
      <trkpt lat="46.15495" lon="-1.15244">
        <ele>4</ele>
        <time>2010-12-29T15:45:48Z</time>
      </trkpt>
      <trkpt lat="46.15496" lon="-1.15245">
        <ele>4</ele>
        <time>2010-12-29T15:45:49Z</time>
      </trkpt>
      <trkpt lat="46.15496" lon="-1.15247">
        <ele>4</ele>
        <time>2010-12-29T15:45:50Z</time>
      </trkpt>
      <trkpt lat="46.15496" lon="-1.15248">
        <ele>4</ele>
        <time>2010-12-29T15:45:51Z</time>
      </trkpt>
      <trkpt lat="46.15496" lon="-1.15249">
        <ele>4</ele>
        <time>2010-12-29T15:45:52Z</time>
      </trkpt>
      <trkpt lat="46.15495" lon="-1.1525">
        <ele>4</ele>
        <time>2010-12-29T15:45:53Z</time>
      </trkpt>
      <trkpt lat="46.15495" lon="-1.15251">
        <ele>4</ele>
        <time>2010-12-29T15:45:54Z</time>
      </trkpt>
      <trkpt lat="46.15495" lon="-1.15253">
        <ele>4</ele>
        <time>2010-12-29T15:45:55Z</time>
      </trkpt>
      <trkpt lat="46.15495" lon="-1.15254">
        <ele>4</ele>
        <time>2010-12-29T15:45:56Z</time>
      </trkpt>
      <trkpt lat="46.15495" lon="-1.15256">
        <ele>4</ele>
        <time>2010-12-29T15:45:57Z</time>
      </trkpt>
      <trkpt lat="46.15496" lon="-1.15257">
        <ele>4</ele>
        <time>2010-12-29T15:45:58Z</time>
      </trkpt>
      <trkpt lat="46.15496" lon="-1.15258">
        <ele>4</ele>
        <time>2010-12-29T15:45:59Z</time>
      </trkpt>
      <trkpt lat="46.15497" lon="-1.15259">
        <ele>4</ele>
        <time>2010-12-29T15:46:00Z</time>
      </trkpt>
      <trkpt lat="46.15498" lon="-1.1526">
        <ele>4</ele>
        <time>2010-12-29T15:46:01Z</time>
      </trkpt>
      <trkpt lat="46.15499" lon="-1.15261">
        <ele>4</ele>
        <time>2010-12-29T15:46:02Z</time>
      </trkpt>
      <trkpt lat="46.155" lon="-1.15261">
        <ele>4</ele>
        <time>2010-12-29T15:46:03Z</time>
      </trkpt>
      <trkpt lat="46.15501" lon="-1.15261">
        <ele>4</ele>
        <time>2010-12-29T15:46:04Z</time>
      </trkpt>
      <trkpt lat="46.15502" lon="-1.15262">
        <ele>4</ele>
        <time>2010-12-29T15:46:05Z</time>
      </trkpt>
      <trkpt lat="46.15503" lon="-1.15263">
        <ele>4.1</ele>
        <time>2010-12-29T15:46:06Z</time>
      </trkpt>
      <trkpt lat="46.15504" lon="-1.15264">
        <ele>4.1</ele>
        <time>2010-12-29T15:46:07Z</time>
      </trkpt>
      <trkpt lat="46.15505" lon="-1.15264">
        <ele>4.1</ele>
        <time>2010-12-29T15:46:08Z</time>
      </trkpt>
      <trkpt lat="46.15506" lon="-1.15265">
        <ele>4.1</ele>
        <time>2010-12-29T15:46:09Z</time>
      </trkpt>
      <trkpt lat="46.15507" lon="-1.15265">
        <ele>4.1</ele>
        <time>2010-12-29T15:46:10Z</time>
      </trkpt>
      <trkpt lat="46.15507" lon="-1.15266">
        <ele>4.1</ele>
        <time>2010-12-29T15:46:11Z</time>
      </trkpt>
      <trkpt lat="46.15508" lon="-1.15266">
        <ele>4.1</ele>
        <time>2010-12-29T15:46:12Z</time>
      </trkpt>
      <trkpt lat="46.15508" lon="-1.15267">
        <ele>4.1</ele>
        <time>2010-12-29T15:46:13Z</time>
      </trkpt>
      <trkpt lat="46.15509" lon="-1.15268">
        <ele>4.1</ele>
        <time>2010-12-29T15:46:14Z</time>
      </trkpt>
      <trkpt lat="46.15509" lon="-1.15269">
        <ele>4.1</ele>
        <time>2010-12-29T15:46:15Z</time>
      </trkpt>
      <trkpt lat="46.1551" lon="-1.1527">
        <ele>4.1</ele>
        <time>2010-12-29T15:46:16Z</time>
      </trkpt>
      <trkpt lat="46.15511" lon="-1.15271">
        <ele>4.1</ele>
        <time>2010-12-29T15:46:17Z</time>
      </trkpt>
      <trkpt lat="46.15511" lon="-1.15272">
        <ele>4.1</ele>
        <time>2010-12-29T15:46:18Z</time>
      </trkpt>
      <trkpt lat="46.15512" lon="-1.15273">
        <ele>4.1</ele>
        <time>2010-12-29T15:46:19Z</time>
      </trkpt>
      <trkpt lat="46.15512" lon="-1.15275">
        <ele>4</ele>
        <time>2010-12-29T15:46:20Z</time>
      </trkpt>
      <trkpt lat="46.15512" lon="-1.15276">
        <ele>4</ele>
        <time>2010-12-29T15:46:21Z</time>
      </trkpt>
      <trkpt lat="46.15513" lon="-1.15278">
        <ele>4</ele>
        <time>2010-12-29T15:46:22Z</time>
      </trkpt>
      <trkpt lat="46.15513" lon="-1.15279">
        <ele>4</ele>
        <time>2010-12-29T15:46:23Z</time>
      </trkpt>
      <trkpt lat="46.15513" lon="-1.1528">
        <ele>4</ele>
        <time>2010-12-29T15:46:24Z</time>
      </trkpt>
      <trkpt lat="46.15514" lon="-1.15281">
        <ele>4.1</ele>
        <time>2010-12-29T15:46:25Z</time>
      </trkpt>
      <trkpt lat="46.15514" lon="-1.15283">
        <ele>4.1</ele>
        <time>2010-12-29T15:46:26Z</time>
      </trkpt>
      <trkpt lat="46.15514" lon="-1.15285">
        <ele>4.1</ele>
        <time>2010-12-29T15:46:27Z</time>
      </trkpt>
      <trkpt lat="46.15514" lon="-1.15287">
        <ele>4.2</ele>
        <time>2010-12-29T15:46:28Z</time>
      </trkpt>
      <trkpt lat="46.15514" lon="-1.15288">
        <ele>4.2</ele>
        <time>2010-12-29T15:46:29Z</time>
      </trkpt>
      <trkpt lat="46.15515" lon="-1.1529">
        <ele>4.2</ele>
        <time>2010-12-29T15:46:30Z</time>
      </trkpt>
      <trkpt lat="46.15515" lon="-1.15292">
        <ele>4.2</ele>
        <time>2010-12-29T15:46:31Z</time>
      </trkpt>
      <trkpt lat="46.15515" lon="-1.15294">
        <ele>4.3</ele>
        <time>2010-12-29T15:46:32Z</time>
      </trkpt>
      <trkpt lat="46.15516" lon="-1.15295">
        <ele>4.3</ele>
        <time>2010-12-29T15:46:33Z</time>
      </trkpt>
      <trkpt lat="46.15516" lon="-1.15297">
        <ele>4.3</ele>
        <time>2010-12-29T15:46:34Z</time>
      </trkpt>
      <trkpt lat="46.15516" lon="-1.15298">
        <ele>4.3</ele>
        <time>2010-12-29T15:46:35Z</time>
      </trkpt>
      <trkpt lat="46.15517" lon="-1.15299">
        <ele>4.3</ele>
        <time>2010-12-29T15:46:36Z</time>
      </trkpt>
      <trkpt lat="46.15517" lon="-1.15301">
        <ele>4.3</ele>
        <time>2010-12-29T15:46:37Z</time>
      </trkpt>
      <trkpt lat="46.15518" lon="-1.15302">
        <ele>4.3</ele>
        <time>2010-12-29T15:46:38Z</time>
      </trkpt>
      <trkpt lat="46.15519" lon="-1.15303">
        <ele>4.3</ele>
        <time>2010-12-29T15:46:39Z</time>
      </trkpt>
      <trkpt lat="46.15519" lon="-1.15304">
        <ele>4.3</ele>
        <time>2010-12-29T15:46:40Z</time>
      </trkpt>
      <trkpt lat="46.1552" lon="-1.15305">
        <ele>4.3</ele>
        <time>2010-12-29T15:46:41Z</time>
      </trkpt>
      <trkpt lat="46.15521" lon="-1.15306">
        <ele>4.2</ele>
        <time>2010-12-29T15:46:42Z</time>
      </trkpt>
      <trkpt lat="46.15522" lon="-1.15307">
        <ele>4</ele>
        <time>2010-12-29T15:46:43Z</time>
      </trkpt>
      <trkpt lat="46.15523" lon="-1.15308">
        <ele>3.9</ele>
        <time>2010-12-29T15:46:44Z</time>
      </trkpt>
      <trkpt lat="46.15524" lon="-1.15309">
        <ele>3.8</ele>
        <time>2010-12-29T15:46:45Z</time>
      </trkpt>
      <trkpt lat="46.15524" lon="-1.1531">
        <ele>3.7</ele>
        <time>2010-12-29T15:46:46Z</time>
      </trkpt>
      <trkpt lat="46.15525" lon="-1.1531">
        <ele>3.6</ele>
        <time>2010-12-29T15:46:47Z</time>
      </trkpt>
      <trkpt lat="46.15526" lon="-1.1531">
        <ele>3.6</ele>
        <time>2010-12-29T15:46:48Z</time>
      </trkpt>
      <trkpt lat="46.15527" lon="-1.1531">
        <ele>3.6</ele>
        <time>2010-12-29T15:46:49Z</time>
      </trkpt>
      <trkpt lat="46.15528" lon="-1.1531">
        <ele>3.6</ele>
        <time>2010-12-29T15:46:50Z</time>
      </trkpt>
      <trkpt lat="46.15529" lon="-1.1531">
        <ele>3.6</ele>
        <time>2010-12-29T15:46:51Z</time>
      </trkpt>
      <trkpt lat="46.1553" lon="-1.1531">
        <ele>3.5</ele>
        <time>2010-12-29T15:46:52Z</time>
      </trkpt>
      <trkpt lat="46.15531" lon="-1.15311">
        <ele>3.5</ele>
        <time>2010-12-29T15:46:53Z</time>
      </trkpt>
      <trkpt lat="46.15532" lon="-1.15311">
        <ele>3.4</ele>
        <time>2010-12-29T15:46:54Z</time>
      </trkpt>
      <trkpt lat="46.15533" lon="-1.15311">
        <ele>3.4</ele>
        <time>2010-12-29T15:46:55Z</time>
      </trkpt>
      <trkpt lat="46.15534" lon="-1.15312">
        <ele>3.3</ele>
        <time>2010-12-29T15:46:56Z</time>
      </trkpt>
      <trkpt lat="46.15535" lon="-1.15312">
        <ele>3.3</ele>
        <time>2010-12-29T15:46:57Z</time>
      </trkpt>
      <trkpt lat="46.15537" lon="-1.15313">
        <ele>3.2</ele>
        <time>2010-12-29T15:46:58Z</time>
      </trkpt>
      <trkpt lat="46.15538" lon="-1.15313">
        <ele>3.2</ele>
        <time>2010-12-29T15:46:59Z</time>
      </trkpt>
      <trkpt lat="46.1554" lon="-1.15313">
        <ele>3.2</ele>
        <time>2010-12-29T15:47:00Z</time>
      </trkpt>
      <trkpt lat="46.15541" lon="-1.15312">
        <ele>3.3</ele>
        <time>2010-12-29T15:47:01Z</time>
      </trkpt>
      <trkpt lat="46.15543" lon="-1.15311">
        <ele>3.4</ele>
        <time>2010-12-29T15:47:02Z</time>
      </trkpt>
      <trkpt lat="46.15544" lon="-1.15311">
        <ele>3.4</ele>
        <time>2010-12-29T15:47:03Z</time>
      </trkpt>
      <trkpt lat="46.15546" lon="-1.1531">
        <ele>3.5</ele>
        <time>2010-12-29T15:47:04Z</time>
      </trkpt>
      <trkpt lat="46.15547" lon="-1.1531">
        <ele>3.5</ele>
        <time>2010-12-29T15:47:05Z</time>
      </trkpt>
      <trkpt lat="46.15548" lon="-1.15309">
        <ele>3.6</ele>
        <time>2010-12-29T15:47:06Z</time>
      </trkpt>
      <trkpt lat="46.15549" lon="-1.15308">
        <ele>3.7</ele>
        <time>2010-12-29T15:47:07Z</time>
      </trkpt>
      <trkpt lat="46.15553" lon="-1.15306">
        <ele>3.9</ele>
        <time>2010-12-29T15:47:13Z</time>
      </trkpt>
      <trkpt lat="46.15554" lon="-1.15306">
        <ele>4</ele>
        <time>2010-12-29T15:47:15Z</time>
      </trkpt>
      <trkpt lat="46.15555" lon="-1.15306">
        <ele>4</ele>
        <time>2010-12-29T15:47:16Z</time>
      </trkpt>
      <trkpt lat="46.15556" lon="-1.15305">
        <ele>4</ele>
        <time>2010-12-29T15:47:17Z</time>
      </trkpt>
      <trkpt lat="46.15557" lon="-1.15304">
        <ele>4</ele>
        <time>2010-12-29T15:47:18Z</time>
      </trkpt>
      <trkpt lat="46.15558" lon="-1.15303">
        <ele>4</ele>
        <time>2010-12-29T15:47:19Z</time>
      </trkpt>
      <trkpt lat="46.15558" lon="-1.15302">
        <ele>4</ele>
        <time>2010-12-29T15:47:20Z</time>
      </trkpt>
      <trkpt lat="46.15559" lon="-1.15301">
        <ele>4</ele>
        <time>2010-12-29T15:47:21Z</time>
      </trkpt>
      <trkpt lat="46.1556" lon="-1.15299">
        <ele>4</ele>
        <time>2010-12-29T15:47:22Z</time>
      </trkpt>
      <trkpt lat="46.15561" lon="-1.15298">
        <ele>4</ele>
        <time>2010-12-29T15:47:23Z</time>
      </trkpt>
      <trkpt lat="46.15561" lon="-1.15297">
        <ele>4</ele>
        <time>2010-12-29T15:47:24Z</time>
      </trkpt>
      <trkpt lat="46.15562" lon="-1.15295">
        <ele>4</ele>
        <time>2010-12-29T15:47:25Z</time>
      </trkpt>
      <trkpt lat="46.15563" lon="-1.15294">
        <ele>4</ele>
        <time>2010-12-29T15:47:26Z</time>
      </trkpt>
      <trkpt lat="46.15564" lon="-1.15292">
        <ele>4</ele>
        <time>2010-12-29T15:47:27Z</time>
      </trkpt>
      <trkpt lat="46.15565" lon="-1.15291">
        <ele>4</ele>
        <time>2010-12-29T15:47:28Z</time>
      </trkpt>
      <trkpt lat="46.15566" lon="-1.15291">
        <ele>4</ele>
        <time>2010-12-29T15:47:29Z</time>
      </trkpt>
      <trkpt lat="46.15567" lon="-1.1529">
        <ele>4</ele>
        <time>2010-12-29T15:47:30Z</time>
      </trkpt>
      <trkpt lat="46.15568" lon="-1.15289">
        <ele>4</ele>
        <time>2010-12-29T15:47:31Z</time>
      </trkpt>
      <trkpt lat="46.15569" lon="-1.15288">
        <ele>4</ele>
        <time>2010-12-29T15:47:32Z</time>
      </trkpt>
      <trkpt lat="46.15569" lon="-1.15287">
        <ele>4</ele>
        <time>2010-12-29T15:47:33Z</time>
      </trkpt>
      <trkpt lat="46.1557" lon="-1.15286">
        <ele>4</ele>
        <time>2010-12-29T15:47:34Z</time>
      </trkpt>
      <trkpt lat="46.15572" lon="-1.15285">
        <ele>4</ele>
        <time>2010-12-29T15:47:36Z</time>
      </trkpt>
      <trkpt lat="46.15574" lon="-1.15285">
        <ele>4</ele>
        <time>2010-12-29T15:47:37Z</time>
      </trkpt>
      <trkpt lat="46.15574" lon="-1.15285">
        <ele>4</ele>
        <time>2010-12-29T15:47:38Z</time>
      </trkpt>
      <trkpt lat="46.15575" lon="-1.15285">
        <ele>4</ele>
        <time>2010-12-29T15:47:39Z</time>
      </trkpt>
      <trkpt lat="46.15577" lon="-1.15285">
        <ele>4</ele>
        <time>2010-12-29T15:47:40Z</time>
      </trkpt>
      <trkpt lat="46.15578" lon="-1.15285">
        <ele>4</ele>
        <time>2010-12-29T15:47:41Z</time>
      </trkpt>
      <trkpt lat="46.15579" lon="-1.15286">
        <ele>4</ele>
        <time>2010-12-29T15:47:42Z</time>
      </trkpt>
      <trkpt lat="46.1558" lon="-1.15286">
        <ele>4</ele>
        <time>2010-12-29T15:47:43Z</time>
      </trkpt>
      <trkpt lat="46.15581" lon="-1.15286">
        <ele>4</ele>
        <time>2010-12-29T15:47:44Z</time>
      </trkpt>
      <trkpt lat="46.15582" lon="-1.15287">
        <ele>4</ele>
        <time>2010-12-29T15:47:45Z</time>
      </trkpt>
      <trkpt lat="46.15582" lon="-1.15286">
        <ele>4</ele>
        <time>2010-12-29T15:47:46Z</time>
      </trkpt>
      <trkpt lat="46.15583" lon="-1.15286">
        <ele>4</ele>
        <time>2010-12-29T15:47:47Z</time>
      </trkpt>
      <trkpt lat="46.15583" lon="-1.15286">
        <ele>4</ele>
        <time>2010-12-29T15:47:48Z</time>
      </trkpt>
      <trkpt lat="46.15584" lon="-1.15286">
        <ele>4</ele>
        <time>2010-12-29T15:47:49Z</time>
      </trkpt>
      <trkpt lat="46.15585" lon="-1.15287">
        <ele>4</ele>
        <time>2010-12-29T15:47:50Z</time>
      </trkpt>
      <trkpt lat="46.15589" lon="-1.15284">
        <ele>4</ele>
        <time>2010-12-29T15:47:59Z</time>
      </trkpt>
      <trkpt lat="46.15589" lon="-1.15282">
        <ele>4</ele>
        <time>2010-12-29T15:48:00Z</time>
      </trkpt>
      <trkpt lat="46.1559" lon="-1.15281">
        <ele>4</ele>
        <time>2010-12-29T15:48:03Z</time>
      </trkpt>
      <trkpt lat="46.15591" lon="-1.1528">
        <ele>4</ele>
        <time>2010-12-29T15:48:04Z</time>
      </trkpt>
      <trkpt lat="46.15591" lon="-1.15279">
        <ele>4</ele>
        <time>2010-12-29T15:48:05Z</time>
      </trkpt>
      <trkpt lat="46.15592" lon="-1.15278">
        <ele>4</ele>
        <time>2010-12-29T15:48:06Z</time>
      </trkpt>
      <trkpt lat="46.15592" lon="-1.15277">
        <ele>4</ele>
        <time>2010-12-29T15:48:07Z</time>
      </trkpt>
      <trkpt lat="46.15593" lon="-1.15275">
        <ele>3.9</ele>
        <time>2010-12-29T15:48:08Z</time>
      </trkpt>
      <trkpt lat="46.15594" lon="-1.15273">
        <ele>3.9</ele>
        <time>2010-12-29T15:48:09Z</time>
      </trkpt>
      <trkpt lat="46.15594" lon="-1.15272">
        <ele>3.8</ele>
        <time>2010-12-29T15:48:10Z</time>
      </trkpt>
      <trkpt lat="46.15595" lon="-1.1527">
        <ele>3.8</ele>
        <time>2010-12-29T15:48:11Z</time>
      </trkpt>
      <trkpt lat="46.15596" lon="-1.15268">
        <ele>3.7</ele>
        <time>2010-12-29T15:48:12Z</time>
      </trkpt>
      <trkpt lat="46.15597" lon="-1.15267">
        <ele>3.6</ele>
        <time>2010-12-29T15:48:13Z</time>
      </trkpt>
      <trkpt lat="46.15598" lon="-1.15266">
        <ele>3.5</ele>
        <time>2010-12-29T15:48:14Z</time>
      </trkpt>
      <trkpt lat="46.15599" lon="-1.15265">
        <ele>3.5</ele>
        <time>2010-12-29T15:48:15Z</time>
      </trkpt>
      <trkpt lat="46.15599" lon="-1.15264">
        <ele>3.4</ele>
        <time>2010-12-29T15:48:16Z</time>
      </trkpt>
      <trkpt lat="46.156" lon="-1.15263">
        <ele>3.3</ele>
        <time>2010-12-29T15:48:17Z</time>
      </trkpt>
      <trkpt lat="46.15601" lon="-1.15262">
        <ele>3.3</ele>
        <time>2010-12-29T15:48:18Z</time>
      </trkpt>
      <trkpt lat="46.15601" lon="-1.15261">
        <ele>3.2</ele>
        <time>2010-12-29T15:48:19Z</time>
      </trkpt>
      <trkpt lat="46.15602" lon="-1.1526">
        <ele>3.1</ele>
        <time>2010-12-29T15:48:20Z</time>
      </trkpt>
      <trkpt lat="46.15603" lon="-1.15259">
        <ele>3.1</ele>
        <time>2010-12-29T15:48:21Z</time>
      </trkpt>
      <trkpt lat="46.15603" lon="-1.15258">
        <ele>3</ele>
        <time>2010-12-29T15:48:22Z</time>
      </trkpt>
      <trkpt lat="46.15604" lon="-1.15258">
        <ele>2.9</ele>
        <time>2010-12-29T15:48:23Z</time>
      </trkpt>
      <trkpt lat="46.15605" lon="-1.15257">
        <ele>2.8</ele>
        <time>2010-12-29T15:48:24Z</time>
      </trkpt>
      <trkpt lat="46.15606" lon="-1.15256">
        <ele>2.8</ele>
        <time>2010-12-29T15:48:25Z</time>
      </trkpt>
      <trkpt lat="46.15606" lon="-1.15255">
        <ele>2.7</ele>
        <time>2010-12-29T15:48:26Z</time>
      </trkpt>
      <trkpt lat="46.15608" lon="-1.15255">
        <ele>2.6</ele>
        <time>2010-12-29T15:48:27Z</time>
      </trkpt>
      <trkpt lat="46.15608" lon="-1.15254">
        <ele>2.5</ele>
        <time>2010-12-29T15:48:28Z</time>
      </trkpt>
      <trkpt lat="46.15609" lon="-1.15253">
        <ele>2.4</ele>
        <time>2010-12-29T15:48:29Z</time>
      </trkpt>
      <trkpt lat="46.15609" lon="-1.15252">
        <ele>2.3</ele>
        <time>2010-12-29T15:48:30Z</time>
      </trkpt>
      <trkpt lat="46.1561" lon="-1.15251">
        <ele>2.2</ele>
        <time>2010-12-29T15:48:31Z</time>
      </trkpt>
      <trkpt lat="46.15611" lon="-1.15251">
        <ele>2.1</ele>
        <time>2010-12-29T15:48:32Z</time>
      </trkpt>
      <trkpt lat="46.15611" lon="-1.1525">
        <ele>2</ele>
        <time>2010-12-29T15:48:33Z</time>
      </trkpt>
      <trkpt lat="46.15611" lon="-1.1525">
        <ele>2</ele>
        <time>2010-12-29T15:48:34Z</time>
      </trkpt>
      <trkpt lat="46.15612" lon="-1.15249">
        <ele>2.1</ele>
        <time>2010-12-29T15:48:35Z</time>
      </trkpt>
      <trkpt lat="46.15613" lon="-1.15248">
        <ele>2.1</ele>
        <time>2010-12-29T15:48:36Z</time>
      </trkpt>
      <trkpt lat="46.15614" lon="-1.15248">
        <ele>2.2</ele>
        <time>2010-12-29T15:48:37Z</time>
      </trkpt>
      <trkpt lat="46.15614" lon="-1.15247">
        <ele>2.2</ele>
        <time>2010-12-29T15:48:38Z</time>
      </trkpt>
      <trkpt lat="46.15616" lon="-1.15246">
        <ele>2.3</ele>
        <time>2010-12-29T15:48:39Z</time>
      </trkpt>
      <trkpt lat="46.15617" lon="-1.15245">
        <ele>2.4</ele>
        <time>2010-12-29T15:48:40Z</time>
      </trkpt>
      <trkpt lat="46.15617" lon="-1.15244">
        <ele>2.4</ele>
        <time>2010-12-29T15:48:41Z</time>
      </trkpt>
      <trkpt lat="46.15619" lon="-1.15243">
        <ele>2.5</ele>
        <time>2010-12-29T15:48:42Z</time>
      </trkpt>
      <trkpt lat="46.15619" lon="-1.15242">
        <ele>2.6</ele>
        <time>2010-12-29T15:48:43Z</time>
      </trkpt>
      <trkpt lat="46.1562" lon="-1.15241">
        <ele>2.6</ele>
        <time>2010-12-29T15:48:44Z</time>
      </trkpt>
      <trkpt lat="46.15621" lon="-1.1524">
        <ele>2.7</ele>
        <time>2010-12-29T15:48:45Z</time>
      </trkpt>
      <trkpt lat="46.15622" lon="-1.15239">
        <ele>2.8</ele>
        <time>2010-12-29T15:48:46Z</time>
      </trkpt>
      <trkpt lat="46.15622" lon="-1.15238">
        <ele>2.8</ele>
        <time>2010-12-29T15:48:47Z</time>
      </trkpt>
      <trkpt lat="46.15623" lon="-1.15237">
        <ele>3</ele>
        <time>2010-12-29T15:48:48Z</time>
      </trkpt>
      <trkpt lat="46.15624" lon="-1.15236">
        <ele>3</ele>
        <time>2010-12-29T15:48:49Z</time>
      </trkpt>
      <trkpt lat="46.15624" lon="-1.15234">
        <ele>3.2</ele>
        <time>2010-12-29T15:48:50Z</time>
      </trkpt>
      <trkpt lat="46.15625" lon="-1.15232">
        <ele>3.3</ele>
        <time>2010-12-29T15:48:51Z</time>
      </trkpt>
      <trkpt lat="46.15625" lon="-1.15231">
        <ele>3.4</ele>
        <time>2010-12-29T15:48:52Z</time>
      </trkpt>
      <trkpt lat="46.15625" lon="-1.1523">
        <ele>3.5</ele>
        <time>2010-12-29T15:48:53Z</time>
      </trkpt>
      <trkpt lat="46.15625" lon="-1.15228">
        <ele>3.6</ele>
        <time>2010-12-29T15:48:54Z</time>
      </trkpt>
      <trkpt lat="46.15626" lon="-1.15227">
        <ele>3.7</ele>
        <time>2010-12-29T15:48:55Z</time>
      </trkpt>
      <trkpt lat="46.15626" lon="-1.15225">
        <ele>3.8</ele>
        <time>2010-12-29T15:48:56Z</time>
      </trkpt>
      <trkpt lat="46.15626" lon="-1.15223">
        <ele>3.9</ele>
        <time>2010-12-29T15:48:57Z</time>
      </trkpt>
      <trkpt lat="46.15626" lon="-1.15221">
        <ele>4</ele>
        <time>2010-12-29T15:48:58Z</time>
      </trkpt>
      <trkpt lat="46.15627" lon="-1.1522">
        <ele>3.8</ele>
        <time>2010-12-29T15:48:59Z</time>
      </trkpt>
      <trkpt lat="46.15627" lon="-1.15218">
        <ele>3.8</ele>
        <time>2010-12-29T15:49:00Z</time>
      </trkpt>
      <trkpt lat="46.15627" lon="-1.15214">
        <ele>3.5</ele>
        <time>2010-12-29T15:49:03Z</time>
      </trkpt>
      <trkpt lat="46.15627" lon="-1.15213">
        <ele>3.4</ele>
        <time>2010-12-29T15:49:04Z</time>
      </trkpt>
      <trkpt lat="46.15627" lon="-1.15212">
        <ele>3.3</ele>
        <time>2010-12-29T15:49:05Z</time>
      </trkpt>
      <trkpt lat="46.15627" lon="-1.1521">
        <ele>3.2</ele>
        <time>2010-12-29T15:49:06Z</time>
      </trkpt>
      <trkpt lat="46.15628" lon="-1.15209">
        <ele>3.1</ele>
        <time>2010-12-29T15:49:07Z</time>
      </trkpt>
      <trkpt lat="46.15628" lon="-1.15207">
        <ele>3</ele>
        <time>2010-12-29T15:49:08Z</time>
      </trkpt>
      <trkpt lat="46.15628" lon="-1.15206">
        <ele>2.9</ele>
        <time>2010-12-29T15:49:09Z</time>
      </trkpt>
      <trkpt lat="46.15629" lon="-1.15203">
        <ele>2.7</ele>
        <time>2010-12-29T15:49:10Z</time>
      </trkpt>
      <trkpt lat="46.15629" lon="-1.15202">
        <ele>2.5</ele>
        <time>2010-12-29T15:49:11Z</time>
      </trkpt>
      <trkpt lat="46.1563" lon="-1.152">
        <ele>2.4</ele>
        <time>2010-12-29T15:49:12Z</time>
      </trkpt>
      <trkpt lat="46.1563" lon="-1.15199">
        <ele>2.3</ele>
        <time>2010-12-29T15:49:13Z</time>
      </trkpt>
      <trkpt lat="46.1563" lon="-1.15197">
        <ele>2.2</ele>
        <time>2010-12-29T15:49:14Z</time>
      </trkpt>
      <trkpt lat="46.1563" lon="-1.15196">
        <ele>2.1</ele>
        <time>2010-12-29T15:49:15Z</time>
      </trkpt>
      <trkpt lat="46.1563" lon="-1.15195">
        <ele>2</ele>
        <time>2010-12-29T15:49:16Z</time>
      </trkpt>
      <trkpt lat="46.1563" lon="-1.15193">
        <ele>1.9</ele>
        <time>2010-12-29T15:49:17Z</time>
      </trkpt>
      <trkpt lat="46.1563" lon="-1.15192">
        <ele>2</ele>
        <time>2010-12-29T15:49:18Z</time>
      </trkpt>
      <trkpt lat="46.1563" lon="-1.15191">
        <ele>2</ele>
        <time>2010-12-29T15:49:19Z</time>
      </trkpt>
      <trkpt lat="46.1563" lon="-1.1519">
        <ele>2</ele>
        <time>2010-12-29T15:49:20Z</time>
      </trkpt>
      <trkpt lat="46.1563" lon="-1.15189">
        <ele>1.9</ele>
        <time>2010-12-29T15:49:21Z</time>
      </trkpt>
      <trkpt lat="46.15629" lon="-1.15188">
        <ele>2</ele>
        <time>2010-12-29T15:49:22Z</time>
      </trkpt>
      <trkpt lat="46.15629" lon="-1.15187">
        <ele>2</ele>
        <time>2010-12-29T15:49:23Z</time>
      </trkpt>
      <trkpt lat="46.1563" lon="-1.15186">
        <ele>1.9</ele>
        <time>2010-12-29T15:49:24Z</time>
      </trkpt>
      <trkpt lat="46.1563" lon="-1.15185">
        <ele>1.9</ele>
        <time>2010-12-29T15:49:25Z</time>
      </trkpt>
      <trkpt lat="46.15631" lon="-1.15185">
        <ele>1.8</ele>
        <time>2010-12-29T15:49:26Z</time>
      </trkpt>
      <trkpt lat="46.15632" lon="-1.15184">
        <ele>1.7</ele>
        <time>2010-12-29T15:49:27Z</time>
      </trkpt>
      <trkpt lat="46.15632" lon="-1.15184">
        <ele>1.6</ele>
        <time>2010-12-29T15:49:28Z</time>
      </trkpt>
      <trkpt lat="46.15633" lon="-1.15184">
        <ele>1.6</ele>
        <time>2010-12-29T15:49:29Z</time>
      </trkpt>
      <trkpt lat="46.15634" lon="-1.15185">
        <ele>1.5</ele>
        <time>2010-12-29T15:49:30Z</time>
      </trkpt>
      <trkpt lat="46.15635" lon="-1.15185">
        <ele>1.4</ele>
        <time>2010-12-29T15:49:31Z</time>
      </trkpt>
      <trkpt lat="46.15636" lon="-1.15185">
        <ele>1.3</ele>
        <time>2010-12-29T15:49:32Z</time>
      </trkpt>
      <trkpt lat="46.15638" lon="-1.15184">
        <ele>1.1</ele>
        <time>2010-12-29T15:49:33Z</time>
      </trkpt>
      <trkpt lat="46.15639" lon="-1.15184">
        <ele>1</ele>
        <time>2010-12-29T15:49:34Z</time>
      </trkpt>
      <trkpt lat="46.1564" lon="-1.15184">
        <ele>1</ele>
        <time>2010-12-29T15:49:35Z</time>
      </trkpt>
      <trkpt lat="46.15641" lon="-1.15184">
        <ele>1.1</ele>
        <time>2010-12-29T15:49:36Z</time>
      </trkpt>
      <trkpt lat="46.15642" lon="-1.15184">
        <ele>1.2</ele>
        <time>2010-12-29T15:49:37Z</time>
      </trkpt>
      <trkpt lat="46.15643" lon="-1.15184">
        <ele>1.2</ele>
        <time>2010-12-29T15:49:38Z</time>
      </trkpt>
      <trkpt lat="46.15644" lon="-1.15185">
        <ele>1.2</ele>
        <time>2010-12-29T15:49:39Z</time>
      </trkpt>
      <trkpt lat="46.15645" lon="-1.15185">
        <ele>1.3</ele>
        <time>2010-12-29T15:49:40Z</time>
      </trkpt>
      <trkpt lat="46.15646" lon="-1.15185">
        <ele>1.3</ele>
        <time>2010-12-29T15:49:41Z</time>
      </trkpt>
      <trkpt lat="46.15647" lon="-1.15185">
        <ele>1.4</ele>
        <time>2010-12-29T15:49:42Z</time>
      </trkpt>
      <trkpt lat="46.15648" lon="-1.15185">
        <ele>1.4</ele>
        <time>2010-12-29T15:49:43Z</time>
      </trkpt>
      <trkpt lat="46.15649" lon="-1.15185">
        <ele>1.5</ele>
        <time>2010-12-29T15:49:44Z</time>
      </trkpt>
      <trkpt lat="46.1565" lon="-1.15184">
        <ele>1.5</ele>
        <time>2010-12-29T15:49:45Z</time>
      </trkpt>
      <trkpt lat="46.15651" lon="-1.15183">
        <ele>1.6</ele>
        <time>2010-12-29T15:49:46Z</time>
      </trkpt>
      <trkpt lat="46.15651" lon="-1.15182">
        <ele>1.7</ele>
        <time>2010-12-29T15:49:47Z</time>
      </trkpt>
      <trkpt lat="46.15653" lon="-1.15181">
        <ele>1.7</ele>
        <time>2010-12-29T15:49:48Z</time>
      </trkpt>
      <trkpt lat="46.15653" lon="-1.1518">
        <ele>1.8</ele>
        <time>2010-12-29T15:49:49Z</time>
      </trkpt>
      <trkpt lat="46.15654" lon="-1.15179">
        <ele>1.9</ele>
        <time>2010-12-29T15:49:50Z</time>
      </trkpt>
      <trkpt lat="46.15655" lon="-1.15178">
        <ele>1.9</ele>
        <time>2010-12-29T15:49:51Z</time>
      </trkpt>
      <trkpt lat="46.15656" lon="-1.15177">
        <ele>2</ele>
        <time>2010-12-29T15:49:52Z</time>
      </trkpt>
      <trkpt lat="46.15657" lon="-1.15177">
        <ele>2</ele>
        <time>2010-12-29T15:49:53Z</time>
      </trkpt>
      <trkpt lat="46.15657" lon="-1.15178">
        <ele>2.1</ele>
        <time>2010-12-29T15:49:54Z</time>
      </trkpt>
      <trkpt lat="46.15658" lon="-1.15178">
        <ele>2.1</ele>
        <time>2010-12-29T15:49:55Z</time>
      </trkpt>
      <trkpt lat="46.15659" lon="-1.15177">
        <ele>2.2</ele>
        <time>2010-12-29T15:49:56Z</time>
      </trkpt>
      <trkpt lat="46.1566" lon="-1.15177">
        <ele>2.2</ele>
        <time>2010-12-29T15:49:57Z</time>
      </trkpt>
      <trkpt lat="46.15661" lon="-1.15176">
        <ele>2.3</ele>
        <time>2010-12-29T15:49:58Z</time>
      </trkpt>
      <trkpt lat="46.15661" lon="-1.15176">
        <ele>2.3</ele>
        <time>2010-12-29T15:49:59Z</time>
      </trkpt>
      <trkpt lat="46.15662" lon="-1.15176">
        <ele>2.4</ele>
        <time>2010-12-29T15:50:00Z</time>
      </trkpt>
      <trkpt lat="46.15664" lon="-1.15176">
        <ele>2.5</ele>
        <time>2010-12-29T15:50:01Z</time>
      </trkpt>
      <trkpt lat="46.15665" lon="-1.15176">
        <ele>2.6</ele>
        <time>2010-12-29T15:50:02Z</time>
      </trkpt>
      <trkpt lat="46.15666" lon="-1.15176">
        <ele>2.6</ele>
        <time>2010-12-29T15:50:03Z</time>
      </trkpt>
      <trkpt lat="46.15667" lon="-1.15175">
        <ele>2.7</ele>
        <time>2010-12-29T15:50:04Z</time>
      </trkpt>
      <trkpt lat="46.15669" lon="-1.15176">
        <ele>2.7</ele>
        <time>2010-12-29T15:50:05Z</time>
      </trkpt>
      <trkpt lat="46.1567" lon="-1.15176">
        <ele>2.7</ele>
        <time>2010-12-29T15:50:06Z</time>
      </trkpt>
      <trkpt lat="46.15671" lon="-1.15176">
        <ele>2.7</ele>
        <time>2010-12-29T15:50:07Z</time>
      </trkpt>
      <trkpt lat="46.15672" lon="-1.15175">
        <ele>2.7</ele>
        <time>2010-12-29T15:50:08Z</time>
      </trkpt>
      <trkpt lat="46.15673" lon="-1.15175">
        <ele>2.7</ele>
        <time>2010-12-29T15:50:09Z</time>
      </trkpt>
      <trkpt lat="46.15674" lon="-1.15174">
        <ele>2.7</ele>
        <time>2010-12-29T15:50:10Z</time>
      </trkpt>
      <trkpt lat="46.15675" lon="-1.15173">
        <ele>2.8</ele>
        <time>2010-12-29T15:50:11Z</time>
      </trkpt>
      <trkpt lat="46.15676" lon="-1.15173">
        <ele>2.8</ele>
        <time>2010-12-29T15:50:12Z</time>
      </trkpt>
      <trkpt lat="46.15677" lon="-1.15172">
        <ele>2.8</ele>
        <time>2010-12-29T15:50:13Z</time>
      </trkpt>
      <trkpt lat="46.15677" lon="-1.15172">
        <ele>2.8</ele>
        <time>2010-12-29T15:50:14Z</time>
      </trkpt>
      <trkpt lat="46.15678" lon="-1.15172">
        <ele>2.8</ele>
        <time>2010-12-29T15:50:15Z</time>
      </trkpt>
      <trkpt lat="46.15679" lon="-1.15171">
        <ele>2.8</ele>
        <time>2010-12-29T15:50:16Z</time>
      </trkpt>
      <trkpt lat="46.1568" lon="-1.15171">
        <ele>2.8</ele>
        <time>2010-12-29T15:50:17Z</time>
      </trkpt>
      <trkpt lat="46.15681" lon="-1.15171">
        <ele>2.8</ele>
        <time>2010-12-29T15:50:18Z</time>
      </trkpt>
      <trkpt lat="46.15681" lon="-1.15171">
        <ele>2.9</ele>
        <time>2010-12-29T15:50:19Z</time>
      </trkpt>
      <trkpt lat="46.15682" lon="-1.1517">
        <ele>2.9</ele>
        <time>2010-12-29T15:50:20Z</time>
      </trkpt>
      <trkpt lat="46.15683" lon="-1.15171">
        <ele>2.9</ele>
        <time>2010-12-29T15:50:21Z</time>
      </trkpt>
      <trkpt lat="46.15684" lon="-1.1517">
        <ele>2.9</ele>
        <time>2010-12-29T15:50:22Z</time>
      </trkpt>
      <trkpt lat="46.15685" lon="-1.1517">
        <ele>2.9</ele>
        <time>2010-12-29T15:50:23Z</time>
      </trkpt>
      <trkpt lat="46.15686" lon="-1.15169">
        <ele>2.9</ele>
        <time>2010-12-29T15:50:24Z</time>
      </trkpt>
      <trkpt lat="46.15686" lon="-1.15168">
        <ele>3</ele>
        <time>2010-12-29T15:50:25Z</time>
      </trkpt>
      <trkpt lat="46.15686" lon="-1.15166">
        <ele>3</ele>
        <time>2010-12-29T15:50:26Z</time>
      </trkpt>
      <trkpt lat="46.15687" lon="-1.15164">
        <ele>2.9</ele>
        <time>2010-12-29T15:50:27Z</time>
      </trkpt>
      <trkpt lat="46.15688" lon="-1.15164">
        <ele>2.9</ele>
        <time>2010-12-29T15:50:28Z</time>
      </trkpt>
      <trkpt lat="46.15689" lon="-1.15164">
        <ele>2.9</ele>
        <time>2010-12-29T15:50:29Z</time>
      </trkpt>
      <trkpt lat="46.15689" lon="-1.15164">
        <ele>2.9</ele>
        <time>2010-12-29T15:50:30Z</time>
      </trkpt>
      <trkpt lat="46.1569" lon="-1.15163">
        <ele>2.9</ele>
        <time>2010-12-29T15:50:31Z</time>
      </trkpt>
      <trkpt lat="46.1569" lon="-1.15162">
        <ele>2.8</ele>
        <time>2010-12-29T15:50:32Z</time>
      </trkpt>
      <trkpt lat="46.15691" lon="-1.15161">
        <ele>2.8</ele>
        <time>2010-12-29T15:50:33Z</time>
      </trkpt>
      <trkpt lat="46.15691" lon="-1.1516">
        <ele>2.8</ele>
        <time>2010-12-29T15:50:34Z</time>
      </trkpt>
      <trkpt lat="46.15691" lon="-1.15159">
        <ele>2.7</ele>
        <time>2010-12-29T15:50:35Z</time>
      </trkpt>
      <trkpt lat="46.15692" lon="-1.15158">
        <ele>2.7</ele>
        <time>2010-12-29T15:50:36Z</time>
      </trkpt>
      <trkpt lat="46.15693" lon="-1.15158">
        <ele>2.7</ele>
        <time>2010-12-29T15:50:37Z</time>
      </trkpt>
      <trkpt lat="46.15694" lon="-1.15158">
        <ele>2.7</ele>
        <time>2010-12-29T15:50:38Z</time>
      </trkpt>
      <trkpt lat="46.15696" lon="-1.15157">
        <ele>2.7</ele>
        <time>2010-12-29T15:50:39Z</time>
      </trkpt>
      <trkpt lat="46.15697" lon="-1.15157">
        <ele>2.6</ele>
        <time>2010-12-29T15:50:40Z</time>
      </trkpt>
      <trkpt lat="46.15698" lon="-1.15156">
        <ele>2.6</ele>
        <time>2010-12-29T15:50:41Z</time>
      </trkpt>
      <trkpt lat="46.15699" lon="-1.15155">
        <ele>2.6</ele>
        <time>2010-12-29T15:50:42Z</time>
      </trkpt>
      <trkpt lat="46.15701" lon="-1.15155">
        <ele>2.6</ele>
        <time>2010-12-29T15:50:43Z</time>
      </trkpt>
      <trkpt lat="46.15701" lon="-1.15154">
        <ele>2.5</ele>
        <time>2010-12-29T15:50:44Z</time>
      </trkpt>
      <trkpt lat="46.15702" lon="-1.15153">
        <ele>2.5</ele>
        <time>2010-12-29T15:50:45Z</time>
      </trkpt>
      <trkpt lat="46.15703" lon="-1.15152">
        <ele>2.5</ele>
        <time>2010-12-29T15:50:46Z</time>
      </trkpt>
      <trkpt lat="46.15704" lon="-1.1515">
        <ele>2.4</ele>
        <time>2010-12-29T15:50:47Z</time>
      </trkpt>
      <trkpt lat="46.15705" lon="-1.15148">
        <ele>2.3</ele>
        <time>2010-12-29T15:50:48Z</time>
      </trkpt>
      <trkpt lat="46.15707" lon="-1.15147">
        <ele>2.3</ele>
        <time>2010-12-29T15:50:49Z</time>
      </trkpt>
      <trkpt lat="46.15707" lon="-1.15144">
        <ele>2.2</ele>
        <time>2010-12-29T15:50:50Z</time>
      </trkpt>
      <trkpt lat="46.15708" lon="-1.15142">
        <ele>2.1</ele>
        <time>2010-12-29T15:50:51Z</time>
      </trkpt>
      <trkpt lat="46.15709" lon="-1.15141">
        <ele>2.1</ele>
        <time>2010-12-29T15:50:52Z</time>
      </trkpt>
      <trkpt lat="46.1571" lon="-1.15139">
        <ele>2</ele>
        <time>2010-12-29T15:50:53Z</time>
      </trkpt>
      <trkpt lat="46.15711" lon="-1.15138">
        <ele>2.1</ele>
        <time>2010-12-29T15:50:54Z</time>
      </trkpt>
      <trkpt lat="46.15712" lon="-1.15137">
        <ele>2.2</ele>
        <time>2010-12-29T15:50:55Z</time>
      </trkpt>
      <trkpt lat="46.15713" lon="-1.15136">
        <ele>2.2</ele>
        <time>2010-12-29T15:50:56Z</time>
      </trkpt>
      <trkpt lat="46.15714" lon="-1.15135">
        <ele>2.3</ele>
        <time>2010-12-29T15:50:57Z</time>
      </trkpt>
      <trkpt lat="46.15714" lon="-1.15134">
        <ele>2.4</ele>
        <time>2010-12-29T15:50:58Z</time>
      </trkpt>
      <trkpt lat="46.15715" lon="-1.15133">
        <ele>2.4</ele>
        <time>2010-12-29T15:50:59Z</time>
      </trkpt>
      <trkpt lat="46.15715" lon="-1.15132">
        <ele>2.5</ele>
        <time>2010-12-29T15:51:00Z</time>
      </trkpt>
      <trkpt lat="46.15716" lon="-1.15131">
        <ele>2.6</ele>
        <time>2010-12-29T15:51:01Z</time>
      </trkpt>
      <trkpt lat="46.15717" lon="-1.1513">
        <ele>2.6</ele>
        <time>2010-12-29T15:51:02Z</time>
      </trkpt>
      <trkpt lat="46.15718" lon="-1.1513">
        <ele>2.7</ele>
        <time>2010-12-29T15:51:03Z</time>
      </trkpt>
      <trkpt lat="46.15719" lon="-1.15129">
        <ele>2.7</ele>
        <time>2010-12-29T15:51:04Z</time>
      </trkpt>
      <trkpt lat="46.1572" lon="-1.15128">
        <ele>2.8</ele>
        <time>2010-12-29T15:51:05Z</time>
      </trkpt>
      <trkpt lat="46.15721" lon="-1.15128">
        <ele>2.8</ele>
        <time>2010-12-29T15:51:06Z</time>
      </trkpt>
      <trkpt lat="46.15722" lon="-1.15127">
        <ele>2.9</ele>
        <time>2010-12-29T15:51:07Z</time>
      </trkpt>
      <trkpt lat="46.15723" lon="-1.15126">
        <ele>2.9</ele>
        <time>2010-12-29T15:51:08Z</time>
      </trkpt>
      <trkpt lat="46.15724" lon="-1.15126">
        <ele>2.9</ele>
        <time>2010-12-29T15:51:09Z</time>
      </trkpt>
      <trkpt lat="46.15725" lon="-1.15125">
        <ele>3</ele>
        <time>2010-12-29T15:51:10Z</time>
      </trkpt>
      <trkpt lat="46.15725" lon="-1.15124">
        <ele>3</ele>
        <time>2010-12-29T15:51:11Z</time>
      </trkpt>
      <trkpt lat="46.15726" lon="-1.15123">
        <ele>3.1</ele>
        <time>2010-12-29T15:51:12Z</time>
      </trkpt>
      <trkpt lat="46.15726" lon="-1.15122">
        <ele>3.2</ele>
        <time>2010-12-29T15:51:13Z</time>
      </trkpt>
      <trkpt lat="46.15727" lon="-1.15121">
        <ele>3.2</ele>
        <time>2010-12-29T15:51:14Z</time>
      </trkpt>
      <trkpt lat="46.15728" lon="-1.1512">
        <ele>3.3</ele>
        <time>2010-12-29T15:51:15Z</time>
      </trkpt>
      <trkpt lat="46.15728" lon="-1.15119">
        <ele>3.3</ele>
        <time>2010-12-29T15:51:16Z</time>
      </trkpt>
      <trkpt lat="46.15729" lon="-1.15118">
        <ele>3.3</ele>
        <time>2010-12-29T15:51:17Z</time>
      </trkpt>
      <trkpt lat="46.1573" lon="-1.15118">
        <ele>3.3</ele>
        <time>2010-12-29T15:51:18Z</time>
      </trkpt>
      <trkpt lat="46.1573" lon="-1.15117">
        <ele>3.3</ele>
        <time>2010-12-29T15:51:19Z</time>
      </trkpt>
      <trkpt lat="46.15731" lon="-1.15117">
        <ele>3.3</ele>
        <time>2010-12-29T15:51:20Z</time>
      </trkpt>
      <trkpt lat="46.15732" lon="-1.15116">
        <ele>3.3</ele>
        <time>2010-12-29T15:51:21Z</time>
      </trkpt>
      <trkpt lat="46.15733" lon="-1.15116">
        <ele>3.3</ele>
        <time>2010-12-29T15:51:22Z</time>
      </trkpt>
      <trkpt lat="46.15734" lon="-1.15115">
        <ele>3.3</ele>
        <time>2010-12-29T15:51:23Z</time>
      </trkpt>
      <trkpt lat="46.15734" lon="-1.15115">
        <ele>3.4</ele>
        <time>2010-12-29T15:51:24Z</time>
      </trkpt>
      <trkpt lat="46.15735" lon="-1.15114">
        <ele>3.4</ele>
        <time>2010-12-29T15:51:25Z</time>
      </trkpt>
      <trkpt lat="46.15736" lon="-1.15113">
        <ele>3.4</ele>
        <time>2010-12-29T15:51:26Z</time>
      </trkpt>
      <trkpt lat="46.15737" lon="-1.15113">
        <ele>3.4</ele>
        <time>2010-12-29T15:51:27Z</time>
      </trkpt>
      <trkpt lat="46.15738" lon="-1.15112">
        <ele>3.4</ele>
        <time>2010-12-29T15:51:28Z</time>
      </trkpt>
      <trkpt lat="46.1574" lon="-1.15111">
        <ele>3.4</ele>
        <time>2010-12-29T15:51:29Z</time>
      </trkpt>
      <trkpt lat="46.15741" lon="-1.15111">
        <ele>3.3</ele>
        <time>2010-12-29T15:51:30Z</time>
      </trkpt>
      <trkpt lat="46.15742" lon="-1.1511">
        <ele>3.3</ele>
        <time>2010-12-29T15:51:31Z</time>
      </trkpt>
      <trkpt lat="46.15744" lon="-1.1511">
        <ele>3.3</ele>
        <time>2010-12-29T15:51:32Z</time>
      </trkpt>
      <trkpt lat="46.15745" lon="-1.15109">
        <ele>3.2</ele>
        <time>2010-12-29T15:51:33Z</time>
      </trkpt>
      <trkpt lat="46.15746" lon="-1.15109">
        <ele>3.2</ele>
        <time>2010-12-29T15:51:34Z</time>
      </trkpt>
      <trkpt lat="46.15747" lon="-1.15109">
        <ele>3.2</ele>
        <time>2010-12-29T15:51:35Z</time>
      </trkpt>
      <trkpt lat="46.15748" lon="-1.15108">
        <ele>3.2</ele>
        <time>2010-12-29T15:51:36Z</time>
      </trkpt>
      <trkpt lat="46.15749" lon="-1.15107">
        <ele>3.2</ele>
        <time>2010-12-29T15:51:37Z</time>
      </trkpt>
      <trkpt lat="46.15749" lon="-1.15106">
        <ele>3.2</ele>
        <time>2010-12-29T15:51:38Z</time>
      </trkpt>
      <trkpt lat="46.1575" lon="-1.15105">
        <ele>3.2</ele>
        <time>2010-12-29T15:51:39Z</time>
      </trkpt>
      <trkpt lat="46.15751" lon="-1.15104">
        <ele>3.2</ele>
        <time>2010-12-29T15:51:40Z</time>
      </trkpt>
      <trkpt lat="46.15751" lon="-1.15103">
        <ele>3.3</ele>
        <time>2010-12-29T15:51:41Z</time>
      </trkpt>
      <trkpt lat="46.15752" lon="-1.15103">
        <ele>3.3</ele>
        <time>2010-12-29T15:51:42Z</time>
      </trkpt>
      <trkpt lat="46.15752" lon="-1.15102">
        <ele>3.3</ele>
        <time>2010-12-29T15:51:43Z</time>
      </trkpt>
      <trkpt lat="46.15753" lon="-1.15101">
        <ele>3.3</ele>
        <time>2010-12-29T15:51:44Z</time>
      </trkpt>
      <trkpt lat="46.15754" lon="-1.151">
        <ele>3.4</ele>
        <time>2010-12-29T15:51:45Z</time>
      </trkpt>
      <trkpt lat="46.15754" lon="-1.15099">
        <ele>3.4</ele>
        <time>2010-12-29T15:51:46Z</time>
      </trkpt>
      <trkpt lat="46.15755" lon="-1.15098">
        <ele>3.4</ele>
        <time>2010-12-29T15:51:47Z</time>
      </trkpt>
      <trkpt lat="46.15756" lon="-1.15097">
        <ele>3.4</ele>
        <time>2010-12-29T15:51:48Z</time>
      </trkpt>
      <trkpt lat="46.15757" lon="-1.15096">
        <ele>3.4</ele>
        <time>2010-12-29T15:51:49Z</time>
      </trkpt>
      <trkpt lat="46.15758" lon="-1.15095">
        <ele>3.4</ele>
        <time>2010-12-29T15:51:50Z</time>
      </trkpt>
      <trkpt lat="46.15759" lon="-1.15095">
        <ele>3.4</ele>
        <time>2010-12-29T15:51:51Z</time>
      </trkpt>
      <trkpt lat="46.1576" lon="-1.15094">
        <ele>3.4</ele>
        <time>2010-12-29T15:51:52Z</time>
      </trkpt>
      <trkpt lat="46.1576" lon="-1.15093">
        <ele>3.4</ele>
        <time>2010-12-29T15:51:53Z</time>
      </trkpt>
      <trkpt lat="46.1576" lon="-1.15091">
        <ele>3.5</ele>
        <time>2010-12-29T15:51:54Z</time>
      </trkpt>
      <trkpt lat="46.1576" lon="-1.15091">
        <ele>3.5</ele>
        <time>2010-12-29T15:51:55Z</time>
      </trkpt>
      <trkpt lat="46.15761" lon="-1.1509">
        <ele>3.5</ele>
        <time>2010-12-29T15:51:56Z</time>
      </trkpt>
      <trkpt lat="46.15762" lon="-1.1509">
        <ele>3.4</ele>
        <time>2010-12-29T15:51:57Z</time>
      </trkpt>
      <trkpt lat="46.15763" lon="-1.15089">
        <ele>3.4</ele>
        <time>2010-12-29T15:51:58Z</time>
      </trkpt>
      <trkpt lat="46.15764" lon="-1.15087">
        <ele>3.4</ele>
        <time>2010-12-29T15:51:59Z</time>
      </trkpt>
      <trkpt lat="46.15765" lon="-1.15086">
        <ele>3.4</ele>
        <time>2010-12-29T15:52:00Z</time>
      </trkpt>
      <trkpt lat="46.15767" lon="-1.15085">
        <ele>3.4</ele>
        <time>2010-12-29T15:52:01Z</time>
      </trkpt>
      <trkpt lat="46.15768" lon="-1.15084">
        <ele>3.4</ele>
        <time>2010-12-29T15:52:02Z</time>
      </trkpt>
      <trkpt lat="46.15769" lon="-1.15084">
        <ele>3.3</ele>
        <time>2010-12-29T15:52:03Z</time>
      </trkpt>
      <trkpt lat="46.1577" lon="-1.15084">
        <ele>3.3</ele>
        <time>2010-12-29T15:52:04Z</time>
      </trkpt>
      <trkpt lat="46.15772" lon="-1.15084">
        <ele>3.2</ele>
        <time>2010-12-29T15:52:05Z</time>
      </trkpt>
      <trkpt lat="46.15773" lon="-1.15084">
        <ele>3.2</ele>
        <time>2010-12-29T15:52:06Z</time>
      </trkpt>
      <trkpt lat="46.15775" lon="-1.15084">
        <ele>3.1</ele>
        <time>2010-12-29T15:52:07Z</time>
      </trkpt>
      <trkpt lat="46.15777" lon="-1.15084">
        <ele>3</ele>
        <time>2010-12-29T15:52:08Z</time>
      </trkpt>
      <trkpt lat="46.15778" lon="-1.15085">
        <ele>3</ele>
        <time>2010-12-29T15:52:09Z</time>
      </trkpt>
      <trkpt lat="46.1578" lon="-1.15085">
        <ele>3</ele>
        <time>2010-12-29T15:52:10Z</time>
      </trkpt>
      <trkpt lat="46.15781" lon="-1.15085">
        <ele>3</ele>
        <time>2010-12-29T15:52:11Z</time>
      </trkpt>
      <trkpt lat="46.15782" lon="-1.15085">
        <ele>3.1</ele>
        <time>2010-12-29T15:52:12Z</time>
      </trkpt>
      <trkpt lat="46.15783" lon="-1.15084">
        <ele>3.2</ele>
        <time>2010-12-29T15:52:13Z</time>
      </trkpt>
      <trkpt lat="46.15784" lon="-1.15084">
        <ele>3.2</ele>
        <time>2010-12-29T15:52:14Z</time>
      </trkpt>
      <trkpt lat="46.15785" lon="-1.15084">
        <ele>3.2</ele>
        <time>2010-12-29T15:52:15Z</time>
      </trkpt>
      <trkpt lat="46.15785" lon="-1.15083">
        <ele>3.3</ele>
        <time>2010-12-29T15:52:16Z</time>
      </trkpt>
      <trkpt lat="46.15786" lon="-1.15083">
        <ele>3.3</ele>
        <time>2010-12-29T15:52:17Z</time>
      </trkpt>
      <trkpt lat="46.15787" lon="-1.15083">
        <ele>3.3</ele>
        <time>2010-12-29T15:52:18Z</time>
      </trkpt>
      <trkpt lat="46.15788" lon="-1.15083">
        <ele>3.4</ele>
        <time>2010-12-29T15:52:19Z</time>
      </trkpt>
      <trkpt lat="46.15789" lon="-1.15083">
        <ele>3.4</ele>
        <time>2010-12-29T15:52:20Z</time>
      </trkpt>
      <trkpt lat="46.15789" lon="-1.15083">
        <ele>3.4</ele>
        <time>2010-12-29T15:52:21Z</time>
      </trkpt>
      <trkpt lat="46.1579" lon="-1.15083">
        <ele>3.5</ele>
        <time>2010-12-29T15:52:22Z</time>
      </trkpt>
      <trkpt lat="46.15791" lon="-1.15083">
        <ele>3.5</ele>
        <time>2010-12-29T15:52:23Z</time>
      </trkpt>
      <trkpt lat="46.15792" lon="-1.15082">
        <ele>3.5</ele>
        <time>2010-12-29T15:52:24Z</time>
      </trkpt>
      <trkpt lat="46.15793" lon="-1.15082">
        <ele>3.5</ele>
        <time>2010-12-29T15:52:25Z</time>
      </trkpt>
      <trkpt lat="46.15793" lon="-1.15083">
        <ele>3.6</ele>
        <time>2010-12-29T15:52:26Z</time>
      </trkpt>
      <trkpt lat="46.15794" lon="-1.15084">
        <ele>3.6</ele>
        <time>2010-12-29T15:52:27Z</time>
      </trkpt>
      <trkpt lat="46.15795" lon="-1.15084">
        <ele>3.6</ele>
        <time>2010-12-29T15:52:28Z</time>
      </trkpt>
      <trkpt lat="46.15796" lon="-1.15086">
        <ele>3.5</ele>
        <time>2010-12-29T15:52:29Z</time>
      </trkpt>
      <trkpt lat="46.15796" lon="-1.15087">
        <ele>3.4</ele>
        <time>2010-12-29T15:52:30Z</time>
      </trkpt>
      <trkpt lat="46.15797" lon="-1.15088">
        <ele>3.4</ele>
        <time>2010-12-29T15:52:31Z</time>
      </trkpt>
      <trkpt lat="46.15798" lon="-1.1509">
        <ele>3.3</ele>
        <time>2010-12-29T15:52:32Z</time>
      </trkpt>
      <trkpt lat="46.15799" lon="-1.15091">
        <ele>3.3</ele>
        <time>2010-12-29T15:52:33Z</time>
      </trkpt>
      <trkpt lat="46.15799" lon="-1.15092">
        <ele>3.2</ele>
        <time>2010-12-29T15:52:34Z</time>
      </trkpt>
      <trkpt lat="46.158" lon="-1.15093">
        <ele>3.2</ele>
        <time>2010-12-29T15:52:35Z</time>
      </trkpt>
      <trkpt lat="46.158" lon="-1.15094">
        <ele>3.1</ele>
        <time>2010-12-29T15:52:36Z</time>
      </trkpt>
      <trkpt lat="46.15801" lon="-1.15095">
        <ele>3</ele>
        <time>2010-12-29T15:52:37Z</time>
      </trkpt>
      <trkpt lat="46.15801" lon="-1.15096">
        <ele>3</ele>
        <time>2010-12-29T15:52:38Z</time>
      </trkpt>
      <trkpt lat="46.15802" lon="-1.15097">
        <ele>3</ele>
        <time>2010-12-29T15:52:39Z</time>
      </trkpt>
      <trkpt lat="46.15803" lon="-1.15098">
        <ele>2.9</ele>
        <time>2010-12-29T15:52:40Z</time>
      </trkpt>
      <trkpt lat="46.15803" lon="-1.151">
        <ele>2.8</ele>
        <time>2010-12-29T15:52:41Z</time>
      </trkpt>
      <trkpt lat="46.15804" lon="-1.15101">
        <ele>2.7</ele>
        <time>2010-12-29T15:52:42Z</time>
      </trkpt>
      <trkpt lat="46.15804" lon="-1.15102">
        <ele>2.7</ele>
        <time>2010-12-29T15:52:43Z</time>
      </trkpt>
      <trkpt lat="46.15805" lon="-1.15103">
        <ele>2.6</ele>
        <time>2010-12-29T15:52:44Z</time>
      </trkpt>
      <trkpt lat="46.15805" lon="-1.15104">
        <ele>2.5</ele>
        <time>2010-12-29T15:52:45Z</time>
      </trkpt>
      <trkpt lat="46.15806" lon="-1.15105">
        <ele>2.5</ele>
        <time>2010-12-29T15:52:46Z</time>
      </trkpt>
      <trkpt lat="46.15807" lon="-1.15106">
        <ele>2.4</ele>
        <time>2010-12-29T15:52:47Z</time>
      </trkpt>
      <trkpt lat="46.15807" lon="-1.15107">
        <ele>2.4</ele>
        <time>2010-12-29T15:52:48Z</time>
      </trkpt>
      <trkpt lat="46.15808" lon="-1.15109">
        <ele>2.3</ele>
        <time>2010-12-29T15:52:49Z</time>
      </trkpt>
      <trkpt lat="46.15809" lon="-1.1511">
        <ele>2.3</ele>
        <time>2010-12-29T15:52:50Z</time>
      </trkpt>
      <trkpt lat="46.15809" lon="-1.15111">
        <ele>2.3</ele>
        <time>2010-12-29T15:52:51Z</time>
      </trkpt>
      <trkpt lat="46.1581" lon="-1.15112">
        <ele>2.3</ele>
        <time>2010-12-29T15:52:52Z</time>
      </trkpt>
      <trkpt lat="46.1581" lon="-1.15113">
        <ele>2.3</ele>
        <time>2010-12-29T15:52:53Z</time>
      </trkpt>
      <trkpt lat="46.1581" lon="-1.15115">
        <ele>2.3</ele>
        <time>2010-12-29T15:52:54Z</time>
      </trkpt>
      <trkpt lat="46.15811" lon="-1.15116">
        <ele>2.4</ele>
        <time>2010-12-29T15:52:55Z</time>
      </trkpt>
      <trkpt lat="46.15811" lon="-1.15117">
        <ele>2.4</ele>
        <time>2010-12-29T15:52:56Z</time>
      </trkpt>
      <trkpt lat="46.15811" lon="-1.15119">
        <ele>2.4</ele>
        <time>2010-12-29T15:52:57Z</time>
      </trkpt>
      <trkpt lat="46.15812" lon="-1.15121">
        <ele>2.4</ele>
        <time>2010-12-29T15:52:58Z</time>
      </trkpt>
      <trkpt lat="46.15812" lon="-1.15123">
        <ele>2.4</ele>
        <time>2010-12-29T15:52:59Z</time>
      </trkpt>
      <trkpt lat="46.15812" lon="-1.15124">
        <ele>2.4</ele>
        <time>2010-12-29T15:53:00Z</time>
      </trkpt>
      <trkpt lat="46.15812" lon="-1.15126">
        <ele>2.4</ele>
        <time>2010-12-29T15:53:01Z</time>
      </trkpt>
      <trkpt lat="46.15812" lon="-1.15127">
        <ele>2.4</ele>
        <time>2010-12-29T15:53:02Z</time>
      </trkpt>
      <trkpt lat="46.15812" lon="-1.15129">
        <ele>2.4</ele>
        <time>2010-12-29T15:53:03Z</time>
      </trkpt>
      <trkpt lat="46.15812" lon="-1.1513">
        <ele>2.4</ele>
        <time>2010-12-29T15:53:04Z</time>
      </trkpt>
      <trkpt lat="46.15812" lon="-1.15131">
        <ele>2.4</ele>
        <time>2010-12-29T15:53:05Z</time>
      </trkpt>
      <trkpt lat="46.15812" lon="-1.15132">
        <ele>2.4</ele>
        <time>2010-12-29T15:53:06Z</time>
      </trkpt>
      <trkpt lat="46.15812" lon="-1.15134">
        <ele>2.5</ele>
        <time>2010-12-29T15:53:07Z</time>
      </trkpt>
      <trkpt lat="46.15812" lon="-1.15136">
        <ele>2.5</ele>
        <time>2010-12-29T15:53:08Z</time>
      </trkpt>
      <trkpt lat="46.15812" lon="-1.15137">
        <ele>2.5</ele>
        <time>2010-12-29T15:53:09Z</time>
      </trkpt>
      <trkpt lat="46.15812" lon="-1.15139">
        <ele>2.5</ele>
        <time>2010-12-29T15:53:10Z</time>
      </trkpt>
      <trkpt lat="46.15812" lon="-1.15141">
        <ele>2.5</ele>
        <time>2010-12-29T15:53:11Z</time>
      </trkpt>
      <trkpt lat="46.15812" lon="-1.15142">
        <ele>2.5</ele>
        <time>2010-12-29T15:53:12Z</time>
      </trkpt>
      <trkpt lat="46.15812" lon="-1.15144">
        <ele>2.5</ele>
        <time>2010-12-29T15:53:13Z</time>
      </trkpt>
      <trkpt lat="46.15812" lon="-1.15145">
        <ele>2.5</ele>
        <time>2010-12-29T15:53:14Z</time>
      </trkpt>
      <trkpt lat="46.15812" lon="-1.15147">
        <ele>2.5</ele>
        <time>2010-12-29T15:53:15Z</time>
      </trkpt>
      <trkpt lat="46.15812" lon="-1.15148">
        <ele>2.5</ele>
        <time>2010-12-29T15:53:16Z</time>
      </trkpt>
      <trkpt lat="46.15812" lon="-1.1515">
        <ele>2.5</ele>
        <time>2010-12-29T15:53:17Z</time>
      </trkpt>
      <trkpt lat="46.15812" lon="-1.15151">
        <ele>2.5</ele>
        <time>2010-12-29T15:53:18Z</time>
      </trkpt>
      <trkpt lat="46.15812" lon="-1.15153">
        <ele>2.5</ele>
        <time>2010-12-29T15:53:19Z</time>
      </trkpt>
      <trkpt lat="46.15812" lon="-1.15154">
        <ele>2.5</ele>
        <time>2010-12-29T15:53:20Z</time>
      </trkpt>
      <trkpt lat="46.15812" lon="-1.15156">
        <ele>2.5</ele>
        <time>2010-12-29T15:53:21Z</time>
      </trkpt>
      <trkpt lat="46.15813" lon="-1.15158">
        <ele>2.5</ele>
        <time>2010-12-29T15:53:22Z</time>
      </trkpt>
      <trkpt lat="46.15813" lon="-1.1516">
        <ele>2.5</ele>
        <time>2010-12-29T15:53:23Z</time>
      </trkpt>
      <trkpt lat="46.15813" lon="-1.15162">
        <ele>2.5</ele>
        <time>2010-12-29T15:53:24Z</time>
      </trkpt>
      <trkpt lat="46.15813" lon="-1.15163">
        <ele>2.5</ele>
        <time>2010-12-29T15:53:25Z</time>
      </trkpt>
      <trkpt lat="46.15813" lon="-1.15165">
        <ele>2.5</ele>
        <time>2010-12-29T15:53:26Z</time>
      </trkpt>
      <trkpt lat="46.15813" lon="-1.15166">
        <ele>2.6</ele>
        <time>2010-12-29T15:53:27Z</time>
      </trkpt>
      <trkpt lat="46.15813" lon="-1.15168">
        <ele>2.6</ele>
        <time>2010-12-29T15:53:28Z</time>
      </trkpt>
      <trkpt lat="46.15813" lon="-1.15169">
        <ele>2.6</ele>
        <time>2010-12-29T15:53:29Z</time>
      </trkpt>
      <trkpt lat="46.15813" lon="-1.15171">
        <ele>2.7</ele>
        <time>2010-12-29T15:53:30Z</time>
      </trkpt>
      <trkpt lat="46.15813" lon="-1.15173">
        <ele>2.7</ele>
        <time>2010-12-29T15:53:31Z</time>
      </trkpt>
      <trkpt lat="46.15813" lon="-1.15175">
        <ele>2.7</ele>
        <time>2010-12-29T15:53:32Z</time>
      </trkpt>
      <trkpt lat="46.15813" lon="-1.15176">
        <ele>2.8</ele>
        <time>2010-12-29T15:53:33Z</time>
      </trkpt>
      <trkpt lat="46.15812" lon="-1.15178">
        <ele>2.8</ele>
        <time>2010-12-29T15:53:34Z</time>
      </trkpt>
      <trkpt lat="46.15812" lon="-1.1518">
        <ele>2.9</ele>
        <time>2010-12-29T15:53:35Z</time>
      </trkpt>
      <trkpt lat="46.15812" lon="-1.15182">
        <ele>2.9</ele>
        <time>2010-12-29T15:53:36Z</time>
      </trkpt>
      <trkpt lat="46.15812" lon="-1.15184">
        <ele>2.9</ele>
        <time>2010-12-29T15:53:37Z</time>
      </trkpt>
      <trkpt lat="46.15812" lon="-1.15186">
        <ele>3</ele>
        <time>2010-12-29T15:53:38Z</time>
      </trkpt>
      <trkpt lat="46.15812" lon="-1.15187">
        <ele>3</ele>
        <time>2010-12-29T15:53:39Z</time>
      </trkpt>
      <trkpt lat="46.15812" lon="-1.15189">
        <ele>3.1</ele>
        <time>2010-12-29T15:53:40Z</time>
      </trkpt>
      <trkpt lat="46.15812" lon="-1.1519">
        <ele>3.1</ele>
        <time>2010-12-29T15:53:41Z</time>
      </trkpt>
      <trkpt lat="46.15813" lon="-1.15191">
        <ele>3.2</ele>
        <time>2010-12-29T15:53:42Z</time>
      </trkpt>
      <trkpt lat="46.15813" lon="-1.15193">
        <ele>3.2</ele>
        <time>2010-12-29T15:53:43Z</time>
      </trkpt>
      <trkpt lat="46.15813" lon="-1.15194">
        <ele>3.3</ele>
        <time>2010-12-29T15:53:44Z</time>
      </trkpt>
      <trkpt lat="46.15814" lon="-1.15196">
        <ele>3.3</ele>
        <time>2010-12-29T15:53:45Z</time>
      </trkpt>
      <trkpt lat="46.15814" lon="-1.15198">
        <ele>3.3</ele>
        <time>2010-12-29T15:53:46Z</time>
      </trkpt>
      <trkpt lat="46.15814" lon="-1.152">
        <ele>3.3</ele>
        <time>2010-12-29T15:53:47Z</time>
      </trkpt>
      <trkpt lat="46.15814" lon="-1.15201">
        <ele>3.3</ele>
        <time>2010-12-29T15:53:48Z</time>
      </trkpt>
      <trkpt lat="46.15814" lon="-1.15202">
        <ele>3.3</ele>
        <time>2010-12-29T15:53:49Z</time>
      </trkpt>
      <trkpt lat="46.15813" lon="-1.15204">
        <ele>3.3</ele>
        <time>2010-12-29T15:53:50Z</time>
      </trkpt>
      <trkpt lat="46.15813" lon="-1.15205">
        <ele>3.3</ele>
        <time>2010-12-29T15:53:51Z</time>
      </trkpt>
      <trkpt lat="46.15813" lon="-1.15206">
        <ele>3.3</ele>
        <time>2010-12-29T15:53:52Z</time>
      </trkpt>
      <trkpt lat="46.15813" lon="-1.15208">
        <ele>3.3</ele>
        <time>2010-12-29T15:53:53Z</time>
      </trkpt>
      <trkpt lat="46.15812" lon="-1.15209">
        <ele>3.2</ele>
        <time>2010-12-29T15:53:54Z</time>
      </trkpt>
      <trkpt lat="46.15812" lon="-1.15211">
        <ele>3.2</ele>
        <time>2010-12-29T15:53:55Z</time>
      </trkpt>
      <trkpt lat="46.15812" lon="-1.15212">
        <ele>3.2</ele>
        <time>2010-12-29T15:53:56Z</time>
      </trkpt>
      <trkpt lat="46.15812" lon="-1.15214">
        <ele>3.2</ele>
        <time>2010-12-29T15:53:57Z</time>
      </trkpt>
      <trkpt lat="46.15812" lon="-1.15215">
        <ele>3.2</ele>
        <time>2010-12-29T15:53:58Z</time>
      </trkpt>
      <trkpt lat="46.15812" lon="-1.15217">
        <ele>3.2</ele>
        <time>2010-12-29T15:53:59Z</time>
      </trkpt>
      <trkpt lat="46.15812" lon="-1.15218">
        <ele>3.2</ele>
        <time>2010-12-29T15:54:00Z</time>
      </trkpt>
      <trkpt lat="46.15812" lon="-1.15219">
        <ele>3.2</ele>
        <time>2010-12-29T15:54:01Z</time>
      </trkpt>
      <trkpt lat="46.15812" lon="-1.1522">
        <ele>3.2</ele>
        <time>2010-12-29T15:54:02Z</time>
      </trkpt>
      <trkpt lat="46.15812" lon="-1.15221">
        <ele>3.2</ele>
        <time>2010-12-29T15:54:03Z</time>
      </trkpt>
      <trkpt lat="46.15812" lon="-1.15223">
        <ele>3.2</ele>
        <time>2010-12-29T15:54:04Z</time>
      </trkpt>
      <trkpt lat="46.15812" lon="-1.15224">
        <ele>3.3</ele>
        <time>2010-12-29T15:54:05Z</time>
      </trkpt>
      <trkpt lat="46.15812" lon="-1.15225">
        <ele>3.4</ele>
        <time>2010-12-29T15:54:06Z</time>
      </trkpt>
      <trkpt lat="46.15812" lon="-1.15227">
        <ele>3.5</ele>
        <time>2010-12-29T15:54:07Z</time>
      </trkpt>
      <trkpt lat="46.15812" lon="-1.15229">
        <ele>3.6</ele>
        <time>2010-12-29T15:54:08Z</time>
      </trkpt>
      <trkpt lat="46.15812" lon="-1.15231">
        <ele>3.8</ele>
        <time>2010-12-29T15:54:09Z</time>
      </trkpt>
      <trkpt lat="46.15812" lon="-1.15233">
        <ele>3.9</ele>
        <time>2010-12-29T15:54:10Z</time>
      </trkpt>
      <trkpt lat="46.15812" lon="-1.15234">
        <ele>4</ele>
        <time>2010-12-29T15:54:11Z</time>
      </trkpt>
      <trkpt lat="46.15812" lon="-1.15236">
        <ele>4.1</ele>
        <time>2010-12-29T15:54:12Z</time>
      </trkpt>
      <trkpt lat="46.15812" lon="-1.15238">
        <ele>4.2</ele>
        <time>2010-12-29T15:54:13Z</time>
      </trkpt>
      <trkpt lat="46.15812" lon="-1.15239">
        <ele>4.3</ele>
        <time>2010-12-29T15:54:14Z</time>
      </trkpt>
      <trkpt lat="46.15812" lon="-1.1524">
        <ele>4.4</ele>
        <time>2010-12-29T15:54:15Z</time>
      </trkpt>
      <trkpt lat="46.15812" lon="-1.15242">
        <ele>4.5</ele>
        <time>2010-12-29T15:54:16Z</time>
      </trkpt>
      <trkpt lat="46.15812" lon="-1.15244">
        <ele>4.6</ele>
        <time>2010-12-29T15:54:17Z</time>
      </trkpt>
      <trkpt lat="46.15812" lon="-1.15245">
        <ele>4.7</ele>
        <time>2010-12-29T15:54:18Z</time>
      </trkpt>
      <trkpt lat="46.15811" lon="-1.15247">
        <ele>4.8</ele>
        <time>2010-12-29T15:54:19Z</time>
      </trkpt>
      <trkpt lat="46.15811" lon="-1.15249">
        <ele>4.9</ele>
        <time>2010-12-29T15:54:20Z</time>
      </trkpt>
      <trkpt lat="46.15811" lon="-1.1525">
        <ele>5</ele>
        <time>2010-12-29T15:54:21Z</time>
      </trkpt>
      <trkpt lat="46.15811" lon="-1.15251">
        <ele>5</ele>
        <time>2010-12-29T15:54:22Z</time>
      </trkpt>
      <trkpt lat="46.15811" lon="-1.15252">
        <ele>5</ele>
        <time>2010-12-29T15:54:23Z</time>
      </trkpt>
      <trkpt lat="46.15811" lon="-1.15253">
        <ele>4.9</ele>
        <time>2010-12-29T15:54:24Z</time>
      </trkpt>
      <trkpt lat="46.15811" lon="-1.15254">
        <ele>4.9</ele>
        <time>2010-12-29T15:54:25Z</time>
      </trkpt>
      <trkpt lat="46.1581" lon="-1.15256">
        <ele>4.8</ele>
        <time>2010-12-29T15:54:26Z</time>
      </trkpt>
      <trkpt lat="46.1581" lon="-1.15256">
        <ele>4.8</ele>
        <time>2010-12-29T15:54:27Z</time>
      </trkpt>
      <trkpt lat="46.1581" lon="-1.15258">
        <ele>4.8</ele>
        <time>2010-12-29T15:54:28Z</time>
      </trkpt>
      <trkpt lat="46.1581" lon="-1.15259">
        <ele>4.7</ele>
        <time>2010-12-29T15:54:29Z</time>
      </trkpt>
      <trkpt lat="46.1581" lon="-1.15261">
        <ele>4.7</ele>
        <time>2010-12-29T15:54:30Z</time>
      </trkpt>
      <trkpt lat="46.1581" lon="-1.15262">
        <ele>4.6</ele>
        <time>2010-12-29T15:54:31Z</time>
      </trkpt>
      <trkpt lat="46.1581" lon="-1.15264">
        <ele>4.6</ele>
        <time>2010-12-29T15:54:32Z</time>
      </trkpt>
      <trkpt lat="46.1581" lon="-1.15265">
        <ele>4.5</ele>
        <time>2010-12-29T15:54:33Z</time>
      </trkpt>
      <trkpt lat="46.1581" lon="-1.15267">
        <ele>4.5</ele>
        <time>2010-12-29T15:54:34Z</time>
      </trkpt>
      <trkpt lat="46.1581" lon="-1.15268">
        <ele>4.5</ele>
        <time>2010-12-29T15:54:35Z</time>
      </trkpt>
      <trkpt lat="46.1581" lon="-1.1527">
        <ele>4.4</ele>
        <time>2010-12-29T15:54:36Z</time>
      </trkpt>
      <trkpt lat="46.1581" lon="-1.15272">
        <ele>4.4</ele>
        <time>2010-12-29T15:54:37Z</time>
      </trkpt>
      <trkpt lat="46.1581" lon="-1.15273">
        <ele>4.3</ele>
        <time>2010-12-29T15:54:38Z</time>
      </trkpt>
      <trkpt lat="46.1581" lon="-1.15275">
        <ele>4.2</ele>
        <time>2010-12-29T15:54:39Z</time>
      </trkpt>
      <trkpt lat="46.1581" lon="-1.15278">
        <ele>4.2</ele>
        <time>2010-12-29T15:54:40Z</time>
      </trkpt>
      <trkpt lat="46.1581" lon="-1.1528">
        <ele>4.2</ele>
        <time>2010-12-29T15:54:41Z</time>
      </trkpt>
      <trkpt lat="46.1581" lon="-1.15282">
        <ele>4.2</ele>
        <time>2010-12-29T15:54:42Z</time>
      </trkpt>
      <trkpt lat="46.1581" lon="-1.15284">
        <ele>4.1</ele>
        <time>2010-12-29T15:54:43Z</time>
      </trkpt>
      <trkpt lat="46.15809" lon="-1.15287">
        <ele>4.1</ele>
        <time>2010-12-29T15:54:44Z</time>
      </trkpt>
      <trkpt lat="46.15807" lon="-1.1529">
        <ele>4.1</ele>
        <time>2010-12-29T15:54:45Z</time>
      </trkpt>
      <trkpt lat="46.15803" lon="-1.15294">
        <ele>3.9</ele>
        <time>2010-12-29T15:54:46Z</time>
      </trkpt>
      <trkpt lat="46.158" lon="-1.15297">
        <ele>3.9</ele>
        <time>2010-12-29T15:54:47Z</time>
      </trkpt>
      <trkpt lat="46.15797" lon="-1.153">
        <ele>3.8</ele>
        <time>2010-12-29T15:54:48Z</time>
      </trkpt>
      <trkpt lat="46.15796" lon="-1.15302">
        <ele>3.7</ele>
        <time>2010-12-29T15:54:49Z</time>
      </trkpt>
      <trkpt lat="46.15794" lon="-1.15304">
        <ele>3.6</ele>
        <time>2010-12-29T15:54:50Z</time>
      </trkpt>
      <trkpt lat="46.15794" lon="-1.15305">
        <ele>3.6</ele>
        <time>2010-12-29T15:54:51Z</time>
      </trkpt>
      <trkpt lat="46.15793" lon="-1.15306">
        <ele>3.6</ele>
        <time>2010-12-29T15:54:52Z</time>
      </trkpt>
      <trkpt lat="46.15792" lon="-1.15307">
        <ele>3.6</ele>
        <time>2010-12-29T15:54:53Z</time>
      </trkpt>
      <trkpt lat="46.15791" lon="-1.15307">
        <ele>3.5</ele>
        <time>2010-12-29T15:54:54Z</time>
      </trkpt>
      <trkpt lat="46.15791" lon="-1.15308">
        <ele>3.5</ele>
        <time>2010-12-29T15:54:55Z</time>
      </trkpt>
      <trkpt lat="46.1579" lon="-1.15308">
        <ele>3.5</ele>
        <time>2010-12-29T15:54:56Z</time>
      </trkpt>
      <trkpt lat="46.15789" lon="-1.15308">
        <ele>3.5</ele>
        <time>2010-12-29T15:54:57Z</time>
      </trkpt>
      <trkpt lat="46.15789" lon="-1.15308">
        <ele>3.5</ele>
        <time>2010-12-29T15:54:58Z</time>
      </trkpt>
      <trkpt lat="46.15788" lon="-1.15309">
        <ele>3.5</ele>
        <time>2010-12-29T15:54:59Z</time>
      </trkpt>
      <trkpt lat="46.15787" lon="-1.15309">
        <ele>3.5</ele>
        <time>2010-12-29T15:55:00Z</time>
      </trkpt>
      <trkpt lat="46.15786" lon="-1.15309">
        <ele>3.4</ele>
        <time>2010-12-29T15:55:01Z</time>
      </trkpt>
      <trkpt lat="46.15786" lon="-1.1531">
        <ele>3.4</ele>
        <time>2010-12-29T15:55:02Z</time>
      </trkpt>
      <trkpt lat="46.15785" lon="-1.1531">
        <ele>3.4</ele>
        <time>2010-12-29T15:55:03Z</time>
      </trkpt>
      <trkpt lat="46.15785" lon="-1.15312">
        <ele>3.5</ele>
        <time>2010-12-29T15:55:04Z</time>
      </trkpt>
      <trkpt lat="46.15785" lon="-1.15313">
        <ele>3.5</ele>
        <time>2010-12-29T15:55:05Z</time>
      </trkpt>
      <trkpt lat="46.15785" lon="-1.15315">
        <ele>3.6</ele>
        <time>2010-12-29T15:55:06Z</time>
      </trkpt>
      <trkpt lat="46.15786" lon="-1.15316">
        <ele>3.7</ele>
        <time>2010-12-29T15:55:07Z</time>
      </trkpt>
      <trkpt lat="46.15786" lon="-1.15317">
        <ele>3.7</ele>
        <time>2010-12-29T15:55:08Z</time>
      </trkpt>
      <trkpt lat="46.15786" lon="-1.15318">
        <ele>3.7</ele>
        <time>2010-12-29T15:55:09Z</time>
      </trkpt>
      <trkpt lat="46.15785" lon="-1.15319">
        <ele>3.8</ele>
        <time>2010-12-29T15:55:10Z</time>
      </trkpt>
      <trkpt lat="46.15785" lon="-1.1532">
        <ele>0.0071</ele>
        <time>2010-12-29T15:55:11Z</time>
      </trkpt>
      <trkpt lat="46.15785" lon="-1.1532">
        <ele>0.1316</ele>
        <time>2010-12-29T15:55:12Z</time>
      </trkpt>
      <trkpt lat="46.15785" lon="-1.15321">
        <ele>0.2535</ele>
        <time>2010-12-29T15:55:13Z</time>
      </trkpt>
      <trkpt lat="46.15784" lon="-1.15321">
        <ele>0.3709</ele>
        <time>2010-12-29T15:55:14Z</time>
      </trkpt>
      <trkpt lat="46.15784" lon="-1.15322">
        <ele>0.4845</ele>
        <time>2010-12-29T15:55:15Z</time>
      </trkpt>
      <trkpt lat="46.15784" lon="-1.15323">
        <ele>0.5935</ele>
        <time>2010-12-29T15:55:16Z</time>
      </trkpt>
      <trkpt lat="46.15783" lon="-1.15325">
        <ele>0.8056</ele>
        <time>2010-12-29T15:55:18Z</time>
      </trkpt>
      <trkpt lat="46.15782" lon="-1.15327">
        <ele>0.9144</ele>
        <time>2010-12-29T15:55:19Z</time>
      </trkpt>
      <trkpt lat="46.15781" lon="-1.1533">
        <ele>1.1233</ele>
        <time>2010-12-29T15:55:21Z</time>
      </trkpt>
      <trkpt lat="46.1578" lon="-1.15331">
        <ele>1.2216</ele>
        <time>2010-12-29T15:55:22Z</time>
      </trkpt>
      <trkpt lat="46.1578" lon="-1.15332">
        <ele>1.311</ele>
        <time>2010-12-29T15:55:23Z</time>
      </trkpt>
      <trkpt lat="46.15779" lon="-1.15333">
        <ele>1.3956</ele>
        <time>2010-12-29T15:55:24Z</time>
      </trkpt>
      <trkpt lat="46.15778" lon="-1.15337">
        <ele>1.5907</ele>
        <time>2010-12-29T15:55:27Z</time>
      </trkpt>
      <trkpt lat="46.15777" lon="-1.15337">
        <ele>1.6474</ele>
        <time>2010-12-29T15:55:28Z</time>
      </trkpt>
      <trkpt lat="46.15777" lon="-1.15338">
        <ele>1.7028</ele>
        <time>2010-12-29T15:55:29Z</time>
      </trkpt>
      <trkpt lat="46.15776" lon="-1.15338">
        <ele>1.7588</ele>
        <time>2010-12-29T15:55:30Z</time>
      </trkpt>
      <trkpt lat="46.15774" lon="-1.1534">
        <ele>1.9135</ele>
        <time>2010-12-29T15:55:34Z</time>
      </trkpt>
      <trkpt lat="46.15773" lon="-1.15341">
        <ele>1.9268</ele>
        <time>2010-12-29T15:55:35Z</time>
      </trkpt>
      <trkpt lat="46.15772" lon="-1.15341">
        <ele>1.9217</ele>
        <time>2010-12-29T15:55:36Z</time>
      </trkpt>
      <trkpt lat="46.15772" lon="-1.15342">
        <ele>1.9108</ele>
        <time>2010-12-29T15:55:37Z</time>
      </trkpt>
      <trkpt lat="46.15771" lon="-1.15343">
        <ele>1.8919</ele>
        <time>2010-12-29T15:55:38Z</time>
      </trkpt>
      <trkpt lat="46.1577" lon="-1.15343">
        <ele>1.8659</ele>
        <time>2010-12-29T15:55:39Z</time>
      </trkpt>
      <trkpt lat="46.15768" lon="-1.15345">
        <ele>1.7858</ele>
        <time>2010-12-29T15:55:42Z</time>
      </trkpt>
      <trkpt lat="46.15767" lon="-1.15345">
        <ele>1.7696</ele>
        <time>2010-12-29T15:55:43Z</time>
      </trkpt>
      <trkpt lat="46.15765" lon="-1.15347">
        <ele>1.7669</ele>
        <time>2010-12-29T15:55:46Z</time>
      </trkpt>
      <trkpt lat="46.15764" lon="-1.15347">
        <ele>1.7703</ele>
        <time>2010-12-29T15:55:47Z</time>
      </trkpt>
      <trkpt lat="46.15763" lon="-1.15348">
        <ele>1.7758</ele>
        <time>2010-12-29T15:55:48Z</time>
      </trkpt>
      <trkpt lat="46.15762" lon="-1.15348">
        <ele>1.7804</ele>
        <time>2010-12-29T15:55:49Z</time>
      </trkpt>
      <trkpt lat="46.15761" lon="-1.15348">
        <ele>1.7838</ele>
        <time>2010-12-29T15:55:50Z</time>
      </trkpt>
      <trkpt lat="46.1576" lon="-1.15349">
        <ele>1.7849</ele>
        <time>2010-12-29T15:55:51Z</time>
      </trkpt>
      <trkpt lat="46.15759" lon="-1.15349">
        <ele>1.799</ele>
        <time>2010-12-29T15:55:52Z</time>
      </trkpt>
      <trkpt lat="46.15758" lon="-1.1535">
        <ele>1.8657</ele>
        <time>2010-12-29T15:55:53Z</time>
      </trkpt>
      <trkpt lat="46.15757" lon="-1.1535">
        <ele>1.9298</ele>
        <time>2010-12-29T15:55:54Z</time>
      </trkpt>
      <trkpt lat="46.15756" lon="-1.15352">
        <ele>2.0648</ele>
        <time>2010-12-29T15:55:56Z</time>
      </trkpt>
      <trkpt lat="46.15755" lon="-1.15353">
        <ele>2.1406</ele>
        <time>2010-12-29T15:55:57Z</time>
      </trkpt>
      <trkpt lat="46.15754" lon="-1.15354">
        <ele>2.217</ele>
        <time>2010-12-29T15:55:58Z</time>
      </trkpt>
      <trkpt lat="46.15753" lon="-1.15355">
        <ele>2.2925</ele>
        <time>2010-12-29T15:55:59Z</time>
      </trkpt>
      <trkpt lat="46.15751" lon="-1.15357">
        <ele>2.5062</ele>
        <time>2010-12-29T15:56:02Z</time>
      </trkpt>
      <trkpt lat="46.1575" lon="-1.15358">
        <ele>2.5651</ele>
        <time>2010-12-29T15:56:03Z</time>
      </trkpt>
      <trkpt lat="46.15749" lon="-1.15358">
        <ele>2.6258</ele>
        <time>2010-12-29T15:56:04Z</time>
      </trkpt>
      <trkpt lat="46.15749" lon="-1.15359">
        <ele>2.6793</ele>
        <time>2010-12-29T15:56:05Z</time>
      </trkpt>
      <trkpt lat="46.15748" lon="-1.1536">
        <ele>2.7337</ele>
        <time>2010-12-29T15:56:06Z</time>
      </trkpt>
      <trkpt lat="46.15745" lon="-1.15362">
        <ele>2.9282</ele>
        <time>2010-12-29T15:56:09Z</time>
      </trkpt>
      <trkpt lat="46.15743" lon="-1.15362">
        <ele>3.0756</ele>
        <time>2010-12-29T15:56:11Z</time>
      </trkpt>
      <trkpt lat="46.15742" lon="-1.15363">
        <ele>3.1597</ele>
        <time>2010-12-29T15:56:12Z</time>
      </trkpt>
      <trkpt lat="46.15741" lon="-1.15364">
        <ele>3.2442</ele>
        <time>2010-12-29T15:56:13Z</time>
      </trkpt>
      <trkpt lat="46.1574" lon="-1.15365">
        <ele>3.3408</ele>
        <time>2010-12-29T15:56:14Z</time>
      </trkpt>
      <trkpt lat="46.15739" lon="-1.15366">
        <ele>3.435</ele>
        <time>2010-12-29T15:56:15Z</time>
      </trkpt>
      <trkpt lat="46.15739" lon="-1.15367">
        <ele>3.5327</ele>
        <time>2010-12-29T15:56:16Z</time>
      </trkpt>
      <trkpt lat="46.15738" lon="-1.15368">
        <ele>3.645</ele>
        <time>2010-12-29T15:56:17Z</time>
      </trkpt>
      <trkpt lat="46.15737" lon="-1.15369">
        <ele>3.749</ele>
        <time>2010-12-29T15:56:18Z</time>
      </trkpt>
      <trkpt lat="46.15736" lon="-1.1537">
        <ele>3.8651</ele>
        <time>2010-12-29T15:56:19Z</time>
      </trkpt>
      <trkpt lat="46.15735" lon="-1.15372">
        <ele>3.9828</ele>
        <time>2010-12-29T15:56:20Z</time>
      </trkpt>
      <trkpt lat="46.15734" lon="-1.15373">
        <ele>4.1114</ele>
        <time>2010-12-29T15:56:21Z</time>
      </trkpt>
      <trkpt lat="46.15733" lon="-1.15374">
        <ele>4.2377</ele>
        <time>2010-12-29T15:56:22Z</time>
      </trkpt>
      <trkpt lat="46.15731" lon="-1.15375">
        <ele>4.4791</ele>
        <time>2010-12-29T15:56:24Z</time>
      </trkpt>
      <trkpt lat="46.15731" lon="-1.15376">
        <ele>4.5884</ele>
        <time>2010-12-29T15:56:25Z</time>
      </trkpt>
      <trkpt lat="46.1573" lon="-1.15378">
        <ele>4.8562</ele>
        <time>2010-12-29T15:56:28Z</time>
      </trkpt>
      <trkpt lat="46.15729" lon="-1.15379">
        <ele>4.9492</ele>
        <time>2010-12-29T15:56:29Z</time>
      </trkpt>
      <trkpt lat="46.15728" lon="-1.1538">
        <ele>5.0389</ele>
        <time>2010-12-29T15:56:30Z</time>
      </trkpt>
      <trkpt lat="46.15728" lon="-1.15381">
        <ele>5.1276</ele>
        <time>2010-12-29T15:56:31Z</time>
      </trkpt>
      <trkpt lat="46.15727" lon="-1.15381">
        <ele>5.2147</ele>
        <time>2010-12-29T15:56:32Z</time>
      </trkpt>
      <trkpt lat="46.15726" lon="-1.15381">
        <ele>5.2987</ele>
        <time>2010-12-29T15:56:33Z</time>
      </trkpt>
      <trkpt lat="46.15725" lon="-1.15382">
        <ele>5.3812</ele>
        <time>2010-12-29T15:56:34Z</time>
      </trkpt>
      <trkpt lat="46.15724" lon="-1.15382">
        <ele>5.4742</ele>
        <time>2010-12-29T15:56:35Z</time>
      </trkpt>
      <trkpt lat="46.15723" lon="-1.15383">
        <ele>5.5486</ele>
        <time>2010-12-29T15:56:36Z</time>
      </trkpt>
      <trkpt lat="46.15719" lon="-1.15385">
        <ele>5.7123</ele>
        <time>2010-12-29T15:56:41Z</time>
      </trkpt>
      <trkpt lat="46.15715" lon="-1.15389">
        <ele>5.6833</ele>
        <time>2010-12-29T15:56:45Z</time>
      </trkpt>
      <trkpt lat="46.15714" lon="-1.1539">
        <ele>5.6817</ele>
        <time>2010-12-29T15:56:46Z</time>
      </trkpt>
      <trkpt lat="46.15711" lon="-1.15394">
        <ele>5.7031</ele>
        <time>2010-12-29T15:56:51Z</time>
      </trkpt>
      <trkpt lat="46.1571" lon="-1.15395">
        <ele>5.7169</ele>
        <time>2010-12-29T15:56:52Z</time>
      </trkpt>
      <trkpt lat="46.15707" lon="-1.15397">
        <ele>5.7481</ele>
        <time>2010-12-29T15:56:55Z</time>
      </trkpt>
      <trkpt lat="46.15704" lon="-1.15399">
        <ele>5.7835</ele>
        <time>2010-12-29T15:56:58Z</time>
      </trkpt>
      <trkpt lat="46.15701" lon="-1.15404">
        <ele>5.8232</ele>
        <time>2010-12-29T15:57:05Z</time>
      </trkpt>
      <trkpt lat="46.15699" lon="-1.15405">
        <ele>5.8295</ele>
        <time>2010-12-29T15:57:07Z</time>
      </trkpt>
      <trkpt lat="46.15698" lon="-1.15405">
        <ele>5.8345</ele>
        <time>2010-12-29T15:57:08Z</time>
      </trkpt>
      <trkpt lat="46.15694" lon="-1.15405">
        <ele>5.833</ele>
        <time>2010-12-29T15:57:13Z</time>
      </trkpt>
      <trkpt lat="46.15691" lon="-1.15406">
        <ele>5.8615</ele>
        <time>2010-12-29T15:57:16Z</time>
      </trkpt>
      <trkpt lat="46.1569" lon="-1.15407">
        <ele>5.8646</ele>
        <time>2010-12-29T15:57:17Z</time>
      </trkpt>
      <trkpt lat="46.15688" lon="-1.15407">
        <ele>5.8682</ele>
        <time>2010-12-29T15:57:18Z</time>
      </trkpt>
      <trkpt lat="46.15687" lon="-1.15408">
        <ele>5.8694</ele>
        <time>2010-12-29T15:57:19Z</time>
      </trkpt>
      <trkpt lat="46.15686" lon="-1.15409">
        <ele>5.8714</ele>
        <time>2010-12-29T15:57:20Z</time>
      </trkpt>
      <trkpt lat="46.15685" lon="-1.15409">
        <ele>5.8746</ele>
        <time>2010-12-29T15:57:21Z</time>
      </trkpt>
      <trkpt lat="46.15684" lon="-1.1541">
        <ele>5.8782</ele>
        <time>2010-12-29T15:57:22Z</time>
      </trkpt>
      <trkpt lat="46.15683" lon="-1.1541">
        <ele>5.8785</ele>
        <time>2010-12-29T15:57:23Z</time>
      </trkpt>
      <trkpt lat="46.15683" lon="-1.15411">
        <ele>5.8816</ele>
        <time>2010-12-29T15:57:24Z</time>
      </trkpt>
      <trkpt lat="46.15682" lon="-1.15412">
        <ele>5.8871</ele>
        <time>2010-12-29T15:57:25Z</time>
      </trkpt>
      <trkpt lat="46.15681" lon="-1.15412">
        <ele>5.9082</ele>
        <time>2010-12-29T15:57:27Z</time>
      </trkpt>
      <trkpt lat="46.1568" lon="-1.15412">
        <ele>5.916</ele>
        <time>2010-12-29T15:57:28Z</time>
      </trkpt>
      <trkpt lat="46.1568" lon="-1.15412">
        <ele>5.9261</ele>
        <time>2010-12-29T15:57:29Z</time>
      </trkpt>
      <trkpt lat="46.15678" lon="-1.15411">
        <ele>5.9394</ele>
        <time>2010-12-29T15:57:30Z</time>
      </trkpt>
      <trkpt lat="46.15677" lon="-1.15412">
        <ele>5.9523</ele>
        <time>2010-12-29T15:57:31Z</time>
      </trkpt>
      <trkpt lat="46.15673" lon="-1.15412">
        <ele>5.9811</ele>
        <time>2010-12-29T15:57:35Z</time>
      </trkpt>
      <trkpt lat="46.15672" lon="-1.15412">
        <ele>5.9817</ele>
        <time>2010-12-29T15:57:36Z</time>
      </trkpt>
      <trkpt lat="46.15671" lon="-1.15413">
        <ele>5.9849</ele>
        <time>2010-12-29T15:57:37Z</time>
      </trkpt>
      <trkpt lat="46.15669" lon="-1.15413">
        <ele>6.0072</ele>
        <time>2010-12-29T15:57:39Z</time>
      </trkpt>
      <trkpt lat="46.15668" lon="-1.15414">
        <ele>6.0207</ele>
        <time>2010-12-29T15:57:40Z</time>
      </trkpt>
      <trkpt lat="46.15667" lon="-1.15414">
        <ele>6.0278</ele>
        <time>2010-12-29T15:57:41Z</time>
      </trkpt>
      <trkpt lat="46.15666" lon="-1.15415">
        <ele>6.0408</ele>
        <time>2010-12-29T15:57:42Z</time>
      </trkpt>
      <trkpt lat="46.15665" lon="-1.15416">
        <ele>6.0502</ele>
        <time>2010-12-29T15:57:43Z</time>
      </trkpt>
      <trkpt lat="46.15665" lon="-1.15417">
        <ele>6.0624</ele>
        <time>2010-12-29T15:57:44Z</time>
      </trkpt>
      <trkpt lat="46.15664" lon="-1.15417">
        <ele>6.0739</ele>
        <time>2010-12-29T15:57:45Z</time>
      </trkpt>
      <trkpt lat="46.15663" lon="-1.15417">
        <ele>6.0788</ele>
        <time>2010-12-29T15:57:46Z</time>
      </trkpt>
      <trkpt lat="46.15662" lon="-1.15418">
        <ele>6.0819</ele>
        <time>2010-12-29T15:57:47Z</time>
      </trkpt>
      <trkpt lat="46.15661" lon="-1.15418">
        <ele>6.0821</ele>
        <time>2010-12-29T15:57:48Z</time>
      </trkpt>
      <trkpt lat="46.1566" lon="-1.15418">
        <ele>6.0802</ele>
        <time>2010-12-29T15:57:49Z</time>
      </trkpt>
      <trkpt lat="46.15659" lon="-1.15418">
        <ele>6.0762</ele>
        <time>2010-12-29T15:57:50Z</time>
      </trkpt>
      <trkpt lat="46.15658" lon="-1.15418">
        <ele>6.0682</ele>
        <time>2010-12-29T15:57:51Z</time>
      </trkpt>
      <trkpt lat="46.15657" lon="-1.15418">
        <ele>6.0529</ele>
        <time>2010-12-29T15:57:52Z</time>
      </trkpt>
      <trkpt lat="46.15656" lon="-1.15418">
        <ele>6.0323</ele>
        <time>2010-12-29T15:57:53Z</time>
      </trkpt>
      <trkpt lat="46.15654" lon="-1.15418">
        <ele>6.008</ele>
        <time>2010-12-29T15:57:54Z</time>
      </trkpt>
      <trkpt lat="46.15651" lon="-1.1542">
        <ele>5.8799</ele>
        <time>2010-12-29T15:57:58Z</time>
      </trkpt>
      <trkpt lat="46.1565" lon="-1.15421">
        <ele>5.8462</ele>
        <time>2010-12-29T15:57:59Z</time>
      </trkpt>
      <trkpt lat="46.15649" lon="-1.15421">
        <ele>5.8105</ele>
        <time>2010-12-29T15:58:00Z</time>
      </trkpt>
      <trkpt lat="46.15648" lon="-1.15421">
        <ele>5.7727</ele>
        <time>2010-12-29T15:58:01Z</time>
      </trkpt>
      <trkpt lat="46.15646" lon="-1.15422">
        <ele>5.7341</ele>
        <time>2010-12-29T15:58:02Z</time>
      </trkpt>
      <trkpt lat="46.15645" lon="-1.15422">
        <ele>5.6948</ele>
        <time>2010-12-29T15:58:03Z</time>
      </trkpt>
      <trkpt lat="46.15645" lon="-1.15422">
        <ele>5.6561</ele>
        <time>2010-12-29T15:58:04Z</time>
      </trkpt>
      <trkpt lat="46.15643" lon="-1.15423">
        <ele>5.6148</ele>
        <time>2010-12-29T15:58:05Z</time>
      </trkpt>
      <trkpt lat="46.15643" lon="-1.15424">
        <ele>5.5723</ele>
        <time>2010-12-29T15:58:06Z</time>
      </trkpt>
      <trkpt lat="46.15641" lon="-1.15424">
        <ele>5.5299</ele>
        <time>2010-12-29T15:58:07Z</time>
      </trkpt>
      <trkpt lat="46.1564" lon="-1.15425">
        <ele>5.4859</ele>
        <time>2010-12-29T15:58:08Z</time>
      </trkpt>
      <trkpt lat="46.1564" lon="-1.15426">
        <ele>5.4376</ele>
        <time>2010-12-29T15:58:09Z</time>
      </trkpt>
      <trkpt lat="46.15639" lon="-1.15426">
        <ele>5.3864</ele>
        <time>2010-12-29T15:58:10Z</time>
      </trkpt>
      <trkpt lat="46.15638" lon="-1.15427">
        <ele>5.3315</ele>
        <time>2010-12-29T15:58:11Z</time>
      </trkpt>
      <trkpt lat="46.15636" lon="-1.15428">
        <ele>5.276</ele>
        <time>2010-12-29T15:58:12Z</time>
      </trkpt>
      <trkpt lat="46.15635" lon="-1.15428">
        <ele>5.2206</ele>
        <time>2010-12-29T15:58:13Z</time>
      </trkpt>
      <trkpt lat="46.15634" lon="-1.15429">
        <ele>5.1637</ele>
        <time>2010-12-29T15:58:14Z</time>
      </trkpt>
      <trkpt lat="46.15631" lon="-1.1543">
        <ele>4.9564</ele>
        <time>2010-12-29T15:58:17Z</time>
      </trkpt>
      <trkpt lat="46.1563" lon="-1.1543">
        <ele>4.8687</ele>
        <time>2010-12-29T15:58:18Z</time>
      </trkpt>
      <trkpt lat="46.15629" lon="-1.1543">
        <ele>4.7769</ele>
        <time>2010-12-29T15:58:19Z</time>
      </trkpt>
      <trkpt lat="46.15628" lon="-1.1543">
        <ele>4.6845</ele>
        <time>2010-12-29T15:58:20Z</time>
      </trkpt>
      <trkpt lat="46.15627" lon="-1.15431">
        <ele>4.5952</ele>
        <time>2010-12-29T15:58:21Z</time>
      </trkpt>
      <trkpt lat="46.15627" lon="-1.15431">
        <ele>4.5074</ele>
        <time>2010-12-29T15:58:22Z</time>
      </trkpt>
      <trkpt lat="46.15625" lon="-1.15431">
        <ele>4.414</ele>
        <time>2010-12-29T15:58:23Z</time>
      </trkpt>
      <trkpt lat="46.15625" lon="-1.15431">
        <ele>4.3193</ele>
        <time>2010-12-29T15:58:24Z</time>
      </trkpt>
      <trkpt lat="46.15624" lon="-1.15431">
        <ele>4.219</ele>
        <time>2010-12-29T15:58:25Z</time>
      </trkpt>
      <trkpt lat="46.15623" lon="-1.15432">
        <ele>4.1132</ele>
        <time>2010-12-29T15:58:26Z</time>
      </trkpt>
      <trkpt lat="46.15622" lon="-1.15432">
        <ele>4.0045</ele>
        <time>2010-12-29T15:58:27Z</time>
      </trkpt>
      <trkpt lat="46.15621" lon="-1.15433">
        <ele>3.8924</ele>
        <time>2010-12-29T15:58:28Z</time>
      </trkpt>
      <trkpt lat="46.15619" lon="-1.15434">
        <ele>3.5714</ele>
        <time>2010-12-29T15:58:31Z</time>
      </trkpt>
      <trkpt lat="46.15618" lon="-1.15434">
        <ele>3.4707</ele>
        <time>2010-12-29T15:58:32Z</time>
      </trkpt>
      <trkpt lat="46.15617" lon="-1.15434">
        <ele>3.376</ele>
        <time>2010-12-29T15:58:33Z</time>
      </trkpt>
      <trkpt lat="46.15616" lon="-1.15434">
        <ele>3.2818</ele>
        <time>2010-12-29T15:58:34Z</time>
      </trkpt>
      <trkpt lat="46.15616" lon="-1.15434">
        <ele>3.1917</ele>
        <time>2010-12-29T15:58:35Z</time>
      </trkpt>
      <trkpt lat="46.15614" lon="-1.15434">
        <ele>3.0998</ele>
        <time>2010-12-29T15:58:36Z</time>
      </trkpt>
      <trkpt lat="46.15614" lon="-1.15434">
        <ele>3.0131</ele>
        <time>2010-12-29T15:58:37Z</time>
      </trkpt>
      <trkpt lat="46.15612" lon="-1.15434">
        <ele>2.9254</ele>
        <time>2010-12-29T15:58:38Z</time>
      </trkpt>
      <trkpt lat="46.15611" lon="-1.15434">
        <ele>2.8465</ele>
        <time>2010-12-29T15:58:39Z</time>
      </trkpt>
      <trkpt lat="46.1561" lon="-1.15434">
        <ele>2.7756</ele>
        <time>2010-12-29T15:58:40Z</time>
      </trkpt>
      <trkpt lat="46.15609" lon="-1.15434">
        <ele>2.7125</ele>
        <time>2010-12-29T15:58:41Z</time>
      </trkpt>
      <trkpt lat="46.15608" lon="-1.15434">
        <ele>2.6512</ele>
        <time>2010-12-29T15:58:42Z</time>
      </trkpt>
      <trkpt lat="46.15607" lon="-1.15434">
        <ele>2.5938</ele>
        <time>2010-12-29T15:58:43Z</time>
      </trkpt>
      <trkpt lat="46.15602" lon="-1.15435">
        <ele>2.2965</ele>
        <time>2010-12-29T15:58:49Z</time>
      </trkpt>
      <trkpt lat="46.15601" lon="-1.15435">
        <ele>2.2567</ele>
        <time>2010-12-29T15:58:50Z</time>
      </trkpt>
      <trkpt lat="46.15597" lon="-1.15437">
        <ele>2.0629</ele>
        <time>2010-12-29T15:58:55Z</time>
      </trkpt>
      <trkpt lat="46.15592" lon="-1.1544">
        <ele>1.8646</ele>
        <time>2010-12-29T15:59:00Z</time>
      </trkpt>
      <trkpt lat="46.15587" lon="-1.15439">
        <ele>1.6361</ele>
        <time>2010-12-29T15:59:05Z</time>
      </trkpt>
      <trkpt lat="46.15586" lon="-1.15438">
        <ele>1.543</ele>
        <time>2010-12-29T15:59:07Z</time>
      </trkpt>
      <trkpt lat="46.15585" lon="-1.15438">
        <ele>1.4983</ele>
        <time>2010-12-29T15:59:08Z</time>
      </trkpt>
      <trkpt lat="46.15583" lon="-1.15437">
        <ele>1.45</ele>
        <time>2010-12-29T15:59:09Z</time>
      </trkpt>
      <trkpt lat="46.15582" lon="-1.15437">
        <ele>1.3961</ele>
        <time>2010-12-29T15:59:10Z</time>
      </trkpt>
      <trkpt lat="46.15581" lon="-1.15437">
        <ele>1.3354</ele>
        <time>2010-12-29T15:59:11Z</time>
      </trkpt>
      <trkpt lat="46.1558" lon="-1.15437">
        <ele>1.2715</ele>
        <time>2010-12-29T15:59:12Z</time>
      </trkpt>
      <trkpt lat="46.15575" lon="-1.15439">
        <ele>1.0356</ele>
        <time>2010-12-29T15:59:20Z</time>
      </trkpt>
      <trkpt lat="46.1558" lon="-1.15435">
        <ele>5.1</ele>
        <time>2010-12-29T15:59:43Z</time>
      </trkpt>
      <trkpt lat="46.15583" lon="-1.15433">
        <ele>5.2</ele>
        <time>2010-12-29T15:59:48Z</time>
      </trkpt>
      <trkpt lat="46.15585" lon="-1.15434">
        <ele>5.1</ele>
        <time>2010-12-29T15:59:49Z</time>
      </trkpt>
      <trkpt lat="46.15586" lon="-1.15434">
        <ele>5.1</ele>
        <time>2010-12-29T15:59:50Z</time>
      </trkpt>
      <trkpt lat="46.15587" lon="-1.15434">
        <ele>5.1</ele>
        <time>2010-12-29T15:59:51Z</time>
      </trkpt>
      <trkpt lat="46.15588" lon="-1.15434">
        <ele>5</ele>
        <time>2010-12-29T15:59:52Z</time>
      </trkpt>
      <trkpt lat="46.15589" lon="-1.15434">
        <ele>4.9</ele>
        <time>2010-12-29T15:59:53Z</time>
      </trkpt>
      <trkpt lat="46.1559" lon="-1.15434">
        <ele>4.8</ele>
        <time>2010-12-29T15:59:54Z</time>
      </trkpt>
      <trkpt lat="46.15594" lon="-1.15433">
        <ele>4.6</ele>
        <time>2010-12-29T15:59:58Z</time>
      </trkpt>
      <trkpt lat="46.15599" lon="-1.15431">
        <ele>4.2</ele>
        <time>2010-12-29T16:00:03Z</time>
      </trkpt>
      <trkpt lat="46.15604" lon="-1.15431">
        <ele>3.9</ele>
        <time>2010-12-29T16:00:08Z</time>
      </trkpt>
      <trkpt lat="46.15608" lon="-1.15429">
        <ele>3.6</ele>
        <time>2010-12-29T16:00:13Z</time>
      </trkpt>
      <trkpt lat="46.15613" lon="-1.15429">
        <ele>3.5</ele>
        <time>2010-12-29T16:00:16Z</time>
      </trkpt>
      <trkpt lat="46.15619" lon="-1.15429">
        <ele>0.1493</ele>
        <time>2010-12-29T16:00:20Z</time>
      </trkpt>
      <trkpt lat="46.15624" lon="-1.15428">
        <ele>0.5716</ele>
        <time>2010-12-29T16:00:24Z</time>
      </trkpt>
      <trkpt lat="46.15625" lon="-1.15427">
        <ele>0.6689</ele>
        <time>2010-12-29T16:00:25Z</time>
      </trkpt>
      <trkpt lat="46.15627" lon="-1.15427">
        <ele>0.7625</ele>
        <time>2010-12-29T16:00:26Z</time>
      </trkpt>
      <trkpt lat="46.15628" lon="-1.15426">
        <ele>0.8492</ele>
        <time>2010-12-29T16:00:27Z</time>
      </trkpt>
      <trkpt lat="46.15629" lon="-1.15426">
        <ele>0.9334</ele>
        <time>2010-12-29T16:00:28Z</time>
      </trkpt>
      <trkpt lat="46.1563" lon="-1.15425">
        <ele>1.0171</ele>
        <time>2010-12-29T16:00:29Z</time>
      </trkpt>
      <trkpt lat="46.15632" lon="-1.15425">
        <ele>1.1678</ele>
        <time>2010-12-29T16:00:31Z</time>
      </trkpt>
      <trkpt lat="46.15633" lon="-1.15425">
        <ele>1.2368</ele>
        <time>2010-12-29T16:00:32Z</time>
      </trkpt>
      <trkpt lat="46.15634" lon="-1.15426">
        <ele>1.3033</ele>
        <time>2010-12-29T16:00:33Z</time>
      </trkpt>
      <trkpt lat="46.15635" lon="-1.15426">
        <ele>1.3745</ele>
        <time>2010-12-29T16:00:34Z</time>
      </trkpt>
      <trkpt lat="46.15637" lon="-1.15426">
        <ele>1.4486</ele>
        <time>2010-12-29T16:00:35Z</time>
      </trkpt>
      <trkpt lat="46.15638" lon="-1.15427">
        <ele>1.5218</ele>
        <time>2010-12-29T16:00:36Z</time>
      </trkpt>
      <trkpt lat="46.15639" lon="-1.15427">
        <ele>1.5911</ele>
        <time>2010-12-29T16:00:37Z</time>
      </trkpt>
      <trkpt lat="46.1564" lon="-1.15427">
        <ele>1.6544</ele>
        <time>2010-12-29T16:00:38Z</time>
      </trkpt>
      <trkpt lat="46.15641" lon="-1.15427">
        <ele>1.7149</ele>
        <time>2010-12-29T16:00:39Z</time>
      </trkpt>
      <trkpt lat="46.15643" lon="-1.15427">
        <ele>1.7725</ele>
        <time>2010-12-29T16:00:40Z</time>
      </trkpt>
      <trkpt lat="46.15643" lon="-1.15428">
        <ele>1.8282</ele>
        <time>2010-12-29T16:00:41Z</time>
      </trkpt>
      <trkpt lat="46.15645" lon="-1.15428">
        <ele>1.8806</ele>
        <time>2010-12-29T16:00:42Z</time>
      </trkpt>
      <trkpt lat="46.15645" lon="-1.15428">
        <ele>1.9275</ele>
        <time>2010-12-29T16:00:43Z</time>
      </trkpt>
      <trkpt lat="46.15646" lon="-1.15427">
        <ele>1.9709</ele>
        <time>2010-12-29T16:00:44Z</time>
      </trkpt>
      <trkpt lat="46.15647" lon="-1.15427">
        <ele>2.0086</ele>
        <time>2010-12-29T16:00:45Z</time>
      </trkpt>
      <trkpt lat="46.15648" lon="-1.15427">
        <ele>2.042</ele>
        <time>2010-12-29T16:00:46Z</time>
      </trkpt>
      <trkpt lat="46.15649" lon="-1.15428">
        <ele>2.0706</ele>
        <time>2010-12-29T16:00:47Z</time>
      </trkpt>
      <trkpt lat="46.1565" lon="-1.15431">
        <ele>2.0822</ele>
        <time>2010-12-29T16:00:55Z</time>
      </trkpt>
      <trkpt lat="46.15651" lon="-1.15431">
        <ele>2.0728</ele>
        <time>2010-12-29T16:00:56Z</time>
      </trkpt>
      <trkpt lat="46.15651" lon="-1.15432">
        <ele>2.0634</ele>
        <time>2010-12-29T16:00:57Z</time>
      </trkpt>
      <trkpt lat="46.15652" lon="-1.15433">
        <ele>2.0505</ele>
        <time>2010-12-29T16:00:58Z</time>
      </trkpt>
      <trkpt lat="46.15653" lon="-1.15434">
        <ele>2.0392</ele>
        <time>2010-12-29T16:00:59Z</time>
      </trkpt>
      <trkpt lat="46.15657" lon="-1.15437">
        <ele>2.0215</ele>
        <time>2010-12-29T16:01:04Z</time>
      </trkpt>
      <trkpt lat="46.15659" lon="-1.15437">
        <ele>2.0082</ele>
        <time>2010-12-29T16:01:07Z</time>
      </trkpt>
      <trkpt lat="46.1566" lon="-1.15437">
        <ele>2.0004</ele>
        <time>2010-12-29T16:01:08Z</time>
      </trkpt>
      <trkpt lat="46.15661" lon="-1.15438">
        <ele>1.9998</ele>
        <time>2010-12-29T16:01:09Z</time>
      </trkpt>
      <trkpt lat="46.15661" lon="-1.15438">
        <ele>2.0006</ele>
        <time>2010-12-29T16:01:10Z</time>
      </trkpt>
      <trkpt lat="46.15662" lon="-1.15439">
        <ele>2.0018</ele>
        <time>2010-12-29T16:01:11Z</time>
      </trkpt>
      <trkpt lat="46.15664" lon="-1.15438">
        <ele>1.975</ele>
        <time>2010-12-29T16:01:15Z</time>
      </trkpt>
      <trkpt lat="46.15665" lon="-1.15439">
        <ele>1.9817</ele>
        <time>2010-12-29T16:01:16Z</time>
      </trkpt>
      <trkpt lat="46.15665" lon="-1.1544">
        <ele>1.9949</ele>
        <time>2010-12-29T16:01:17Z</time>
      </trkpt>
      <trkpt lat="46.15665" lon="-1.15441">
        <ele>2.0388</ele>
        <time>2010-12-29T16:01:18Z</time>
      </trkpt>
      <trkpt lat="46.15665" lon="-1.15447">
        <ele>2.0312</ele>
        <time>2010-12-29T16:01:28Z</time>
      </trkpt>
      <trkpt lat="46.15668" lon="-1.15454">
        <ele>1.7268</ele>
        <time>2010-12-29T16:01:33Z</time>
      </trkpt>
      <trkpt lat="46.15669" lon="-1.15455">
        <ele>1.6462</ele>
        <time>2010-12-29T16:01:34Z</time>
      </trkpt>
      <trkpt lat="46.1567" lon="-1.15458">
        <ele>1.483</ele>
        <time>2010-12-29T16:01:36Z</time>
      </trkpt>
      <trkpt lat="46.15671" lon="-1.1546">
        <ele>1.4008</ele>
        <time>2010-12-29T16:01:37Z</time>
      </trkpt>
      <trkpt lat="46.15672" lon="-1.15462">
        <ele>1.3168</ele>
        <time>2010-12-29T16:01:38Z</time>
      </trkpt>
      <trkpt lat="46.15672" lon="-1.15463">
        <ele>1.2235</ele>
        <time>2010-12-29T16:01:39Z</time>
      </trkpt>
      <trkpt lat="46.15673" lon="-1.15466">
        <ele>1.0645</ele>
        <time>2010-12-29T16:01:41Z</time>
      </trkpt>
      <trkpt lat="46.1567" lon="-1.15472">
        <ele>0.8962</ele>
        <time>2010-12-29T16:01:47Z</time>
      </trkpt>
      <trkpt lat="46.15664" lon="-1.15472">
        <ele>0.7844</ele>
        <time>2010-12-29T16:02:02Z</time>
      </trkpt>
      <trkpt lat="46.1566" lon="-1.15474">
        <ele>0.7678</ele>
        <time>2010-12-29T16:02:05Z</time>
      </trkpt>
      <trkpt lat="46.15657" lon="-1.15477">
        <ele>0.7693</ele>
        <time>2010-12-29T16:02:08Z</time>
      </trkpt>
      <trkpt lat="46.15656" lon="-1.15478">
        <ele>0.7668</ele>
        <time>2010-12-29T16:02:09Z</time>
      </trkpt>
      <trkpt lat="46.15653" lon="-1.15483">
        <ele>0.8694</ele>
        <time>2010-12-29T16:02:13Z</time>
      </trkpt>
      <trkpt lat="46.15651" lon="-1.15491">
        <ele>1.1135</ele>
        <time>2010-12-29T16:02:16Z</time>
      </trkpt>
      <trkpt lat="46.15649" lon="-1.15498">
        <ele>1.606</ele>
        <time>2010-12-29T16:02:22Z</time>
      </trkpt>
      <trkpt lat="46.15649" lon="-1.15505">
        <ele>2.328</ele>
        <time>2010-12-29T16:02:28Z</time>
      </trkpt>
      <trkpt lat="46.15649" lon="-1.15512">
        <ele>3.1494</ele>
        <time>2010-12-29T16:02:37Z</time>
      </trkpt>
      <trkpt lat="46.15647" lon="-1.15518">
        <ele>3.9293</ele>
        <time>2010-12-29T16:02:43Z</time>
      </trkpt>
      <trkpt lat="46.15644" lon="-1.15524">
        <ele>4.4907</ele>
        <time>2010-12-29T16:02:48Z</time>
      </trkpt>
      <trkpt lat="46.15641" lon="-1.15529">
        <ele>5.0885</ele>
        <time>2010-12-29T16:02:54Z</time>
      </trkpt>
      <trkpt lat="46.15636" lon="-1.15532">
        <ele>5.8741</ele>
        <time>2010-12-29T16:03:02Z</time>
      </trkpt>
      <trkpt lat="46.15635" lon="-1.15533">
        <ele>5.9455</ele>
        <time>2010-12-29T16:03:03Z</time>
      </trkpt>
      <trkpt lat="46.15635" lon="-1.15533">
        <ele>6.0136</ele>
        <time>2010-12-29T16:03:04Z</time>
      </trkpt>
      <trkpt lat="46.15634" lon="-1.15534">
        <ele>6.0801</ele>
        <time>2010-12-29T16:03:05Z</time>
      </trkpt>
      <trkpt lat="46.15633" lon="-1.15535">
        <ele>6.1376</ele>
        <time>2010-12-29T16:03:06Z</time>
      </trkpt>
      <trkpt lat="46.15633" lon="-1.15536">
        <ele>6.1946</ele>
        <time>2010-12-29T16:03:07Z</time>
      </trkpt>
      <trkpt lat="46.15633" lon="-1.15537">
        <ele>6.2436</ele>
        <time>2010-12-29T16:03:08Z</time>
      </trkpt>
      <trkpt lat="46.15632" lon="-1.15544">
        <ele>6.5447</ele>
        <time>2010-12-29T16:03:17Z</time>
      </trkpt>
      <trkpt lat="46.15633" lon="-1.1555">
        <ele>6.7164</ele>
        <time>2010-12-29T16:03:24Z</time>
      </trkpt>
      <trkpt lat="46.15631" lon="-1.15557">
        <ele>7.1638</ele>
        <time>2010-12-29T16:03:30Z</time>
      </trkpt>
      <trkpt lat="46.15627" lon="-1.15563">
        <ele>7.5025</ele>
        <time>2010-12-29T16:03:35Z</time>
      </trkpt>
      <trkpt lat="46.15625" lon="-1.15567">
        <ele>7.9536</ele>
        <time>2010-12-29T16:03:41Z</time>
      </trkpt>
      <trkpt lat="46.15625" lon="-1.15568">
        <ele>8.0236</ele>
        <time>2010-12-29T16:03:42Z</time>
      </trkpt>
      <trkpt lat="46.15629" lon="-1.15565">
        <ele>8.3391</ele>
        <time>2010-12-29T16:04:11Z</time>
      </trkpt>
      <trkpt lat="46.1563" lon="-1.15557">
        <ele>7.8543</ele>
        <time>2010-12-29T16:04:18Z</time>
      </trkpt>
      <trkpt lat="46.15632" lon="-1.15551">
        <ele>7.6727</ele>
        <time>2010-12-29T16:04:23Z</time>
      </trkpt>
      <trkpt lat="46.15635" lon="-1.15544">
        <ele>7.6587</ele>
        <time>2010-12-29T16:04:27Z</time>
      </trkpt>
      <trkpt lat="46.15635" lon="-1.15536">
        <ele>7.2144</ele>
        <time>2010-12-29T16:04:33Z</time>
      </trkpt>
      <trkpt lat="46.15636" lon="-1.15534">
        <ele>7.0286</ele>
        <time>2010-12-29T16:04:36Z</time>
      </trkpt>
      <trkpt lat="46.15636" lon="-1.15533">
        <ele>6.9685</ele>
        <time>2010-12-29T16:04:37Z</time>
      </trkpt>
      <trkpt lat="46.15639" lon="-1.15527">
        <ele>6.6389</ele>
        <time>2010-12-29T16:04:43Z</time>
      </trkpt>
      <trkpt lat="46.15643" lon="-1.15522">
        <ele>6.2735</ele>
        <time>2010-12-29T16:04:50Z</time>
      </trkpt>
      <trkpt lat="46.15643" lon="-1.1552">
        <ele>6.2188</ele>
        <time>2010-12-29T16:04:51Z</time>
      </trkpt>
      <trkpt lat="46.15644" lon="-1.15519">
        <ele>6.163</ele>
        <time>2010-12-29T16:04:52Z</time>
      </trkpt>
      <trkpt lat="46.15645" lon="-1.15518">
        <ele>6.1024</ele>
        <time>2010-12-29T16:04:53Z</time>
      </trkpt>
      <trkpt lat="46.15645" lon="-1.15516">
        <ele>6.0368</ele>
        <time>2010-12-29T16:04:54Z</time>
      </trkpt>
      <trkpt lat="46.15645" lon="-1.15515">
        <ele>5.9676</ele>
        <time>2010-12-29T16:04:55Z</time>
      </trkpt>
      <trkpt lat="46.15645" lon="-1.15514">
        <ele>5.8952</ele>
        <time>2010-12-29T16:04:56Z</time>
      </trkpt>
      <trkpt lat="46.15646" lon="-1.15512">
        <ele>5.8198</ele>
        <time>2010-12-29T16:04:57Z</time>
      </trkpt>
      <trkpt lat="46.15646" lon="-1.15511">
        <ele>5.7501</ele>
        <time>2010-12-29T16:04:58Z</time>
      </trkpt>
      <trkpt lat="46.15648" lon="-1.15511">
        <ele>5.6814</ele>
        <time>2010-12-29T16:04:59Z</time>
      </trkpt>
      <trkpt lat="46.15649" lon="-1.1551">
        <ele>5.6115</ele>
        <time>2010-12-29T16:05:00Z</time>
      </trkpt>
      <trkpt lat="46.1565" lon="-1.1551">
        <ele>5.5425</ele>
        <time>2010-12-29T16:05:01Z</time>
      </trkpt>
      <trkpt lat="46.15651" lon="-1.15509">
        <ele>5.4701</ele>
        <time>2010-12-29T16:05:02Z</time>
      </trkpt>
      <trkpt lat="46.15652" lon="-1.15509">
        <ele>5.394</ele>
        <time>2010-12-29T16:05:03Z</time>
      </trkpt>
      <trkpt lat="46.15653" lon="-1.15509">
        <ele>5.3139</ele>
        <time>2010-12-29T16:05:04Z</time>
      </trkpt>
      <trkpt lat="46.15657" lon="-1.15506">
        <ele>4.8161</ele>
        <time>2010-12-29T16:05:10Z</time>
      </trkpt>
      <trkpt lat="46.15659" lon="-1.15498">
        <ele>4.5393</ele>
        <time>2010-12-29T16:05:15Z</time>
      </trkpt>
      <trkpt lat="46.15661" lon="-1.15492">
        <ele>4.4273</ele>
        <time>2010-12-29T16:05:20Z</time>
      </trkpt>
      <trkpt lat="46.15665" lon="-1.15489">
        <ele>4.3223</ele>
        <time>2010-12-29T16:05:29Z</time>
      </trkpt>
      <trkpt lat="46.15669" lon="-1.15482">
        <ele>4.2886</ele>
        <time>2010-12-29T16:05:33Z</time>
      </trkpt>
      <trkpt lat="46.1567" lon="-1.15474">
        <ele>4.3117</ele>
        <time>2010-12-29T16:05:36Z</time>
      </trkpt>
      <trkpt lat="46.15673" lon="-1.15468">
        <ele>4.4941</ele>
        <time>2010-12-29T16:05:39Z</time>
      </trkpt>
      <trkpt lat="46.15677" lon="-1.15462">
        <ele>4.9726</ele>
        <time>2010-12-29T16:05:44Z</time>
      </trkpt>
      <trkpt lat="46.1568" lon="-1.15456">
        <ele>5.3185</ele>
        <time>2010-12-29T16:05:51Z</time>
      </trkpt>
      <trkpt lat="46.15682" lon="-1.1545">
        <ele>5.4373</ele>
        <time>2010-12-29T16:05:57Z</time>
      </trkpt>
      <trkpt lat="46.15686" lon="-1.15445">
        <ele>5.4817</ele>
        <time>2010-12-29T16:06:05Z</time>
      </trkpt>
      <trkpt lat="46.1569" lon="-1.15439">
        <ele>5.6067</ele>
        <time>2010-12-29T16:06:10Z</time>
      </trkpt>
      <trkpt lat="46.15694" lon="-1.15435">
        <ele>5.4993</ele>
        <time>2010-12-29T16:06:24Z</time>
      </trkpt>
      <trkpt lat="46.15699" lon="-1.15434">
        <ele>5.3738</ele>
        <time>2010-12-29T16:06:32Z</time>
      </trkpt>
      <trkpt lat="46.15702" lon="-1.15429">
        <ele>5.0287</ele>
        <time>2010-12-29T16:06:39Z</time>
      </trkpt>
      <trkpt lat="46.15706" lon="-1.15425">
        <ele>4.6869</ele>
        <time>2010-12-29T16:06:47Z</time>
      </trkpt>
      <trkpt lat="46.1571" lon="-1.1542">
        <ele>4.0689</ele>
        <time>2010-12-29T16:06:53Z</time>
      </trkpt>
      <trkpt lat="46.15714" lon="-1.15416">
        <ele>3.5873</ele>
        <time>2010-12-29T16:06:58Z</time>
      </trkpt>
      <trkpt lat="46.15718" lon="-1.15412">
        <ele>3.0346</ele>
        <time>2010-12-29T16:07:03Z</time>
      </trkpt>
      <trkpt lat="46.15723" lon="-1.15409">
        <ele>2.6577</ele>
        <time>2010-12-29T16:07:10Z</time>
      </trkpt>
      <trkpt lat="46.15726" lon="-1.15404">
        <ele>2.2299</ele>
        <time>2010-12-29T16:07:14Z</time>
      </trkpt>
      <trkpt lat="46.1573" lon="-1.15399">
        <ele>2.0371</ele>
        <time>2010-12-29T16:07:19Z</time>
      </trkpt>
      <trkpt lat="46.15733" lon="-1.15395">
        <ele>1.7664</ele>
        <time>2010-12-29T16:07:26Z</time>
      </trkpt>
      <trkpt lat="46.15736" lon="-1.1539">
        <ele>1.0907</ele>
        <time>2010-12-29T16:07:33Z</time>
      </trkpt>
      <trkpt lat="46.15739" lon="-1.15384">
        <ele>1.024</ele>
        <time>2010-12-29T16:07:38Z</time>
      </trkpt>
      <trkpt lat="46.15744" lon="-1.15381">
        <ele>1.2333</ele>
        <time>2010-12-29T16:07:44Z</time>
      </trkpt>
      <trkpt lat="46.15748" lon="-1.15382">
        <ele>1.2675</ele>
        <time>2010-12-29T16:07:51Z</time>
      </trkpt>
      <trkpt lat="46.15753" lon="-1.15379">
        <ele>1.2419</ele>
        <time>2010-12-29T16:07:58Z</time>
      </trkpt>
      <trkpt lat="46.15758" lon="-1.15378">
        <ele>1.1247</ele>
        <time>2010-12-29T16:08:07Z</time>
      </trkpt>
      <trkpt lat="46.15763" lon="-1.15374">
        <ele>1.0402</ele>
        <time>2010-12-29T16:08:11Z</time>
      </trkpt>
      <trkpt lat="46.15767" lon="-1.15368">
        <ele>1.1688</ele>
        <time>2010-12-29T16:08:14Z</time>
      </trkpt>
      <trkpt lat="46.15771" lon="-1.15362">
        <ele>1.4305</ele>
        <time>2010-12-29T16:08:18Z</time>
      </trkpt>
      <trkpt lat="46.15776" lon="-1.15361">
        <ele>2.025</ele>
        <time>2010-12-29T16:08:20Z</time>
      </trkpt>
      <trkpt lat="46.15784" lon="-1.15362">
        <ele>2.6628</ele>
        <time>2010-12-29T16:08:21Z</time>
      </trkpt>
      <trkpt lat="46.1579" lon="-1.15364">
        <ele>3.2507</ele>
        <time>2010-12-29T16:08:22Z</time>
      </trkpt>
      <trkpt lat="46.15794" lon="-1.15365">
        <ele>3.7905</ele>
        <time>2010-12-29T16:08:23Z</time>
      </trkpt>
      <trkpt lat="46.15801" lon="-1.15367">
        <ele>4.8151</ele>
        <time>2010-12-29T16:08:25Z</time>
      </trkpt>
      <trkpt lat="46.15804" lon="-1.15367">
        <ele>5.3502</ele>
        <time>2010-12-29T16:08:26Z</time>
      </trkpt>
      <trkpt lat="46.15809" lon="-1.15369">
        <ele>6.4044</ele>
        <time>2010-12-29T16:08:28Z</time>
      </trkpt>
      <trkpt lat="46.15813" lon="-1.15369">
        <ele>8.2947</ele>
        <time>2010-12-29T16:08:32Z</time>
      </trkpt>
      <trkpt lat="46.15813" lon="-1.15369">
        <ele>8.7416</ele>
        <time>2010-12-29T16:08:33Z</time>
      </trkpt>
      <trkpt lat="46.15809" lon="-1.15365">
        <ele>15.4229</ele>
        <time>2010-12-29T16:08:57Z</time>
      </trkpt>
      <trkpt lat="46.15814" lon="-1.15363">
        <ele>16.6377</ele>
        <time>2010-12-29T16:09:26Z</time>
      </trkpt>
      <trkpt lat="46.15815" lon="-1.15362">
        <ele>16.641</ele>
        <time>2010-12-29T16:09:27Z</time>
      </trkpt>
      <trkpt lat="46.15815" lon="-1.15362">
        <ele>16.6428</ele>
        <time>2010-12-29T16:09:28Z</time>
      </trkpt>
      <trkpt lat="46.15817" lon="-1.15362">
        <ele>16.6368</ele>
        <time>2010-12-29T16:09:29Z</time>
      </trkpt>
      <trkpt lat="46.15818" lon="-1.15363">
        <ele>16.6303</ele>
        <time>2010-12-29T16:09:30Z</time>
      </trkpt>
      <trkpt lat="46.15818" lon="-1.15362">
        <ele>16.6272</ele>
        <time>2010-12-29T16:09:31Z</time>
      </trkpt>
      <trkpt lat="46.15819" lon="-1.15361">
        <ele>16.627</ele>
        <time>2010-12-29T16:09:32Z</time>
      </trkpt>
      <trkpt lat="46.1582" lon="-1.15361">
        <ele>16.6238</ele>
        <time>2010-12-29T16:09:33Z</time>
      </trkpt>
      <trkpt lat="46.1582" lon="-1.1536">
        <ele>16.6189</ele>
        <time>2010-12-29T16:09:34Z</time>
      </trkpt>
      <trkpt lat="46.15821" lon="-1.15361">
        <ele>16.5843</ele>
        <time>2010-12-29T16:09:35Z</time>
      </trkpt>
      <trkpt lat="46.15822" lon="-1.15361">
        <ele>16.5281</ele>
        <time>2010-12-29T16:09:36Z</time>
      </trkpt>
      <trkpt lat="46.15823" lon="-1.15362">
        <ele>16.4733</ele>
        <time>2010-12-29T16:09:37Z</time>
      </trkpt>
      <trkpt lat="46.15823" lon="-1.15363">
        <ele>16.4182</ele>
        <time>2010-12-29T16:09:38Z</time>
      </trkpt>
      <trkpt lat="46.15824" lon="-1.15363">
        <ele>16.3653</ele>
        <time>2010-12-29T16:09:39Z</time>
      </trkpt>
      <trkpt lat="46.15825" lon="-1.15364">
        <ele>16.3142</ele>
        <time>2010-12-29T16:09:40Z</time>
      </trkpt>
      <trkpt lat="46.15825" lon="-1.15365">
        <ele>16.266</ele>
        <time>2010-12-29T16:09:41Z</time>
      </trkpt>
      <trkpt lat="46.15829" lon="-1.15371">
        <ele>16.2288</ele>
        <time>2010-12-29T16:09:48Z</time>
      </trkpt>
      <trkpt lat="46.15833" lon="-1.15377">
        <ele>16.0658</ele>
        <time>2010-12-29T16:09:51Z</time>
      </trkpt>
      <trkpt lat="46.15837" lon="-1.1538">
        <ele>15.9208</ele>
        <time>2010-12-29T16:09:54Z</time>
      </trkpt>
      <trkpt lat="46.15838" lon="-1.15382">
        <ele>15.7918</ele>
        <time>2010-12-29T16:09:57Z</time>
      </trkpt>
      <trkpt lat="46.15842" lon="-1.15379">
        <ele>15.361</ele>
        <time>2010-12-29T16:10:03Z</time>
      </trkpt>
      <trkpt lat="46.15842" lon="-1.15379">
        <ele>15.2733</ele>
        <time>2010-12-29T16:10:04Z</time>
      </trkpt>
      <trkpt lat="46.15843" lon="-1.15378">
        <ele>15.1718</ele>
        <time>2010-12-29T16:10:05Z</time>
      </trkpt>
      <trkpt lat="46.15844" lon="-1.15378">
        <ele>15.0591</ele>
        <time>2010-12-29T16:10:06Z</time>
      </trkpt>
      <trkpt lat="46.15844" lon="-1.15377">
        <ele>14.9508</ele>
        <time>2010-12-29T16:10:07Z</time>
      </trkpt>
      <trkpt lat="46.15845" lon="-1.15377">
        <ele>14.8396</ele>
        <time>2010-12-29T16:10:08Z</time>
      </trkpt>
      <trkpt lat="46.15846" lon="-1.15376">
        <ele>14.7288</ele>
        <time>2010-12-29T16:10:09Z</time>
      </trkpt>
      <trkpt lat="46.15846" lon="-1.15376">
        <ele>14.6281</ele>
        <time>2010-12-29T16:10:10Z</time>
      </trkpt>
      <trkpt lat="46.15846" lon="-1.15375">
        <ele>14.5307</ele>
        <time>2010-12-29T16:10:11Z</time>
      </trkpt>
      <trkpt lat="46.15847" lon="-1.15374">
        <ele>14.4348</ele>
        <time>2010-12-29T16:10:12Z</time>
      </trkpt>
      <trkpt lat="46.15847" lon="-1.15372">
        <ele>14.3349</ele>
        <time>2010-12-29T16:10:13Z</time>
      </trkpt>
      <trkpt lat="46.15847" lon="-1.15371">
        <ele>14.2399</ele>
        <time>2010-12-29T16:10:14Z</time>
      </trkpt>
      <trkpt lat="46.15848" lon="-1.15369">
        <ele>14.1395</ele>
        <time>2010-12-29T16:10:15Z</time>
      </trkpt>
      <trkpt lat="46.15848" lon="-1.15367">
        <ele>14.036</ele>
        <time>2010-12-29T16:10:16Z</time>
      </trkpt>
      <trkpt lat="46.15848" lon="-1.15365">
        <ele>13.9354</ele>
        <time>2010-12-29T16:10:17Z</time>
      </trkpt>
      <trkpt lat="46.15848" lon="-1.15364">
        <ele>13.8352</ele>
        <time>2010-12-29T16:10:18Z</time>
      </trkpt>
      <trkpt lat="46.15848" lon="-1.15362">
        <ele>13.7365</ele>
        <time>2010-12-29T16:10:19Z</time>
      </trkpt>
      <trkpt lat="46.15848" lon="-1.1536">
        <ele>13.6445</ele>
        <time>2010-12-29T16:10:20Z</time>
      </trkpt>
      <trkpt lat="46.15848" lon="-1.15359">
        <ele>13.5564</ele>
        <time>2010-12-29T16:10:21Z</time>
      </trkpt>
      <trkpt lat="46.15848" lon="-1.15358">
        <ele>13.4745</ele>
        <time>2010-12-29T16:10:22Z</time>
      </trkpt>
      <trkpt lat="46.15849" lon="-1.15357">
        <ele>13.3977</ele>
        <time>2010-12-29T16:10:23Z</time>
      </trkpt>
      <trkpt lat="46.15849" lon="-1.15357">
        <ele>13.3211</ele>
        <time>2010-12-29T16:10:24Z</time>
      </trkpt>
      <trkpt lat="46.15849" lon="-1.15356">
        <ele>13.2606</ele>
        <time>2010-12-29T16:10:25Z</time>
      </trkpt>
      <trkpt lat="46.15848" lon="-1.15355">
        <ele>13.202</ele>
        <time>2010-12-29T16:10:26Z</time>
      </trkpt>
      <trkpt lat="46.15848" lon="-1.15354">
        <ele>13.1467</ele>
        <time>2010-12-29T16:10:27Z</time>
      </trkpt>
      <trkpt lat="46.15848" lon="-1.15353">
        <ele>13.0936</ele>
        <time>2010-12-29T16:10:28Z</time>
      </trkpt>
      <trkpt lat="46.15849" lon="-1.15352">
        <ele>13.0467</ele>
        <time>2010-12-29T16:10:29Z</time>
      </trkpt>
      <trkpt lat="46.15849" lon="-1.15351">
        <ele>13.0157</ele>
        <time>2010-12-29T16:10:30Z</time>
      </trkpt>
      <trkpt lat="46.15849" lon="-1.1535">
        <ele>12.9928</ele>
        <time>2010-12-29T16:10:31Z</time>
      </trkpt>
      <trkpt lat="46.15849" lon="-1.1535">
        <ele>12.961</ele>
        <time>2010-12-29T16:10:32Z</time>
      </trkpt>
      <trkpt lat="46.15848" lon="-1.15349">
        <ele>12.9281</ele>
        <time>2010-12-29T16:10:33Z</time>
      </trkpt>
      <trkpt lat="46.15849" lon="-1.15348">
        <ele>12.8956</ele>
        <time>2010-12-29T16:10:34Z</time>
      </trkpt>
      <trkpt lat="46.1585" lon="-1.15347">
        <ele>12.8497</ele>
        <time>2010-12-29T16:10:35Z</time>
      </trkpt>
      <trkpt lat="46.15851" lon="-1.15346">
        <ele>12.8018</ele>
        <time>2010-12-29T16:10:36Z</time>
      </trkpt>
      <trkpt lat="46.15851" lon="-1.15344">
        <ele>12.7497</ele>
        <time>2010-12-29T16:10:37Z</time>
      </trkpt>
      <trkpt lat="46.15851" lon="-1.15343">
        <ele>12.6966</ele>
        <time>2010-12-29T16:10:38Z</time>
      </trkpt>
      <trkpt lat="46.15851" lon="-1.15341">
        <ele>12.6391</ele>
        <time>2010-12-29T16:10:39Z</time>
      </trkpt>
      <trkpt lat="46.15851" lon="-1.1534">
        <ele>12.5872</ele>
        <time>2010-12-29T16:10:40Z</time>
      </trkpt>
      <trkpt lat="46.15852" lon="-1.15339">
        <ele>12.5414</ele>
        <time>2010-12-29T16:10:41Z</time>
      </trkpt>
      <trkpt lat="46.15852" lon="-1.15337">
        <ele>12.4946</ele>
        <time>2010-12-29T16:10:42Z</time>
      </trkpt>
      <trkpt lat="46.15852" lon="-1.15336">
        <ele>12.4263</ele>
        <time>2010-12-29T16:10:43Z</time>
      </trkpt>
      <trkpt lat="46.15852" lon="-1.15335">
        <ele>12.341</ele>
        <time>2010-12-29T16:10:44Z</time>
      </trkpt>
      <trkpt lat="46.15852" lon="-1.15334">
        <ele>12.2499</ele>
        <time>2010-12-29T16:10:45Z</time>
      </trkpt>
      <trkpt lat="46.15852" lon="-1.15332">
        <ele>12.161</ele>
        <time>2010-12-29T16:10:46Z</time>
      </trkpt>
      <trkpt lat="46.15852" lon="-1.15331">
        <ele>12.0715</ele>
        <time>2010-12-29T16:10:47Z</time>
      </trkpt>
      <trkpt lat="46.15852" lon="-1.1533">
        <ele>11.9833</ele>
        <time>2010-12-29T16:10:48Z</time>
      </trkpt>
      <trkpt lat="46.15852" lon="-1.15329">
        <ele>11.893</ele>
        <time>2010-12-29T16:10:49Z</time>
      </trkpt>
      <trkpt lat="46.15853" lon="-1.15328">
        <ele>11.804</ele>
        <time>2010-12-29T16:10:50Z</time>
      </trkpt>
      <trkpt lat="46.15853" lon="-1.15327">
        <ele>11.7178</ele>
        <time>2010-12-29T16:10:51Z</time>
      </trkpt>
      <trkpt lat="46.15854" lon="-1.15326">
        <ele>11.6272</ele>
        <time>2010-12-29T16:10:52Z</time>
      </trkpt>
      <trkpt lat="46.15855" lon="-1.15324">
        <ele>11.5471</ele>
        <time>2010-12-29T16:10:53Z</time>
      </trkpt>
      <trkpt lat="46.15855" lon="-1.15323">
        <ele>11.4748</ele>
        <time>2010-12-29T16:10:54Z</time>
      </trkpt>
      <trkpt lat="46.15855" lon="-1.15323">
        <ele>11.4052</ele>
        <time>2010-12-29T16:10:55Z</time>
      </trkpt>
      <trkpt lat="46.15855" lon="-1.15322">
        <ele>11.3362</ele>
        <time>2010-12-29T16:10:56Z</time>
      </trkpt>
      <trkpt lat="46.15857" lon="-1.15321">
        <ele>11.2673</ele>
        <time>2010-12-29T16:10:57Z</time>
      </trkpt>
      <trkpt lat="46.15858" lon="-1.15321">
        <ele>11.1969</ele>
        <time>2010-12-29T16:10:58Z</time>
      </trkpt>
      <trkpt lat="46.15858" lon="-1.1532">
        <ele>11.1254</ele>
        <time>2010-12-29T16:10:59Z</time>
      </trkpt>
      <trkpt lat="46.15859" lon="-1.1532">
        <ele>11.0525</ele>
        <time>2010-12-29T16:11:00Z</time>
      </trkpt>
      <trkpt lat="46.15859" lon="-1.15319">
        <ele>10.9774</ele>
        <time>2010-12-29T16:11:01Z</time>
      </trkpt>
      <trkpt lat="46.1586" lon="-1.15319">
        <ele>10.9029</ele>
        <time>2010-12-29T16:11:02Z</time>
      </trkpt>
      <trkpt lat="46.1586" lon="-1.15318">
        <ele>10.8269</ele>
        <time>2010-12-29T16:11:03Z</time>
      </trkpt>
      <trkpt lat="46.15862" lon="-1.15318">
        <ele>10.7492</ele>
        <time>2010-12-29T16:11:04Z</time>
      </trkpt>
      <trkpt lat="46.15863" lon="-1.15317">
        <ele>10.6803</ele>
        <time>2010-12-29T16:11:05Z</time>
      </trkpt>
      <trkpt lat="46.15864" lon="-1.15317">
        <ele>10.6205</ele>
        <time>2010-12-29T16:11:06Z</time>
      </trkpt>
      <trkpt lat="46.15863" lon="-1.15317">
        <ele>10.5683</ele>
        <time>2010-12-29T16:11:07Z</time>
      </trkpt>
      <trkpt lat="46.15863" lon="-1.15316">
        <ele>10.5246</ele>
        <time>2010-12-29T16:11:08Z</time>
      </trkpt>
      <trkpt lat="46.15863" lon="-1.15315">
        <ele>10.4855</ele>
        <time>2010-12-29T16:11:09Z</time>
      </trkpt>
      <trkpt lat="46.15863" lon="-1.15314">
        <ele>10.4495</ele>
        <time>2010-12-29T16:11:10Z</time>
      </trkpt>
      <trkpt lat="46.15863" lon="-1.15313">
        <ele>10.4135</ele>
        <time>2010-12-29T16:11:11Z</time>
      </trkpt>
      <trkpt lat="46.15863" lon="-1.15312">
        <ele>10.3738</ele>
        <time>2010-12-29T16:11:12Z</time>
      </trkpt>
      <trkpt lat="46.15863" lon="-1.15311">
        <ele>10.3377</ele>
        <time>2010-12-29T16:11:13Z</time>
      </trkpt>
      <trkpt lat="46.15863" lon="-1.1531">
        <ele>10.301</ele>
        <time>2010-12-29T16:11:14Z</time>
      </trkpt>
      <trkpt lat="46.15863" lon="-1.15309">
        <ele>10.2625</ele>
        <time>2010-12-29T16:11:15Z</time>
      </trkpt>
      <trkpt lat="46.15863" lon="-1.15308">
        <ele>10.2278</ele>
        <time>2010-12-29T16:11:16Z</time>
      </trkpt>
      <trkpt lat="46.15863" lon="-1.15307">
        <ele>10.1929</ele>
        <time>2010-12-29T16:11:17Z</time>
      </trkpt>
      <trkpt lat="46.15863" lon="-1.15306">
        <ele>10.1652</ele>
        <time>2010-12-29T16:11:18Z</time>
      </trkpt>
      <trkpt lat="46.15863" lon="-1.15305">
        <ele>10.1407</ele>
        <time>2010-12-29T16:11:19Z</time>
      </trkpt>
      <trkpt lat="46.15863" lon="-1.15304">
        <ele>10.1168</ele>
        <time>2010-12-29T16:11:20Z</time>
      </trkpt>
      <trkpt lat="46.15862" lon="-1.15302">
        <ele>10.1001</ele>
        <time>2010-12-29T16:11:21Z</time>
      </trkpt>
      <trkpt lat="46.15862" lon="-1.15301">
        <ele>10.0823</ele>
        <time>2010-12-29T16:11:22Z</time>
      </trkpt>
      <trkpt lat="46.15861" lon="-1.15299">
        <ele>10.0664</ele>
        <time>2010-12-29T16:11:23Z</time>
      </trkpt>
      <trkpt lat="46.1586" lon="-1.15297">
        <ele>10.0499</ele>
        <time>2010-12-29T16:11:24Z</time>
      </trkpt>
      <trkpt lat="46.1586" lon="-1.15296">
        <ele>10.0304</ele>
        <time>2010-12-29T16:11:25Z</time>
      </trkpt>
      <trkpt lat="46.15865" lon="-1.15295">
        <ele>9.9389</ele>
        <time>2010-12-29T16:11:31Z</time>
      </trkpt>
      <trkpt lat="46.15868" lon="-1.15294">
        <ele>9.8074</ele>
        <time>2010-12-29T16:11:34Z</time>
      </trkpt>
      <trkpt lat="46.1587" lon="-1.15293">
        <ele>9.7211</ele>
        <time>2010-12-29T16:11:36Z</time>
      </trkpt>
      <trkpt lat="46.15871" lon="-1.15293">
        <ele>9.6777</ele>
        <time>2010-12-29T16:11:37Z</time>
      </trkpt>
      <trkpt lat="46.15871" lon="-1.15293">
        <ele>9.6363</ele>
        <time>2010-12-29T16:11:38Z</time>
      </trkpt>
      <trkpt lat="46.15871" lon="-1.15291">
        <ele>9.5983</ele>
        <time>2010-12-29T16:11:39Z</time>
      </trkpt>
      <trkpt lat="46.15871" lon="-1.1529">
        <ele>9.5541</ele>
        <time>2010-12-29T16:11:40Z</time>
      </trkpt>
      <trkpt lat="46.15871" lon="-1.15289">
        <ele>9.5038</ele>
        <time>2010-12-29T16:11:41Z</time>
      </trkpt>
      <trkpt lat="46.15871" lon="-1.15288">
        <ele>9.4481</ele>
        <time>2010-12-29T16:11:42Z</time>
      </trkpt>
      <trkpt lat="46.1587" lon="-1.15287">
        <ele>9.3862</ele>
        <time>2010-12-29T16:11:43Z</time>
      </trkpt>
      <trkpt lat="46.1587" lon="-1.15285">
        <ele>9.326</ele>
        <time>2010-12-29T16:11:44Z</time>
      </trkpt>
      <trkpt lat="46.15871" lon="-1.15284">
        <ele>9.2731</ele>
        <time>2010-12-29T16:11:45Z</time>
      </trkpt>
      <trkpt lat="46.15871" lon="-1.15283">
        <ele>9.2244</ele>
        <time>2010-12-29T16:11:46Z</time>
      </trkpt>
      <trkpt lat="46.15871" lon="-1.15281">
        <ele>9.1802</ele>
        <time>2010-12-29T16:11:47Z</time>
      </trkpt>
      <trkpt lat="46.15871" lon="-1.1528">
        <ele>9.1343</ele>
        <time>2010-12-29T16:11:48Z</time>
      </trkpt>
      <trkpt lat="46.15871" lon="-1.15279">
        <ele>9.0898</ele>
        <time>2010-12-29T16:11:49Z</time>
      </trkpt>
      <trkpt lat="46.15871" lon="-1.15278">
        <ele>9.0475</ele>
        <time>2010-12-29T16:11:50Z</time>
      </trkpt>
      <trkpt lat="46.15872" lon="-1.15277">
        <ele>9.0065</ele>
        <time>2010-12-29T16:11:51Z</time>
      </trkpt>
      <trkpt lat="46.15871" lon="-1.15275">
        <ele>8.9606</ele>
        <time>2010-12-29T16:11:52Z</time>
      </trkpt>
      <trkpt lat="46.15871" lon="-1.15273">
        <ele>8.9132</ele>
        <time>2010-12-29T16:11:53Z</time>
      </trkpt>
      <trkpt lat="46.15871" lon="-1.15271">
        <ele>8.8747</ele>
        <time>2010-12-29T16:11:54Z</time>
      </trkpt>
      <trkpt lat="46.15871" lon="-1.15269">
        <ele>8.8274</ele>
        <time>2010-12-29T16:11:55Z</time>
      </trkpt>
      <trkpt lat="46.15872" lon="-1.15268">
        <ele>8.7701</ele>
        <time>2010-12-29T16:11:56Z</time>
      </trkpt>
      <trkpt lat="46.15873" lon="-1.15267">
        <ele>8.7017</ele>
        <time>2010-12-29T16:11:57Z</time>
      </trkpt>
      <trkpt lat="46.15873" lon="-1.15266">
        <ele>8.6291</ele>
        <time>2010-12-29T16:11:58Z</time>
      </trkpt>
      <trkpt lat="46.15873" lon="-1.15264">
        <ele>8.5544</ele>
        <time>2010-12-29T16:11:59Z</time>
      </trkpt>
      <trkpt lat="46.15873" lon="-1.15263">
        <ele>8.4871</ele>
        <time>2010-12-29T16:12:00Z</time>
      </trkpt>
      <trkpt lat="46.15873" lon="-1.15262">
        <ele>8.4263</ele>
        <time>2010-12-29T16:12:01Z</time>
      </trkpt>
      <trkpt lat="46.15874" lon="-1.1526">
        <ele>8.3704</ele>
        <time>2010-12-29T16:12:02Z</time>
      </trkpt>
      <trkpt lat="46.15873" lon="-1.15258">
        <ele>8.3179</ele>
        <time>2010-12-29T16:12:03Z</time>
      </trkpt>
      <trkpt lat="46.15873" lon="-1.15257">
        <ele>8.2642</ele>
        <time>2010-12-29T16:12:04Z</time>
      </trkpt>
      <trkpt lat="46.15873" lon="-1.15255">
        <ele>8.209</ele>
        <time>2010-12-29T16:12:05Z</time>
      </trkpt>
      <trkpt lat="46.15873" lon="-1.15254">
        <ele>8.1477</ele>
        <time>2010-12-29T16:12:06Z</time>
      </trkpt>
      <trkpt lat="46.15873" lon="-1.15253">
        <ele>8.0797</ele>
        <time>2010-12-29T16:12:07Z</time>
      </trkpt>
      <trkpt lat="46.15873" lon="-1.15252">
        <ele>8.0094</ele>
        <time>2010-12-29T16:12:08Z</time>
      </trkpt>
      <trkpt lat="46.15873" lon="-1.15252">
        <ele>7.9265</ele>
        <time>2010-12-29T16:12:09Z</time>
      </trkpt>
      <trkpt lat="46.15874" lon="-1.15251">
        <ele>7.8452</ele>
        <time>2010-12-29T16:12:10Z</time>
      </trkpt>
      <trkpt lat="46.15875" lon="-1.15251">
        <ele>7.7652</ele>
        <time>2010-12-29T16:12:11Z</time>
      </trkpt>
      <trkpt lat="46.15875" lon="-1.15251">
        <ele>7.6882</ele>
        <time>2010-12-29T16:12:12Z</time>
      </trkpt>
      <trkpt lat="46.15875" lon="-1.15249">
        <ele>7.6077</ele>
        <time>2010-12-29T16:12:13Z</time>
      </trkpt>
      <trkpt lat="46.15876" lon="-1.15249">
        <ele>7.5272</ele>
        <time>2010-12-29T16:12:14Z</time>
      </trkpt>
      <trkpt lat="46.15877" lon="-1.15248">
        <ele>7.4437</ele>
        <time>2010-12-29T16:12:15Z</time>
      </trkpt>
      <trkpt lat="46.15878" lon="-1.15248">
        <ele>7.3609</ele>
        <time>2010-12-29T16:12:16Z</time>
      </trkpt>
      <trkpt lat="46.15879" lon="-1.15248">
        <ele>7.2791</ele>
        <time>2010-12-29T16:12:17Z</time>
      </trkpt>
      <trkpt lat="46.1588" lon="-1.15247">
        <ele>7.1999</ele>
        <time>2010-12-29T16:12:18Z</time>
      </trkpt>
      <trkpt lat="46.1588" lon="-1.15246">
        <ele>7.1315</ele>
        <time>2010-12-29T16:12:19Z</time>
      </trkpt>
      <trkpt lat="46.15881" lon="-1.15245">
        <ele>7.0671</ele>
        <time>2010-12-29T16:12:20Z</time>
      </trkpt>
      <trkpt lat="46.15881" lon="-1.15244">
        <ele>7.0093</ele>
        <time>2010-12-29T16:12:21Z</time>
      </trkpt>
      <trkpt lat="46.15882" lon="-1.15243">
        <ele>6.9562</ele>
        <time>2010-12-29T16:12:22Z</time>
      </trkpt>
      <trkpt lat="46.15883" lon="-1.15243">
        <ele>6.9071</ele>
        <time>2010-12-29T16:12:23Z</time>
      </trkpt>
      <trkpt lat="46.15883" lon="-1.15242">
        <ele>6.8604</ele>
        <time>2010-12-29T16:12:24Z</time>
      </trkpt>
      <trkpt lat="46.15883" lon="-1.1524">
        <ele>6.8171</ele>
        <time>2010-12-29T16:12:25Z</time>
      </trkpt>
      <trkpt lat="46.15884" lon="-1.15239">
        <ele>6.7765</ele>
        <time>2010-12-29T16:12:26Z</time>
      </trkpt>
      <trkpt lat="46.15884" lon="-1.15238">
        <ele>6.7391</ele>
        <time>2010-12-29T16:12:27Z</time>
      </trkpt>
      <trkpt lat="46.15885" lon="-1.15237">
        <ele>6.7027</ele>
        <time>2010-12-29T16:12:28Z</time>
      </trkpt>
      <trkpt lat="46.15885" lon="-1.15236">
        <ele>6.667</ele>
        <time>2010-12-29T16:12:29Z</time>
      </trkpt>
      <trkpt lat="46.15885" lon="-1.15235">
        <ele>6.634</ele>
        <time>2010-12-29T16:12:30Z</time>
      </trkpt>
      <trkpt lat="46.15885" lon="-1.15234">
        <ele>6.6036</ele>
        <time>2010-12-29T16:12:31Z</time>
      </trkpt>
      <trkpt lat="46.15885" lon="-1.15233">
        <ele>6.574</ele>
        <time>2010-12-29T16:12:32Z</time>
      </trkpt>
      <trkpt lat="46.15885" lon="-1.15232">
        <ele>6.5453</ele>
        <time>2010-12-29T16:12:33Z</time>
      </trkpt>
      <trkpt lat="46.15885" lon="-1.15231">
        <ele>6.5166</ele>
        <time>2010-12-29T16:12:34Z</time>
      </trkpt>
      <trkpt lat="46.15885" lon="-1.1523">
        <ele>6.4872</ele>
        <time>2010-12-29T16:12:35Z</time>
      </trkpt>
      <trkpt lat="46.15886" lon="-1.1523">
        <ele>6.4567</ele>
        <time>2010-12-29T16:12:36Z</time>
      </trkpt>
      <trkpt lat="46.15886" lon="-1.15229">
        <ele>6.4267</ele>
        <time>2010-12-29T16:12:37Z</time>
      </trkpt>
      <trkpt lat="46.15886" lon="-1.15228">
        <ele>6.3975</ele>
        <time>2010-12-29T16:12:38Z</time>
      </trkpt>
      <trkpt lat="46.15886" lon="-1.15226">
        <ele>6.3692</ele>
        <time>2010-12-29T16:12:39Z</time>
      </trkpt>
      <trkpt lat="46.15886" lon="-1.15225">
        <ele>6.3437</ele>
        <time>2010-12-29T16:12:40Z</time>
      </trkpt>
      <trkpt lat="46.15886" lon="-1.15223">
        <ele>6.3178</ele>
        <time>2010-12-29T16:12:41Z</time>
      </trkpt>
      <trkpt lat="46.15887" lon="-1.15222">
        <ele>6.2922</ele>
        <time>2010-12-29T16:12:42Z</time>
      </trkpt>
      <trkpt lat="46.15888" lon="-1.15221">
        <ele>6.2572</ele>
        <time>2010-12-29T16:12:43Z</time>
      </trkpt>
      <trkpt lat="46.15889" lon="-1.1522">
        <ele>6.2145</ele>
        <time>2010-12-29T16:12:44Z</time>
      </trkpt>
      <trkpt lat="46.1589" lon="-1.15219">
        <ele>6.1662</ele>
        <time>2010-12-29T16:12:45Z</time>
      </trkpt>
      <trkpt lat="46.15891" lon="-1.15217">
        <ele>6.1495</ele>
        <time>2010-12-29T16:12:46Z</time>
      </trkpt>
      <trkpt lat="46.15892" lon="-1.15215">
        <ele>6.1599</ele>
        <time>2010-12-29T16:12:47Z</time>
      </trkpt>
      <trkpt lat="46.15893" lon="-1.15213">
        <ele>6.1727</ele>
        <time>2010-12-29T16:12:48Z</time>
      </trkpt>
      <trkpt lat="46.15894" lon="-1.15211">
        <ele>6.1926</ele>
        <time>2010-12-29T16:12:49Z</time>
      </trkpt>
      <trkpt lat="46.15894" lon="-1.1521">
        <ele>6.2126</ele>
        <time>2010-12-29T16:12:50Z</time>
      </trkpt>
      <trkpt lat="46.15895" lon="-1.15209">
        <ele>6.2391</ele>
        <time>2010-12-29T16:12:51Z</time>
      </trkpt>
      <trkpt lat="46.15895" lon="-1.15208">
        <ele>6.2644</ele>
        <time>2010-12-29T16:12:52Z</time>
      </trkpt>
      <trkpt lat="46.15895" lon="-1.15206">
        <ele>6.2888</ele>
        <time>2010-12-29T16:12:53Z</time>
      </trkpt>
      <trkpt lat="46.15895" lon="-1.15205">
        <ele>6.3108</ele>
        <time>2010-12-29T16:12:54Z</time>
      </trkpt>
      <trkpt lat="46.15895" lon="-1.15204">
        <ele>6.3309</ele>
        <time>2010-12-29T16:12:55Z</time>
      </trkpt>
      <trkpt lat="46.15896" lon="-1.15203">
        <ele>6.3543</ele>
        <time>2010-12-29T16:12:56Z</time>
      </trkpt>
      <trkpt lat="46.15897" lon="-1.15203">
        <ele>6.3887</ele>
        <time>2010-12-29T16:12:57Z</time>
      </trkpt>
      <trkpt lat="46.15898" lon="-1.15202">
        <ele>6.4303</ele>
        <time>2010-12-29T16:12:58Z</time>
      </trkpt>
      <trkpt lat="46.15899" lon="-1.15201">
        <ele>6.47</ele>
        <time>2010-12-29T16:12:59Z</time>
      </trkpt>
      <trkpt lat="46.159" lon="-1.152">
        <ele>6.5109</ele>
        <time>2010-12-29T16:13:00Z</time>
      </trkpt>
      <trkpt lat="46.15901" lon="-1.152">
        <ele>6.5477</ele>
        <time>2010-12-29T16:13:01Z</time>
      </trkpt>
      <trkpt lat="46.15901" lon="-1.15198">
        <ele>6.5716</ele>
        <time>2010-12-29T16:13:02Z</time>
      </trkpt>
      <trkpt lat="46.15902" lon="-1.15197">
        <ele>6.5977</ele>
        <time>2010-12-29T16:13:03Z</time>
      </trkpt>
      <trkpt lat="46.15902" lon="-1.15196">
        <ele>6.62</ele>
        <time>2010-12-29T16:13:04Z</time>
      </trkpt>
      <trkpt lat="46.15902" lon="-1.15195">
        <ele>6.6403</ele>
        <time>2010-12-29T16:13:05Z</time>
      </trkpt>
      <trkpt lat="46.15902" lon="-1.15193">
        <ele>6.6603</ele>
        <time>2010-12-29T16:13:06Z</time>
      </trkpt>
      <trkpt lat="46.15902" lon="-1.15192">
        <ele>6.675</ele>
        <time>2010-12-29T16:13:07Z</time>
      </trkpt>
      <trkpt lat="46.15902" lon="-1.15191">
        <ele>6.6722</ele>
        <time>2010-12-29T16:13:08Z</time>
      </trkpt>
      <trkpt lat="46.15901" lon="-1.1519">
        <ele>6.673</ele>
        <time>2010-12-29T16:13:09Z</time>
      </trkpt>
      <trkpt lat="46.15901" lon="-1.15189">
        <ele>6.6685</ele>
        <time>2010-12-29T16:13:10Z</time>
      </trkpt>
      <trkpt lat="46.15902" lon="-1.15188">
        <ele>6.6625</ele>
        <time>2010-12-29T16:13:13Z</time>
      </trkpt>
      <trkpt lat="46.15902" lon="-1.15186">
        <ele>6.6761</ele>
        <time>2010-12-29T16:13:19Z</time>
      </trkpt>
      <trkpt lat="46.15902" lon="-1.15185">
        <ele>6.6994</ele>
        <time>2010-12-29T16:13:20Z</time>
      </trkpt>
      <trkpt lat="46.15902" lon="-1.15185">
        <ele>6.7351</ele>
        <time>2010-12-29T16:13:21Z</time>
      </trkpt>
      <trkpt lat="46.15902" lon="-1.15183">
        <ele>6.7746</ele>
        <time>2010-12-29T16:13:22Z</time>
      </trkpt>
      <trkpt lat="46.15901" lon="-1.15182">
        <ele>6.8144</ele>
        <time>2010-12-29T16:13:23Z</time>
      </trkpt>
      <trkpt lat="46.159" lon="-1.15182">
        <ele>6.857</ele>
        <time>2010-12-29T16:13:24Z</time>
      </trkpt>
      <trkpt lat="46.159" lon="-1.15181">
        <ele>6.9053</ele>
        <time>2010-12-29T16:13:25Z</time>
      </trkpt>
      <trkpt lat="46.159" lon="-1.15181">
        <ele>6.9168</ele>
        <time>2010-12-29T16:13:26Z</time>
      </trkpt>
      <trkpt lat="46.159" lon="-1.1518">
        <ele>6.9295</ele>
        <time>2010-12-29T16:13:27Z</time>
      </trkpt>
      <trkpt lat="46.15902" lon="-1.15178">
        <ele>6.9977</ele>
        <time>2010-12-29T16:13:30Z</time>
      </trkpt>
      <trkpt lat="46.15903" lon="-1.15176">
        <ele>7.0378</ele>
        <time>2010-12-29T16:13:31Z</time>
      </trkpt>
      <trkpt lat="46.15906" lon="-1.15169">
        <ele>7.0623</ele>
        <time>2010-12-29T16:13:34Z</time>
      </trkpt>
      <trkpt lat="46.15906" lon="-1.15167">
        <ele>7.0644</ele>
        <time>2010-12-29T16:13:36Z</time>
      </trkpt>
      <trkpt lat="46.15906" lon="-1.15167">
        <ele>7.0456</ele>
        <time>2010-12-29T16:13:37Z</time>
      </trkpt>
      <trkpt lat="46.15907" lon="-1.15166">
        <ele>7.015</ele>
        <time>2010-12-29T16:13:38Z</time>
      </trkpt>
      <trkpt lat="46.15908" lon="-1.15164">
        <ele>6.9159</ele>
        <time>2010-12-29T16:13:40Z</time>
      </trkpt>
      <trkpt lat="46.15908" lon="-1.15163">
        <ele>6.8525</ele>
        <time>2010-12-29T16:13:41Z</time>
      </trkpt>
      <trkpt lat="46.15909" lon="-1.15162">
        <ele>6.7938</ele>
        <time>2010-12-29T16:13:42Z</time>
      </trkpt>
      <trkpt lat="46.15909" lon="-1.15161">
        <ele>6.7248</ele>
        <time>2010-12-29T16:13:43Z</time>
      </trkpt>
      <trkpt lat="46.1591" lon="-1.1516">
        <ele>6.6534</ele>
        <time>2010-12-29T16:13:44Z</time>
      </trkpt>
      <trkpt lat="46.15911" lon="-1.15159">
        <ele>6.5833</ele>
        <time>2010-12-29T16:13:45Z</time>
      </trkpt>
      <trkpt lat="46.15912" lon="-1.15159">
        <ele>6.5177</ele>
        <time>2010-12-29T16:13:46Z</time>
      </trkpt>
      <trkpt lat="46.15912" lon="-1.15158">
        <ele>6.4518</ele>
        <time>2010-12-29T16:13:47Z</time>
      </trkpt>
      <trkpt lat="46.15912" lon="-1.15157">
        <ele>6.384</ele>
        <time>2010-12-29T16:13:48Z</time>
      </trkpt>
      <trkpt lat="46.15912" lon="-1.15156">
        <ele>6.3105</ele>
        <time>2010-12-29T16:13:49Z</time>
      </trkpt>
      <trkpt lat="46.15913" lon="-1.15155">
        <ele>6.2494</ele>
        <time>2010-12-29T16:13:50Z</time>
      </trkpt>
      <trkpt lat="46.15913" lon="-1.15154">
        <ele>6.1878</ele>
        <time>2010-12-29T16:13:51Z</time>
      </trkpt>
      <trkpt lat="46.15913" lon="-1.15153">
        <ele>6.1305</ele>
        <time>2010-12-29T16:13:52Z</time>
      </trkpt>
      <trkpt lat="46.15914" lon="-1.15152">
        <ele>6.0735</ele>
        <time>2010-12-29T16:13:53Z</time>
      </trkpt>
      <trkpt lat="46.15915" lon="-1.15152">
        <ele>6.0258</ele>
        <time>2010-12-29T16:13:54Z</time>
      </trkpt>
      <trkpt lat="46.15916" lon="-1.15151">
        <ele>5.9848</ele>
        <time>2010-12-29T16:13:55Z</time>
      </trkpt>
      <trkpt lat="46.15917" lon="-1.15151">
        <ele>5.9501</ele>
        <time>2010-12-29T16:13:56Z</time>
      </trkpt>
      <trkpt lat="46.15918" lon="-1.15151">
        <ele>5.9142</ele>
        <time>2010-12-29T16:13:57Z</time>
      </trkpt>
      <trkpt lat="46.15919" lon="-1.1515">
        <ele>5.884</ele>
        <time>2010-12-29T16:13:58Z</time>
      </trkpt>
      <trkpt lat="46.1592" lon="-1.15149">
        <ele>5.8585</ele>
        <time>2010-12-29T16:13:59Z</time>
      </trkpt>
      <trkpt lat="46.15921" lon="-1.15149">
        <ele>5.8362</ele>
        <time>2010-12-29T16:14:00Z</time>
      </trkpt>
      <trkpt lat="46.15921" lon="-1.15148">
        <ele>5.8185</ele>
        <time>2010-12-29T16:14:01Z</time>
      </trkpt>
      <trkpt lat="46.15922" lon="-1.15147">
        <ele>5.8008</ele>
        <time>2010-12-29T16:14:02Z</time>
      </trkpt>
      <trkpt lat="46.15923" lon="-1.15146">
        <ele>5.7831</ele>
        <time>2010-12-29T16:14:03Z</time>
      </trkpt>
      <trkpt lat="46.15924" lon="-1.15146">
        <ele>5.7672</ele>
        <time>2010-12-29T16:14:04Z</time>
      </trkpt>
      <trkpt lat="46.15925" lon="-1.15145">
        <ele>5.7494</ele>
        <time>2010-12-29T16:14:05Z</time>
      </trkpt>
      <trkpt lat="46.15925" lon="-1.15144">
        <ele>5.7327</ele>
        <time>2010-12-29T16:14:06Z</time>
      </trkpt>
      <trkpt lat="46.15926" lon="-1.15143">
        <ele>5.7147</ele>
        <time>2010-12-29T16:14:07Z</time>
      </trkpt>
      <trkpt lat="46.15926" lon="-1.15143">
        <ele>5.6947</ele>
        <time>2010-12-29T16:14:08Z</time>
      </trkpt>
      <trkpt lat="46.15926" lon="-1.15142">
        <ele>5.6709</ele>
        <time>2010-12-29T16:14:09Z</time>
      </trkpt>
      <trkpt lat="46.15927" lon="-1.15141">
        <ele>5.6437</ele>
        <time>2010-12-29T16:14:10Z</time>
      </trkpt>
      <trkpt lat="46.15927" lon="-1.1514">
        <ele>5.6155</ele>
        <time>2010-12-29T16:14:11Z</time>
      </trkpt>
      <trkpt lat="46.15928" lon="-1.15139">
        <ele>5.588</ele>
        <time>2010-12-29T16:14:12Z</time>
      </trkpt>
      <trkpt lat="46.15928" lon="-1.15139">
        <ele>5.5638</ele>
        <time>2010-12-29T16:14:13Z</time>
      </trkpt>
      <trkpt lat="46.15929" lon="-1.15139">
        <ele>5.54</ele>
        <time>2010-12-29T16:14:14Z</time>
      </trkpt>
      <trkpt lat="46.1593" lon="-1.15139">
        <ele>5.5186</ele>
        <time>2010-12-29T16:14:15Z</time>
      </trkpt>
      <trkpt lat="46.1593" lon="-1.15138">
        <ele>5.4941</ele>
        <time>2010-12-29T16:14:16Z</time>
      </trkpt>
      <trkpt lat="46.15931" lon="-1.15138">
        <ele>5.4651</ele>
        <time>2010-12-29T16:14:17Z</time>
      </trkpt>
      <trkpt lat="46.15932" lon="-1.15137">
        <ele>5.4344</ele>
        <time>2010-12-29T16:14:18Z</time>
      </trkpt>
      <trkpt lat="46.15932" lon="-1.15137">
        <ele>5.3903</ele>
        <time>2010-12-29T16:14:19Z</time>
      </trkpt>
      <trkpt lat="46.15933" lon="-1.15136">
        <ele>5.3443</ele>
        <time>2010-12-29T16:14:20Z</time>
      </trkpt>
      <trkpt lat="46.15933" lon="-1.15135">
        <ele>5.3014</ele>
        <time>2010-12-29T16:14:21Z</time>
      </trkpt>
      <trkpt lat="46.15933" lon="-1.15134">
        <ele>5.2634</ele>
        <time>2010-12-29T16:14:22Z</time>
      </trkpt>
      <trkpt lat="46.15934" lon="-1.15133">
        <ele>5.2268</ele>
        <time>2010-12-29T16:14:23Z</time>
      </trkpt>
      <trkpt lat="46.15934" lon="-1.15132">
        <ele>5.1915</ele>
        <time>2010-12-29T16:14:24Z</time>
      </trkpt>
      <trkpt lat="46.15934" lon="-1.1513">
        <ele>5.1569</ele>
        <time>2010-12-29T16:14:25Z</time>
      </trkpt>
      <trkpt lat="46.15935" lon="-1.15128">
        <ele>5.1272</ele>
        <time>2010-12-29T16:14:26Z</time>
      </trkpt>
      <trkpt lat="46.15935" lon="-1.15127">
        <ele>5.1015</ele>
        <time>2010-12-29T16:14:27Z</time>
      </trkpt>
      <trkpt lat="46.15936" lon="-1.15125">
        <ele>5.0777</ele>
        <time>2010-12-29T16:14:28Z</time>
      </trkpt>
      <trkpt lat="46.15936" lon="-1.15123">
        <ele>5.057</ele>
        <time>2010-12-29T16:14:29Z</time>
      </trkpt>
      <trkpt lat="46.15936" lon="-1.15122">
        <ele>5.0397</ele>
        <time>2010-12-29T16:14:30Z</time>
      </trkpt>
      <trkpt lat="46.15937" lon="-1.15121">
        <ele>5.0279</ele>
        <time>2010-12-29T16:14:31Z</time>
      </trkpt>
      <trkpt lat="46.15939" lon="-1.15121">
        <ele>5.0109</ele>
        <time>2010-12-29T16:14:32Z</time>
      </trkpt>
      <trkpt lat="46.15941" lon="-1.15121">
        <ele>4.9956</ele>
        <time>2010-12-29T16:14:33Z</time>
      </trkpt>
      <trkpt lat="46.15942" lon="-1.15121">
        <ele>4.9822</ele>
        <time>2010-12-29T16:14:34Z</time>
      </trkpt>
      <trkpt lat="46.15942" lon="-1.15121">
        <ele>4.9687</ele>
        <time>2010-12-29T16:14:35Z</time>
      </trkpt>
      <trkpt lat="46.15944" lon="-1.15122">
        <ele>4.9443</ele>
        <time>2010-12-29T16:14:36Z</time>
      </trkpt>
      <trkpt lat="46.15945" lon="-1.15122">
        <ele>4.9182</ele>
        <time>2010-12-29T16:14:37Z</time>
      </trkpt>
      <trkpt lat="46.15946" lon="-1.15121">
        <ele>4.8855</ele>
        <time>2010-12-29T16:14:38Z</time>
      </trkpt>
      <trkpt lat="46.15947" lon="-1.15119">
        <ele>4.8353</ele>
        <time>2010-12-29T16:14:39Z</time>
      </trkpt>
      <trkpt lat="46.15947" lon="-1.15118">
        <ele>4.7887</ele>
        <time>2010-12-29T16:14:40Z</time>
      </trkpt>
      <trkpt lat="46.15948" lon="-1.15117">
        <ele>4.7415</ele>
        <time>2010-12-29T16:14:41Z</time>
      </trkpt>
      <trkpt lat="46.15949" lon="-1.15116">
        <ele>4.6912</ele>
        <time>2010-12-29T16:14:42Z</time>
      </trkpt>
      <trkpt lat="46.1595" lon="-1.15115">
        <ele>4.6451</ele>
        <time>2010-12-29T16:14:43Z</time>
      </trkpt>
      <trkpt lat="46.15951" lon="-1.15115">
        <ele>4.6016</ele>
        <time>2010-12-29T16:14:44Z</time>
      </trkpt>
      <trkpt lat="46.15952" lon="-1.15114">
        <ele>4.5583</ele>
        <time>2010-12-29T16:14:45Z</time>
      </trkpt>
      <trkpt lat="46.15952" lon="-1.15113">
        <ele>4.5088</ele>
        <time>2010-12-29T16:14:46Z</time>
      </trkpt>
      <trkpt lat="46.15953" lon="-1.15113">
        <ele>4.4604</ele>
        <time>2010-12-29T16:14:47Z</time>
      </trkpt>
      <trkpt lat="46.15954" lon="-1.15112">
        <ele>4.4161</ele>
        <time>2010-12-29T16:14:48Z</time>
      </trkpt>
      <trkpt lat="46.15955" lon="-1.15112">
        <ele>4.3745</ele>
        <time>2010-12-29T16:14:49Z</time>
      </trkpt>
      <trkpt lat="46.15956" lon="-1.15111">
        <ele>4.3361</ele>
        <time>2010-12-29T16:14:50Z</time>
      </trkpt>
      <trkpt lat="46.15957" lon="-1.1511">
        <ele>4.3006</ele>
        <time>2010-12-29T16:14:51Z</time>
      </trkpt>
      <trkpt lat="46.15957" lon="-1.1511">
        <ele>4.2656</ele>
        <time>2010-12-29T16:14:52Z</time>
      </trkpt>
      <trkpt lat="46.15958" lon="-1.15109">
        <ele>4.2297</ele>
        <time>2010-12-29T16:14:53Z</time>
      </trkpt>
      <trkpt lat="46.15959" lon="-1.15108">
        <ele>4.1875</ele>
        <time>2010-12-29T16:14:54Z</time>
      </trkpt>
      <trkpt lat="46.1596" lon="-1.15108">
        <ele>4.1417</ele>
        <time>2010-12-29T16:14:55Z</time>
      </trkpt>
      <trkpt lat="46.1596" lon="-1.15106">
        <ele>4.0972</ele>
        <time>2010-12-29T16:14:56Z</time>
      </trkpt>
      <trkpt lat="46.15961" lon="-1.15105">
        <ele>4.0538</ele>
        <time>2010-12-29T16:14:57Z</time>
      </trkpt>
      <trkpt lat="46.15962" lon="-1.15105">
        <ele>4.0117</ele>
        <time>2010-12-29T16:14:58Z</time>
      </trkpt>
      <trkpt lat="46.15962" lon="-1.15104">
        <ele>3.9678</ele>
        <time>2010-12-29T16:14:59Z</time>
      </trkpt>
      <trkpt lat="46.15962" lon="-1.15102">
        <ele>3.9233</ele>
        <time>2010-12-29T16:15:00Z</time>
      </trkpt>
      <trkpt lat="46.15962" lon="-1.151">
        <ele>3.8798</ele>
        <time>2010-12-29T16:15:01Z</time>
      </trkpt>
      <trkpt lat="46.15962" lon="-1.15098">
        <ele>3.8389</ele>
        <time>2010-12-29T16:15:02Z</time>
      </trkpt>
      <trkpt lat="46.15962" lon="-1.15097">
        <ele>3.7999</ele>
        <time>2010-12-29T16:15:03Z</time>
      </trkpt>
      <trkpt lat="46.15962" lon="-1.15096">
        <ele>3.761</ele>
        <time>2010-12-29T16:15:04Z</time>
      </trkpt>
      <trkpt lat="46.15962" lon="-1.15094">
        <ele>3.7227</ele>
        <time>2010-12-29T16:15:05Z</time>
      </trkpt>
      <trkpt lat="46.15962" lon="-1.15092">
        <ele>3.6853</ele>
        <time>2010-12-29T16:15:06Z</time>
      </trkpt>
      <trkpt lat="46.15962" lon="-1.1509">
        <ele>3.6509</ele>
        <time>2010-12-29T16:15:07Z</time>
      </trkpt>
      <trkpt lat="46.15962" lon="-1.15089">
        <ele>3.6194</ele>
        <time>2010-12-29T16:15:08Z</time>
      </trkpt>
      <trkpt lat="46.15962" lon="-1.15088">
        <ele>3.5895</ele>
        <time>2010-12-29T16:15:09Z</time>
      </trkpt>
      <trkpt lat="46.15962" lon="-1.15086">
        <ele>3.5579</ele>
        <time>2010-12-29T16:15:10Z</time>
      </trkpt>
      <trkpt lat="46.15962" lon="-1.15085">
        <ele>3.5282</ele>
        <time>2010-12-29T16:15:11Z</time>
      </trkpt>
      <trkpt lat="46.15963" lon="-1.15084">
        <ele>3.4993</ele>
        <time>2010-12-29T16:15:12Z</time>
      </trkpt>
      <trkpt lat="46.15963" lon="-1.15084">
        <ele>3.4775</ele>
        <time>2010-12-29T16:15:13Z</time>
      </trkpt>
      <trkpt lat="46.15963" lon="-1.15084">
        <ele>3.4617</ele>
        <time>2010-12-29T16:15:14Z</time>
      </trkpt>
      <trkpt lat="46.15964" lon="-1.15084">
        <ele>3.4454</ele>
        <time>2010-12-29T16:15:15Z</time>
      </trkpt>
      <trkpt lat="46.15964" lon="-1.15084">
        <ele>3.428</ele>
        <time>2010-12-29T16:15:16Z</time>
      </trkpt>
      <trkpt lat="46.15965" lon="-1.15083">
        <ele>3.3966</ele>
        <time>2010-12-29T16:15:17Z</time>
      </trkpt>
      <trkpt lat="46.15964" lon="-1.15082">
        <ele>3.378</ele>
        <time>2010-12-29T16:15:18Z</time>
      </trkpt>
      <trkpt lat="46.15965" lon="-1.15081">
        <ele>3.3807</ele>
        <time>2010-12-29T16:15:19Z</time>
      </trkpt>
      <trkpt lat="46.15965" lon="-1.1508">
        <ele>3.3762</ele>
        <time>2010-12-29T16:15:20Z</time>
      </trkpt>
      <trkpt lat="46.15966" lon="-1.1508">
        <ele>3.3727</ele>
        <time>2010-12-29T16:15:21Z</time>
      </trkpt>
      <trkpt lat="46.15966" lon="-1.15079">
        <ele>3.3735</ele>
        <time>2010-12-29T16:15:22Z</time>
      </trkpt>
      <trkpt lat="46.15967" lon="-1.15077">
        <ele>3.3755</ele>
        <time>2010-12-29T16:15:23Z</time>
      </trkpt>
      <trkpt lat="46.15968" lon="-1.15076">
        <ele>3.362</ele>
        <time>2010-12-29T16:15:24Z</time>
      </trkpt>
      <trkpt lat="46.15968" lon="-1.15076">
        <ele>3.3341</ele>
        <time>2010-12-29T16:15:25Z</time>
      </trkpt>
      <trkpt lat="46.15969" lon="-1.15075">
        <ele>3.3005</ele>
        <time>2010-12-29T16:15:26Z</time>
      </trkpt>
      <trkpt lat="46.1597" lon="-1.15074">
        <ele>3.2601</ele>
        <time>2010-12-29T16:15:27Z</time>
      </trkpt>
      <trkpt lat="46.15971" lon="-1.15074">
        <ele>3.2166</ele>
        <time>2010-12-29T16:15:28Z</time>
      </trkpt>
      <trkpt lat="46.15971" lon="-1.15073">
        <ele>3.1741</ele>
        <time>2010-12-29T16:15:29Z</time>
      </trkpt>
      <trkpt lat="46.15972" lon="-1.15071">
        <ele>3.1283</ele>
        <time>2010-12-29T16:15:30Z</time>
      </trkpt>
      <trkpt lat="46.15973" lon="-1.15071">
        <ele>3.0779</ele>
        <time>2010-12-29T16:15:31Z</time>
      </trkpt>
      <trkpt lat="46.15973" lon="-1.1507">
        <ele>3.0322</ele>
        <time>2010-12-29T16:15:32Z</time>
      </trkpt>
      <trkpt lat="46.15974" lon="-1.15069">
        <ele>2.9875</ele>
        <time>2010-12-29T16:15:33Z</time>
      </trkpt>
      <trkpt lat="46.15974" lon="-1.15069">
        <ele>2.9446</ele>
        <time>2010-12-29T16:15:34Z</time>
      </trkpt>
      <trkpt lat="46.15975" lon="-1.15069">
        <ele>2.9036</ele>
        <time>2010-12-29T16:15:35Z</time>
      </trkpt>
      <trkpt lat="46.15976" lon="-1.15069">
        <ele>2.8602</ele>
        <time>2010-12-29T16:15:36Z</time>
      </trkpt>
      <trkpt lat="46.15976" lon="-1.15068">
        <ele>2.8181</ele>
        <time>2010-12-29T16:15:37Z</time>
      </trkpt>
      <trkpt lat="46.15977" lon="-1.15068">
        <ele>2.7764</ele>
        <time>2010-12-29T16:15:38Z</time>
      </trkpt>
      <trkpt lat="46.15977" lon="-1.15068">
        <ele>2.7354</ele>
        <time>2010-12-29T16:15:39Z</time>
      </trkpt>
      <trkpt lat="46.15978" lon="-1.15067">
        <ele>2.6954</ele>
        <time>2010-12-29T16:15:40Z</time>
      </trkpt>
      <trkpt lat="46.15978" lon="-1.15067">
        <ele>2.6568</ele>
        <time>2010-12-29T16:15:41Z</time>
      </trkpt>
      <trkpt lat="46.15979" lon="-1.15067">
        <ele>2.6202</ele>
        <time>2010-12-29T16:15:42Z</time>
      </trkpt>
      <trkpt lat="46.15979" lon="-1.15066">
        <ele>2.5847</ele>
        <time>2010-12-29T16:15:43Z</time>
      </trkpt>
      <trkpt lat="46.15979" lon="-1.15066">
        <ele>2.5505</ele>
        <time>2010-12-29T16:15:44Z</time>
      </trkpt>
      <trkpt lat="46.1598" lon="-1.15066">
        <ele>2.5182</ele>
        <time>2010-12-29T16:15:45Z</time>
      </trkpt>
      <trkpt lat="46.15981" lon="-1.15065">
        <ele>2.4856</ele>
        <time>2010-12-29T16:15:46Z</time>
      </trkpt>
      <trkpt lat="46.15981" lon="-1.15065">
        <ele>2.4556</ele>
        <time>2010-12-29T16:15:47Z</time>
      </trkpt>
      <trkpt lat="46.15981" lon="-1.15064">
        <ele>2.4275</ele>
        <time>2010-12-29T16:15:48Z</time>
      </trkpt>
      <trkpt lat="46.15981" lon="-1.15063">
        <ele>2.3973</ele>
        <time>2010-12-29T16:15:49Z</time>
      </trkpt>
      <trkpt lat="46.15981" lon="-1.15062">
        <ele>2.3563</ele>
        <time>2010-12-29T16:15:50Z</time>
      </trkpt>
      <trkpt lat="46.15981" lon="-1.15062">
        <ele>2.3175</ele>
        <time>2010-12-29T16:15:51Z</time>
      </trkpt>
      <trkpt lat="46.15981" lon="-1.15061">
        <ele>2.2758</ele>
        <time>2010-12-29T16:15:52Z</time>
      </trkpt>
      <trkpt lat="46.15981" lon="-1.1506">
        <ele>2.2362</ele>
        <time>2010-12-29T16:15:53Z</time>
      </trkpt>
      <trkpt lat="46.15981" lon="-1.15059">
        <ele>2.1984</ele>
        <time>2010-12-29T16:15:54Z</time>
      </trkpt>
      <trkpt lat="46.1598" lon="-1.15058">
        <ele>2.1637</ele>
        <time>2010-12-29T16:15:55Z</time>
      </trkpt>
      <trkpt lat="46.1598" lon="-1.15057">
        <ele>2.135</ele>
        <time>2010-12-29T16:15:56Z</time>
      </trkpt>
      <trkpt lat="46.1598" lon="-1.15055">
        <ele>2.1085</ele>
        <time>2010-12-29T16:15:57Z</time>
      </trkpt>
      <trkpt lat="46.15979" lon="-1.15054">
        <ele>2.0841</ele>
        <time>2010-12-29T16:15:58Z</time>
      </trkpt>
      <trkpt lat="46.15979" lon="-1.15053">
        <ele>2.0615</ele>
        <time>2010-12-29T16:15:59Z</time>
      </trkpt>
      <trkpt lat="46.15979" lon="-1.15052">
        <ele>2.0383</ele>
        <time>2010-12-29T16:16:00Z</time>
      </trkpt>
      <trkpt lat="46.15979" lon="-1.1505">
        <ele>2.0173</ele>
        <time>2010-12-29T16:16:01Z</time>
      </trkpt>
      <trkpt lat="46.15978" lon="-1.15049">
        <ele>1.998</ele>
        <time>2010-12-29T16:16:02Z</time>
      </trkpt>
      <trkpt lat="46.15978" lon="-1.15047">
        <ele>1.9809</ele>
        <time>2010-12-29T16:16:03Z</time>
      </trkpt>
      <trkpt lat="46.15978" lon="-1.15046">
        <ele>1.965</ele>
        <time>2010-12-29T16:16:04Z</time>
      </trkpt>
      <trkpt lat="46.15979" lon="-1.15045">
        <ele>1.9508</ele>
        <time>2010-12-29T16:16:05Z</time>
      </trkpt>
      <trkpt lat="46.15979" lon="-1.15044">
        <ele>1.9383</ele>
        <time>2010-12-29T16:16:06Z</time>
      </trkpt>
      <trkpt lat="46.15979" lon="-1.15043">
        <ele>1.9268</ele>
        <time>2010-12-29T16:16:07Z</time>
      </trkpt>
      <trkpt lat="46.15979" lon="-1.15042">
        <ele>1.9163</ele>
        <time>2010-12-29T16:16:08Z</time>
      </trkpt>
      <trkpt lat="46.15979" lon="-1.15041">
        <ele>1.9065</ele>
        <time>2010-12-29T16:16:09Z</time>
      </trkpt>
      <trkpt lat="46.15984" lon="-1.1504">
        <ele>1.9011</ele>
        <time>2010-12-29T16:16:18Z</time>
      </trkpt>
      <trkpt lat="46.15989" lon="-1.1504">
        <ele>1.8999</ele>
        <time>2010-12-29T16:16:25Z</time>
      </trkpt>
      <trkpt lat="46.15994" lon="-1.15041">
        <ele>1.9002</ele>
        <time>2010-12-29T16:16:36Z</time>
      </trkpt>
      <trkpt lat="46.15998" lon="-1.15036">
        <ele>1.8944</ele>
        <time>2010-12-29T16:16:43Z</time>
      </trkpt>
      <trkpt lat="46.16002" lon="-1.15032">
        <ele>1.8502</ele>
        <time>2010-12-29T16:16:48Z</time>
      </trkpt>
      <trkpt lat="46.16007" lon="-1.15028">
        <ele>1.8187</ele>
        <time>2010-12-29T16:16:52Z</time>
      </trkpt>
      <trkpt lat="46.16011" lon="-1.15026">
        <ele>1.8038</ele>
        <time>2010-12-29T16:16:55Z</time>
      </trkpt>
      <trkpt lat="46.16013" lon="-1.15025">
        <ele>1.8005</ele>
        <time>2010-12-29T16:16:56Z</time>
      </trkpt>
      <trkpt lat="46.16014" lon="-1.15025">
        <ele>1.7969</ele>
        <time>2010-12-29T16:16:57Z</time>
      </trkpt>
      <trkpt lat="46.16016" lon="-1.15024">
        <ele>1.7927</ele>
        <time>2010-12-29T16:16:58Z</time>
      </trkpt>
      <trkpt lat="46.16017" lon="-1.15024">
        <ele>1.7885</ele>
        <time>2010-12-29T16:16:59Z</time>
      </trkpt>
      <trkpt lat="46.16018" lon="-1.15024">
        <ele>1.7847</ele>
        <time>2010-12-29T16:17:00Z</time>
      </trkpt>
      <trkpt lat="46.16019" lon="-1.15024">
        <ele>1.7812</ele>
        <time>2010-12-29T16:17:01Z</time>
      </trkpt>
      <trkpt lat="46.1602" lon="-1.15024">
        <ele>1.7786</ele>
        <time>2010-12-29T16:17:02Z</time>
      </trkpt>
      <trkpt lat="46.16021" lon="-1.15024">
        <ele>1.7748</ele>
        <time>2010-12-29T16:17:03Z</time>
      </trkpt>
      <trkpt lat="46.16023" lon="-1.15024">
        <ele>1.768</ele>
        <time>2010-12-29T16:17:04Z</time>
      </trkpt>
      <trkpt lat="46.16023" lon="-1.15024">
        <ele>1.7598</ele>
        <time>2010-12-29T16:17:05Z</time>
      </trkpt>
      <trkpt lat="46.16024" lon="-1.15025">
        <ele>1.753</ele>
        <time>2010-12-29T16:17:06Z</time>
      </trkpt>
      <trkpt lat="46.16024" lon="-1.15025">
        <ele>1.7468</ele>
        <time>2010-12-29T16:17:07Z</time>
      </trkpt>
      <trkpt lat="46.16029" lon="-1.15023">
        <ele>1.7432</ele>
        <time>2010-12-29T16:17:15Z</time>
      </trkpt>
      <trkpt lat="46.16034" lon="-1.15022">
        <ele>1.7399</ele>
        <time>2010-12-29T16:17:20Z</time>
      </trkpt>
      <trkpt lat="46.16035" lon="-1.15022">
        <ele>1.7357</ele>
        <time>2010-12-29T16:17:21Z</time>
      </trkpt>
      <trkpt lat="46.16036" lon="-1.15022">
        <ele>1.7327</ele>
        <time>2010-12-29T16:17:22Z</time>
      </trkpt>
      <trkpt lat="46.16036" lon="-1.15021">
        <ele>1.7298</ele>
        <time>2010-12-29T16:17:23Z</time>
      </trkpt>
      <trkpt lat="46.16037" lon="-1.1502">
        <ele>1.7219</ele>
        <time>2010-12-29T16:17:24Z</time>
      </trkpt>
      <trkpt lat="46.16039" lon="-1.1502">
        <ele>1.7198</ele>
        <time>2010-12-29T16:17:25Z</time>
      </trkpt>
      <trkpt lat="46.1604" lon="-1.15019">
        <ele>1.7188</ele>
        <time>2010-12-29T16:17:26Z</time>
      </trkpt>
      <trkpt lat="46.16042" lon="-1.15018">
        <ele>1.7191</ele>
        <time>2010-12-29T16:17:27Z</time>
      </trkpt>
      <trkpt lat="46.16044" lon="-1.15017">
        <ele>1.7195</ele>
        <time>2010-12-29T16:17:28Z</time>
      </trkpt>
      <trkpt lat="46.16047" lon="-1.15016">
        <ele>1.7197</ele>
        <time>2010-12-29T16:17:29Z</time>
      </trkpt>
      <trkpt lat="46.16049" lon="-1.15015">
        <ele>1.7175</ele>
        <time>2010-12-29T16:17:30Z</time>
      </trkpt>
      <trkpt lat="46.16051" lon="-1.15015">
        <ele>1.7167</ele>
        <time>2010-12-29T16:17:31Z</time>
      </trkpt>
      <trkpt lat="46.16053" lon="-1.15014">
        <ele>1.7157</ele>
        <time>2010-12-29T16:17:32Z</time>
      </trkpt>
      <trkpt lat="46.16055" lon="-1.15015">
        <ele>1.7148</ele>
        <time>2010-12-29T16:17:33Z</time>
      </trkpt>
      <trkpt lat="46.16056" lon="-1.15014">
        <ele>1.714</ele>
        <time>2010-12-29T16:17:34Z</time>
      </trkpt>
      <trkpt lat="46.16057" lon="-1.15014">
        <ele>1.7081</ele>
        <time>2010-12-29T16:17:35Z</time>
      </trkpt>
      <trkpt lat="46.16058" lon="-1.15015">
        <ele>1.6996</ele>
        <time>2010-12-29T16:17:36Z</time>
      </trkpt>
      <trkpt lat="46.16059" lon="-1.15015">
        <ele>1.6906</ele>
        <time>2010-12-29T16:17:37Z</time>
      </trkpt>
      <trkpt lat="46.1606" lon="-1.15014">
        <ele>1.6747</ele>
        <time>2010-12-29T16:17:38Z</time>
      </trkpt>
      <trkpt lat="46.16061" lon="-1.15014">
        <ele>1.6588</ele>
        <time>2010-12-29T16:17:39Z</time>
      </trkpt>
      <trkpt lat="46.16062" lon="-1.15013">
        <ele>1.6386</ele>
        <time>2010-12-29T16:17:40Z</time>
      </trkpt>
      <trkpt lat="46.16063" lon="-1.15012">
        <ele>1.618</ele>
        <time>2010-12-29T16:17:41Z</time>
      </trkpt>
      <trkpt lat="46.16063" lon="-1.15011">
        <ele>1.5972</ele>
        <time>2010-12-29T16:17:42Z</time>
      </trkpt>
      <trkpt lat="46.16063" lon="-1.1501">
        <ele>1.5811</ele>
        <time>2010-12-29T16:17:43Z</time>
      </trkpt>
      <trkpt lat="46.16064" lon="-1.1501">
        <ele>1.5733</ele>
        <time>2010-12-29T16:17:44Z</time>
      </trkpt>
      <trkpt lat="46.16065" lon="-1.1501">
        <ele>1.5943</ele>
        <time>2010-12-29T16:17:45Z</time>
      </trkpt>
      <trkpt lat="46.16065" lon="-1.15009">
        <ele>1.6167</ele>
        <time>2010-12-29T16:17:46Z</time>
      </trkpt>
      <trkpt lat="46.16066" lon="-1.1501">
        <ele>1.6328</ele>
        <time>2010-12-29T16:17:47Z</time>
      </trkpt>
      <trkpt lat="46.16068" lon="-1.1501">
        <ele>1.6466</ele>
        <time>2010-12-29T16:17:48Z</time>
      </trkpt>
      <trkpt lat="46.16069" lon="-1.15009">
        <ele>1.6569</ele>
        <time>2010-12-29T16:17:49Z</time>
      </trkpt>
      <trkpt lat="46.16069" lon="-1.1501">
        <ele>1.6667</ele>
        <time>2010-12-29T16:17:50Z</time>
      </trkpt>
      <trkpt lat="46.16071" lon="-1.15009">
        <ele>1.6821</ele>
        <time>2010-12-29T16:17:51Z</time>
      </trkpt>
      <trkpt lat="46.16072" lon="-1.1501">
        <ele>1.6945</ele>
        <time>2010-12-29T16:17:52Z</time>
      </trkpt>
      <trkpt lat="46.16073" lon="-1.15011">
        <ele>1.7052</ele>
        <time>2010-12-29T16:17:53Z</time>
      </trkpt>
      <trkpt lat="46.16075" lon="-1.15011">
        <ele>1.7212</ele>
        <time>2010-12-29T16:17:54Z</time>
      </trkpt>
      <trkpt lat="46.16076" lon="-1.15011">
        <ele>1.7714</ele>
        <time>2010-12-29T16:17:56Z</time>
      </trkpt>
      <trkpt lat="46.1608" lon="-1.15008">
        <ele>1.8099</ele>
        <time>2010-12-29T16:18:01Z</time>
      </trkpt>
      <trkpt lat="46.16081" lon="-1.15005">
        <ele>2.0162</ele>
        <time>2010-12-29T16:18:03Z</time>
      </trkpt>
      <trkpt lat="46.16083" lon="-1.15001">
        <ele>2.2473</ele>
        <time>2010-12-29T16:18:07Z</time>
      </trkpt>
      <trkpt lat="46.16083" lon="-1.14999">
        <ele>2.3583</ele>
        <time>2010-12-29T16:18:08Z</time>
      </trkpt>
      <trkpt lat="46.16084" lon="-1.14997">
        <ele>2.4826</ele>
        <time>2010-12-29T16:18:09Z</time>
      </trkpt>
      <trkpt lat="46.16084" lon="-1.14996">
        <ele>2.607</ele>
        <time>2010-12-29T16:18:10Z</time>
      </trkpt>
      <trkpt lat="46.16084" lon="-1.14996">
        <ele>2.7418</ele>
        <time>2010-12-29T16:18:11Z</time>
      </trkpt>
      <trkpt lat="46.16084" lon="-1.14999">
        <ele>3.4862</ele>
        <time>2010-12-29T16:18:21Z</time>
      </trkpt>
      <trkpt lat="46.16082" lon="-1.15005">
        <ele>3.6086</ele>
        <time>2010-12-29T16:18:32Z</time>
      </trkpt>
      <trkpt lat="46.16079" lon="-1.1501">
        <ele>4.3771</ele>
        <time>2010-12-29T16:18:41Z</time>
      </trkpt>
      <trkpt lat="46.16077" lon="-1.15016">
        <ele>4.91</ele>
        <time>2010-12-29T16:18:49Z</time>
      </trkpt>
      <trkpt lat="46.16074" lon="-1.15018">
        <ele>5.3321</ele>
        <time>2010-12-29T16:18:51Z</time>
      </trkpt>
      <trkpt lat="46.16071" lon="-1.1502">
        <ele>5.5293</ele>
        <time>2010-12-29T16:18:52Z</time>
      </trkpt>
      <trkpt lat="46.16069" lon="-1.15021">
        <ele>5.7312</ele>
        <time>2010-12-29T16:18:53Z</time>
      </trkpt>
      <trkpt lat="46.16068" lon="-1.15022">
        <ele>5.9292</ele>
        <time>2010-12-29T16:18:54Z</time>
      </trkpt>
      <trkpt lat="46.16063" lon="-1.15023">
        <ele>6.1883</ele>
        <time>2010-12-29T16:19:00Z</time>
      </trkpt>
      <trkpt lat="46.16058" lon="-1.15023">
        <ele>6.865</ele>
        <time>2010-12-29T16:19:06Z</time>
      </trkpt>
      <trkpt lat="46.16058" lon="-1.15022">
        <ele>6.9425</ele>
        <time>2010-12-29T16:19:07Z</time>
      </trkpt>
      <trkpt lat="46.16056" lon="-1.15022">
        <ele>7.0041</ele>
        <time>2010-12-29T16:19:08Z</time>
      </trkpt>
      <trkpt lat="46.16056" lon="-1.15021">
        <ele>7.0518</ele>
        <time>2010-12-29T16:19:09Z</time>
      </trkpt>
      <trkpt lat="46.16055" lon="-1.15021">
        <ele>7.0869</ele>
        <time>2010-12-29T16:19:10Z</time>
      </trkpt>
      <trkpt lat="46.16054" lon="-1.1502">
        <ele>7.1102</ele>
        <time>2010-12-29T16:19:11Z</time>
      </trkpt>
      <trkpt lat="46.16053" lon="-1.15019">
        <ele>7.1236</ele>
        <time>2010-12-29T16:19:12Z</time>
      </trkpt>
      <trkpt lat="46.16053" lon="-1.15019">
        <ele>7.1292</ele>
        <time>2010-12-29T16:19:13Z</time>
      </trkpt>
      <trkpt lat="46.16052" lon="-1.15018">
        <ele>7.1297</ele>
        <time>2010-12-29T16:19:14Z</time>
      </trkpt>
      <trkpt lat="46.16051" lon="-1.15017">
        <ele>7.1248</ele>
        <time>2010-12-29T16:19:15Z</time>
      </trkpt>
      <trkpt lat="46.1605" lon="-1.15016">
        <ele>7.1164</ele>
        <time>2010-12-29T16:19:16Z</time>
      </trkpt>
      <trkpt lat="46.16049" lon="-1.15016">
        <ele>7.1024</ele>
        <time>2010-12-29T16:19:17Z</time>
      </trkpt>
      <trkpt lat="46.16048" lon="-1.15016">
        <ele>7.0853</ele>
        <time>2010-12-29T16:19:18Z</time>
      </trkpt>
      <trkpt lat="46.16047" lon="-1.15017">
        <ele>7.064</ele>
        <time>2010-12-29T16:19:19Z</time>
      </trkpt>
      <trkpt lat="46.16047" lon="-1.15017">
        <ele>7.0389</ele>
        <time>2010-12-29T16:19:20Z</time>
      </trkpt>
      <trkpt lat="46.16047" lon="-1.15017">
        <ele>7.0064</ele>
        <time>2010-12-29T16:19:21Z</time>
      </trkpt>
      <trkpt lat="46.16046" lon="-1.15017">
        <ele>6.9683</ele>
        <time>2010-12-29T16:19:22Z</time>
      </trkpt>
      <trkpt lat="46.16046" lon="-1.15017">
        <ele>6.9211</ele>
        <time>2010-12-29T16:19:23Z</time>
      </trkpt>
      <trkpt lat="46.16045" lon="-1.15018">
        <ele>6.8853</ele>
        <time>2010-12-29T16:19:24Z</time>
      </trkpt>
      <trkpt lat="46.16045" lon="-1.15018">
        <ele>6.8598</ele>
        <time>2010-12-29T16:19:25Z</time>
      </trkpt>
      <trkpt lat="46.16042" lon="-1.15018">
        <ele>6.8553</ele>
        <time>2010-12-29T16:19:28Z</time>
      </trkpt>
      <trkpt lat="46.16038" lon="-1.15019">
        <ele>6.8613</ele>
        <time>2010-12-29T16:19:31Z</time>
      </trkpt>
      <trkpt lat="46.16037" lon="-1.15019">
        <ele>6.8596</ele>
        <time>2010-12-29T16:19:32Z</time>
      </trkpt>
      <trkpt lat="46.16037" lon="-1.1502">
        <ele>6.8496</ele>
        <time>2010-12-29T16:19:33Z</time>
      </trkpt>
      <trkpt lat="46.16037" lon="-1.15021">
        <ele>6.8083</ele>
        <time>2010-12-29T16:19:35Z</time>
      </trkpt>
      <trkpt lat="46.16033" lon="-1.15025">
        <ele>6.7657</ele>
        <time>2010-12-29T16:19:40Z</time>
      </trkpt>
      <trkpt lat="46.16028" lon="-1.15028">
        <ele>6.6946</ele>
        <time>2010-12-29T16:19:42Z</time>
      </trkpt>
      <trkpt lat="46.16024" lon="-1.15031">
        <ele>6.6303</ele>
        <time>2010-12-29T16:19:44Z</time>
      </trkpt>
      <trkpt lat="46.16022" lon="-1.15032">
        <ele>6.5991</ele>
        <time>2010-12-29T16:19:45Z</time>
      </trkpt>
      <trkpt lat="46.1602" lon="-1.15034">
        <ele>6.5747</ele>
        <time>2010-12-29T16:19:46Z</time>
      </trkpt>
      <trkpt lat="46.16019" lon="-1.15035">
        <ele>6.5619</ele>
        <time>2010-12-29T16:19:47Z</time>
      </trkpt>
      <trkpt lat="46.16018" lon="-1.15036">
        <ele>6.5437</ele>
        <time>2010-12-29T16:19:48Z</time>
      </trkpt>
      <trkpt lat="46.16017" lon="-1.15037">
        <ele>6.523</ele>
        <time>2010-12-29T16:19:49Z</time>
      </trkpt>
      <trkpt lat="46.16016" lon="-1.15037">
        <ele>6.4988</ele>
        <time>2010-12-29T16:19:50Z</time>
      </trkpt>
      <trkpt lat="46.16015" lon="-1.15038">
        <ele>6.4721</ele>
        <time>2010-12-29T16:19:51Z</time>
      </trkpt>
      <trkpt lat="46.16015" lon="-1.15039">
        <ele>6.4424</ele>
        <time>2010-12-29T16:19:52Z</time>
      </trkpt>
      <trkpt lat="46.16013" lon="-1.1504">
        <ele>6.4101</ele>
        <time>2010-12-29T16:19:53Z</time>
      </trkpt>
      <trkpt lat="46.16013" lon="-1.1504">
        <ele>6.3761</ele>
        <time>2010-12-29T16:19:54Z</time>
      </trkpt>
      <trkpt lat="46.16012" lon="-1.15041">
        <ele>6.3405</ele>
        <time>2010-12-29T16:19:55Z</time>
      </trkpt>
      <trkpt lat="46.16011" lon="-1.15041">
        <ele>6.3032</ele>
        <time>2010-12-29T16:19:56Z</time>
      </trkpt>
      <trkpt lat="46.1601" lon="-1.15042">
        <ele>6.2648</ele>
        <time>2010-12-29T16:19:57Z</time>
      </trkpt>
      <trkpt lat="46.1601" lon="-1.15042">
        <ele>6.2253</ele>
        <time>2010-12-29T16:19:58Z</time>
      </trkpt>
      <trkpt lat="46.16009" lon="-1.15043">
        <ele>6.1852</ele>
        <time>2010-12-29T16:19:59Z</time>
      </trkpt>
      <trkpt lat="46.16008" lon="-1.15043">
        <ele>6.1447</ele>
        <time>2010-12-29T16:20:00Z</time>
      </trkpt>
      <trkpt lat="46.16008" lon="-1.15044">
        <ele>6.1033</ele>
        <time>2010-12-29T16:20:01Z</time>
      </trkpt>
      <trkpt lat="46.16007" lon="-1.15045">
        <ele>6.0611</ele>
        <time>2010-12-29T16:20:02Z</time>
      </trkpt>
      <trkpt lat="46.16006" lon="-1.15045">
        <ele>6.025</ele>
        <time>2010-12-29T16:20:03Z</time>
      </trkpt>
      <trkpt lat="46.16005" lon="-1.15046">
        <ele>5.9875</ele>
        <time>2010-12-29T16:20:04Z</time>
      </trkpt>
      <trkpt lat="46.16004" lon="-1.15046">
        <ele>5.9494</ele>
        <time>2010-12-29T16:20:05Z</time>
      </trkpt>
      <trkpt lat="46.16003" lon="-1.15047">
        <ele>5.9136</ele>
        <time>2010-12-29T16:20:06Z</time>
      </trkpt>
      <trkpt lat="46.16002" lon="-1.15047">
        <ele>5.8796</ele>
        <time>2010-12-29T16:20:07Z</time>
      </trkpt>
      <trkpt lat="46.16001" lon="-1.15048">
        <ele>5.8452</ele>
        <time>2010-12-29T16:20:08Z</time>
      </trkpt>
      <trkpt lat="46.16" lon="-1.15047">
        <ele>5.8452</ele>
        <time>2010-12-29T16:20:09Z</time>
      </trkpt>
      <trkpt lat="46.16" lon="-1.15047">
        <ele>5.8452</ele>
        <time>2010-12-29T16:20:10Z</time>
      </trkpt>
      <trkpt lat="46.15999" lon="-1.1505">
        <ele>5.8086</ele>
        <time>2010-12-29T16:20:11Z</time>
      </trkpt>
      <trkpt lat="46.15997" lon="-1.15051">
        <ele>5.772</ele>
        <time>2010-12-29T16:20:12Z</time>
      </trkpt>
      <trkpt lat="46.15996" lon="-1.15052">
        <ele>5.7354</ele>
        <time>2010-12-29T16:20:13Z</time>
      </trkpt>
      <trkpt lat="46.15996" lon="-1.15053">
        <ele>5.7354</ele>
        <time>2010-12-29T16:20:14Z</time>
      </trkpt>
      <trkpt lat="46.15995" lon="-1.15053">
        <ele>5.7354</ele>
        <time>2010-12-29T16:20:15Z</time>
      </trkpt>
      <trkpt lat="46.15995" lon="-1.15054">
        <ele>5.7354</ele>
        <time>2010-12-29T16:20:16Z</time>
      </trkpt>
      <trkpt lat="46.15994" lon="-1.15054">
        <ele>5.7354</ele>
        <time>2010-12-29T16:20:17Z</time>
      </trkpt>
      <trkpt lat="46.15994" lon="-1.15055">
        <ele>5.7354</ele>
        <time>2010-12-29T16:20:18Z</time>
      </trkpt>
      <trkpt lat="46.15993" lon="-1.15056">
        <ele>5.7354</ele>
        <time>2010-12-29T16:20:19Z</time>
      </trkpt>
      <trkpt lat="46.15992" lon="-1.15056">
        <ele>5.7354</ele>
        <time>2010-12-29T16:20:20Z</time>
      </trkpt>
      <trkpt lat="46.15991" lon="-1.15058">
        <ele>5.6973</ele>
        <time>2010-12-29T16:20:21Z</time>
      </trkpt>
      <trkpt lat="46.1599" lon="-1.15059">
        <ele>5.6591</ele>
        <time>2010-12-29T16:20:22Z</time>
      </trkpt>
      <trkpt lat="46.15989" lon="-1.1506">
        <ele>5.6224</ele>
        <time>2010-12-29T16:20:23Z</time>
      </trkpt>
      <trkpt lat="46.15989" lon="-1.15061">
        <ele>5.6224</ele>
        <time>2010-12-29T16:20:24Z</time>
      </trkpt>
      <trkpt lat="46.15987" lon="-1.15062">
        <ele>5.5864</ele>
        <time>2010-12-29T16:20:25Z</time>
      </trkpt>
      <trkpt lat="46.15986" lon="-1.15063">
        <ele>5.5505</ele>
        <time>2010-12-29T16:20:26Z</time>
      </trkpt>
      <trkpt lat="46.15985" lon="-1.15065">
        <ele>5.5151</ele>
        <time>2010-12-29T16:20:27Z</time>
      </trkpt>
      <trkpt lat="46.15984" lon="-1.15066">
        <ele>5.4799</ele>
        <time>2010-12-29T16:20:28Z</time>
      </trkpt>
      <trkpt lat="46.15984" lon="-1.15066">
        <ele>5.4799</ele>
        <time>2010-12-29T16:20:29Z</time>
      </trkpt>
      <trkpt lat="46.15983" lon="-1.15068">
        <ele>5.4447</ele>
        <time>2010-12-29T16:20:30Z</time>
      </trkpt>
      <trkpt lat="46.15982" lon="-1.15069">
        <ele>5.4095</ele>
        <time>2010-12-29T16:20:31Z</time>
      </trkpt>
      <trkpt lat="46.15981" lon="-1.15069">
        <ele>5.4095</ele>
        <time>2010-12-29T16:20:32Z</time>
      </trkpt>
      <trkpt lat="46.1598" lon="-1.15071">
        <ele>5.3751</ele>
        <time>2010-12-29T16:20:33Z</time>
      </trkpt>
      <trkpt lat="46.15979" lon="-1.15073">
        <ele>5.3408</ele>
        <time>2010-12-29T16:20:34Z</time>
      </trkpt>
      <trkpt lat="46.15979" lon="-1.15075">
        <ele>5.3071</ele>
        <time>2010-12-29T16:20:35Z</time>
      </trkpt>
      <trkpt lat="46.15978" lon="-1.15075">
        <ele>5.3071</ele>
        <time>2010-12-29T16:20:36Z</time>
      </trkpt>
      <trkpt lat="46.15978" lon="-1.15076">
        <ele>5.3071</ele>
        <time>2010-12-29T16:20:37Z</time>
      </trkpt>
      <trkpt lat="46.15977" lon="-1.15077">
        <ele>5.3071</ele>
        <time>2010-12-29T16:20:38Z</time>
      </trkpt>
      <trkpt lat="46.15976" lon="-1.15079">
        <ele>5.2722</ele>
        <time>2010-12-29T16:20:39Z</time>
      </trkpt>
      <trkpt lat="46.15976" lon="-1.15081">
        <ele>5.2383</ele>
        <time>2010-12-29T16:20:40Z</time>
      </trkpt>
      <trkpt lat="46.15975" lon="-1.15083">
        <ele>5.2057</ele>
        <time>2010-12-29T16:20:41Z</time>
      </trkpt>
      <trkpt lat="46.15975" lon="-1.15083">
        <ele>5.1724</ele>
        <time>2010-12-29T16:20:42Z</time>
      </trkpt>
      <trkpt lat="46.15975" lon="-1.15083">
        <ele>5.136</ele>
        <time>2010-12-29T16:20:43Z</time>
      </trkpt>
      <trkpt lat="46.15974" lon="-1.15074">
        <ele>5.1064</ele>
        <time>2010-12-29T16:20:46Z</time>
      </trkpt>
      <trkpt lat="46.1597" lon="-1.15069">
        <ele>5.1021</ele>
        <time>2010-12-29T16:20:49Z</time>
      </trkpt>
      <trkpt lat="46.15968" lon="-1.15068">
        <ele>5.1006</ele>
        <time>2010-12-29T16:20:50Z</time>
      </trkpt>
      <trkpt lat="46.15966" lon="-1.15066">
        <ele>5.1152</ele>
        <time>2010-12-29T16:20:51Z</time>
      </trkpt>
      <trkpt lat="46.15965" lon="-1.15065">
        <ele>5.1841</ele>
        <time>2010-12-29T16:20:52Z</time>
      </trkpt>
      <trkpt lat="46.15963" lon="-1.15064">
        <ele>5.3019</ele>
        <time>2010-12-29T16:20:53Z</time>
      </trkpt>
      <trkpt lat="46.15962" lon="-1.15063">
        <ele>5.4366</ele>
        <time>2010-12-29T16:20:54Z</time>
      </trkpt>
      <trkpt lat="46.1596" lon="-1.15062">
        <ele>5.6053</ele>
        <time>2010-12-29T16:20:55Z</time>
      </trkpt>
      <trkpt lat="46.15959" lon="-1.15061">
        <ele>5.8103</ele>
        <time>2010-12-29T16:20:56Z</time>
      </trkpt>
      <trkpt lat="46.15957" lon="-1.15059">
        <ele>6.1314</ele>
        <time>2010-12-29T16:20:57Z</time>
      </trkpt>
      <trkpt lat="46.15955" lon="-1.15057">
        <ele>6.4634</ele>
        <time>2010-12-29T16:20:58Z</time>
      </trkpt>
      <trkpt lat="46.15953" lon="-1.15055">
        <ele>6.8212</ele>
        <time>2010-12-29T16:20:59Z</time>
      </trkpt>
      <trkpt lat="46.15952" lon="-1.15052">
        <ele>7.1953</ele>
        <time>2010-12-29T16:21:00Z</time>
      </trkpt>
      <trkpt lat="46.1595" lon="-1.15049">
        <ele>7.5706</ele>
        <time>2010-12-29T16:21:01Z</time>
      </trkpt>
      <trkpt lat="46.15949" lon="-1.15046">
        <ele>7.9447</ele>
        <time>2010-12-29T16:21:02Z</time>
      </trkpt>
      <trkpt lat="46.15947" lon="-1.15043">
        <ele>8.3259</ele>
        <time>2010-12-29T16:21:03Z</time>
      </trkpt>
      <trkpt lat="46.15946" lon="-1.15041">
        <ele>8.7048</ele>
        <time>2010-12-29T16:21:04Z</time>
      </trkpt>
      <trkpt lat="46.15944" lon="-1.15039">
        <ele>9.078</ele>
        <time>2010-12-29T16:21:05Z</time>
      </trkpt>
      <trkpt lat="46.15943" lon="-1.15038">
        <ele>9.4453</ele>
        <time>2010-12-29T16:21:06Z</time>
      </trkpt>
      <trkpt lat="46.15942" lon="-1.15037">
        <ele>9.7972</ele>
        <time>2010-12-29T16:21:07Z</time>
      </trkpt>
      <trkpt lat="46.15942" lon="-1.15037">
        <ele>10.1419</ele>
        <time>2010-12-29T16:21:08Z</time>
      </trkpt>
      <trkpt lat="46.15941" lon="-1.15037">
        <ele>10.4595</ele>
        <time>2010-12-29T16:21:09Z</time>
      </trkpt>
      <trkpt lat="46.15942" lon="-1.15038">
        <ele>10.7217</ele>
        <time>2010-12-29T16:21:10Z</time>
      </trkpt>
      <trkpt lat="46.15942" lon="-1.1504">
        <ele>10.966</ele>
        <time>2010-12-29T16:21:11Z</time>
      </trkpt>
      <trkpt lat="46.15942" lon="-1.1504">
        <ele>11.1972</ele>
        <time>2010-12-29T16:21:12Z</time>
      </trkpt>
      <trkpt lat="46.15942" lon="-1.15041">
        <ele>11.4223</ele>
        <time>2010-12-29T16:21:13Z</time>
      </trkpt>
      <trkpt lat="46.15942" lon="-1.15042">
        <ele>11.6433</ele>
        <time>2010-12-29T16:21:14Z</time>
      </trkpt>
      <trkpt lat="46.15942" lon="-1.15042">
        <ele>11.8578</ele>
        <time>2010-12-29T16:21:15Z</time>
      </trkpt>
      <trkpt lat="46.15942" lon="-1.15042">
        <ele>12.0547</ele>
        <time>2010-12-29T16:21:16Z</time>
      </trkpt>
      <trkpt lat="46.15942" lon="-1.15043">
        <ele>12.2302</ele>
        <time>2010-12-29T16:21:17Z</time>
      </trkpt>
      <trkpt lat="46.15942" lon="-1.15044">
        <ele>12.3874</ele>
        <time>2010-12-29T16:21:18Z</time>
      </trkpt>
      <trkpt lat="46.15942" lon="-1.15044">
        <ele>12.5228</ele>
        <time>2010-12-29T16:21:19Z</time>
      </trkpt>
      <trkpt lat="46.15941" lon="-1.1505">
        <ele>12.5739</ele>
        <time>2010-12-29T16:21:28Z</time>
      </trkpt>
      <trkpt lat="46.1594" lon="-1.15051">
        <ele>12.5823</ele>
        <time>2010-12-29T16:21:29Z</time>
      </trkpt>
      <trkpt lat="46.15939" lon="-1.15052">
        <ele>12.5893</ele>
        <time>2010-12-29T16:21:30Z</time>
      </trkpt>
      <trkpt lat="46.15938" lon="-1.15052">
        <ele>12.5989</ele>
        <time>2010-12-29T16:21:31Z</time>
      </trkpt>
      <trkpt lat="46.15937" lon="-1.15053">
        <ele>12.6035</ele>
        <time>2010-12-29T16:21:32Z</time>
      </trkpt>
      <trkpt lat="46.15937" lon="-1.15054">
        <ele>12.6125</ele>
        <time>2010-12-29T16:21:33Z</time>
      </trkpt>
      <trkpt lat="46.15936" lon="-1.15055">
        <ele>12.6156</ele>
        <time>2010-12-29T16:21:34Z</time>
      </trkpt>
      <trkpt lat="46.15936" lon="-1.15055">
        <ele>12.6218</ele>
        <time>2010-12-29T16:21:35Z</time>
      </trkpt>
      <trkpt lat="46.15935" lon="-1.15056">
        <ele>12.6298</ele>
        <time>2010-12-29T16:21:36Z</time>
      </trkpt>
      <trkpt lat="46.15934" lon="-1.15056">
        <ele>12.6351</ele>
        <time>2010-12-29T16:21:37Z</time>
      </trkpt>
      <trkpt lat="46.15934" lon="-1.15057">
        <ele>12.6445</ele>
        <time>2010-12-29T16:21:38Z</time>
      </trkpt>
      <trkpt lat="46.15933" lon="-1.15058">
        <ele>12.657</ele>
        <time>2010-12-29T16:21:39Z</time>
      </trkpt>
      <trkpt lat="46.15933" lon="-1.15059">
        <ele>12.6658</ele>
        <time>2010-12-29T16:21:40Z</time>
      </trkpt>
      <trkpt lat="46.15933" lon="-1.15059">
        <ele>12.6741</ele>
        <time>2010-12-29T16:21:41Z</time>
      </trkpt>
      <trkpt lat="46.15933" lon="-1.1506">
        <ele>12.6661</ele>
        <time>2010-12-29T16:21:42Z</time>
      </trkpt>
      <trkpt lat="46.15933" lon="-1.15061">
        <ele>12.652</ele>
        <time>2010-12-29T16:21:43Z</time>
      </trkpt>
      <trkpt lat="46.15932" lon="-1.15062">
        <ele>12.6294</ele>
        <time>2010-12-29T16:21:44Z</time>
      </trkpt>
      <trkpt lat="46.15932" lon="-1.15063">
        <ele>12.5999</ele>
        <time>2010-12-29T16:21:45Z</time>
      </trkpt>
      <trkpt lat="46.15931" lon="-1.15064">
        <ele>12.5637</ele>
        <time>2010-12-29T16:21:46Z</time>
      </trkpt>
      <trkpt lat="46.15931" lon="-1.15065">
        <ele>12.5253</ele>
        <time>2010-12-29T16:21:47Z</time>
      </trkpt>
      <trkpt lat="46.15931" lon="-1.15066">
        <ele>12.4853</ele>
        <time>2010-12-29T16:21:48Z</time>
      </trkpt>
      <trkpt lat="46.1593" lon="-1.15067">
        <ele>12.4404</ele>
        <time>2010-12-29T16:21:49Z</time>
      </trkpt>
      <trkpt lat="46.15929" lon="-1.15071">
        <ele>12.3034</ele>
        <time>2010-12-29T16:21:55Z</time>
      </trkpt>
      <trkpt lat="46.15929" lon="-1.15073">
        <ele>12.2728</ele>
        <time>2010-12-29T16:21:56Z</time>
      </trkpt>
      <trkpt lat="46.15924" lon="-1.15078">
        <ele>12.27</ele>
        <time>2010-12-29T16:21:58Z</time>
      </trkpt>
      <trkpt lat="46.1592" lon="-1.15082">
        <ele>12.2276</ele>
        <time>2010-12-29T16:22:00Z</time>
      </trkpt>
      <trkpt lat="46.15919" lon="-1.15084">
        <ele>12.2002</ele>
        <time>2010-12-29T16:22:01Z</time>
      </trkpt>
      <trkpt lat="46.15918" lon="-1.15085">
        <ele>12.184</ele>
        <time>2010-12-29T16:22:02Z</time>
      </trkpt>
      <trkpt lat="46.15916" lon="-1.15086">
        <ele>12.1637</ele>
        <time>2010-12-29T16:22:03Z</time>
      </trkpt>
      <trkpt lat="46.15916" lon="-1.15087">
        <ele>12.1394</ele>
        <time>2010-12-29T16:22:04Z</time>
      </trkpt>
      <trkpt lat="46.15915" lon="-1.15088">
        <ele>12.1187</ele>
        <time>2010-12-29T16:22:05Z</time>
      </trkpt>
      <trkpt lat="46.15915" lon="-1.15089">
        <ele>12.0974</ele>
        <time>2010-12-29T16:22:06Z</time>
      </trkpt>
      <trkpt lat="46.15914" lon="-1.1509">
        <ele>12.0775</ele>
        <time>2010-12-29T16:22:07Z</time>
      </trkpt>
      <trkpt lat="46.15913" lon="-1.15091">
        <ele>12.0495</ele>
        <time>2010-12-29T16:22:08Z</time>
      </trkpt>
      <trkpt lat="46.15913" lon="-1.15092">
        <ele>12.0129</ele>
        <time>2010-12-29T16:22:09Z</time>
      </trkpt>
      <trkpt lat="46.15913" lon="-1.15093">
        <ele>11.9727</ele>
        <time>2010-12-29T16:22:10Z</time>
      </trkpt>
      <trkpt lat="46.15913" lon="-1.15094">
        <ele>11.9344</ele>
        <time>2010-12-29T16:22:11Z</time>
      </trkpt>
      <trkpt lat="46.15913" lon="-1.15095">
        <ele>11.8951</ele>
        <time>2010-12-29T16:22:12Z</time>
      </trkpt>
      <trkpt lat="46.15913" lon="-1.15096">
        <ele>11.8631</ele>
        <time>2010-12-29T16:22:13Z</time>
      </trkpt>
      <trkpt lat="46.15914" lon="-1.15098">
        <ele>11.835</ele>
        <time>2010-12-29T16:22:14Z</time>
      </trkpt>
      <trkpt lat="46.15915" lon="-1.15099">
        <ele>11.8044</ele>
        <time>2010-12-29T16:22:15Z</time>
      </trkpt>
      <trkpt lat="46.15916" lon="-1.151">
        <ele>11.7696</ele>
        <time>2010-12-29T16:22:16Z</time>
      </trkpt>
      <trkpt lat="46.15916" lon="-1.15101">
        <ele>11.7353</ele>
        <time>2010-12-29T16:22:17Z</time>
      </trkpt>
      <trkpt lat="46.15917" lon="-1.15102">
        <ele>11.7005</ele>
        <time>2010-12-29T16:22:18Z</time>
      </trkpt>
      <trkpt lat="46.15917" lon="-1.15104">
        <ele>11.6661</ele>
        <time>2010-12-29T16:22:19Z</time>
      </trkpt>
      <trkpt lat="46.15917" lon="-1.15105">
        <ele>11.625</ele>
        <time>2010-12-29T16:22:20Z</time>
      </trkpt>
      <trkpt lat="46.15918" lon="-1.15106">
        <ele>11.5791</ele>
        <time>2010-12-29T16:22:21Z</time>
      </trkpt>
      <trkpt lat="46.15917" lon="-1.15107">
        <ele>11.5297</ele>
        <time>2010-12-29T16:22:22Z</time>
      </trkpt>
      <trkpt lat="46.15916" lon="-1.15107">
        <ele>11.4801</ele>
        <time>2010-12-29T16:22:23Z</time>
      </trkpt>
      <trkpt lat="46.15915" lon="-1.15107">
        <ele>11.4343</ele>
        <time>2010-12-29T16:22:24Z</time>
      </trkpt>
      <trkpt lat="46.15914" lon="-1.15107">
        <ele>11.3901</ele>
        <time>2010-12-29T16:22:25Z</time>
      </trkpt>
      <trkpt lat="46.15913" lon="-1.15108">
        <ele>11.341</ele>
        <time>2010-12-29T16:22:26Z</time>
      </trkpt>
      <trkpt lat="46.15913" lon="-1.15109">
        <ele>11.2866</ele>
        <time>2010-12-29T16:22:27Z</time>
      </trkpt>
      <trkpt lat="46.15913" lon="-1.15109">
        <ele>11.2122</ele>
        <time>2010-12-29T16:22:28Z</time>
      </trkpt>
      <trkpt lat="46.15912" lon="-1.15111">
        <ele>10.9555</ele>
        <time>2010-12-29T16:22:33Z</time>
      </trkpt>
      <trkpt lat="46.15911" lon="-1.15112">
        <ele>10.8892</ele>
        <time>2010-12-29T16:22:34Z</time>
      </trkpt>
      <trkpt lat="46.1591" lon="-1.15113">
        <ele>10.8289</ele>
        <time>2010-12-29T16:22:35Z</time>
      </trkpt>
      <trkpt lat="46.15909" lon="-1.15113">
        <ele>10.7697</ele>
        <time>2010-12-29T16:22:36Z</time>
      </trkpt>
      <trkpt lat="46.15908" lon="-1.15114">
        <ele>10.7127</ele>
        <time>2010-12-29T16:22:37Z</time>
      </trkpt>
      <trkpt lat="46.15907" lon="-1.15115">
        <ele>10.6602</ele>
        <time>2010-12-29T16:22:38Z</time>
      </trkpt>
      <trkpt lat="46.15907" lon="-1.15116">
        <ele>10.606</ele>
        <time>2010-12-29T16:22:39Z</time>
      </trkpt>
      <trkpt lat="46.15906" lon="-1.15116">
        <ele>10.5548</ele>
        <time>2010-12-29T16:22:40Z</time>
      </trkpt>
      <trkpt lat="46.15905" lon="-1.15116">
        <ele>10.5066</ele>
        <time>2010-12-29T16:22:41Z</time>
      </trkpt>
      <trkpt lat="46.15904" lon="-1.15117">
        <ele>10.4545</ele>
        <time>2010-12-29T16:22:42Z</time>
      </trkpt>
      <trkpt lat="46.15903" lon="-1.15117">
        <ele>10.38</ele>
        <time>2010-12-29T16:22:43Z</time>
      </trkpt>
      <trkpt lat="46.15903" lon="-1.15119">
        <ele>10.284</ele>
        <time>2010-12-29T16:22:44Z</time>
      </trkpt>
      <trkpt lat="46.15902" lon="-1.1512">
        <ele>10.192</ele>
        <time>2010-12-29T16:22:45Z</time>
      </trkpt>
      <trkpt lat="46.15902" lon="-1.15121">
        <ele>10.084</ele>
        <time>2010-12-29T16:22:46Z</time>
      </trkpt>
      <trkpt lat="46.15902" lon="-1.15122">
        <ele>9.9867</ele>
        <time>2010-12-29T16:22:47Z</time>
      </trkpt>
      <trkpt lat="46.15901" lon="-1.15123">
        <ele>9.9014</ele>
        <time>2010-12-29T16:22:48Z</time>
      </trkpt>
      <trkpt lat="46.15901" lon="-1.15123">
        <ele>9.8234</ele>
        <time>2010-12-29T16:22:49Z</time>
      </trkpt>
      <trkpt lat="46.159" lon="-1.15124">
        <ele>9.7491</ele>
        <time>2010-12-29T16:22:50Z</time>
      </trkpt>
      <trkpt lat="46.159" lon="-1.15125">
        <ele>9.6767</ele>
        <time>2010-12-29T16:22:51Z</time>
      </trkpt>
      <trkpt lat="46.15899" lon="-1.15124">
        <ele>9.6072</ele>
        <time>2010-12-29T16:22:52Z</time>
      </trkpt>
      <trkpt lat="46.15898" lon="-1.15124">
        <ele>9.5451</ele>
        <time>2010-12-29T16:22:53Z</time>
      </trkpt>
      <trkpt lat="46.15897" lon="-1.15125">
        <ele>9.4911</ele>
        <time>2010-12-29T16:22:54Z</time>
      </trkpt>
      <trkpt lat="46.15896" lon="-1.15125">
        <ele>9.4484</ele>
        <time>2010-12-29T16:22:55Z</time>
      </trkpt>
      <trkpt lat="46.15895" lon="-1.15124">
        <ele>9.4092</ele>
        <time>2010-12-29T16:22:56Z</time>
      </trkpt>
      <trkpt lat="46.15894" lon="-1.15124">
        <ele>9.3728</ele>
        <time>2010-12-29T16:22:57Z</time>
      </trkpt>
      <trkpt lat="46.15893" lon="-1.15125">
        <ele>9.3345</ele>
        <time>2010-12-29T16:22:58Z</time>
      </trkpt>
      <trkpt lat="46.15892" lon="-1.15126">
        <ele>9.2998</ele>
        <time>2010-12-29T16:22:59Z</time>
      </trkpt>
      <trkpt lat="46.15892" lon="-1.15126">
        <ele>9.2685</ele>
        <time>2010-12-29T16:23:00Z</time>
      </trkpt>
      <trkpt lat="46.15891" lon="-1.15127">
        <ele>9.2426</ele>
        <time>2010-12-29T16:23:01Z</time>
      </trkpt>
      <trkpt lat="46.15891" lon="-1.15128">
        <ele>9.2182</ele>
        <time>2010-12-29T16:23:02Z</time>
      </trkpt>
      <trkpt lat="46.1589" lon="-1.15128">
        <ele>9.1956</ele>
        <time>2010-12-29T16:23:03Z</time>
      </trkpt>
      <trkpt lat="46.15889" lon="-1.15129">
        <ele>9.1679</ele>
        <time>2010-12-29T16:23:04Z</time>
      </trkpt>
      <trkpt lat="46.15889" lon="-1.1513">
        <ele>9.1327</ele>
        <time>2010-12-29T16:23:05Z</time>
      </trkpt>
      <trkpt lat="46.15889" lon="-1.15132">
        <ele>9.1002</ele>
        <time>2010-12-29T16:23:06Z</time>
      </trkpt>
      <trkpt lat="46.15888" lon="-1.15133">
        <ele>9.066</ele>
        <time>2010-12-29T16:23:07Z</time>
      </trkpt>
      <trkpt lat="46.15887" lon="-1.15134">
        <ele>9.0467</ele>
        <time>2010-12-29T16:23:08Z</time>
      </trkpt>
      <trkpt lat="46.15886" lon="-1.15135">
        <ele>9.0272</ele>
        <time>2010-12-29T16:23:09Z</time>
      </trkpt>
      <trkpt lat="46.15886" lon="-1.15136">
        <ele>9.0074</ele>
        <time>2010-12-29T16:23:10Z</time>
      </trkpt>
      <trkpt lat="46.15885" lon="-1.15136">
        <ele>8.9964</ele>
        <time>2010-12-29T16:23:11Z</time>
      </trkpt>
      <trkpt lat="46.15884" lon="-1.15137">
        <ele>8.9983</ele>
        <time>2010-12-29T16:23:12Z</time>
      </trkpt>
      <trkpt lat="46.15884" lon="-1.15138">
        <ele>9.0008</ele>
        <time>2010-12-29T16:23:13Z</time>
      </trkpt>
      <trkpt lat="46.15884" lon="-1.15139">
        <ele>9.0094</ele>
        <time>2010-12-29T16:23:14Z</time>
      </trkpt>
      <trkpt lat="46.15883" lon="-1.15139">
        <ele>9.0165</ele>
        <time>2010-12-29T16:23:15Z</time>
      </trkpt>
      <trkpt lat="46.15883" lon="-1.1514">
        <ele>9.0265</ele>
        <time>2010-12-29T16:23:16Z</time>
      </trkpt>
      <trkpt lat="46.15882" lon="-1.15141">
        <ele>9.0361</ele>
        <time>2010-12-29T16:23:17Z</time>
      </trkpt>
      <trkpt lat="46.15881" lon="-1.15142">
        <ele>9.0513</ele>
        <time>2010-12-29T16:23:18Z</time>
      </trkpt>
      <trkpt lat="46.1588" lon="-1.15143">
        <ele>9.0689</ele>
        <time>2010-12-29T16:23:19Z</time>
      </trkpt>
      <trkpt lat="46.1588" lon="-1.15144">
        <ele>9.0856</ele>
        <time>2010-12-29T16:23:20Z</time>
      </trkpt>
      <trkpt lat="46.15879" lon="-1.15144">
        <ele>9.1012</ele>
        <time>2010-12-29T16:23:21Z</time>
      </trkpt>
      <trkpt lat="46.15878" lon="-1.15144">
        <ele>9.12</ele>
        <time>2010-12-29T16:23:22Z</time>
      </trkpt>
      <trkpt lat="46.15878" lon="-1.15144">
        <ele>9.1428</ele>
        <time>2010-12-29T16:23:23Z</time>
      </trkpt>
      <trkpt lat="46.15878" lon="-1.15145">
        <ele>9.1664</ele>
        <time>2010-12-29T16:23:24Z</time>
      </trkpt>
      <trkpt lat="46.15878" lon="-1.15146">
        <ele>9.1918</ele>
        <time>2010-12-29T16:23:25Z</time>
      </trkpt>
      <trkpt lat="46.15877" lon="-1.15147">
        <ele>9.2184</ele>
        <time>2010-12-29T16:23:26Z</time>
      </trkpt>
      <trkpt lat="46.15873" lon="-1.15149">
        <ele>9.2449</ele>
        <time>2010-12-29T16:23:35Z</time>
      </trkpt>
      <trkpt lat="46.15873" lon="-1.1515">
        <ele>9.2621</ele>
        <time>2010-12-29T16:23:36Z</time>
      </trkpt>
      <trkpt lat="46.15873" lon="-1.15151">
        <ele>9.2753</ele>
        <time>2010-12-29T16:23:37Z</time>
      </trkpt>
      <trkpt lat="46.15873" lon="-1.15152">
        <ele>9.2856</ele>
        <time>2010-12-29T16:23:38Z</time>
      </trkpt>
      <trkpt lat="46.15872" lon="-1.15152">
        <ele>9.2995</ele>
        <time>2010-12-29T16:23:39Z</time>
      </trkpt>
      <trkpt lat="46.15871" lon="-1.15153">
        <ele>9.312</ele>
        <time>2010-12-29T16:23:40Z</time>
      </trkpt>
      <trkpt lat="46.15871" lon="-1.15154">
        <ele>9.3143</ele>
        <time>2010-12-29T16:23:41Z</time>
      </trkpt>
      <trkpt lat="46.1587" lon="-1.15155">
        <ele>9.3114</ele>
        <time>2010-12-29T16:23:42Z</time>
      </trkpt>
      <trkpt lat="46.1587" lon="-1.15156">
        <ele>9.3056</ele>
        <time>2010-12-29T16:23:43Z</time>
      </trkpt>
      <trkpt lat="46.15868" lon="-1.15156">
        <ele>9.3071</ele>
        <time>2010-12-29T16:23:44Z</time>
      </trkpt>
      <trkpt lat="46.15867" lon="-1.15157">
        <ele>9.3047</ele>
        <time>2010-12-29T16:23:45Z</time>
      </trkpt>
      <trkpt lat="46.15866" lon="-1.15158">
        <ele>9.3064</ele>
        <time>2010-12-29T16:23:46Z</time>
      </trkpt>
      <trkpt lat="46.15865" lon="-1.15159">
        <ele>9.3109</ele>
        <time>2010-12-29T16:23:47Z</time>
      </trkpt>
      <trkpt lat="46.15864" lon="-1.1516">
        <ele>9.3166</ele>
        <time>2010-12-29T16:23:48Z</time>
      </trkpt>
      <trkpt lat="46.15863" lon="-1.15161">
        <ele>9.326</ele>
        <time>2010-12-29T16:23:49Z</time>
      </trkpt>
      <trkpt lat="46.15863" lon="-1.15162">
        <ele>9.338</ele>
        <time>2010-12-29T16:23:50Z</time>
      </trkpt>
      <trkpt lat="46.15862" lon="-1.15163">
        <ele>9.3501</ele>
        <time>2010-12-29T16:23:51Z</time>
      </trkpt>
      <trkpt lat="46.15862" lon="-1.15164">
        <ele>9.359</ele>
        <time>2010-12-29T16:23:52Z</time>
      </trkpt>
      <trkpt lat="46.15861" lon="-1.15165">
        <ele>9.3619</ele>
        <time>2010-12-29T16:23:53Z</time>
      </trkpt>
      <trkpt lat="46.1586" lon="-1.15166">
        <ele>9.367</ele>
        <time>2010-12-29T16:23:54Z</time>
      </trkpt>
      <trkpt lat="46.1586" lon="-1.15167">
        <ele>9.3745</ele>
        <time>2010-12-29T16:23:55Z</time>
      </trkpt>
      <trkpt lat="46.15859" lon="-1.15167">
        <ele>9.3833</ele>
        <time>2010-12-29T16:23:56Z</time>
      </trkpt>
      <trkpt lat="46.15859" lon="-1.15168">
        <ele>9.3918</ele>
        <time>2010-12-29T16:23:57Z</time>
      </trkpt>
      <trkpt lat="46.15859" lon="-1.15169">
        <ele>9.4005</ele>
        <time>2010-12-29T16:23:58Z</time>
      </trkpt>
      <trkpt lat="46.15858" lon="-1.1517">
        <ele>9.4065</ele>
        <time>2010-12-29T16:23:59Z</time>
      </trkpt>
      <trkpt lat="46.15857" lon="-1.15171">
        <ele>9.4071</ele>
        <time>2010-12-29T16:24:00Z</time>
      </trkpt>
      <trkpt lat="46.15857" lon="-1.15172">
        <ele>9.4053</ele>
        <time>2010-12-29T16:24:01Z</time>
      </trkpt>
      <trkpt lat="46.15856" lon="-1.15172">
        <ele>9.4009</ele>
        <time>2010-12-29T16:24:02Z</time>
      </trkpt>
      <trkpt lat="46.15855" lon="-1.15173">
        <ele>9.3975</ele>
        <time>2010-12-29T16:24:03Z</time>
      </trkpt>
      <trkpt lat="46.15855" lon="-1.15173">
        <ele>9.3959</ele>
        <time>2010-12-29T16:24:04Z</time>
      </trkpt>
      <trkpt lat="46.15854" lon="-1.15173">
        <ele>9.402</ele>
        <time>2010-12-29T16:24:05Z</time>
      </trkpt>
      <trkpt lat="46.15852" lon="-1.15173">
        <ele>9.4186</ele>
        <time>2010-12-29T16:24:06Z</time>
      </trkpt>
      <trkpt lat="46.15851" lon="-1.15173">
        <ele>9.4372</ele>
        <time>2010-12-29T16:24:07Z</time>
      </trkpt>
      <trkpt lat="46.1585" lon="-1.15173">
        <ele>9.447</ele>
        <time>2010-12-29T16:24:08Z</time>
      </trkpt>
      <trkpt lat="46.15849" lon="-1.15173">
        <ele>9.4515</ele>
        <time>2010-12-29T16:24:09Z</time>
      </trkpt>
      <trkpt lat="46.15848" lon="-1.15173">
        <ele>9.4586</ele>
        <time>2010-12-29T16:24:10Z</time>
      </trkpt>
      <trkpt lat="46.15847" lon="-1.15173">
        <ele>9.4678</ele>
        <time>2010-12-29T16:24:11Z</time>
      </trkpt>
      <trkpt lat="46.15846" lon="-1.15173">
        <ele>9.4768</ele>
        <time>2010-12-29T16:24:12Z</time>
      </trkpt>
      <trkpt lat="46.15845" lon="-1.15173">
        <ele>9.4838</ele>
        <time>2010-12-29T16:24:13Z</time>
      </trkpt>
      <trkpt lat="46.15844" lon="-1.15173">
        <ele>9.4973</ele>
        <time>2010-12-29T16:24:14Z</time>
      </trkpt>
      <trkpt lat="46.15843" lon="-1.15173">
        <ele>9.515</ele>
        <time>2010-12-29T16:24:15Z</time>
      </trkpt>
      <trkpt lat="46.15842" lon="-1.15173">
        <ele>9.5332</ele>
        <time>2010-12-29T16:24:16Z</time>
      </trkpt>
      <trkpt lat="46.15841" lon="-1.15173">
        <ele>9.5539</ele>
        <time>2010-12-29T16:24:17Z</time>
      </trkpt>
      <trkpt lat="46.15841" lon="-1.15173">
        <ele>9.5862</ele>
        <time>2010-12-29T16:24:18Z</time>
      </trkpt>
      <trkpt lat="46.1584" lon="-1.15173">
        <ele>9.6206</ele>
        <time>2010-12-29T16:24:19Z</time>
      </trkpt>
      <trkpt lat="46.15839" lon="-1.15174">
        <ele>9.6845</ele>
        <time>2010-12-29T16:24:23Z</time>
      </trkpt>
      <trkpt lat="46.15838" lon="-1.15175">
        <ele>9.7078</ele>
        <time>2010-12-29T16:24:24Z</time>
      </trkpt>
      <trkpt lat="46.15837" lon="-1.15175">
        <ele>9.7185</ele>
        <time>2010-12-29T16:24:25Z</time>
      </trkpt>
      <trkpt lat="46.15836" lon="-1.15175">
        <ele>9.7113</ele>
        <time>2010-12-29T16:24:26Z</time>
      </trkpt>
      <trkpt lat="46.15835" lon="-1.15175">
        <ele>9.704</ele>
        <time>2010-12-29T16:24:27Z</time>
      </trkpt>
      <trkpt lat="46.15834" lon="-1.15175">
        <ele>9.6958</ele>
        <time>2010-12-29T16:24:28Z</time>
      </trkpt>
      <trkpt lat="46.15833" lon="-1.15175">
        <ele>9.6839</ele>
        <time>2010-12-29T16:24:29Z</time>
      </trkpt>
      <trkpt lat="46.15831" lon="-1.15175">
        <ele>9.6617</ele>
        <time>2010-12-29T16:24:30Z</time>
      </trkpt>
      <trkpt lat="46.1583" lon="-1.15174">
        <ele>9.6398</ele>
        <time>2010-12-29T16:24:31Z</time>
      </trkpt>
      <trkpt lat="46.15829" lon="-1.15174">
        <ele>9.6109</ele>
        <time>2010-12-29T16:24:32Z</time>
      </trkpt>
      <trkpt lat="46.15827" lon="-1.15174">
        <ele>9.5759</ele>
        <time>2010-12-29T16:24:33Z</time>
      </trkpt>
      <trkpt lat="46.15826" lon="-1.15174">
        <ele>9.5429</ele>
        <time>2010-12-29T16:24:34Z</time>
      </trkpt>
      <trkpt lat="46.15823" lon="-1.15177">
        <ele>9.4363</ele>
        <time>2010-12-29T16:24:40Z</time>
      </trkpt>
      <trkpt lat="46.15823" lon="-1.15178">
        <ele>9.4091</ele>
        <time>2010-12-29T16:24:41Z</time>
      </trkpt>
      <trkpt lat="46.15823" lon="-1.15178">
        <ele>9.3777</ele>
        <time>2010-12-29T16:24:43Z</time>
      </trkpt>
      <trkpt lat="46.15823" lon="-1.15177">
        <ele>9.3525</ele>
        <time>2010-12-29T16:24:44Z</time>
      </trkpt>
      <trkpt lat="46.15823" lon="-1.15175">
        <ele>9.3282</ele>
        <time>2010-12-29T16:24:45Z</time>
      </trkpt>
      <trkpt lat="46.15822" lon="-1.15174">
        <ele>9.3011</ele>
        <time>2010-12-29T16:24:46Z</time>
      </trkpt>
      <trkpt lat="46.15822" lon="-1.15172">
        <ele>9.2717</ele>
        <time>2010-12-29T16:24:47Z</time>
      </trkpt>
      <trkpt lat="46.1582" lon="-1.15171">
        <ele>9.2401</ele>
        <time>2010-12-29T16:24:48Z</time>
      </trkpt>
      <trkpt lat="46.15819" lon="-1.1517">
        <ele>9.2076</ele>
        <time>2010-12-29T16:24:49Z</time>
      </trkpt>
      <trkpt lat="46.15818" lon="-1.15169">
        <ele>9.1529</ele>
        <time>2010-12-29T16:24:50Z</time>
      </trkpt>
      <trkpt lat="46.15817" lon="-1.15168">
        <ele>9.0821</ele>
        <time>2010-12-29T16:24:51Z</time>
      </trkpt>
      <trkpt lat="46.15815" lon="-1.15167">
        <ele>9.0015</ele>
        <time>2010-12-29T16:24:52Z</time>
      </trkpt>
      <trkpt lat="46.15815" lon="-1.15166">
        <ele>8.9138</ele>
        <time>2010-12-29T16:24:53Z</time>
      </trkpt>
      <trkpt lat="46.15814" lon="-1.15165">
        <ele>8.8266</ele>
        <time>2010-12-29T16:24:54Z</time>
      </trkpt>
      <trkpt lat="46.15813" lon="-1.15164">
        <ele>8.7392</ele>
        <time>2010-12-29T16:24:55Z</time>
      </trkpt>
      <trkpt lat="46.15813" lon="-1.15163">
        <ele>8.653</ele>
        <time>2010-12-29T16:24:56Z</time>
      </trkpt>
      <trkpt lat="46.15813" lon="-1.15162">
        <ele>8.5677</ele>
        <time>2010-12-29T16:24:57Z</time>
      </trkpt>
      <trkpt lat="46.15813" lon="-1.15161">
        <ele>8.4856</ele>
        <time>2010-12-29T16:24:58Z</time>
      </trkpt>
      <trkpt lat="46.15813" lon="-1.1516">
        <ele>8.4034</ele>
        <time>2010-12-29T16:24:59Z</time>
      </trkpt>
      <trkpt lat="46.15812" lon="-1.15159">
        <ele>8.3246</ele>
        <time>2010-12-29T16:25:00Z</time>
      </trkpt>
      <trkpt lat="46.15813" lon="-1.15158">
        <ele>8.2435</ele>
        <time>2010-12-29T16:25:01Z</time>
      </trkpt>
      <trkpt lat="46.15813" lon="-1.15157">
        <ele>8.1558</ele>
        <time>2010-12-29T16:25:02Z</time>
      </trkpt>
      <trkpt lat="46.15813" lon="-1.15156">
        <ele>8.0614</ele>
        <time>2010-12-29T16:25:03Z</time>
      </trkpt>
      <trkpt lat="46.15813" lon="-1.15155">
        <ele>7.9762</ele>
        <time>2010-12-29T16:25:05Z</time>
      </trkpt>
      <trkpt lat="46.15813" lon="-1.15154">
        <ele>7.9257</ele>
        <time>2010-12-29T16:25:06Z</time>
      </trkpt>
      <trkpt lat="46.15813" lon="-1.15153">
        <ele>7.8802</ele>
        <time>2010-12-29T16:25:07Z</time>
      </trkpt>
      <trkpt lat="46.15814" lon="-1.15151">
        <ele>7.8256</ele>
        <time>2010-12-29T16:25:08Z</time>
      </trkpt>
      <trkpt lat="46.15814" lon="-1.15149">
        <ele>7.7594</ele>
        <time>2010-12-29T16:25:09Z</time>
      </trkpt>
      <trkpt lat="46.15815" lon="-1.15148">
        <ele>7.6973</ele>
        <time>2010-12-29T16:25:10Z</time>
      </trkpt>
      <trkpt lat="46.15815" lon="-1.15146">
        <ele>7.6449</ele>
        <time>2010-12-29T16:25:11Z</time>
      </trkpt>
      <trkpt lat="46.15816" lon="-1.15144">
        <ele>7.584</ele>
        <time>2010-12-29T16:25:12Z</time>
      </trkpt>
      <trkpt lat="46.15818" lon="-1.15143">
        <ele>7.5315</ele>
        <time>2010-12-29T16:25:13Z</time>
      </trkpt>
      <trkpt lat="46.15819" lon="-1.15141">
        <ele>7.4706</ele>
        <time>2010-12-29T16:25:14Z</time>
      </trkpt>
      <trkpt lat="46.1582" lon="-1.1514">
        <ele>7.41</ele>
        <time>2010-12-29T16:25:15Z</time>
      </trkpt>
      <trkpt lat="46.1582" lon="-1.15139">
        <ele>7.3479</ele>
        <time>2010-12-29T16:25:16Z</time>
      </trkpt>
      <trkpt lat="46.15821" lon="-1.15137">
        <ele>7.2963</ele>
        <time>2010-12-29T16:25:17Z</time>
      </trkpt>
      <trkpt lat="46.15821" lon="-1.15136">
        <ele>7.2444</ele>
        <time>2010-12-29T16:25:18Z</time>
      </trkpt>
      <trkpt lat="46.15821" lon="-1.15134">
        <ele>7.1927</ele>
        <time>2010-12-29T16:25:19Z</time>
      </trkpt>
      <trkpt lat="46.15821" lon="-1.15133">
        <ele>7.1459</ele>
        <time>2010-12-29T16:25:20Z</time>
      </trkpt>
      <trkpt lat="46.15821" lon="-1.15131">
        <ele>7.0931</ele>
        <time>2010-12-29T16:25:21Z</time>
      </trkpt>
      <trkpt lat="46.15821" lon="-1.1513">
        <ele>7.0469</ele>
        <time>2010-12-29T16:25:22Z</time>
      </trkpt>
      <trkpt lat="46.1582" lon="-1.15128">
        <ele>6.9924</ele>
        <time>2010-12-29T16:25:23Z</time>
      </trkpt>
      <trkpt lat="46.15819" lon="-1.15127">
        <ele>6.9358</ele>
        <time>2010-12-29T16:25:24Z</time>
      </trkpt>
      <trkpt lat="46.15818" lon="-1.15126">
        <ele>6.8951</ele>
        <time>2010-12-29T16:25:25Z</time>
      </trkpt>
      <trkpt lat="46.15818" lon="-1.15124">
        <ele>6.8523</ele>
        <time>2010-12-29T16:25:26Z</time>
      </trkpt>
      <trkpt lat="46.15817" lon="-1.15122">
        <ele>6.8497</ele>
        <time>2010-12-29T16:25:27Z</time>
      </trkpt>
      <trkpt lat="46.15817" lon="-1.1512">
        <ele>6.895</ele>
        <time>2010-12-29T16:25:28Z</time>
      </trkpt>
      <trkpt lat="46.15815" lon="-1.15117">
        <ele>6.9691</ele>
        <time>2010-12-29T16:25:29Z</time>
      </trkpt>
      <trkpt lat="46.15814" lon="-1.15114">
        <ele>7.0362</ele>
        <time>2010-12-29T16:25:30Z</time>
      </trkpt>
      <trkpt lat="46.15813" lon="-1.15112">
        <ele>7.098</ele>
        <time>2010-12-29T16:25:31Z</time>
      </trkpt>
      <trkpt lat="46.15812" lon="-1.15111">
        <ele>7.1556</ele>
        <time>2010-12-29T16:25:32Z</time>
      </trkpt>
      <trkpt lat="46.15811" lon="-1.15108">
        <ele>7.2109</ele>
        <time>2010-12-29T16:25:33Z</time>
      </trkpt>
      <trkpt lat="46.1581" lon="-1.15107">
        <ele>7.2668</ele>
        <time>2010-12-29T16:25:34Z</time>
      </trkpt>
      <trkpt lat="46.1581" lon="-1.15105">
        <ele>7.3237</ele>
        <time>2010-12-29T16:25:35Z</time>
      </trkpt>
      <trkpt lat="46.15809" lon="-1.15104">
        <ele>7.38</ele>
        <time>2010-12-29T16:25:36Z</time>
      </trkpt>
      <trkpt lat="46.15809" lon="-1.15102">
        <ele>7.4334</ele>
        <time>2010-12-29T16:25:37Z</time>
      </trkpt>
      <trkpt lat="46.15809" lon="-1.15101">
        <ele>7.4808</ele>
        <time>2010-12-29T16:25:38Z</time>
      </trkpt>
      <trkpt lat="46.15808" lon="-1.151">
        <ele>7.5247</ele>
        <time>2010-12-29T16:25:39Z</time>
      </trkpt>
      <trkpt lat="46.15807" lon="-1.15099">
        <ele>7.5594</ele>
        <time>2010-12-29T16:25:40Z</time>
      </trkpt>
      <trkpt lat="46.15807" lon="-1.15097">
        <ele>7.5866</ele>
        <time>2010-12-29T16:25:41Z</time>
      </trkpt>
      <trkpt lat="46.15806" lon="-1.15096">
        <ele>7.6079</ele>
        <time>2010-12-29T16:25:42Z</time>
      </trkpt>
      <trkpt lat="46.15805" lon="-1.15096">
        <ele>7.6266</ele>
        <time>2010-12-29T16:25:43Z</time>
      </trkpt>
      <trkpt lat="46.15805" lon="-1.15094">
        <ele>7.6608</ele>
        <time>2010-12-29T16:25:44Z</time>
      </trkpt>
      <trkpt lat="46.15804" lon="-1.15093">
        <ele>7.69</ele>
        <time>2010-12-29T16:25:45Z</time>
      </trkpt>
      <trkpt lat="46.15804" lon="-1.15093">
        <ele>7.7148</ele>
        <time>2010-12-29T16:25:46Z</time>
      </trkpt>
      <trkpt lat="46.15804" lon="-1.15092">
        <ele>7.7355</ele>
        <time>2010-12-29T16:25:47Z</time>
      </trkpt>
      <trkpt lat="46.15803" lon="-1.1509">
        <ele>7.7482</ele>
        <time>2010-12-29T16:25:48Z</time>
      </trkpt>
      <trkpt lat="46.15803" lon="-1.1509">
        <ele>7.7576</ele>
        <time>2010-12-29T16:25:49Z</time>
      </trkpt>
      <trkpt lat="46.15802" lon="-1.15088">
        <ele>7.7644</ele>
        <time>2010-12-29T16:25:50Z</time>
      </trkpt>
      <trkpt lat="46.15802" lon="-1.15087">
        <ele>7.7669</ele>
        <time>2010-12-29T16:25:51Z</time>
      </trkpt>
      <trkpt lat="46.15801" lon="-1.15086">
        <ele>7.762</ele>
        <time>2010-12-29T16:25:52Z</time>
      </trkpt>
      <trkpt lat="46.158" lon="-1.15084">
        <ele>7.7506</ele>
        <time>2010-12-29T16:25:53Z</time>
      </trkpt>
      <trkpt lat="46.15799" lon="-1.15083">
        <ele>7.7272</ele>
        <time>2010-12-29T16:25:54Z</time>
      </trkpt>
      <trkpt lat="46.15797" lon="-1.15082">
        <ele>7.6998</ele>
        <time>2010-12-29T16:25:55Z</time>
      </trkpt>
      <trkpt lat="46.15796" lon="-1.1508">
        <ele>7.6838</ele>
        <time>2010-12-29T16:25:56Z</time>
      </trkpt>
      <trkpt lat="46.15794" lon="-1.15079">
        <ele>7.6749</ele>
        <time>2010-12-29T16:25:57Z</time>
      </trkpt>
      <trkpt lat="46.15793" lon="-1.15079">
        <ele>7.6673</ele>
        <time>2010-12-29T16:25:58Z</time>
      </trkpt>
      <trkpt lat="46.15792" lon="-1.15078">
        <ele>7.6584</ele>
        <time>2010-12-29T16:25:59Z</time>
      </trkpt>
      <trkpt lat="46.15791" lon="-1.15078">
        <ele>7.6466</ele>
        <time>2010-12-29T16:26:00Z</time>
      </trkpt>
      <trkpt lat="46.1579" lon="-1.15077">
        <ele>7.6311</ele>
        <time>2010-12-29T16:26:01Z</time>
      </trkpt>
      <trkpt lat="46.15789" lon="-1.15077">
        <ele>7.6109</ele>
        <time>2010-12-29T16:26:02Z</time>
      </trkpt>
      <trkpt lat="46.15789" lon="-1.15076">
        <ele>7.5987</ele>
        <time>2010-12-29T16:26:03Z</time>
      </trkpt>
      <trkpt lat="46.15788" lon="-1.15076">
        <ele>7.5863</ele>
        <time>2010-12-29T16:26:04Z</time>
      </trkpt>
      <trkpt lat="46.15787" lon="-1.15075">
        <ele>7.5713</ele>
        <time>2010-12-29T16:26:05Z</time>
      </trkpt>
      <trkpt lat="46.15786" lon="-1.15074">
        <ele>7.5504</ele>
        <time>2010-12-29T16:26:06Z</time>
      </trkpt>
      <trkpt lat="46.15783" lon="-1.15075">
        <ele>7.3055</ele>
        <time>2010-12-29T16:26:12Z</time>
      </trkpt>
      <trkpt lat="46.15779" lon="-1.1508">
        <ele>6.9998</ele>
        <time>2010-12-29T16:26:18Z</time>
      </trkpt>
      <trkpt lat="46.15778" lon="-1.15082">
        <ele>6.9598</ele>
        <time>2010-12-29T16:26:19Z</time>
      </trkpt>
      <trkpt lat="46.15777" lon="-1.15083">
        <ele>6.9218</ele>
        <time>2010-12-29T16:26:20Z</time>
      </trkpt>
      <trkpt lat="46.15776" lon="-1.15084">
        <ele>6.882</ele>
        <time>2010-12-29T16:26:21Z</time>
      </trkpt>
      <trkpt lat="46.15772" lon="-1.15087">
        <ele>6.6794</ele>
        <time>2010-12-29T16:26:26Z</time>
      </trkpt>
      <trkpt lat="46.15771" lon="-1.15087">
        <ele>6.6501</ele>
        <time>2010-12-29T16:26:27Z</time>
      </trkpt>
      <trkpt lat="46.15769" lon="-1.15087">
        <ele>6.623</ele>
        <time>2010-12-29T16:26:28Z</time>
      </trkpt>
      <trkpt lat="46.15768" lon="-1.15088">
        <ele>6.5963</ele>
        <time>2010-12-29T16:26:29Z</time>
      </trkpt>
      <trkpt lat="46.15767" lon="-1.15088">
        <ele>6.5695</ele>
        <time>2010-12-29T16:26:30Z</time>
      </trkpt>
      <trkpt lat="46.15766" lon="-1.15089">
        <ele>6.5416</ele>
        <time>2010-12-29T16:26:31Z</time>
      </trkpt>
      <trkpt lat="46.15765" lon="-1.1509">
        <ele>6.5131</ele>
        <time>2010-12-29T16:26:32Z</time>
      </trkpt>
      <trkpt lat="46.15764" lon="-1.1509">
        <ele>6.4857</ele>
        <time>2010-12-29T16:26:33Z</time>
      </trkpt>
      <trkpt lat="46.15762" lon="-1.15092">
        <ele>6.4599</ele>
        <time>2010-12-29T16:26:34Z</time>
      </trkpt>
      <trkpt lat="46.15762" lon="-1.15093">
        <ele>6.4344</ele>
        <time>2010-12-29T16:26:35Z</time>
      </trkpt>
      <trkpt lat="46.15761" lon="-1.15093">
        <ele>6.4117</ele>
        <time>2010-12-29T16:26:36Z</time>
      </trkpt>
      <trkpt lat="46.1576" lon="-1.15094">
        <ele>6.3898</ele>
        <time>2010-12-29T16:26:37Z</time>
      </trkpt>
      <trkpt lat="46.15759" lon="-1.15095">
        <ele>6.3675</ele>
        <time>2010-12-29T16:26:38Z</time>
      </trkpt>
      <trkpt lat="46.15759" lon="-1.15096">
        <ele>6.3446</ele>
        <time>2010-12-29T16:26:39Z</time>
      </trkpt>
      <trkpt lat="46.15758" lon="-1.15097">
        <ele>6.3187</ele>
        <time>2010-12-29T16:26:40Z</time>
      </trkpt>
      <trkpt lat="46.15758" lon="-1.15098">
        <ele>6.2871</ele>
        <time>2010-12-29T16:26:41Z</time>
      </trkpt>
      <trkpt lat="46.15758" lon="-1.15099">
        <ele>6.2488</ele>
        <time>2010-12-29T16:26:42Z</time>
      </trkpt>
      <trkpt lat="46.15757" lon="-1.151">
        <ele>6.2055</ele>
        <time>2010-12-29T16:26:43Z</time>
      </trkpt>
      <trkpt lat="46.15757" lon="-1.151">
        <ele>6.1631</ele>
        <time>2010-12-29T16:26:44Z</time>
      </trkpt>
      <trkpt lat="46.15757" lon="-1.15101">
        <ele>6.1207</ele>
        <time>2010-12-29T16:26:45Z</time>
      </trkpt>
      <trkpt lat="46.15756" lon="-1.15102">
        <ele>6.0747</ele>
        <time>2010-12-29T16:26:46Z</time>
      </trkpt>
      <trkpt lat="46.15756" lon="-1.15102">
        <ele>6.0254</ele>
        <time>2010-12-29T16:26:47Z</time>
      </trkpt>
      <trkpt lat="46.15755" lon="-1.15103">
        <ele>5.974</ele>
        <time>2010-12-29T16:26:48Z</time>
      </trkpt>
      <trkpt lat="46.15754" lon="-1.15104">
        <ele>5.9234</ele>
        <time>2010-12-29T16:26:49Z</time>
      </trkpt>
      <trkpt lat="46.15754" lon="-1.15106">
        <ele>5.8729</ele>
        <time>2010-12-29T16:26:50Z</time>
      </trkpt>
      <trkpt lat="46.15753" lon="-1.15107">
        <ele>5.8222</ele>
        <time>2010-12-29T16:26:51Z</time>
      </trkpt>
      <trkpt lat="46.15752" lon="-1.15108">
        <ele>5.7695</ele>
        <time>2010-12-29T16:26:52Z</time>
      </trkpt>
      <trkpt lat="46.15751" lon="-1.15108">
        <ele>5.7158</ele>
        <time>2010-12-29T16:26:53Z</time>
      </trkpt>
      <trkpt lat="46.15751" lon="-1.15109">
        <ele>5.6614</ele>
        <time>2010-12-29T16:26:54Z</time>
      </trkpt>
      <trkpt lat="46.1575" lon="-1.1511">
        <ele>5.6043</ele>
        <time>2010-12-29T16:26:55Z</time>
      </trkpt>
      <trkpt lat="46.15749" lon="-1.15111">
        <ele>5.5478</ele>
        <time>2010-12-29T16:26:56Z</time>
      </trkpt>
      <trkpt lat="46.15749" lon="-1.15111">
        <ele>5.4886</ele>
        <time>2010-12-29T16:26:57Z</time>
      </trkpt>
      <trkpt lat="46.15748" lon="-1.15112">
        <ele>5.4283</ele>
        <time>2010-12-29T16:26:58Z</time>
      </trkpt>
      <trkpt lat="46.15748" lon="-1.15112">
        <ele>5.3671</ele>
        <time>2010-12-29T16:26:59Z</time>
      </trkpt>
      <trkpt lat="46.15747" lon="-1.15113">
        <ele>5.3059</ele>
        <time>2010-12-29T16:27:00Z</time>
      </trkpt>
      <trkpt lat="46.15746" lon="-1.15114">
        <ele>5.2437</ele>
        <time>2010-12-29T16:27:01Z</time>
      </trkpt>
      <trkpt lat="46.15745" lon="-1.15114">
        <ele>5.1777</ele>
        <time>2010-12-29T16:27:02Z</time>
      </trkpt>
      <trkpt lat="46.15744" lon="-1.15114">
        <ele>5.1073</ele>
        <time>2010-12-29T16:27:03Z</time>
      </trkpt>
      <trkpt lat="46.15744" lon="-1.15115">
        <ele>5.0414</ele>
        <time>2010-12-29T16:27:04Z</time>
      </trkpt>
      <trkpt lat="46.15743" lon="-1.15115">
        <ele>4.9807</ele>
        <time>2010-12-29T16:27:05Z</time>
      </trkpt>
      <trkpt lat="46.15742" lon="-1.15115">
        <ele>4.9231</ele>
        <time>2010-12-29T16:27:06Z</time>
      </trkpt>
      <trkpt lat="46.15741" lon="-1.15115">
        <ele>4.8587</ele>
        <time>2010-12-29T16:27:07Z</time>
      </trkpt>
      <trkpt lat="46.1574" lon="-1.15116">
        <ele>4.7966</ele>
        <time>2010-12-29T16:27:08Z</time>
      </trkpt>
      <trkpt lat="46.1574" lon="-1.15116">
        <ele>4.7331</ele>
        <time>2010-12-29T16:27:09Z</time>
      </trkpt>
      <trkpt lat="46.15739" lon="-1.15117">
        <ele>4.6804</ele>
        <time>2010-12-29T16:27:10Z</time>
      </trkpt>
      <trkpt lat="46.15738" lon="-1.15118">
        <ele>4.6349</ele>
        <time>2010-12-29T16:27:11Z</time>
      </trkpt>
      <trkpt lat="46.15738" lon="-1.15119">
        <ele>4.5696</ele>
        <time>2010-12-29T16:27:12Z</time>
      </trkpt>
      <trkpt lat="46.15735" lon="-1.15119">
        <ele>4.4224</ele>
        <time>2010-12-29T16:27:14Z</time>
      </trkpt>
      <trkpt lat="46.15733" lon="-1.15119">
        <ele>4.2815</ele>
        <time>2010-12-29T16:27:15Z</time>
      </trkpt>
      <trkpt lat="46.15731" lon="-1.15119">
        <ele>4.1572</ele>
        <time>2010-12-29T16:27:16Z</time>
      </trkpt>
      <trkpt lat="46.15726" lon="-1.15121">
        <ele>4.1385</ele>
        <time>2010-12-29T16:27:18Z</time>
      </trkpt>
      <trkpt lat="46.15724" lon="-1.15123">
        <ele>4.0515</ele>
        <time>2010-12-29T16:27:19Z</time>
      </trkpt>
      <trkpt lat="46.15723" lon="-1.15124">
        <ele>3.9598</ele>
        <time>2010-12-29T16:27:20Z</time>
      </trkpt>
      <trkpt lat="46.15722" lon="-1.15125">
        <ele>3.8612</ele>
        <time>2010-12-29T16:27:21Z</time>
      </trkpt>
      <trkpt lat="46.15721" lon="-1.15126">
        <ele>3.7577</ele>
        <time>2010-12-29T16:27:22Z</time>
      </trkpt>
      <trkpt lat="46.1572" lon="-1.15127">
        <ele>3.65</ele>
        <time>2010-12-29T16:27:23Z</time>
      </trkpt>
      <trkpt lat="46.1572" lon="-1.15128">
        <ele>3.5452</ele>
        <time>2010-12-29T16:27:24Z</time>
      </trkpt>
      <trkpt lat="46.1572" lon="-1.1513">
        <ele>3.5153</ele>
        <time>2010-12-29T16:27:27Z</time>
      </trkpt>
      <trkpt lat="46.1572" lon="-1.1513">
        <ele>3.5123</ele>
        <time>2010-12-29T16:27:28Z</time>
      </trkpt>
      <trkpt lat="46.1572" lon="-1.15131">
        <ele>3.5187</ele>
        <time>2010-12-29T16:27:29Z</time>
      </trkpt>
      <trkpt lat="46.15719" lon="-1.15132">
        <ele>3.5096</ele>
        <time>2010-12-29T16:27:30Z</time>
      </trkpt>
      <trkpt lat="46.15719" lon="-1.15132">
        <ele>3.5014</ele>
        <time>2010-12-29T16:27:31Z</time>
      </trkpt>
      <trkpt lat="46.15718" lon="-1.15133">
        <ele>3.4816</ele>
        <time>2010-12-29T16:27:32Z</time>
      </trkpt>
      <trkpt lat="46.15718" lon="-1.15134">
        <ele>3.4624</ele>
        <time>2010-12-29T16:27:33Z</time>
      </trkpt>
      <trkpt lat="46.15717" lon="-1.15135">
        <ele>3.4459</ele>
        <time>2010-12-29T16:27:34Z</time>
      </trkpt>
      <trkpt lat="46.15717" lon="-1.15136">
        <ele>3.4269</ele>
        <time>2010-12-29T16:27:35Z</time>
      </trkpt>
      <trkpt lat="46.15716" lon="-1.15137">
        <ele>3.3821</ele>
        <time>2010-12-29T16:27:36Z</time>
      </trkpt>
      <trkpt lat="46.15715" lon="-1.15137">
        <ele>3.3341</ele>
        <time>2010-12-29T16:27:37Z</time>
      </trkpt>
      <trkpt lat="46.15714" lon="-1.15138">
        <ele>3.286</ele>
        <time>2010-12-29T16:27:38Z</time>
      </trkpt>
      <trkpt lat="46.15713" lon="-1.15139">
        <ele>3.2412</ele>
        <time>2010-12-29T16:27:39Z</time>
      </trkpt>
      <trkpt lat="46.15712" lon="-1.1514">
        <ele>3.1966</ele>
        <time>2010-12-29T16:27:40Z</time>
      </trkpt>
      <trkpt lat="46.15712" lon="-1.1514">
        <ele>3.1503</ele>
        <time>2010-12-29T16:27:41Z</time>
      </trkpt>
      <trkpt lat="46.1571" lon="-1.15141">
        <ele>3.1022</ele>
        <time>2010-12-29T16:27:42Z</time>
      </trkpt>
      <trkpt lat="46.15709" lon="-1.15142">
        <ele>3.056</ele>
        <time>2010-12-29T16:27:43Z</time>
      </trkpt>
      <trkpt lat="46.15708" lon="-1.15142">
        <ele>3.013</ele>
        <time>2010-12-29T16:27:44Z</time>
      </trkpt>
      <trkpt lat="46.15707" lon="-1.15143">
        <ele>2.9732</ele>
        <time>2010-12-29T16:27:45Z</time>
      </trkpt>
      <trkpt lat="46.15706" lon="-1.15144">
        <ele>2.9387</ele>
        <time>2010-12-29T16:27:46Z</time>
      </trkpt>
      <trkpt lat="46.15705" lon="-1.15145">
        <ele>2.9053</ele>
        <time>2010-12-29T16:27:47Z</time>
      </trkpt>
      <trkpt lat="46.15704" lon="-1.15145">
        <ele>2.8752</ele>
        <time>2010-12-29T16:27:48Z</time>
      </trkpt>
      <trkpt lat="46.15703" lon="-1.15146">
        <ele>2.8388</ele>
        <time>2010-12-29T16:27:49Z</time>
      </trkpt>
      <trkpt lat="46.15702" lon="-1.15146">
        <ele>2.8117</ele>
        <time>2010-12-29T16:27:50Z</time>
      </trkpt>
      <trkpt lat="46.15701" lon="-1.15148">
        <ele>2.777</ele>
        <time>2010-12-29T16:27:51Z</time>
      </trkpt>
      <trkpt lat="46.15701" lon="-1.15149">
        <ele>2.7547</ele>
        <time>2010-12-29T16:27:52Z</time>
      </trkpt>
      <trkpt lat="46.157" lon="-1.15151">
        <ele>2.7371</ele>
        <time>2010-12-29T16:27:53Z</time>
      </trkpt>
      <trkpt lat="46.15699" lon="-1.15153">
        <ele>2.7173</ele>
        <time>2010-12-29T16:27:54Z</time>
      </trkpt>
      <trkpt lat="46.15699" lon="-1.15154">
        <ele>2.6981</ele>
        <time>2010-12-29T16:27:55Z</time>
      </trkpt>
      <trkpt lat="46.15698" lon="-1.15156">
        <ele>2.6942</ele>
        <time>2010-12-29T16:27:56Z</time>
      </trkpt>
      <trkpt lat="46.15697" lon="-1.15158">
        <ele>2.6865</ele>
        <time>2010-12-29T16:27:57Z</time>
      </trkpt>
      <trkpt lat="46.15696" lon="-1.15158">
        <ele>2.6772</ele>
        <time>2010-12-29T16:27:58Z</time>
      </trkpt>
      <trkpt lat="46.15695" lon="-1.15159">
        <ele>2.6679</ele>
        <time>2010-12-29T16:27:59Z</time>
      </trkpt>
      <trkpt lat="46.15694" lon="-1.15159">
        <ele>2.6437</ele>
        <time>2010-12-29T16:28:00Z</time>
      </trkpt>
      <trkpt lat="46.15693" lon="-1.15159">
        <ele>2.6167</ele>
        <time>2010-12-29T16:28:01Z</time>
      </trkpt>
      <trkpt lat="46.15692" lon="-1.15159">
        <ele>2.5897</ele>
        <time>2010-12-29T16:28:02Z</time>
      </trkpt>
      <trkpt lat="46.15691" lon="-1.15159">
        <ele>2.5641</ele>
        <time>2010-12-29T16:28:03Z</time>
      </trkpt>
      <trkpt lat="46.15691" lon="-1.15159">
        <ele>2.5391</ele>
        <time>2010-12-29T16:28:04Z</time>
      </trkpt>
      <trkpt lat="46.1569" lon="-1.1516">
        <ele>2.5108</ele>
        <time>2010-12-29T16:28:05Z</time>
      </trkpt>
      <trkpt lat="46.1569" lon="-1.1516">
        <ele>2.4886</ele>
        <time>2010-12-29T16:28:06Z</time>
      </trkpt>
      <trkpt lat="46.15689" lon="-1.15161">
        <ele>2.477</ele>
        <time>2010-12-29T16:28:07Z</time>
      </trkpt>
      <trkpt lat="46.15688" lon="-1.15161">
        <ele>2.4878</ele>
        <time>2010-12-29T16:28:08Z</time>
      </trkpt>
      <trkpt lat="46.15688" lon="-1.15162">
        <ele>2.5117</ele>
        <time>2010-12-29T16:28:09Z</time>
      </trkpt>
      <trkpt lat="46.15686" lon="-1.15164">
        <ele>2.5664</ele>
        <time>2010-12-29T16:28:10Z</time>
      </trkpt>
      <trkpt lat="46.15686" lon="-1.15164">
        <ele>2.6087</ele>
        <time>2010-12-29T16:28:11Z</time>
      </trkpt>
      <trkpt lat="46.15685" lon="-1.15164">
        <ele>2.6352</ele>
        <time>2010-12-29T16:28:12Z</time>
      </trkpt>
      <trkpt lat="46.15684" lon="-1.15164">
        <ele>2.6352</ele>
        <time>2010-12-29T16:28:13Z</time>
      </trkpt>
      <trkpt lat="46.15683" lon="-1.15165">
        <ele>2.6559</ele>
        <time>2010-12-29T16:28:14Z</time>
      </trkpt>
      <trkpt lat="46.15683" lon="-1.15166">
        <ele>2.6625</ele>
        <time>2010-12-29T16:28:15Z</time>
      </trkpt>
      <trkpt lat="46.15682" lon="-1.15168">
        <ele>2.672</ele>
        <time>2010-12-29T16:28:16Z</time>
      </trkpt>
      <trkpt lat="46.1568" lon="-1.15169">
        <ele>2.6778</ele>
        <time>2010-12-29T16:28:17Z</time>
      </trkpt>
      <trkpt lat="46.15679" lon="-1.1517">
        <ele>2.679</ele>
        <time>2010-12-29T16:28:18Z</time>
      </trkpt>
      <trkpt lat="46.15678" lon="-1.15171">
        <ele>2.6773</ele>
        <time>2010-12-29T16:28:19Z</time>
      </trkpt>
      <trkpt lat="46.15677" lon="-1.15172">
        <ele>2.6803</ele>
        <time>2010-12-29T16:28:20Z</time>
      </trkpt>
      <trkpt lat="46.15676" lon="-1.15173">
        <ele>2.6889</ele>
        <time>2010-12-29T16:28:21Z</time>
      </trkpt>
      <trkpt lat="46.15675" lon="-1.15174">
        <ele>2.6977</ele>
        <time>2010-12-29T16:28:22Z</time>
      </trkpt>
      <trkpt lat="46.15674" lon="-1.15174">
        <ele>2.7075</ele>
        <time>2010-12-29T16:28:23Z</time>
      </trkpt>
      <trkpt lat="46.15673" lon="-1.15175">
        <ele>2.7094</ele>
        <time>2010-12-29T16:28:24Z</time>
      </trkpt>
      <trkpt lat="46.15672" lon="-1.15176">
        <ele>2.7061</ele>
        <time>2010-12-29T16:28:25Z</time>
      </trkpt>
      <trkpt lat="46.15672" lon="-1.15177">
        <ele>2.705</ele>
        <time>2010-12-29T16:28:26Z</time>
      </trkpt>
      <trkpt lat="46.15671" lon="-1.15178">
        <ele>2.7024</ele>
        <time>2010-12-29T16:28:27Z</time>
      </trkpt>
      <trkpt lat="46.1567" lon="-1.1518">
        <ele>2.6995</ele>
        <time>2010-12-29T16:28:28Z</time>
      </trkpt>
      <trkpt lat="46.1567" lon="-1.15181">
        <ele>2.6975</ele>
        <time>2010-12-29T16:28:29Z</time>
      </trkpt>
      <trkpt lat="46.15669" lon="-1.15182">
        <ele>2.6985</ele>
        <time>2010-12-29T16:28:30Z</time>
      </trkpt>
      <trkpt lat="46.15667" lon="-1.15183">
        <ele>2.6929</ele>
        <time>2010-12-29T16:28:31Z</time>
      </trkpt>
      <trkpt lat="46.15667" lon="-1.15184">
        <ele>2.6843</ele>
        <time>2010-12-29T16:28:32Z</time>
      </trkpt>
      <trkpt lat="46.15665" lon="-1.15185">
        <ele>2.6717</ele>
        <time>2010-12-29T16:28:33Z</time>
      </trkpt>
      <trkpt lat="46.15664" lon="-1.15185">
        <ele>2.6574</ele>
        <time>2010-12-29T16:28:34Z</time>
      </trkpt>
      <trkpt lat="46.15664" lon="-1.15185">
        <ele>2.6409</ele>
        <time>2010-12-29T16:28:35Z</time>
      </trkpt>
      <trkpt lat="46.15662" lon="-1.15186">
        <ele>2.6224</ele>
        <time>2010-12-29T16:28:36Z</time>
      </trkpt>
      <trkpt lat="46.15662" lon="-1.15186">
        <ele>2.6046</ele>
        <time>2010-12-29T16:28:37Z</time>
      </trkpt>
      <trkpt lat="46.15661" lon="-1.15186">
        <ele>2.5858</ele>
        <time>2010-12-29T16:28:38Z</time>
      </trkpt>
      <trkpt lat="46.15659" lon="-1.15186">
        <ele>2.5641</ele>
        <time>2010-12-29T16:28:39Z</time>
      </trkpt>
      <trkpt lat="46.15658" lon="-1.15186">
        <ele>2.5441</ele>
        <time>2010-12-29T16:28:40Z</time>
      </trkpt>
      <trkpt lat="46.15657" lon="-1.15185">
        <ele>2.5254</ele>
        <time>2010-12-29T16:28:41Z</time>
      </trkpt>
      <trkpt lat="46.15656" lon="-1.15185">
        <ele>2.5064</ele>
        <time>2010-12-29T16:28:42Z</time>
      </trkpt>
      <trkpt lat="46.15655" lon="-1.15185">
        <ele>2.4884</ele>
        <time>2010-12-29T16:28:43Z</time>
      </trkpt>
      <trkpt lat="46.15654" lon="-1.15185">
        <ele>2.4689</ele>
        <time>2010-12-29T16:28:44Z</time>
      </trkpt>
      <trkpt lat="46.15653" lon="-1.15185">
        <ele>2.4446</ele>
        <time>2010-12-29T16:28:45Z</time>
      </trkpt>
      <trkpt lat="46.15652" lon="-1.15186">
        <ele>2.4158</ele>
        <time>2010-12-29T16:28:46Z</time>
      </trkpt>
      <trkpt lat="46.15651" lon="-1.15186">
        <ele>2.3878</ele>
        <time>2010-12-29T16:28:47Z</time>
      </trkpt>
      <trkpt lat="46.15651" lon="-1.15186">
        <ele>2.3604</ele>
        <time>2010-12-29T16:28:48Z</time>
      </trkpt>
      <trkpt lat="46.15651" lon="-1.15186">
        <ele>2.332</ele>
        <time>2010-12-29T16:28:49Z</time>
      </trkpt>
      <trkpt lat="46.1565" lon="-1.15186">
        <ele>2.3032</ele>
        <time>2010-12-29T16:28:50Z</time>
      </trkpt>
      <trkpt lat="46.15649" lon="-1.15186">
        <ele>2.2734</ele>
        <time>2010-12-29T16:28:51Z</time>
      </trkpt>
      <trkpt lat="46.15648" lon="-1.15186">
        <ele>2.2455</ele>
        <time>2010-12-29T16:28:52Z</time>
      </trkpt>
      <trkpt lat="46.15647" lon="-1.15186">
        <ele>2.2195</ele>
        <time>2010-12-29T16:28:53Z</time>
      </trkpt>
      <trkpt lat="46.15646" lon="-1.15186">
        <ele>2.1959</ele>
        <time>2010-12-29T16:28:54Z</time>
      </trkpt>
      <trkpt lat="46.15646" lon="-1.15186">
        <ele>2.1749</ele>
        <time>2010-12-29T16:28:55Z</time>
      </trkpt>
      <trkpt lat="46.15645" lon="-1.15185">
        <ele>2.1572</ele>
        <time>2010-12-29T16:28:56Z</time>
      </trkpt>
      <trkpt lat="46.15644" lon="-1.15184">
        <ele>2.1399</ele>
        <time>2010-12-29T16:28:57Z</time>
      </trkpt>
      <trkpt lat="46.15643" lon="-1.15184">
        <ele>2.1293</ele>
        <time>2010-12-29T16:28:58Z</time>
      </trkpt>
      <trkpt lat="46.15643" lon="-1.15183">
        <ele>2.1189</ele>
        <time>2010-12-29T16:28:59Z</time>
      </trkpt>
      <trkpt lat="46.15641" lon="-1.15183">
        <ele>2.1053</ele>
        <time>2010-12-29T16:29:00Z</time>
      </trkpt>
      <trkpt lat="46.15641" lon="-1.15182">
        <ele>2.0906</ele>
        <time>2010-12-29T16:29:01Z</time>
      </trkpt>
      <trkpt lat="46.1564" lon="-1.15182">
        <ele>2.0688</ele>
        <time>2010-12-29T16:29:02Z</time>
      </trkpt>
      <trkpt lat="46.15638" lon="-1.15182">
        <ele>2.0495</ele>
        <time>2010-12-29T16:29:03Z</time>
      </trkpt>
      <trkpt lat="46.15637" lon="-1.15182">
        <ele>2.0326</ele>
        <time>2010-12-29T16:29:04Z</time>
      </trkpt>
      <trkpt lat="46.15636" lon="-1.15182">
        <ele>2.0082</ele>
        <time>2010-12-29T16:29:05Z</time>
      </trkpt>
      <trkpt lat="46.15635" lon="-1.15182">
        <ele>1.9855</ele>
        <time>2010-12-29T16:29:06Z</time>
      </trkpt>
      <trkpt lat="46.15634" lon="-1.15182">
        <ele>1.9637</ele>
        <time>2010-12-29T16:29:07Z</time>
      </trkpt>
      <trkpt lat="46.15634" lon="-1.15182">
        <ele>1.9359</ele>
        <time>2010-12-29T16:29:08Z</time>
      </trkpt>
      <trkpt lat="46.15633" lon="-1.15182">
        <ele>1.9138</ele>
        <time>2010-12-29T16:29:09Z</time>
      </trkpt>
      <trkpt lat="46.15633" lon="-1.15182">
        <ele>1.8914</ele>
        <time>2010-12-29T16:29:10Z</time>
      </trkpt>
      <trkpt lat="46.15632" lon="-1.15182">
        <ele>1.8747</ele>
        <time>2010-12-29T16:29:11Z</time>
      </trkpt>
      <trkpt lat="46.15632" lon="-1.15183">
        <ele>1.8628</ele>
        <time>2010-12-29T16:29:12Z</time>
      </trkpt>
      <trkpt lat="46.15631" lon="-1.15183">
        <ele>1.8562</ele>
        <time>2010-12-29T16:29:13Z</time>
      </trkpt>
      <trkpt lat="46.1563" lon="-1.15184">
        <ele>1.8503</ele>
        <time>2010-12-29T16:29:14Z</time>
      </trkpt>
      <trkpt lat="46.1563" lon="-1.15185">
        <ele>1.837</ele>
        <time>2010-12-29T16:29:18Z</time>
      </trkpt>
      <trkpt lat="46.15628" lon="-1.15185">
        <ele>1.8304</ele>
        <time>2010-12-29T16:29:19Z</time>
      </trkpt>
      <trkpt lat="46.15628" lon="-1.15185">
        <ele>1.8265</ele>
        <time>2010-12-29T16:29:20Z</time>
      </trkpt>
      <trkpt lat="46.15626" lon="-1.15185">
        <ele>1.8267</ele>
        <time>2010-12-29T16:29:21Z</time>
      </trkpt>
      <trkpt lat="46.15624" lon="-1.15184">
        <ele>1.8325</ele>
        <time>2010-12-29T16:29:22Z</time>
      </trkpt>
      <trkpt lat="46.15622" lon="-1.15184">
        <ele>1.8324</ele>
        <time>2010-12-29T16:29:23Z</time>
      </trkpt>
      <trkpt lat="46.1562" lon="-1.15183">
        <ele>1.8407</ele>
        <time>2010-12-29T16:29:24Z</time>
      </trkpt>
      <trkpt lat="46.15619" lon="-1.15183">
        <ele>1.8571</ele>
        <time>2010-12-29T16:29:25Z</time>
      </trkpt>
      <trkpt lat="46.15617" lon="-1.15183">
        <ele>1.8785</ele>
        <time>2010-12-29T16:29:26Z</time>
      </trkpt>
      <trkpt lat="46.15616" lon="-1.15184">
        <ele>1.9027</ele>
        <time>2010-12-29T16:29:27Z</time>
      </trkpt>
      <trkpt lat="46.15615" lon="-1.15184">
        <ele>1.9294</ele>
        <time>2010-12-29T16:29:28Z</time>
      </trkpt>
      <trkpt lat="46.15614" lon="-1.15184">
        <ele>1.9583</ele>
        <time>2010-12-29T16:29:29Z</time>
      </trkpt>
      <trkpt lat="46.15613" lon="-1.15184">
        <ele>1.988</ele>
        <time>2010-12-29T16:29:30Z</time>
      </trkpt>
      <trkpt lat="46.15612" lon="-1.15184">
        <ele>2.0167</ele>
        <time>2010-12-29T16:29:31Z</time>
      </trkpt>
      <trkpt lat="46.15612" lon="-1.15184">
        <ele>2.0451</ele>
        <time>2010-12-29T16:29:32Z</time>
      </trkpt>
      <trkpt lat="46.15611" lon="-1.15184">
        <ele>2.072</ele>
        <time>2010-12-29T16:29:33Z</time>
      </trkpt>
      <trkpt lat="46.15611" lon="-1.15184">
        <ele>2.0943</ele>
        <time>2010-12-29T16:29:34Z</time>
      </trkpt>
      <trkpt lat="46.1561" lon="-1.15184">
        <ele>2.1113</ele>
        <time>2010-12-29T16:29:35Z</time>
      </trkpt>
      <trkpt lat="46.15609" lon="-1.15185">
        <ele>2.126</ele>
        <time>2010-12-29T16:29:36Z</time>
      </trkpt>
      <trkpt lat="46.15608" lon="-1.15185">
        <ele>2.1418</ele>
        <time>2010-12-29T16:29:37Z</time>
      </trkpt>
      <trkpt lat="46.15608" lon="-1.15185">
        <ele>2.161</ele>
        <time>2010-12-29T16:29:38Z</time>
      </trkpt>
      <trkpt lat="46.15607" lon="-1.15186">
        <ele>2.1839</ele>
        <time>2010-12-29T16:29:39Z</time>
      </trkpt>
      <trkpt lat="46.15606" lon="-1.15186">
        <ele>2.2091</ele>
        <time>2010-12-29T16:29:40Z</time>
      </trkpt>
      <trkpt lat="46.15605" lon="-1.15186">
        <ele>2.2358</ele>
        <time>2010-12-29T16:29:41Z</time>
      </trkpt>
      <trkpt lat="46.15604" lon="-1.15187">
        <ele>2.2634</ele>
        <time>2010-12-29T16:29:42Z</time>
      </trkpt>
      <trkpt lat="46.15604" lon="-1.15187">
        <ele>2.2943</ele>
        <time>2010-12-29T16:29:43Z</time>
      </trkpt>
      <trkpt lat="46.15603" lon="-1.15187">
        <ele>2.3269</ele>
        <time>2010-12-29T16:29:44Z</time>
      </trkpt>
      <trkpt lat="46.15601" lon="-1.15187">
        <ele>2.358</ele>
        <time>2010-12-29T16:29:45Z</time>
      </trkpt>
      <trkpt lat="46.156" lon="-1.15187">
        <ele>2.3934</ele>
        <time>2010-12-29T16:29:46Z</time>
      </trkpt>
      <trkpt lat="46.15599" lon="-1.15187">
        <ele>2.4293</ele>
        <time>2010-12-29T16:29:47Z</time>
      </trkpt>
      <trkpt lat="46.15596" lon="-1.15187">
        <ele>2.5202</ele>
        <time>2010-12-29T16:29:50Z</time>
      </trkpt>
      <trkpt lat="46.15596" lon="-1.15187">
        <ele>2.5679</ele>
        <time>2010-12-29T16:29:51Z</time>
      </trkpt>
      <trkpt lat="46.15595" lon="-1.15188">
        <ele>2.6159</ele>
        <time>2010-12-29T16:29:52Z</time>
      </trkpt>
      <trkpt lat="46.15594" lon="-1.15187">
        <ele>2.6634</ele>
        <time>2010-12-29T16:29:53Z</time>
      </trkpt>
      <trkpt lat="46.15593" lon="-1.15187">
        <ele>2.7077</ele>
        <time>2010-12-29T16:29:54Z</time>
      </trkpt>
      <trkpt lat="46.15592" lon="-1.15188">
        <ele>2.7492</ele>
        <time>2010-12-29T16:29:55Z</time>
      </trkpt>
      <trkpt lat="46.15591" lon="-1.15188">
        <ele>2.7964</ele>
        <time>2010-12-29T16:29:56Z</time>
      </trkpt>
      <trkpt lat="46.1559" lon="-1.15189">
        <ele>2.8428</ele>
        <time>2010-12-29T16:29:57Z</time>
      </trkpt>
      <trkpt lat="46.15589" lon="-1.15188">
        <ele>2.8929</ele>
        <time>2010-12-29T16:29:58Z</time>
      </trkpt>
      <trkpt lat="46.15588" lon="-1.15188">
        <ele>2.9492</ele>
        <time>2010-12-29T16:29:59Z</time>
      </trkpt>
      <trkpt lat="46.15585" lon="-1.15187">
        <ele>3.0998</ele>
        <time>2010-12-29T16:30:03Z</time>
      </trkpt>
      <trkpt lat="46.15583" lon="-1.15187">
        <ele>3.1731</ele>
        <time>2010-12-29T16:30:04Z</time>
      </trkpt>
      <trkpt lat="46.15582" lon="-1.15186">
        <ele>3.2606</ele>
        <time>2010-12-29T16:30:05Z</time>
      </trkpt>
      <trkpt lat="46.1558" lon="-1.15187">
        <ele>3.3518</ele>
        <time>2010-12-29T16:30:06Z</time>
      </trkpt>
      <trkpt lat="46.15579" lon="-1.15186">
        <ele>3.4404</ele>
        <time>2010-12-29T16:30:07Z</time>
      </trkpt>
      <trkpt lat="46.15574" lon="-1.15186">
        <ele>4.0628</ele>
        <time>2010-12-29T16:30:14Z</time>
      </trkpt>
      <trkpt lat="46.15571" lon="-1.15186">
        <ele>4.2751</ele>
        <time>2010-12-29T16:30:16Z</time>
      </trkpt>
      <trkpt lat="46.15567" lon="-1.15186">
        <ele>4.7861</ele>
        <time>2010-12-29T16:30:21Z</time>
      </trkpt>
      <trkpt lat="46.15563" lon="-1.15186">
        <ele>5.1038</ele>
        <time>2010-12-29T16:30:24Z</time>
      </trkpt>
      <trkpt lat="46.15558" lon="-1.15185">
        <ele>5.5357</ele>
        <time>2010-12-29T16:30:28Z</time>
      </trkpt>
      <trkpt lat="46.15556" lon="-1.15185">
        <ele>5.634</ele>
        <time>2010-12-29T16:30:29Z</time>
      </trkpt>
      <trkpt lat="46.15551" lon="-1.15183">
        <ele>5.935</ele>
        <time>2010-12-29T16:30:34Z</time>
      </trkpt>
      <trkpt lat="46.15548" lon="-1.15185">
        <ele>6.3004</ele>
        <time>2010-12-29T16:30:37Z</time>
      </trkpt>
      <trkpt lat="46.15548" lon="-1.15186">
        <ele>6.4763</ele>
        <time>2010-12-29T16:30:38Z</time>
      </trkpt>
      <trkpt lat="46.15546" lon="-1.15187">
        <ele>6.6488</ele>
        <time>2010-12-29T16:30:39Z</time>
      </trkpt>
      <trkpt lat="46.15546" lon="-1.15188">
        <ele>6.835</ele>
        <time>2010-12-29T16:30:40Z</time>
      </trkpt>
      <trkpt lat="46.15545" lon="-1.15188">
        <ele>7.0385</ele>
        <time>2010-12-29T16:30:41Z</time>
      </trkpt>
      <trkpt lat="46.15544" lon="-1.15189">
        <ele>7.2429</ele>
        <time>2010-12-29T16:30:42Z</time>
      </trkpt>
      <trkpt lat="46.15541" lon="-1.15189">
        <ele>7.6638</ele>
        <time>2010-12-29T16:30:45Z</time>
      </trkpt>
      <trkpt lat="46.1554" lon="-1.15189">
        <ele>7.8615</ele>
        <time>2010-12-29T16:30:46Z</time>
      </trkpt>
      <trkpt lat="46.15539" lon="-1.15188">
        <ele>8.072</ele>
        <time>2010-12-29T16:30:47Z</time>
      </trkpt>
      <trkpt lat="46.15538" lon="-1.15188">
        <ele>8.2702</ele>
        <time>2010-12-29T16:30:48Z</time>
      </trkpt>
      <trkpt lat="46.15537" lon="-1.15188">
        <ele>8.4704</ele>
        <time>2010-12-29T16:30:49Z</time>
      </trkpt>
      <trkpt lat="46.15536" lon="-1.15188">
        <ele>8.6714</ele>
        <time>2010-12-29T16:30:50Z</time>
      </trkpt>
      <trkpt lat="46.15535" lon="-1.15187">
        <ele>8.8645</ele>
        <time>2010-12-29T16:30:51Z</time>
      </trkpt>
      <trkpt lat="46.15533" lon="-1.15186">
        <ele>9.0704</ele>
        <time>2010-12-29T16:30:52Z</time>
      </trkpt>
      <trkpt lat="46.15532" lon="-1.15185">
        <ele>9.2904</ele>
        <time>2010-12-29T16:30:53Z</time>
      </trkpt>
      <trkpt lat="46.1553" lon="-1.15184">
        <ele>9.5077</ele>
        <time>2010-12-29T16:30:54Z</time>
      </trkpt>
      <trkpt lat="46.15528" lon="-1.15183">
        <ele>9.9583</ele>
        <time>2010-12-29T16:30:57Z</time>
      </trkpt>
      <trkpt lat="46.15527" lon="-1.15183">
        <ele>10.1607</ele>
        <time>2010-12-29T16:30:58Z</time>
      </trkpt>
      <trkpt lat="46.15526" lon="-1.15183">
        <ele>10.3711</ele>
        <time>2010-12-29T16:30:59Z</time>
      </trkpt>
      <trkpt lat="46.15525" lon="-1.15183">
        <ele>10.6064</ele>
        <time>2010-12-29T16:31:00Z</time>
      </trkpt>
      <trkpt lat="46.15524" lon="-1.15184">
        <ele>10.8403</ele>
        <time>2010-12-29T16:31:01Z</time>
      </trkpt>
      <trkpt lat="46.15523" lon="-1.15184">
        <ele>11.0663</ele>
        <time>2010-12-29T16:31:02Z</time>
      </trkpt>
      <trkpt lat="46.15522" lon="-1.15185">
        <ele>11.282</ele>
        <time>2010-12-29T16:31:03Z</time>
      </trkpt>
      <trkpt lat="46.15521" lon="-1.15185">
        <ele>11.4927</ele>
        <time>2010-12-29T16:31:04Z</time>
      </trkpt>
      <trkpt lat="46.1552" lon="-1.15185">
        <ele>11.6958</ele>
        <time>2010-12-29T16:31:05Z</time>
      </trkpt>
      <trkpt lat="46.15519" lon="-1.15186">
        <ele>11.9083</ele>
        <time>2010-12-29T16:31:07Z</time>
      </trkpt>
      <trkpt lat="46.15518" lon="-1.15186">
        <ele>12.0964</ele>
        <time>2010-12-29T16:31:08Z</time>
      </trkpt>
      <trkpt lat="46.15517" lon="-1.15186">
        <ele>12.258</ele>
        <time>2010-12-29T16:31:09Z</time>
      </trkpt>
      <trkpt lat="46.15516" lon="-1.15185">
        <ele>12.3994</ele>
        <time>2010-12-29T16:31:10Z</time>
      </trkpt>
      <trkpt lat="46.15514" lon="-1.15185">
        <ele>12.5277</ele>
        <time>2010-12-29T16:31:11Z</time>
      </trkpt>
      <trkpt lat="46.15513" lon="-1.15185">
        <ele>12.6396</ele>
        <time>2010-12-29T16:31:12Z</time>
      </trkpt>
      <trkpt lat="46.15512" lon="-1.15185">
        <ele>12.7449</ele>
        <time>2010-12-29T16:31:13Z</time>
      </trkpt>
      <trkpt lat="46.15511" lon="-1.15184">
        <ele>12.842</ele>
        <time>2010-12-29T16:31:14Z</time>
      </trkpt>
      <trkpt lat="46.1551" lon="-1.15185">
        <ele>12.9342</ele>
        <time>2010-12-29T16:31:15Z</time>
      </trkpt>
      <trkpt lat="46.15509" lon="-1.15185">
        <ele>13.0224</ele>
        <time>2010-12-29T16:31:16Z</time>
      </trkpt>
      <trkpt lat="46.15508" lon="-1.15184">
        <ele>13.0953</ele>
        <time>2010-12-29T16:31:17Z</time>
      </trkpt>
      <trkpt lat="46.15507" lon="-1.15183">
        <ele>13.1587</ele>
        <time>2010-12-29T16:31:18Z</time>
      </trkpt>
      <trkpt lat="46.15506" lon="-1.15183">
        <ele>13.2127</ele>
        <time>2010-12-29T16:31:19Z</time>
      </trkpt>
      <trkpt lat="46.15505" lon="-1.15182">
        <ele>13.2612</ele>
        <time>2010-12-29T16:31:20Z</time>
      </trkpt>
      <trkpt lat="46.15504" lon="-1.15182">
        <ele>13.3023</ele>
        <time>2010-12-29T16:31:21Z</time>
      </trkpt>
      <trkpt lat="46.15503" lon="-1.15181">
        <ele>13.3303</ele>
        <time>2010-12-29T16:31:22Z</time>
      </trkpt>
      <trkpt lat="46.15502" lon="-1.1518">
        <ele>13.3568</ele>
        <time>2010-12-29T16:31:23Z</time>
      </trkpt>
      <trkpt lat="46.15501" lon="-1.1518">
        <ele>13.3733</ele>
        <time>2010-12-29T16:31:24Z</time>
      </trkpt>
      <trkpt lat="46.155" lon="-1.15181">
        <ele>13.3899</ele>
        <time>2010-12-29T16:31:25Z</time>
      </trkpt>
      <trkpt lat="46.15499" lon="-1.15181">
        <ele>13.4054</ele>
        <time>2010-12-29T16:31:26Z</time>
      </trkpt>
      <trkpt lat="46.15498" lon="-1.15182">
        <ele>13.4142</ele>
        <time>2010-12-29T16:31:27Z</time>
      </trkpt>
      <trkpt lat="46.15497" lon="-1.15182">
        <ele>13.4225</ele>
        <time>2010-12-29T16:31:28Z</time>
      </trkpt>
      <trkpt lat="46.15496" lon="-1.15183">
        <ele>13.4278</ele>
        <time>2010-12-29T16:31:29Z</time>
      </trkpt>
      <trkpt lat="46.15495" lon="-1.15184">
        <ele>13.4323</ele>
        <time>2010-12-29T16:31:30Z</time>
      </trkpt>
      <trkpt lat="46.15495" lon="-1.15184">
        <ele>13.4373</ele>
        <time>2010-12-29T16:31:31Z</time>
      </trkpt>
      <trkpt lat="46.15494" lon="-1.15186">
        <ele>13.4363</ele>
        <time>2010-12-29T16:31:32Z</time>
      </trkpt>
      <trkpt lat="46.15494" lon="-1.15187">
        <ele>13.428</ele>
        <time>2010-12-29T16:31:33Z</time>
      </trkpt>
      <trkpt lat="46.15493" lon="-1.15188">
        <ele>13.4039</ele>
        <time>2010-12-29T16:31:34Z</time>
      </trkpt>
      <trkpt lat="46.15493" lon="-1.1519">
        <ele>13.3821</ele>
        <time>2010-12-29T16:31:35Z</time>
      </trkpt>
      <trkpt lat="46.15492" lon="-1.15191">
        <ele>13.3605</ele>
        <time>2010-12-29T16:31:36Z</time>
      </trkpt>
      <trkpt lat="46.15492" lon="-1.15192">
        <ele>13.3328</ele>
        <time>2010-12-29T16:31:37Z</time>
      </trkpt>
      <trkpt lat="46.15492" lon="-1.15194">
        <ele>13.3071</ele>
        <time>2010-12-29T16:31:38Z</time>
      </trkpt>
      <trkpt lat="46.15491" lon="-1.15195">
        <ele>13.2714</ele>
        <time>2010-12-29T16:31:39Z</time>
      </trkpt>
      <trkpt lat="46.1549" lon="-1.15196">
        <ele>13.2379</ele>
        <time>2010-12-29T16:31:40Z</time>
      </trkpt>
      <trkpt lat="46.15489" lon="-1.15197">
        <ele>13.1789</ele>
        <time>2010-12-29T16:31:41Z</time>
      </trkpt>
      <trkpt lat="46.15488" lon="-1.15198">
        <ele>13.092</ele>
        <time>2010-12-29T16:31:42Z</time>
      </trkpt>
      <trkpt lat="46.15487" lon="-1.152">
        <ele>12.9955</ele>
        <time>2010-12-29T16:31:43Z</time>
      </trkpt>
      <trkpt lat="46.15486" lon="-1.15202">
        <ele>12.8912</ele>
        <time>2010-12-29T16:31:44Z</time>
      </trkpt>
      <trkpt lat="46.15485" lon="-1.15203">
        <ele>12.7791</ele>
        <time>2010-12-29T16:31:45Z</time>
      </trkpt>
      <trkpt lat="46.15485" lon="-1.15205">
        <ele>12.6636</ele>
        <time>2010-12-29T16:31:46Z</time>
      </trkpt>
      <trkpt lat="46.15484" lon="-1.15207">
        <ele>12.5412</ele>
        <time>2010-12-29T16:31:47Z</time>
      </trkpt>
      <trkpt lat="46.15484" lon="-1.15209">
        <ele>12.4114</ele>
        <time>2010-12-29T16:31:48Z</time>
      </trkpt>
      <trkpt lat="46.15483" lon="-1.15211">
        <ele>12.2815</ele>
        <time>2010-12-29T16:31:49Z</time>
      </trkpt>
      <trkpt lat="46.15482" lon="-1.15212">
        <ele>12.1528</ele>
        <time>2010-12-29T16:31:50Z</time>
      </trkpt>
      <trkpt lat="46.15482" lon="-1.15214">
        <ele>12.0252</ele>
        <time>2010-12-29T16:31:51Z</time>
      </trkpt>
      <trkpt lat="46.15482" lon="-1.15216">
        <ele>11.8985</ele>
        <time>2010-12-29T16:31:52Z</time>
      </trkpt>
      <trkpt lat="46.15481" lon="-1.15218">
        <ele>11.7735</ele>
        <time>2010-12-29T16:31:53Z</time>
      </trkpt>
      <trkpt lat="46.15481" lon="-1.1522">
        <ele>11.6444</ele>
        <time>2010-12-29T16:31:54Z</time>
      </trkpt>
      <trkpt lat="46.1548" lon="-1.15221">
        <ele>11.5168</ele>
        <time>2010-12-29T16:31:55Z</time>
      </trkpt>
      <trkpt lat="46.1548" lon="-1.15223">
        <ele>11.3876</ele>
        <time>2010-12-29T16:31:56Z</time>
      </trkpt>
      <trkpt lat="46.1548" lon="-1.15225">
        <ele>11.259</ele>
        <time>2010-12-29T16:31:57Z</time>
      </trkpt>
      <trkpt lat="46.1548" lon="-1.15226">
        <ele>11.1289</ele>
        <time>2010-12-29T16:31:58Z</time>
      </trkpt>
      <trkpt lat="46.15479" lon="-1.15228">
        <ele>10.9963</ele>
        <time>2010-12-29T16:31:59Z</time>
      </trkpt>
      <trkpt lat="46.15479" lon="-1.1523">
        <ele>10.8645</ele>
        <time>2010-12-29T16:32:00Z</time>
      </trkpt>
      <trkpt lat="46.15479" lon="-1.15231">
        <ele>10.7342</ele>
        <time>2010-12-29T16:32:01Z</time>
      </trkpt>
      <trkpt lat="46.15479" lon="-1.15233">
        <ele>10.6071</ele>
        <time>2010-12-29T16:32:02Z</time>
      </trkpt>
      <trkpt lat="46.15478" lon="-1.15234">
        <ele>10.4774</ele>
        <time>2010-12-29T16:32:03Z</time>
      </trkpt>
      <trkpt lat="46.15478" lon="-1.15236">
        <ele>10.3457</ele>
        <time>2010-12-29T16:32:04Z</time>
      </trkpt>
      <trkpt lat="46.15478" lon="-1.15237">
        <ele>10.2149</ele>
        <time>2010-12-29T16:32:05Z</time>
      </trkpt>
      <trkpt lat="46.15478" lon="-1.15239">
        <ele>10.0834</ele>
        <time>2010-12-29T16:32:06Z</time>
      </trkpt>
      <trkpt lat="46.15477" lon="-1.1524">
        <ele>9.9559</ele>
        <time>2010-12-29T16:32:07Z</time>
      </trkpt>
      <trkpt lat="46.15477" lon="-1.15241">
        <ele>9.8186</ele>
        <time>2010-12-29T16:32:08Z</time>
      </trkpt>
      <trkpt lat="46.15477" lon="-1.15242">
        <ele>9.6809</ele>
        <time>2010-12-29T16:32:09Z</time>
      </trkpt>
      <trkpt lat="46.15477" lon="-1.15244">
        <ele>9.5444</ele>
        <time>2010-12-29T16:32:10Z</time>
      </trkpt>
      <trkpt lat="46.15478" lon="-1.15245">
        <ele>9.4119</ele>
        <time>2010-12-29T16:32:11Z</time>
      </trkpt>
      <trkpt lat="46.15478" lon="-1.15246">
        <ele>9.2866</ele>
        <time>2010-12-29T16:32:12Z</time>
      </trkpt>
      <trkpt lat="46.15478" lon="-1.15248">
        <ele>9.1585</ele>
        <time>2010-12-29T16:32:13Z</time>
      </trkpt>
      <trkpt lat="46.15478" lon="-1.15249">
        <ele>9.0364</ele>
        <time>2010-12-29T16:32:14Z</time>
      </trkpt>
      <trkpt lat="46.15478" lon="-1.1525">
        <ele>8.9207</ele>
        <time>2010-12-29T16:32:15Z</time>
      </trkpt>
      <trkpt lat="46.15478" lon="-1.15252">
        <ele>8.8204</ele>
        <time>2010-12-29T16:32:16Z</time>
      </trkpt>
      <trkpt lat="46.15478" lon="-1.15253">
        <ele>8.7308</ele>
        <time>2010-12-29T16:32:17Z</time>
      </trkpt>
      <trkpt lat="46.15478" lon="-1.15255">
        <ele>8.6515</ele>
        <time>2010-12-29T16:32:18Z</time>
      </trkpt>
      <trkpt lat="46.15479" lon="-1.15256">
        <ele>8.5705</ele>
        <time>2010-12-29T16:32:19Z</time>
      </trkpt>
      <trkpt lat="46.15479" lon="-1.15257">
        <ele>8.484</ele>
        <time>2010-12-29T16:32:20Z</time>
      </trkpt>
      <trkpt lat="46.15479" lon="-1.15259">
        <ele>8.4003</ele>
        <time>2010-12-29T16:32:21Z</time>
      </trkpt>
      <trkpt lat="46.15479" lon="-1.1526">
        <ele>8.3181</ele>
        <time>2010-12-29T16:32:22Z</time>
      </trkpt>
      <trkpt lat="46.15478" lon="-1.15261">
        <ele>8.2315</ele>
        <time>2010-12-29T16:32:23Z</time>
      </trkpt>
      <trkpt lat="46.15477" lon="-1.15263">
        <ele>8.1303</ele>
        <time>2010-12-29T16:32:24Z</time>
      </trkpt>
      <trkpt lat="46.15477" lon="-1.15264">
        <ele>8.0192</ele>
        <time>2010-12-29T16:32:25Z</time>
      </trkpt>
      <trkpt lat="46.15476" lon="-1.15266">
        <ele>7.902</ele>
        <time>2010-12-29T16:32:26Z</time>
      </trkpt>
      <trkpt lat="46.15475" lon="-1.15267">
        <ele>7.7864</ele>
        <time>2010-12-29T16:32:27Z</time>
      </trkpt>
      <trkpt lat="46.15474" lon="-1.15269">
        <ele>7.6663</ele>
        <time>2010-12-29T16:32:28Z</time>
      </trkpt>
      <trkpt lat="46.15473" lon="-1.1527">
        <ele>7.5484</ele>
        <time>2010-12-29T16:32:29Z</time>
      </trkpt>
      <trkpt lat="46.15472" lon="-1.15271">
        <ele>7.4339</ele>
        <time>2010-12-29T16:32:30Z</time>
      </trkpt>
      <trkpt lat="46.15471" lon="-1.15271">
        <ele>7.3288</ele>
        <time>2010-12-29T16:32:31Z</time>
      </trkpt>
      <trkpt lat="46.1547" lon="-1.15271">
        <ele>7.226</ele>
        <time>2010-12-29T16:32:32Z</time>
      </trkpt>
      <trkpt lat="46.15469" lon="-1.15271">
        <ele>7.127</ele>
        <time>2010-12-29T16:32:33Z</time>
      </trkpt>
      <trkpt lat="46.15469" lon="-1.15271">
        <ele>7.0327</ele>
        <time>2010-12-29T16:32:34Z</time>
      </trkpt>
      <trkpt lat="46.15468" lon="-1.15271">
        <ele>6.9403</ele>
        <time>2010-12-29T16:32:35Z</time>
      </trkpt>
      <trkpt lat="46.15468" lon="-1.15271">
        <ele>6.8503</ele>
        <time>2010-12-29T16:32:36Z</time>
      </trkpt>
      <trkpt lat="46.15467" lon="-1.15271">
        <ele>6.7591</ele>
        <time>2010-12-29T16:32:37Z</time>
      </trkpt>
      <trkpt lat="46.15466" lon="-1.15271">
        <ele>6.662</ele>
        <time>2010-12-29T16:32:38Z</time>
      </trkpt>
      <trkpt lat="46.15466" lon="-1.15271">
        <ele>6.5742</ele>
        <time>2010-12-29T16:32:39Z</time>
      </trkpt>
      <trkpt lat="46.15464" lon="-1.15271">
        <ele>6.4595</ele>
        <time>2010-12-29T16:32:42Z</time>
      </trkpt>
      <trkpt lat="46.15463" lon="-1.15271">
        <ele>6.3637</ele>
        <time>2010-12-29T16:32:43Z</time>
      </trkpt>
      <trkpt lat="46.15462" lon="-1.1527">
        <ele>6.2711</ele>
        <time>2010-12-29T16:32:44Z</time>
      </trkpt>
      <trkpt lat="46.15461" lon="-1.15271">
        <ele>6.1796</ele>
        <time>2010-12-29T16:32:45Z</time>
      </trkpt>
      <trkpt lat="46.15461" lon="-1.15271">
        <ele>6.0897</ele>
        <time>2010-12-29T16:32:46Z</time>
      </trkpt>
      <trkpt lat="46.15459" lon="-1.15271">
        <ele>6.0038</ele>
        <time>2010-12-29T16:32:47Z</time>
      </trkpt>
      <trkpt lat="46.15459" lon="-1.15271">
        <ele>5.9206</ele>
        <time>2010-12-29T16:32:48Z</time>
      </trkpt>
      <trkpt lat="46.15458" lon="-1.15271">
        <ele>5.8386</ele>
        <time>2010-12-29T16:32:49Z</time>
      </trkpt>
      <trkpt lat="46.15457" lon="-1.1527">
        <ele>5.7556</ele>
        <time>2010-12-29T16:32:50Z</time>
      </trkpt>
      <trkpt lat="46.15456" lon="-1.15271">
        <ele>5.6735</ele>
        <time>2010-12-29T16:32:51Z</time>
      </trkpt>
      <trkpt lat="46.15455" lon="-1.1527">
        <ele>5.5953</ele>
        <time>2010-12-29T16:32:52Z</time>
      </trkpt>
      <trkpt lat="46.15454" lon="-1.1527">
        <ele>5.5237</ele>
        <time>2010-12-29T16:32:53Z</time>
      </trkpt>
      <trkpt lat="46.15453" lon="-1.1527">
        <ele>5.4555</ele>
        <time>2010-12-29T16:32:54Z</time>
      </trkpt>
      <trkpt lat="46.15452" lon="-1.15269">
        <ele>5.3863</ele>
        <time>2010-12-29T16:32:55Z</time>
      </trkpt>
      <trkpt lat="46.15451" lon="-1.15269">
        <ele>5.3099</ele>
        <time>2010-12-29T16:32:56Z</time>
      </trkpt>
      <trkpt lat="46.1545" lon="-1.1527">
        <ele>5.2318</ele>
        <time>2010-12-29T16:32:57Z</time>
      </trkpt>
      <trkpt lat="46.1545" lon="-1.1527">
        <ele>5.1514</ele>
        <time>2010-12-29T16:32:58Z</time>
      </trkpt>
      <trkpt lat="46.15448" lon="-1.15269">
        <ele>5.0785</ele>
        <time>2010-12-29T16:32:59Z</time>
      </trkpt>
      <trkpt lat="46.15448" lon="-1.15269">
        <ele>5.0034</ele>
        <time>2010-12-29T16:33:00Z</time>
      </trkpt>
      <trkpt lat="46.15447" lon="-1.15269">
        <ele>4.9349</ele>
        <time>2010-12-29T16:33:01Z</time>
      </trkpt>
      <trkpt lat="46.15446" lon="-1.15269">
        <ele>4.8689</ele>
        <time>2010-12-29T16:33:02Z</time>
      </trkpt>
      <trkpt lat="46.15445" lon="-1.15269">
        <ele>4.8025</ele>
        <time>2010-12-29T16:33:03Z</time>
      </trkpt>
      <trkpt lat="46.15444" lon="-1.15269">
        <ele>4.7348</ele>
        <time>2010-12-29T16:33:04Z</time>
      </trkpt>
      <trkpt lat="46.15443" lon="-1.15269">
        <ele>4.6674</ele>
        <time>2010-12-29T16:33:05Z</time>
      </trkpt>
      <trkpt lat="46.15442" lon="-1.15269">
        <ele>4.6018</ele>
        <time>2010-12-29T16:33:06Z</time>
      </trkpt>
      <trkpt lat="46.15441" lon="-1.15269">
        <ele>4.5359</ele>
        <time>2010-12-29T16:33:07Z</time>
      </trkpt>
      <trkpt lat="46.1544" lon="-1.15268">
        <ele>4.4724</ele>
        <time>2010-12-29T16:33:08Z</time>
      </trkpt>
      <trkpt lat="46.15439" lon="-1.15268">
        <ele>4.4116</ele>
        <time>2010-12-29T16:33:09Z</time>
      </trkpt>
      <trkpt lat="46.15438" lon="-1.15267">
        <ele>4.3478</ele>
        <time>2010-12-29T16:33:10Z</time>
      </trkpt>
      <trkpt lat="46.15437" lon="-1.15267">
        <ele>4.2927</ele>
        <time>2010-12-29T16:33:11Z</time>
      </trkpt>
      <trkpt lat="46.15435" lon="-1.15267">
        <ele>4.2397</ele>
        <time>2010-12-29T16:33:12Z</time>
      </trkpt>
      <trkpt lat="46.15434" lon="-1.15266">
        <ele>4.1877</ele>
        <time>2010-12-29T16:33:13Z</time>
      </trkpt>
      <trkpt lat="46.15433" lon="-1.15266">
        <ele>4.1388</ele>
        <time>2010-12-29T16:33:14Z</time>
      </trkpt>
      <trkpt lat="46.15432" lon="-1.15265">
        <ele>4.0938</ele>
        <time>2010-12-29T16:33:15Z</time>
      </trkpt>
      <trkpt lat="46.15432" lon="-1.15265">
        <ele>4.0509</ele>
        <time>2010-12-29T16:33:16Z</time>
      </trkpt>
      <trkpt lat="46.15431" lon="-1.15265">
        <ele>4.007</ele>
        <time>2010-12-29T16:33:17Z</time>
      </trkpt>
      <trkpt lat="46.1543" lon="-1.15264">
        <ele>3.9622</ele>
        <time>2010-12-29T16:33:18Z</time>
      </trkpt>
      <trkpt lat="46.15427" lon="-1.15261">
        <ele>3.8264</ele>
        <time>2010-12-29T16:33:22Z</time>
      </trkpt>
      <trkpt lat="46.15427" lon="-1.15259">
        <ele>3.7548</ele>
        <time>2010-12-29T16:33:23Z</time>
      </trkpt>
      <trkpt lat="46.15426" lon="-1.15258">
        <ele>3.6786</ele>
        <time>2010-12-29T16:33:24Z</time>
      </trkpt>
      <trkpt lat="46.15426" lon="-1.15258">
        <ele>3.601</ele>
        <time>2010-12-29T16:33:25Z</time>
      </trkpt>
      <trkpt lat="46.15425" lon="-1.15257">
        <ele>3.5248</ele>
        <time>2010-12-29T16:33:26Z</time>
      </trkpt>
      <trkpt lat="46.15424" lon="-1.15257">
        <ele>3.4473</ele>
        <time>2010-12-29T16:33:27Z</time>
      </trkpt>
      <trkpt lat="46.15424" lon="-1.15256">
        <ele>3.3687</ele>
        <time>2010-12-29T16:33:28Z</time>
      </trkpt>
      <trkpt lat="46.15423" lon="-1.15256">
        <ele>3.2903</ele>
        <time>2010-12-29T16:33:29Z</time>
      </trkpt>
      <trkpt lat="46.15422" lon="-1.15255">
        <ele>3.2216</ele>
        <time>2010-12-29T16:33:30Z</time>
      </trkpt>
      <trkpt lat="46.15421" lon="-1.15255">
        <ele>3.1711</ele>
        <time>2010-12-29T16:33:31Z</time>
      </trkpt>
      <trkpt lat="46.1542" lon="-1.15254">
        <ele>3.1559</ele>
        <time>2010-12-29T16:33:32Z</time>
      </trkpt>
      <trkpt lat="46.15419" lon="-1.15254">
        <ele>3.1396</ele>
        <time>2010-12-29T16:33:33Z</time>
      </trkpt>
      <trkpt lat="46.15419" lon="-1.15252">
        <ele>3.1298</ele>
        <time>2010-12-29T16:33:34Z</time>
      </trkpt>
      <trkpt lat="46.15418" lon="-1.15251">
        <ele>3.1224</ele>
        <time>2010-12-29T16:33:35Z</time>
      </trkpt>
      <trkpt lat="46.15417" lon="-1.15251">
        <ele>3.101</ele>
        <time>2010-12-29T16:33:36Z</time>
      </trkpt>
      <trkpt lat="46.15415" lon="-1.15251">
        <ele>3.0771</ele>
        <time>2010-12-29T16:33:37Z</time>
      </trkpt>
      <trkpt lat="46.15414" lon="-1.15251">
        <ele>3.0492</ele>
        <time>2010-12-29T16:33:38Z</time>
      </trkpt>
      <trkpt lat="46.15411" lon="-1.1525">
        <ele>3.0545</ele>
        <time>2010-12-29T16:33:39Z</time>
      </trkpt>
      <trkpt lat="46.1541" lon="-1.1525">
        <ele>3.0691</ele>
        <time>2010-12-29T16:33:40Z</time>
      </trkpt>
      <trkpt lat="46.15408" lon="-1.15249">
        <ele>3.0856</ele>
        <time>2010-12-29T16:33:41Z</time>
      </trkpt>
      <trkpt lat="46.15406" lon="-1.15249">
        <ele>3.1086</ele>
        <time>2010-12-29T16:33:42Z</time>
      </trkpt>
      <trkpt lat="46.15405" lon="-1.15248">
        <ele>3.1443</ele>
        <time>2010-12-29T16:33:43Z</time>
      </trkpt>
      <trkpt lat="46.15403" lon="-1.15247">
        <ele>3.1961</ele>
        <time>2010-12-29T16:33:44Z</time>
      </trkpt>
      <trkpt lat="46.15402" lon="-1.15246">
        <ele>3.2557</ele>
        <time>2010-12-29T16:33:45Z</time>
      </trkpt>
      <trkpt lat="46.15401" lon="-1.15245">
        <ele>3.3173</ele>
        <time>2010-12-29T16:33:46Z</time>
      </trkpt>
      <trkpt lat="46.154" lon="-1.15245">
        <ele>3.3821</ele>
        <time>2010-12-29T16:33:47Z</time>
      </trkpt>
      <trkpt lat="46.15398" lon="-1.15244">
        <ele>3.4522</ele>
        <time>2010-12-29T16:33:48Z</time>
      </trkpt>
      <trkpt lat="46.15397" lon="-1.15244">
        <ele>3.5315</ele>
        <time>2010-12-29T16:33:49Z</time>
      </trkpt>
      <trkpt lat="46.15396" lon="-1.15243">
        <ele>3.6148</ele>
        <time>2010-12-29T16:33:50Z</time>
      </trkpt>
      <trkpt lat="46.15395" lon="-1.15242">
        <ele>3.7003</ele>
        <time>2010-12-29T16:33:51Z</time>
      </trkpt>
      <trkpt lat="46.15394" lon="-1.15242">
        <ele>3.7911</ele>
        <time>2010-12-29T16:33:52Z</time>
      </trkpt>
      <trkpt lat="46.15393" lon="-1.15241">
        <ele>3.8847</ele>
        <time>2010-12-29T16:33:53Z</time>
      </trkpt>
      <trkpt lat="46.15392" lon="-1.15241">
        <ele>3.9771</ele>
        <time>2010-12-29T16:33:54Z</time>
      </trkpt>
      <trkpt lat="46.15392" lon="-1.1524">
        <ele>4.0694</ele>
        <time>2010-12-29T16:33:55Z</time>
      </trkpt>
      <trkpt lat="46.15391" lon="-1.1524">
        <ele>4.1757</ele>
        <time>2010-12-29T16:33:56Z</time>
      </trkpt>
      <trkpt lat="46.1539" lon="-1.15239">
        <ele>4.2639</ele>
        <time>2010-12-29T16:33:57Z</time>
      </trkpt>
      <trkpt lat="46.1539" lon="-1.15239">
        <ele>4.3404</ele>
        <time>2010-12-29T16:33:58Z</time>
      </trkpt>
      <trkpt lat="46.1539" lon="-1.15238">
        <ele>4.4074</ele>
        <time>2010-12-29T16:33:59Z</time>
      </trkpt>
      <trkpt lat="46.15389" lon="-1.15238">
        <ele>4.4556</ele>
        <time>2010-12-29T16:34:00Z</time>
      </trkpt>
      <trkpt lat="46.15388" lon="-1.15238">
        <ele>4.4984</ele>
        <time>2010-12-29T16:34:01Z</time>
      </trkpt>
      <trkpt lat="46.15387" lon="-1.15237">
        <ele>4.5443</ele>
        <time>2010-12-29T16:34:02Z</time>
      </trkpt>
      <trkpt lat="46.15385" lon="-1.15238">
        <ele>4.5878</ele>
        <time>2010-12-29T16:34:03Z</time>
      </trkpt>
      <trkpt lat="46.15385" lon="-1.15238">
        <ele>4.6261</ele>
        <time>2010-12-29T16:34:04Z</time>
      </trkpt>
      <trkpt lat="46.15384" lon="-1.15239">
        <ele>4.6567</ele>
        <time>2010-12-29T16:34:05Z</time>
      </trkpt>
      <trkpt lat="46.15383" lon="-1.15239">
        <ele>4.6811</ele>
        <time>2010-12-29T16:34:06Z</time>
      </trkpt>
      <trkpt lat="46.15382" lon="-1.1524">
        <ele>4.7101</ele>
        <time>2010-12-29T16:34:07Z</time>
      </trkpt>
      <trkpt lat="46.15382" lon="-1.1524">
        <ele>4.735</ele>
        <time>2010-12-29T16:34:08Z</time>
      </trkpt>
      <trkpt lat="46.15381" lon="-1.15239">
        <ele>4.7566</ele>
        <time>2010-12-29T16:34:09Z</time>
      </trkpt>
      <trkpt lat="46.1538" lon="-1.15239">
        <ele>4.7741</ele>
        <time>2010-12-29T16:34:10Z</time>
      </trkpt>
      <trkpt lat="46.15379" lon="-1.15239">
        <ele>4.7909</ele>
        <time>2010-12-29T16:34:11Z</time>
      </trkpt>
      <trkpt lat="46.15378" lon="-1.15237">
        <ele>4.8905</ele>
        <time>2010-12-29T16:34:12Z</time>
      </trkpt>
      <trkpt lat="46.15377" lon="-1.15236">
        <ele>4.9989</ele>
        <time>2010-12-29T16:34:13Z</time>
      </trkpt>
      <trkpt lat="46.15376" lon="-1.15234">
        <ele>5.1635</ele>
        <time>2010-12-29T16:34:14Z</time>
      </trkpt>
      <trkpt lat="46.15374" lon="-1.15233">
        <ele>5.332</ele>
        <time>2010-12-29T16:34:15Z</time>
      </trkpt>
      <trkpt lat="46.15374" lon="-1.1524">
        <ele>5.5601</ele>
        <time>2010-12-29T16:34:25Z</time>
      </trkpt>
      <trkpt lat="46.15376" lon="-1.15242">
        <ele>5.6978</ele>
        <time>2010-12-29T16:34:27Z</time>
      </trkpt>
      <trkpt lat="46.15376" lon="-1.15242">
        <ele>5.7558</ele>
        <time>2010-12-29T16:34:28Z</time>
      </trkpt>
      <trkpt lat="46.15375" lon="-1.15242">
        <ele>5.8065</ele>
        <time>2010-12-29T16:34:29Z</time>
      </trkpt>
      <trkpt lat="46.15374" lon="-1.15242">
        <ele>5.858</ele>
        <time>2010-12-29T16:34:30Z</time>
      </trkpt>
      <trkpt lat="46.15374" lon="-1.15242">
        <ele>5.9039</ele>
        <time>2010-12-29T16:34:31Z</time>
      </trkpt>
      <trkpt lat="46.15373" lon="-1.15241">
        <ele>5.9311</ele>
        <time>2010-12-29T16:34:32Z</time>
      </trkpt>
      <trkpt lat="46.15373" lon="-1.1524">
        <ele>5.9553</ele>
        <time>2010-12-29T16:34:33Z</time>
      </trkpt>
      <trkpt lat="46.15372" lon="-1.15239">
        <ele>5.9707</ele>
        <time>2010-12-29T16:34:34Z</time>
      </trkpt>
      <trkpt lat="46.15371" lon="-1.15239">
        <ele>5.9887</ele>
        <time>2010-12-29T16:34:35Z</time>
      </trkpt>
      <trkpt lat="46.15371" lon="-1.15239">
        <ele>6.0066</ele>
        <time>2010-12-29T16:34:36Z</time>
      </trkpt>
      <trkpt lat="46.1537" lon="-1.15238">
        <ele>6.0258</ele>
        <time>2010-12-29T16:34:37Z</time>
      </trkpt>
      <trkpt lat="46.15369" lon="-1.15238">
        <ele>6.0439</ele>
        <time>2010-12-29T16:34:38Z</time>
      </trkpt>
      <trkpt lat="46.15368" lon="-1.15238">
        <ele>6.0593</ele>
        <time>2010-12-29T16:34:39Z</time>
      </trkpt>
      <trkpt lat="46.15368" lon="-1.15238">
        <ele>6.0725</ele>
        <time>2010-12-29T16:34:40Z</time>
      </trkpt>
      <trkpt lat="46.15367" lon="-1.15237">
        <ele>6.0851</ele>
        <time>2010-12-29T16:34:41Z</time>
      </trkpt>
      <trkpt lat="46.15366" lon="-1.15237">
        <ele>6.0977</ele>
        <time>2010-12-29T16:34:42Z</time>
      </trkpt>
      <trkpt lat="46.15365" lon="-1.15237">
        <ele>6.1087</ele>
        <time>2010-12-29T16:34:43Z</time>
      </trkpt>
      <trkpt lat="46.15365" lon="-1.15237">
        <ele>6.1171</ele>
        <time>2010-12-29T16:34:44Z</time>
      </trkpt>
      <trkpt lat="46.15363" lon="-1.15236">
        <ele>6.1218</ele>
        <time>2010-12-29T16:34:45Z</time>
      </trkpt>
      <trkpt lat="46.15362" lon="-1.15237">
        <ele>6.1245</ele>
        <time>2010-12-29T16:34:46Z</time>
      </trkpt>
      <trkpt lat="46.15361" lon="-1.15237">
        <ele>6.1262</ele>
        <time>2010-12-29T16:34:47Z</time>
      </trkpt>
      <trkpt lat="46.1536" lon="-1.15237">
        <ele>6.1297</ele>
        <time>2010-12-29T16:34:48Z</time>
      </trkpt>
      <trkpt lat="46.15359" lon="-1.15237">
        <ele>6.1298</ele>
        <time>2010-12-29T16:34:49Z</time>
      </trkpt>
      <trkpt lat="46.15358" lon="-1.15237">
        <ele>6.1281</ele>
        <time>2010-12-29T16:34:50Z</time>
      </trkpt>
      <trkpt lat="46.15358" lon="-1.15236">
        <ele>6.1256</ele>
        <time>2010-12-29T16:34:51Z</time>
      </trkpt>
      <trkpt lat="46.15357" lon="-1.15236">
        <ele>6.1262</ele>
        <time>2010-12-29T16:34:52Z</time>
      </trkpt>
      <trkpt lat="46.15357" lon="-1.15235">
        <ele>6.1219</ele>
        <time>2010-12-29T16:34:53Z</time>
      </trkpt>
      <trkpt lat="46.15356" lon="-1.15235">
        <ele>6.1126</ele>
        <time>2010-12-29T16:34:54Z</time>
      </trkpt>
      <trkpt lat="46.15356" lon="-1.15235">
        <ele>6.0998</ele>
        <time>2010-12-29T16:34:55Z</time>
      </trkpt>
      <trkpt lat="46.15355" lon="-1.15234">
        <ele>6.0848</ele>
        <time>2010-12-29T16:34:56Z</time>
      </trkpt>
      <trkpt lat="46.15355" lon="-1.15234">
        <ele>6.0689</ele>
        <time>2010-12-29T16:34:57Z</time>
      </trkpt>
      <trkpt lat="46.15354" lon="-1.15233">
        <ele>6.0518</ele>
        <time>2010-12-29T16:34:58Z</time>
      </trkpt>
      <trkpt lat="46.15353" lon="-1.15233">
        <ele>6.0335</ele>
        <time>2010-12-29T16:34:59Z</time>
      </trkpt>
      <trkpt lat="46.15352" lon="-1.15233">
        <ele>6.0149</ele>
        <time>2010-12-29T16:35:00Z</time>
      </trkpt>
      <trkpt lat="46.1535" lon="-1.15233">
        <ele>5.9965</ele>
        <time>2010-12-29T16:35:01Z</time>
      </trkpt>
      <trkpt lat="46.1535" lon="-1.15233">
        <ele>5.9774</ele>
        <time>2010-12-29T16:35:02Z</time>
      </trkpt>
      <trkpt lat="46.15348" lon="-1.15233">
        <ele>5.9589</ele>
        <time>2010-12-29T16:35:03Z</time>
      </trkpt>
      <trkpt lat="46.15347" lon="-1.15233">
        <ele>5.9435</ele>
        <time>2010-12-29T16:35:04Z</time>
      </trkpt>
      <trkpt lat="46.15346" lon="-1.15233">
        <ele>5.9298</ele>
        <time>2010-12-29T16:35:05Z</time>
      </trkpt>
      <trkpt lat="46.15345" lon="-1.15233">
        <ele>5.9189</ele>
        <time>2010-12-29T16:35:06Z</time>
      </trkpt>
      <trkpt lat="46.15344" lon="-1.15233">
        <ele>5.9084</ele>
        <time>2010-12-29T16:35:07Z</time>
      </trkpt>
      <trkpt lat="46.15343" lon="-1.15233">
        <ele>5.8978</ele>
        <time>2010-12-29T16:35:08Z</time>
      </trkpt>
      <trkpt lat="46.15342" lon="-1.15233">
        <ele>5.887</ele>
        <time>2010-12-29T16:35:09Z</time>
      </trkpt>
      <trkpt lat="46.15341" lon="-1.15233">
        <ele>5.8766</ele>
        <time>2010-12-29T16:35:10Z</time>
      </trkpt>
      <trkpt lat="46.1534" lon="-1.15234">
        <ele>5.8664</ele>
        <time>2010-12-29T16:35:11Z</time>
      </trkpt>
      <trkpt lat="46.15339" lon="-1.15234">
        <ele>5.8567</ele>
        <time>2010-12-29T16:35:12Z</time>
      </trkpt>
      <trkpt lat="46.15339" lon="-1.15234">
        <ele>5.8477</ele>
        <time>2010-12-29T16:35:13Z</time>
      </trkpt>
      <trkpt lat="46.15338" lon="-1.15233">
        <ele>5.8438</ele>
        <time>2010-12-29T16:35:14Z</time>
      </trkpt>
      <trkpt lat="46.15337" lon="-1.15233">
        <ele>5.8423</ele>
        <time>2010-12-29T16:35:15Z</time>
      </trkpt>
      <trkpt lat="46.15336" lon="-1.15233">
        <ele>5.8409</ele>
        <time>2010-12-29T16:35:16Z</time>
      </trkpt>
      <trkpt lat="46.15335" lon="-1.15232">
        <ele>5.84</ele>
        <time>2010-12-29T16:35:17Z</time>
      </trkpt>
      <trkpt lat="46.15334" lon="-1.15232">
        <ele>5.8393</ele>
        <time>2010-12-29T16:35:18Z</time>
      </trkpt>
      <trkpt lat="46.15333" lon="-1.15232">
        <ele>5.8386</ele>
        <time>2010-12-29T16:35:19Z</time>
      </trkpt>
      <trkpt lat="46.15332" lon="-1.15232">
        <ele>5.837</ele>
        <time>2010-12-29T16:35:20Z</time>
      </trkpt>
      <trkpt lat="46.15331" lon="-1.15232">
        <ele>5.8355</ele>
        <time>2010-12-29T16:35:21Z</time>
      </trkpt>
      <trkpt lat="46.15331" lon="-1.15232">
        <ele>5.8344</ele>
        <time>2010-12-29T16:35:22Z</time>
      </trkpt>
      <trkpt lat="46.15329" lon="-1.15232">
        <ele>5.8318</ele>
        <time>2010-12-29T16:35:23Z</time>
      </trkpt>
      <trkpt lat="46.15328" lon="-1.15232">
        <ele>5.8287</ele>
        <time>2010-12-29T16:35:24Z</time>
      </trkpt>
      <trkpt lat="46.15327" lon="-1.15232">
        <ele>5.8246</ele>
        <time>2010-12-29T16:35:25Z</time>
      </trkpt>
      <trkpt lat="46.15326" lon="-1.15233">
        <ele>5.82</ele>
        <time>2010-12-29T16:35:26Z</time>
      </trkpt>
      <trkpt lat="46.15322" lon="-1.15234">
        <ele>5.7848</ele>
        <time>2010-12-29T16:35:32Z</time>
      </trkpt>
      <trkpt lat="46.15321" lon="-1.15234">
        <ele>5.7814</ele>
        <time>2010-12-29T16:35:33Z</time>
      </trkpt>
      <trkpt lat="46.15321" lon="-1.15234">
        <ele>5.7795</ele>
        <time>2010-12-29T16:35:34Z</time>
      </trkpt>
      <trkpt lat="46.1532" lon="-1.15234">
        <ele>5.7788</ele>
        <time>2010-12-29T16:35:35Z</time>
      </trkpt>
      <trkpt lat="46.15319" lon="-1.15234">
        <ele>5.778</ele>
        <time>2010-12-29T16:35:36Z</time>
      </trkpt>
      <trkpt lat="46.15318" lon="-1.15234">
        <ele>5.7782</ele>
        <time>2010-12-29T16:35:37Z</time>
      </trkpt>
      <trkpt lat="46.15318" lon="-1.15234">
        <ele>5.7784</ele>
        <time>2010-12-29T16:35:38Z</time>
      </trkpt>
      <trkpt lat="46.15316" lon="-1.15234">
        <ele>5.7787</ele>
        <time>2010-12-29T16:35:39Z</time>
      </trkpt>
      <trkpt lat="46.15316" lon="-1.15234">
        <ele>5.7797</ele>
        <time>2010-12-29T16:35:40Z</time>
      </trkpt>
      <trkpt lat="46.15315" lon="-1.15234">
        <ele>5.7805</ele>
        <time>2010-12-29T16:35:41Z</time>
      </trkpt>
      <trkpt lat="46.15314" lon="-1.15234">
        <ele>5.7805</ele>
        <time>2010-12-29T16:35:42Z</time>
      </trkpt>
      <trkpt lat="46.15313" lon="-1.15234">
        <ele>5.7818</ele>
        <time>2010-12-29T16:35:43Z</time>
      </trkpt>
      <trkpt lat="46.15308" lon="-1.15234">
        <ele>5.8165</ele>
        <time>2010-12-29T16:35:51Z</time>
      </trkpt>
      <trkpt lat="46.15308" lon="-1.15233">
        <ele>5.8244</ele>
        <time>2010-12-29T16:35:52Z</time>
      </trkpt>
      <trkpt lat="46.15307" lon="-1.15233">
        <ele>5.8313</ele>
        <time>2010-12-29T16:35:53Z</time>
      </trkpt>
      <trkpt lat="46.15306" lon="-1.15234">
        <ele>5.8357</ele>
        <time>2010-12-29T16:35:54Z</time>
      </trkpt>
      <trkpt lat="46.15305" lon="-1.15234">
        <ele>5.8401</ele>
        <time>2010-12-29T16:35:55Z</time>
      </trkpt>
      <trkpt lat="46.15304" lon="-1.15234">
        <ele>5.8447</ele>
        <time>2010-12-29T16:35:56Z</time>
      </trkpt>
      <trkpt lat="46.15303" lon="-1.15234">
        <ele>5.8488</ele>
        <time>2010-12-29T16:35:57Z</time>
      </trkpt>
      <trkpt lat="46.15302" lon="-1.15233">
        <ele>5.8525</ele>
        <time>2010-12-29T16:35:58Z</time>
      </trkpt>
      <trkpt lat="46.15302" lon="-1.15233">
        <ele>5.8561</ele>
        <time>2010-12-29T16:35:59Z</time>
      </trkpt>
      <trkpt lat="46.15301" lon="-1.15234">
        <ele>5.8596</ele>
        <time>2010-12-29T16:36:00Z</time>
      </trkpt>
      <trkpt lat="46.153" lon="-1.15234">
        <ele>5.8633</ele>
        <time>2010-12-29T16:36:01Z</time>
      </trkpt>
      <trkpt lat="46.15299" lon="-1.15234">
        <ele>5.8647</ele>
        <time>2010-12-29T16:36:02Z</time>
      </trkpt>
      <trkpt lat="46.15298" lon="-1.15234">
        <ele>5.8649</ele>
        <time>2010-12-29T16:36:03Z</time>
      </trkpt>
      <trkpt lat="46.15297" lon="-1.15234">
        <ele>5.8639</ele>
        <time>2010-12-29T16:36:04Z</time>
      </trkpt>
      <trkpt lat="46.15296" lon="-1.15234">
        <ele>5.8633</ele>
        <time>2010-12-29T16:36:05Z</time>
      </trkpt>
      <trkpt lat="46.15295" lon="-1.15233">
        <ele>5.8623</ele>
        <time>2010-12-29T16:36:06Z</time>
      </trkpt>
      <trkpt lat="46.15294" lon="-1.15233">
        <ele>5.8611</ele>
        <time>2010-12-29T16:36:07Z</time>
      </trkpt>
      <trkpt lat="46.15294" lon="-1.15233">
        <ele>5.8573</ele>
        <time>2010-12-29T16:36:08Z</time>
      </trkpt>
      <trkpt lat="46.15293" lon="-1.15233">
        <ele>5.8513</ele>
        <time>2010-12-29T16:36:09Z</time>
      </trkpt>
      <trkpt lat="46.15292" lon="-1.15232">
        <ele>5.8451</ele>
        <time>2010-12-29T16:36:10Z</time>
      </trkpt>
      <trkpt lat="46.15291" lon="-1.15232">
        <ele>5.8354</ele>
        <time>2010-12-29T16:36:11Z</time>
      </trkpt>
      <trkpt lat="46.1529" lon="-1.15231">
        <ele>5.8242</ele>
        <time>2010-12-29T16:36:12Z</time>
      </trkpt>
      <trkpt lat="46.15289" lon="-1.15231">
        <ele>5.8113</ele>
        <time>2010-12-29T16:36:13Z</time>
      </trkpt>
      <trkpt lat="46.15287" lon="-1.15227">
        <ele>5.7282</ele>
        <time>2010-12-29T16:36:18Z</time>
      </trkpt>
      <trkpt lat="46.15286" lon="-1.15222">
        <ele>5.6403</ele>
        <time>2010-12-29T16:36:22Z</time>
      </trkpt>
      <trkpt lat="46.15286" lon="-1.15221">
        <ele>5.6164</ele>
        <time>2010-12-29T16:36:23Z</time>
      </trkpt>
      <trkpt lat="46.15286" lon="-1.15219">
        <ele>5.5902</ele>
        <time>2010-12-29T16:36:24Z</time>
      </trkpt>
      <trkpt lat="46.15286" lon="-1.15217">
        <ele>5.5617</ele>
        <time>2010-12-29T16:36:25Z</time>
      </trkpt>
      <trkpt lat="46.15286" lon="-1.15216">
        <ele>5.5298</ele>
        <time>2010-12-29T16:36:26Z</time>
      </trkpt>
      <trkpt lat="46.15285" lon="-1.15211">
        <ele>5.4248</ele>
        <time>2010-12-29T16:36:29Z</time>
      </trkpt>
      <trkpt lat="46.15285" lon="-1.1521">
        <ele>5.3885</ele>
        <time>2010-12-29T16:36:30Z</time>
      </trkpt>
      <trkpt lat="46.15285" lon="-1.15208">
        <ele>5.3494</ele>
        <time>2010-12-29T16:36:31Z</time>
      </trkpt>
      <trkpt lat="46.15285" lon="-1.15207">
        <ele>5.3064</ele>
        <time>2010-12-29T16:36:32Z</time>
      </trkpt>
      <trkpt lat="46.15285" lon="-1.15205">
        <ele>5.2642</ele>
        <time>2010-12-29T16:36:33Z</time>
      </trkpt>
      <trkpt lat="46.15285" lon="-1.15203">
        <ele>5.2231</ele>
        <time>2010-12-29T16:36:34Z</time>
      </trkpt>
      <trkpt lat="46.15285" lon="-1.15202">
        <ele>5.1816</ele>
        <time>2010-12-29T16:36:35Z</time>
      </trkpt>
      <trkpt lat="46.15285" lon="-1.152">
        <ele>5.1374</ele>
        <time>2010-12-29T16:36:36Z</time>
      </trkpt>
      <trkpt lat="46.15285" lon="-1.15199">
        <ele>5.0915</ele>
        <time>2010-12-29T16:36:37Z</time>
      </trkpt>
      <trkpt lat="46.15286" lon="-1.15197">
        <ele>5.0441</ele>
        <time>2010-12-29T16:36:38Z</time>
      </trkpt>
      <trkpt lat="46.15286" lon="-1.15195">
        <ele>4.9956</ele>
        <time>2010-12-29T16:36:39Z</time>
      </trkpt>
      <trkpt lat="46.15286" lon="-1.15194">
        <ele>4.9484</ele>
        <time>2010-12-29T16:36:40Z</time>
      </trkpt>
      <trkpt lat="46.15286" lon="-1.15193">
        <ele>4.9021</ele>
        <time>2010-12-29T16:36:41Z</time>
      </trkpt>
      <trkpt lat="46.15286" lon="-1.1519">
        <ele>4.8566</ele>
        <time>2010-12-29T16:36:42Z</time>
      </trkpt>
      <trkpt lat="46.15286" lon="-1.15189">
        <ele>4.8118</ele>
        <time>2010-12-29T16:36:43Z</time>
      </trkpt>
      <trkpt lat="46.15286" lon="-1.15188">
        <ele>4.7678</ele>
        <time>2010-12-29T16:36:44Z</time>
      </trkpt>
      <trkpt lat="46.15286" lon="-1.15187">
        <ele>4.7255</ele>
        <time>2010-12-29T16:36:45Z</time>
      </trkpt>
      <trkpt lat="46.15287" lon="-1.15186">
        <ele>4.6835</ele>
        <time>2010-12-29T16:36:46Z</time>
      </trkpt>
      <trkpt lat="46.15287" lon="-1.15185">
        <ele>4.6401</ele>
        <time>2010-12-29T16:36:47Z</time>
      </trkpt>
      <trkpt lat="46.15287" lon="-1.15184">
        <ele>4.5975</ele>
        <time>2010-12-29T16:36:48Z</time>
      </trkpt>
      <trkpt lat="46.15287" lon="-1.15183">
        <ele>4.5553</ele>
        <time>2010-12-29T16:36:49Z</time>
      </trkpt>
      <trkpt lat="46.15287" lon="-1.15182">
        <ele>4.5087</ele>
        <time>2010-12-29T16:36:50Z</time>
      </trkpt>
      <trkpt lat="46.15287" lon="-1.15181">
        <ele>4.4474</ele>
        <time>2010-12-29T16:36:51Z</time>
      </trkpt>
      <trkpt lat="46.15287" lon="-1.1518">
        <ele>4.3861</ele>
        <time>2010-12-29T16:36:52Z</time>
      </trkpt>
      <trkpt lat="46.15287" lon="-1.15179">
        <ele>4.3206</ele>
        <time>2010-12-29T16:36:53Z</time>
      </trkpt>
      <trkpt lat="46.15287" lon="-1.15178">
        <ele>4.2486</ele>
        <time>2010-12-29T16:36:54Z</time>
      </trkpt>
      <trkpt lat="46.15287" lon="-1.15176">
        <ele>4.1735</ele>
        <time>2010-12-29T16:36:55Z</time>
      </trkpt>
      <trkpt lat="46.15287" lon="-1.15175">
        <ele>4.093</ele>
        <time>2010-12-29T16:36:56Z</time>
      </trkpt>
      <trkpt lat="46.15287" lon="-1.15173">
        <ele>4.0039</ele>
        <time>2010-12-29T16:36:57Z</time>
      </trkpt>
      <trkpt lat="46.15287" lon="-1.15172">
        <ele>3.9129</ele>
        <time>2010-12-29T16:36:58Z</time>
      </trkpt>
      <trkpt lat="46.15287" lon="-1.1517">
        <ele>3.8188</ele>
        <time>2010-12-29T16:36:59Z</time>
      </trkpt>
      <trkpt lat="46.15287" lon="-1.15168">
        <ele>3.7278</ele>
        <time>2010-12-29T16:37:00Z</time>
      </trkpt>
      <trkpt lat="46.15287" lon="-1.15167">
        <ele>3.6412</ele>
        <time>2010-12-29T16:37:01Z</time>
      </trkpt>
      <trkpt lat="46.15287" lon="-1.15166">
        <ele>3.5574</ele>
        <time>2010-12-29T16:37:02Z</time>
      </trkpt>
      <trkpt lat="46.15287" lon="-1.15165">
        <ele>3.4681</ele>
        <time>2010-12-29T16:37:03Z</time>
      </trkpt>
      <trkpt lat="46.15286" lon="-1.15164">
        <ele>3.3742</ele>
        <time>2010-12-29T16:37:04Z</time>
      </trkpt>
      <trkpt lat="46.15287" lon="-1.15162">
        <ele>3.2853</ele>
        <time>2010-12-29T16:37:05Z</time>
      </trkpt>
      <trkpt lat="46.15287" lon="-1.1516">
        <ele>3.2049</ele>
        <time>2010-12-29T16:37:06Z</time>
      </trkpt>
      <trkpt lat="46.15287" lon="-1.15158">
        <ele>3.127</ele>
        <time>2010-12-29T16:37:07Z</time>
      </trkpt>
      <trkpt lat="46.15287" lon="-1.15157">
        <ele>3.0426</ele>
        <time>2010-12-29T16:37:08Z</time>
      </trkpt>
      <trkpt lat="46.15287" lon="-1.15155">
        <ele>2.9515</ele>
        <time>2010-12-29T16:37:09Z</time>
      </trkpt>
      <trkpt lat="46.15287" lon="-1.15154">
        <ele>2.8616</ele>
        <time>2010-12-29T16:37:10Z</time>
      </trkpt>
      <trkpt lat="46.15287" lon="-1.15152">
        <ele>2.7705</ele>
        <time>2010-12-29T16:37:11Z</time>
      </trkpt>
      <trkpt lat="46.15287" lon="-1.15151">
        <ele>2.6817</ele>
        <time>2010-12-29T16:37:12Z</time>
      </trkpt>
      <trkpt lat="46.15287" lon="-1.1515">
        <ele>2.5957</ele>
        <time>2010-12-29T16:37:13Z</time>
      </trkpt>
      <trkpt lat="46.15287" lon="-1.15148">
        <ele>2.5136</ele>
        <time>2010-12-29T16:37:14Z</time>
      </trkpt>
      <trkpt lat="46.15287" lon="-1.15147">
        <ele>2.4338</ele>
        <time>2010-12-29T16:37:15Z</time>
      </trkpt>
      <trkpt lat="46.15287" lon="-1.15145">
        <ele>2.356</ele>
        <time>2010-12-29T16:37:16Z</time>
      </trkpt>
      <trkpt lat="46.15287" lon="-1.15143">
        <ele>2.2881</ele>
        <time>2010-12-29T16:37:17Z</time>
      </trkpt>
      <trkpt lat="46.15287" lon="-1.15141">
        <ele>2.2242</ele>
        <time>2010-12-29T16:37:18Z</time>
      </trkpt>
      <trkpt lat="46.15287" lon="-1.1514">
        <ele>2.159</ele>
        <time>2010-12-29T16:37:19Z</time>
      </trkpt>
      <trkpt lat="46.15287" lon="-1.15138">
        <ele>2.0889</ele>
        <time>2010-12-29T16:37:20Z</time>
      </trkpt>
      <trkpt lat="46.15287" lon="-1.15138">
        <ele>2.0135</ele>
        <time>2010-12-29T16:37:21Z</time>
      </trkpt>
      <trkpt lat="46.15287" lon="-1.15134">
        <ele>1.8082</ele>
        <time>2010-12-29T16:37:24Z</time>
      </trkpt>
      <trkpt lat="46.15287" lon="-1.15133">
        <ele>1.7428</ele>
        <time>2010-12-29T16:37:25Z</time>
      </trkpt>
      <trkpt lat="46.15287" lon="-1.15132">
        <ele>1.6838</ele>
        <time>2010-12-29T16:37:26Z</time>
      </trkpt>
      <trkpt lat="46.15287" lon="-1.15131">
        <ele>1.6277</ele>
        <time>2010-12-29T16:37:27Z</time>
      </trkpt>
      <trkpt lat="46.15284" lon="-1.15129">
        <ele>1.4166</ele>
        <time>2010-12-29T16:37:32Z</time>
      </trkpt>
      <trkpt lat="46.15283" lon="-1.15128">
        <ele>1.3947</ele>
        <time>2010-12-29T16:37:33Z</time>
      </trkpt>
      <trkpt lat="46.15278" lon="-1.15127">
        <ele>1.3564</ele>
        <time>2010-12-29T16:37:37Z</time>
      </trkpt>
      <trkpt lat="46.15274" lon="-1.15125">
        <ele>1.4298</ele>
        <time>2010-12-29T16:37:41Z</time>
      </trkpt>
      <trkpt lat="46.15272" lon="-1.15126">
        <ele>1.5021</ele>
        <time>2010-12-29T16:37:43Z</time>
      </trkpt>
      <trkpt lat="46.15271" lon="-1.15126">
        <ele>1.5467</ele>
        <time>2010-12-29T16:37:44Z</time>
      </trkpt>
      <trkpt lat="46.15269" lon="-1.15127">
        <ele>1.6385</ele>
        <time>2010-12-29T16:37:46Z</time>
      </trkpt>
      <trkpt lat="46.15268" lon="-1.15127">
        <ele>1.6853</ele>
        <time>2010-12-29T16:37:47Z</time>
      </trkpt>
      <trkpt lat="46.15267" lon="-1.15128">
        <ele>1.7304</ele>
        <time>2010-12-29T16:37:48Z</time>
      </trkpt>
      <trkpt lat="46.15266" lon="-1.15128">
        <ele>1.7759</ele>
        <time>2010-12-29T16:37:49Z</time>
      </trkpt>
      <trkpt lat="46.15265" lon="-1.15128">
        <ele>1.8249</ele>
        <time>2010-12-29T16:37:50Z</time>
      </trkpt>
      <trkpt lat="46.15264" lon="-1.15128">
        <ele>1.8614</ele>
        <time>2010-12-29T16:37:51Z</time>
      </trkpt>
      <trkpt lat="46.15263" lon="-1.15128">
        <ele>1.8989</ele>
        <time>2010-12-29T16:37:52Z</time>
      </trkpt>
      <trkpt lat="46.15262" lon="-1.15128">
        <ele>1.9314</ele>
        <time>2010-12-29T16:37:53Z</time>
      </trkpt>
      <trkpt lat="46.15257" lon="-1.15127">
        <ele>2.0603</ele>
        <time>2010-12-29T16:37:57Z</time>
      </trkpt>
      <trkpt lat="46.15252" lon="-1.15125">
        <ele>2.3995</ele>
        <time>2010-12-29T16:38:03Z</time>
      </trkpt>
      <trkpt lat="46.15246" lon="-1.15128">
        <ele>3.3413</ele>
        <time>2010-12-29T16:38:08Z</time>
      </trkpt>
      <trkpt lat="46.15245" lon="-1.15129">
        <ele>3.5367</ele>
        <time>2010-12-29T16:38:09Z</time>
      </trkpt>
      <trkpt lat="46.15244" lon="-1.1513">
        <ele>3.7424</ele>
        <time>2010-12-29T16:38:10Z</time>
      </trkpt>
      <trkpt lat="46.15242" lon="-1.15131">
        <ele>3.9476</ele>
        <time>2010-12-29T16:38:11Z</time>
      </trkpt>
      <trkpt lat="46.15241" lon="-1.15132">
        <ele>4.1506</ele>
        <time>2010-12-29T16:38:12Z</time>
      </trkpt>
      <trkpt lat="46.15239" lon="-1.15134">
        <ele>4.3416</ele>
        <time>2010-12-29T16:38:13Z</time>
      </trkpt>
      <trkpt lat="46.15237" lon="-1.15135">
        <ele>4.5548</ele>
        <time>2010-12-29T16:38:14Z</time>
      </trkpt>
      <trkpt lat="46.15236" lon="-1.15137">
        <ele>4.7764</ele>
        <time>2010-12-29T16:38:15Z</time>
      </trkpt>
      <trkpt lat="46.15235" lon="-1.15138">
        <ele>4.9952</ele>
        <time>2010-12-29T16:38:16Z</time>
      </trkpt>
      <trkpt lat="46.15233" lon="-1.1514">
        <ele>5.2145</ele>
        <time>2010-12-29T16:38:17Z</time>
      </trkpt>
      <trkpt lat="46.15232" lon="-1.15141">
        <ele>5.439</ele>
        <time>2010-12-29T16:38:18Z</time>
      </trkpt>
      <trkpt lat="46.15231" lon="-1.15142">
        <ele>5.6643</ele>
        <time>2010-12-29T16:38:19Z</time>
      </trkpt>
      <trkpt lat="46.15227" lon="-1.15145">
        <ele>6.5353</ele>
        <time>2010-12-29T16:38:23Z</time>
      </trkpt>
      <trkpt lat="46.15226" lon="-1.15145">
        <ele>6.7808</ele>
        <time>2010-12-29T16:38:24Z</time>
      </trkpt>
      <trkpt lat="46.15225" lon="-1.15146">
        <ele>7.0357</ele>
        <time>2010-12-29T16:38:25Z</time>
      </trkpt>
      <trkpt lat="46.15224" lon="-1.15147">
        <ele>7.2909</ele>
        <time>2010-12-29T16:38:26Z</time>
      </trkpt>
      <trkpt lat="46.15223" lon="-1.15147">
        <ele>7.5567</ele>
        <time>2010-12-29T16:38:27Z</time>
      </trkpt>
      <trkpt lat="46.15222" lon="-1.15148">
        <ele>7.8159</ele>
        <time>2010-12-29T16:38:28Z</time>
      </trkpt>
      <trkpt lat="46.15221" lon="-1.15149">
        <ele>8.079</ele>
        <time>2010-12-29T16:38:29Z</time>
      </trkpt>
      <trkpt lat="46.1522" lon="-1.1515">
        <ele>8.3542</ele>
        <time>2010-12-29T16:38:30Z</time>
      </trkpt>
      <trkpt lat="46.15219" lon="-1.15151">
        <ele>8.5955</ele>
        <time>2010-12-29T16:38:31Z</time>
      </trkpt>
      <trkpt lat="46.15218" lon="-1.15152">
        <ele>8.8589</ele>
        <time>2010-12-29T16:38:32Z</time>
      </trkpt>
      <trkpt lat="46.15217" lon="-1.15153">
        <ele>9.1308</ele>
        <time>2010-12-29T16:38:33Z</time>
      </trkpt>
      <trkpt lat="46.15216" lon="-1.15153">
        <ele>9.3989</ele>
        <time>2010-12-29T16:38:34Z</time>
      </trkpt>
      <trkpt lat="46.15215" lon="-1.15154">
        <ele>9.6711</ele>
        <time>2010-12-29T16:38:35Z</time>
      </trkpt>
      <trkpt lat="46.15212" lon="-1.15156">
        <ele>10.876</ele>
        <time>2010-12-29T16:38:39Z</time>
      </trkpt>
      <trkpt lat="46.1521" lon="-1.15156">
        <ele>11.1853</ele>
        <time>2010-12-29T16:38:40Z</time>
      </trkpt>
      <trkpt lat="46.15209" lon="-1.15157">
        <ele>11.4919</ele>
        <time>2010-12-29T16:38:41Z</time>
      </trkpt>
      <trkpt lat="46.15208" lon="-1.15157">
        <ele>11.7631</ele>
        <time>2010-12-29T16:38:42Z</time>
      </trkpt>
      <trkpt lat="46.15207" lon="-1.15157">
        <ele>12.0368</ele>
        <time>2010-12-29T16:38:43Z</time>
      </trkpt>
      <trkpt lat="46.15207" lon="-1.15157">
        <ele>12.3093</ele>
        <time>2010-12-29T16:38:44Z</time>
      </trkpt>
      <trkpt lat="46.15205" lon="-1.15157">
        <ele>12.5678</ele>
        <time>2010-12-29T16:38:45Z</time>
      </trkpt>
      <trkpt lat="46.15205" lon="-1.15157">
        <ele>12.8225</ele>
        <time>2010-12-29T16:38:46Z</time>
      </trkpt>
      <trkpt lat="46.15204" lon="-1.15157">
        <ele>13.0772</ele>
        <time>2010-12-29T16:38:47Z</time>
      </trkpt>
      <trkpt lat="46.15202" lon="-1.15157">
        <ele>13.3417</ele>
        <time>2010-12-29T16:38:48Z</time>
      </trkpt>
      <trkpt lat="46.15201" lon="-1.15157">
        <ele>13.6158</ele>
        <time>2010-12-29T16:38:49Z</time>
      </trkpt>
      <trkpt lat="46.152" lon="-1.15157">
        <ele>13.8978</ele>
        <time>2010-12-29T16:38:50Z</time>
      </trkpt>
      <trkpt lat="46.15199" lon="-1.15157">
        <ele>14.1852</ele>
        <time>2010-12-29T16:38:51Z</time>
      </trkpt>
      <trkpt lat="46.15197" lon="-1.15157">
        <ele>14.4705</ele>
        <time>2010-12-29T16:38:52Z</time>
      </trkpt>
      <trkpt lat="46.15196" lon="-1.15158">
        <ele>14.7623</ele>
        <time>2010-12-29T16:38:53Z</time>
      </trkpt>
      <trkpt lat="46.15195" lon="-1.15159">
        <ele>15.0514</ele>
        <time>2010-12-29T16:38:54Z</time>
      </trkpt>
      <trkpt lat="46.15194" lon="-1.1516">
        <ele>15.3403</ele>
        <time>2010-12-29T16:38:55Z</time>
      </trkpt>
      <trkpt lat="46.15193" lon="-1.15161">
        <ele>15.6291</ele>
        <time>2010-12-29T16:38:56Z</time>
      </trkpt>
      <trkpt lat="46.15192" lon="-1.15161">
        <ele>15.9295</ele>
        <time>2010-12-29T16:38:57Z</time>
      </trkpt>
      <trkpt lat="46.15191" lon="-1.15162">
        <ele>16.2278</ele>
        <time>2010-12-29T16:38:58Z</time>
      </trkpt>
      <trkpt lat="46.15189" lon="-1.15162">
        <ele>16.5277</ele>
        <time>2010-12-29T16:38:59Z</time>
      </trkpt>
      <trkpt lat="46.15189" lon="-1.15163">
        <ele>16.8133</ele>
        <time>2010-12-29T16:39:00Z</time>
      </trkpt>
      <trkpt lat="46.15188" lon="-1.15163">
        <ele>17.0728</ele>
        <time>2010-12-29T16:39:01Z</time>
      </trkpt>
      <trkpt lat="46.15187" lon="-1.15163">
        <ele>17.3268</ele>
        <time>2010-12-29T16:39:02Z</time>
      </trkpt>
      <trkpt lat="46.15186" lon="-1.15163">
        <ele>17.578</ele>
        <time>2010-12-29T16:39:03Z</time>
      </trkpt>
      <trkpt lat="46.15185" lon="-1.15163">
        <ele>17.8309</ele>
        <time>2010-12-29T16:39:04Z</time>
      </trkpt>
      <trkpt lat="46.15184" lon="-1.15163">
        <ele>18.0812</ele>
        <time>2010-12-29T16:39:05Z</time>
      </trkpt>
      <trkpt lat="46.15183" lon="-1.15163">
        <ele>18.3246</ele>
        <time>2010-12-29T16:39:06Z</time>
      </trkpt>
      <trkpt lat="46.15182" lon="-1.15163">
        <ele>18.5671</ele>
        <time>2010-12-29T16:39:07Z</time>
      </trkpt>
      <trkpt lat="46.15181" lon="-1.15163">
        <ele>18.8069</ele>
        <time>2010-12-29T16:39:08Z</time>
      </trkpt>
      <trkpt lat="46.1518" lon="-1.15163">
        <ele>19.0396</ele>
        <time>2010-12-29T16:39:09Z</time>
      </trkpt>
      <trkpt lat="46.15179" lon="-1.15163">
        <ele>19.2744</ele>
        <time>2010-12-29T16:39:10Z</time>
      </trkpt>
      <trkpt lat="46.15178" lon="-1.15163">
        <ele>19.5101</ele>
        <time>2010-12-29T16:39:11Z</time>
      </trkpt>
      <trkpt lat="46.15178" lon="-1.15162">
        <ele>19.7542</ele>
        <time>2010-12-29T16:39:12Z</time>
      </trkpt>
      <trkpt lat="46.15176" lon="-1.15162">
        <ele>19.9955</ele>
        <time>2010-12-29T16:39:13Z</time>
      </trkpt>
      <trkpt lat="46.15176" lon="-1.15162">
        <ele>20.2321</ele>
        <time>2010-12-29T16:39:14Z</time>
      </trkpt>
      <trkpt lat="46.15175" lon="-1.15162">
        <ele>20.464</ele>
        <time>2010-12-29T16:39:15Z</time>
      </trkpt>
      <trkpt lat="46.15173" lon="-1.15162">
        <ele>20.6855</ele>
        <time>2010-12-29T16:39:16Z</time>
      </trkpt>
      <trkpt lat="46.15172" lon="-1.15162">
        <ele>20.8982</ele>
        <time>2010-12-29T16:39:17Z</time>
      </trkpt>
      <trkpt lat="46.15171" lon="-1.15163">
        <ele>21.1175</ele>
        <time>2010-12-29T16:39:18Z</time>
      </trkpt>
      <trkpt lat="46.1517" lon="-1.15163">
        <ele>21.3343</ele>
        <time>2010-12-29T16:39:19Z</time>
      </trkpt>
      <trkpt lat="46.15168" lon="-1.15163">
        <ele>21.5486</ele>
        <time>2010-12-29T16:39:20Z</time>
      </trkpt>
      <trkpt lat="46.15167" lon="-1.15163">
        <ele>21.7552</ele>
        <time>2010-12-29T16:39:21Z</time>
      </trkpt>
      <trkpt lat="46.15166" lon="-1.15163">
        <ele>21.9545</ele>
        <time>2010-12-29T16:39:22Z</time>
      </trkpt>
      <trkpt lat="46.15165" lon="-1.15163">
        <ele>22.1505</ele>
        <time>2010-12-29T16:39:23Z</time>
      </trkpt>
      <trkpt lat="46.15164" lon="-1.15163">
        <ele>22.3377</ele>
        <time>2010-12-29T16:39:24Z</time>
      </trkpt>
      <trkpt lat="46.15163" lon="-1.15164">
        <ele>22.5218</ele>
        <time>2010-12-29T16:39:25Z</time>
      </trkpt>
      <trkpt lat="46.15163" lon="-1.15164">
        <ele>22.7151</ele>
        <time>2010-12-29T16:39:26Z</time>
      </trkpt>
      <trkpt lat="46.15161" lon="-1.15165">
        <ele>23.1167</ele>
        <time>2010-12-29T16:39:28Z</time>
      </trkpt>
      <trkpt lat="46.1516" lon="-1.15165">
        <ele>23.2984</ele>
        <time>2010-12-29T16:39:29Z</time>
      </trkpt>
      <trkpt lat="46.15155" lon="-1.15165">
        <ele>24.2568</ele>
        <time>2010-12-29T16:39:34Z</time>
      </trkpt>
      <trkpt lat="46.15154" lon="-1.15165">
        <ele>24.4484</ele>
        <time>2010-12-29T16:39:35Z</time>
      </trkpt>
      <trkpt lat="46.15153" lon="-1.15165">
        <ele>24.8434</ele>
        <time>2010-12-29T16:39:37Z</time>
      </trkpt>
      <trkpt lat="46.1515" lon="-1.15165">
        <ele>25.5068</ele>
        <time>2010-12-29T16:39:40Z</time>
      </trkpt>
      <trkpt lat="46.15149" lon="-1.15166">
        <ele>25.738</ele>
        <time>2010-12-29T16:39:41Z</time>
      </trkpt>
      <trkpt lat="46.15148" lon="-1.15166">
        <ele>25.9761</ele>
        <time>2010-12-29T16:39:42Z</time>
      </trkpt>
      <trkpt lat="46.15148" lon="-1.15166">
        <ele>26.2104</ele>
        <time>2010-12-29T16:39:43Z</time>
      </trkpt>
      <trkpt lat="46.15147" lon="-1.15166">
        <ele>26.442</ele>
        <time>2010-12-29T16:39:44Z</time>
      </trkpt>
      <trkpt lat="46.15146" lon="-1.15167">
        <ele>26.6681</ele>
        <time>2010-12-29T16:39:45Z</time>
      </trkpt>
      <trkpt lat="46.15146" lon="-1.15167">
        <ele>26.8896</ele>
        <time>2010-12-29T16:39:46Z</time>
      </trkpt>
      <trkpt lat="46.15145" lon="-1.15167">
        <ele>27.101</ele>
        <time>2010-12-29T16:39:47Z</time>
      </trkpt>
      <trkpt lat="46.15144" lon="-1.15167">
        <ele>27.3092</ele>
        <time>2010-12-29T16:39:48Z</time>
      </trkpt>
      <trkpt lat="46.15144" lon="-1.15167">
        <ele>27.518</ele>
        <time>2010-12-29T16:39:49Z</time>
      </trkpt>
      <trkpt lat="46.15142" lon="-1.15167">
        <ele>27.7361</ele>
        <time>2010-12-29T16:39:50Z</time>
      </trkpt>
      <trkpt lat="46.15142" lon="-1.15167">
        <ele>27.9621</ele>
        <time>2010-12-29T16:39:51Z</time>
      </trkpt>
      <trkpt lat="46.15141" lon="-1.15167">
        <ele>28.1904</ele>
        <time>2010-12-29T16:39:52Z</time>
      </trkpt>
      <trkpt lat="46.1514" lon="-1.15167">
        <ele>28.4192</ele>
        <time>2010-12-29T16:39:53Z</time>
      </trkpt>
      <trkpt lat="46.15138" lon="-1.15167">
        <ele>28.854</ele>
        <time>2010-12-29T16:39:55Z</time>
      </trkpt>
      <trkpt lat="46.15137" lon="-1.15167">
        <ele>29.0688</ele>
        <time>2010-12-29T16:39:56Z</time>
      </trkpt>
      <trkpt lat="46.15136" lon="-1.15167">
        <ele>29.2894</ele>
        <time>2010-12-29T16:39:57Z</time>
      </trkpt>
      <trkpt lat="46.15135" lon="-1.15167">
        <ele>29.5148</ele>
        <time>2010-12-29T16:39:58Z</time>
      </trkpt>
      <trkpt lat="46.15134" lon="-1.15168">
        <ele>29.7436</ele>
        <time>2010-12-29T16:39:59Z</time>
      </trkpt>
      <trkpt lat="46.15133" lon="-1.15168">
        <ele>29.9732</ele>
        <time>2010-12-29T16:40:00Z</time>
      </trkpt>
      <trkpt lat="46.15132" lon="-1.15168">
        <ele>30.4306</ele>
        <time>2010-12-29T16:40:02Z</time>
      </trkpt>
      <trkpt lat="46.15131" lon="-1.15168">
        <ele>30.6522</ele>
        <time>2010-12-29T16:40:03Z</time>
      </trkpt>
      <trkpt lat="46.1513" lon="-1.15168">
        <ele>30.8649</ele>
        <time>2010-12-29T16:40:04Z</time>
      </trkpt>
      <trkpt lat="46.15125" lon="-1.15168">
        <ele>31.8635</ele>
        <time>2010-12-29T16:40:09Z</time>
      </trkpt>
      <trkpt lat="46.15124" lon="-1.15167">
        <ele>32.0607</ele>
        <time>2010-12-29T16:40:10Z</time>
      </trkpt>
      <trkpt lat="46.15123" lon="-1.15167">
        <ele>32.2569</ele>
        <time>2010-12-29T16:40:11Z</time>
      </trkpt>
      <trkpt lat="46.15122" lon="-1.15167">
        <ele>32.4522</ele>
        <time>2010-12-29T16:40:12Z</time>
      </trkpt>
      <trkpt lat="46.15122" lon="-1.15167">
        <ele>32.6448</ele>
        <time>2010-12-29T16:40:13Z</time>
      </trkpt>
      <trkpt lat="46.15121" lon="-1.15167">
        <ele>32.8276</ele>
        <time>2010-12-29T16:40:14Z</time>
      </trkpt>
      <trkpt lat="46.1512" lon="-1.15167">
        <ele>32.9989</ele>
        <time>2010-12-29T16:40:15Z</time>
      </trkpt>
      <trkpt lat="46.15119" lon="-1.15166">
        <ele>33.1573</ele>
        <time>2010-12-29T16:40:16Z</time>
      </trkpt>
      <trkpt lat="46.15116" lon="-1.15165">
        <ele>33.5593</ele>
        <time>2010-12-29T16:40:19Z</time>
      </trkpt>
      <trkpt lat="46.15115" lon="-1.15164">
        <ele>33.6641</ele>
        <time>2010-12-29T16:40:20Z</time>
      </trkpt>
      <trkpt lat="46.15114" lon="-1.15164">
        <ele>33.7482</ele>
        <time>2010-12-29T16:40:21Z</time>
      </trkpt>
      <trkpt lat="46.15113" lon="-1.15164">
        <ele>33.8306</ele>
        <time>2010-12-29T16:40:22Z</time>
      </trkpt>
      <trkpt lat="46.15112" lon="-1.15163">
        <ele>33.9098</ele>
        <time>2010-12-29T16:40:23Z</time>
      </trkpt>
      <trkpt lat="46.1511" lon="-1.15163">
        <ele>33.9882</ele>
        <time>2010-12-29T16:40:24Z</time>
      </trkpt>
      <trkpt lat="46.15109" lon="-1.15163">
        <ele>34.0653</ele>
        <time>2010-12-29T16:40:25Z</time>
      </trkpt>
      <trkpt lat="46.15104" lon="-1.15163">
        <ele>34.3966</ele>
        <time>2010-12-29T16:40:30Z</time>
      </trkpt>
      <trkpt lat="46.15104" lon="-1.15163">
        <ele>34.4633</ele>
        <time>2010-12-29T16:40:31Z</time>
      </trkpt>
      <trkpt lat="46.15102" lon="-1.15164">
        <ele>34.5314</ele>
        <time>2010-12-29T16:40:32Z</time>
      </trkpt>
      <trkpt lat="46.15102" lon="-1.15164">
        <ele>34.6002</ele>
        <time>2010-12-29T16:40:33Z</time>
      </trkpt>
      <trkpt lat="46.15101" lon="-1.15164">
        <ele>34.675</ele>
        <time>2010-12-29T16:40:34Z</time>
      </trkpt>
      <trkpt lat="46.15099" lon="-1.15164">
        <ele>34.7514</ele>
        <time>2010-12-29T16:40:35Z</time>
      </trkpt>
      <trkpt lat="46.15099" lon="-1.15164">
        <ele>34.8306</ele>
        <time>2010-12-29T16:40:36Z</time>
      </trkpt>
      <trkpt lat="46.15097" lon="-1.15164">
        <ele>34.9111</ele>
        <time>2010-12-29T16:40:37Z</time>
      </trkpt>
      <trkpt lat="46.15096" lon="-1.15164">
        <ele>34.9842</ele>
        <time>2010-12-29T16:40:38Z</time>
      </trkpt>
      <trkpt lat="46.15095" lon="-1.15164">
        <ele>35.0613</ele>
        <time>2010-12-29T16:40:39Z</time>
      </trkpt>
      <trkpt lat="46.15092" lon="-1.15165">
        <ele>35.392</ele>
        <time>2010-12-29T16:40:43Z</time>
      </trkpt>
      <trkpt lat="46.15091" lon="-1.15165">
        <ele>35.484</ele>
        <time>2010-12-29T16:40:44Z</time>
      </trkpt>
      <trkpt lat="46.15089" lon="-1.15165">
        <ele>35.575</ele>
        <time>2010-12-29T16:40:45Z</time>
      </trkpt>
      <trkpt lat="46.15088" lon="-1.15165">
        <ele>35.6619</ele>
        <time>2010-12-29T16:40:46Z</time>
      </trkpt>
      <trkpt lat="46.15088" lon="-1.15165">
        <ele>35.7456</ele>
        <time>2010-12-29T16:40:47Z</time>
      </trkpt>
      <trkpt lat="46.15086" lon="-1.15164">
        <ele>35.8262</ele>
        <time>2010-12-29T16:40:48Z</time>
      </trkpt>
      <trkpt lat="46.15081" lon="-1.15163">
        <ele>36.2797</ele>
        <time>2010-12-29T16:40:54Z</time>
      </trkpt>
      <trkpt lat="46.15076" lon="-1.15161">
        <ele>36.4509</ele>
        <time>2010-12-29T16:41:00Z</time>
      </trkpt>
      <trkpt lat="46.15071" lon="-1.1516">
        <ele>36.4787</ele>
        <time>2010-12-29T16:41:06Z</time>
      </trkpt>
      <trkpt lat="46.15067" lon="-1.15161">
        <ele>36.5086</ele>
        <time>2010-12-29T16:41:11Z</time>
      </trkpt>
      <trkpt lat="46.15066" lon="-1.15161">
        <ele>36.6045</ele>
        <time>2010-12-29T16:41:12Z</time>
      </trkpt>
      <trkpt lat="46.15065" lon="-1.15162">
        <ele>36.7412</ele>
        <time>2010-12-29T16:41:13Z</time>
      </trkpt>
      <trkpt lat="46.15063" lon="-1.15163">
        <ele>36.9337</ele>
        <time>2010-12-29T16:41:14Z</time>
      </trkpt>
      <trkpt lat="46.15062" lon="-1.15164">
        <ele>37.1127</ele>
        <time>2010-12-29T16:41:15Z</time>
      </trkpt>
      <trkpt lat="46.1506" lon="-1.15164">
        <ele>37.2751</ele>
        <time>2010-12-29T16:41:16Z</time>
      </trkpt>
      <trkpt lat="46.15059" lon="-1.15165">
        <ele>37.4507</ele>
        <time>2010-12-29T16:41:17Z</time>
      </trkpt>
      <trkpt lat="46.15057" lon="-1.15166">
        <ele>37.6275</ele>
        <time>2010-12-29T16:41:18Z</time>
      </trkpt>
      <trkpt lat="46.15056" lon="-1.15167">
        <ele>37.7942</ele>
        <time>2010-12-29T16:41:19Z</time>
      </trkpt>
      <trkpt lat="46.15054" lon="-1.15167">
        <ele>37.9389</ele>
        <time>2010-12-29T16:41:20Z</time>
      </trkpt>
      <trkpt lat="46.15052" lon="-1.15167">
        <ele>38.0775</ele>
        <time>2010-12-29T16:41:21Z</time>
      </trkpt>
      <trkpt lat="46.15051" lon="-1.15168">
        <ele>38.187</ele>
        <time>2010-12-29T16:41:22Z</time>
      </trkpt>
      <trkpt lat="46.15049" lon="-1.15168">
        <ele>38.2747</ele>
        <time>2010-12-29T16:41:23Z</time>
      </trkpt>
      <trkpt lat="46.15048" lon="-1.15168">
        <ele>38.3672</ele>
        <time>2010-12-29T16:41:24Z</time>
      </trkpt>
      <trkpt lat="46.15046" lon="-1.15167">
        <ele>38.4492</ele>
        <time>2010-12-29T16:41:25Z</time>
      </trkpt>
      <trkpt lat="46.15045" lon="-1.15167">
        <ele>38.5235</ele>
        <time>2010-12-29T16:41:26Z</time>
      </trkpt>
      <trkpt lat="46.15044" lon="-1.15167">
        <ele>38.5747</ele>
        <time>2010-12-29T16:41:27Z</time>
      </trkpt>
      <trkpt lat="46.15042" lon="-1.15167">
        <ele>38.6409</ele>
        <time>2010-12-29T16:41:29Z</time>
      </trkpt>
      <trkpt lat="46.15041" lon="-1.15166">
        <ele>38.6608</ele>
        <time>2010-12-29T16:41:30Z</time>
      </trkpt>
      <trkpt lat="46.1504" lon="-1.15166">
        <ele>38.6654</ele>
        <time>2010-12-29T16:41:31Z</time>
      </trkpt>
      <trkpt lat="46.15039" lon="-1.15165">
        <ele>38.6693</ele>
        <time>2010-12-29T16:41:32Z</time>
      </trkpt>
      <trkpt lat="46.15038" lon="-1.15165">
        <ele>38.6498</ele>
        <time>2010-12-29T16:41:33Z</time>
      </trkpt>
      <trkpt lat="46.15036" lon="-1.15164">
        <ele>38.6309</ele>
        <time>2010-12-29T16:41:34Z</time>
      </trkpt>
      <trkpt lat="46.15035" lon="-1.15164">
        <ele>38.6052</ele>
        <time>2010-12-29T16:41:35Z</time>
      </trkpt>
      <trkpt lat="46.15034" lon="-1.15163">
        <ele>38.5755</ele>
        <time>2010-12-29T16:41:36Z</time>
      </trkpt>
      <trkpt lat="46.15033" lon="-1.15163">
        <ele>38.5414</ele>
        <time>2010-12-29T16:41:37Z</time>
      </trkpt>
      <trkpt lat="46.15032" lon="-1.15163">
        <ele>38.5055</ele>
        <time>2010-12-29T16:41:38Z</time>
      </trkpt>
      <trkpt lat="46.1503" lon="-1.15162">
        <ele>38.4204</ele>
        <time>2010-12-29T16:41:40Z</time>
      </trkpt>
      <trkpt lat="46.15029" lon="-1.15162">
        <ele>38.3625</ele>
        <time>2010-12-29T16:41:41Z</time>
      </trkpt>
      <trkpt lat="46.15028" lon="-1.15162">
        <ele>38.3046</ele>
        <time>2010-12-29T16:41:42Z</time>
      </trkpt>
      <trkpt lat="46.15026" lon="-1.15161">
        <ele>38.1816</ele>
        <time>2010-12-29T16:41:44Z</time>
      </trkpt>
      <trkpt lat="46.15025" lon="-1.1516">
        <ele>38.1177</ele>
        <time>2010-12-29T16:41:45Z</time>
      </trkpt>
      <trkpt lat="46.15024" lon="-1.1516">
        <ele>38.0456</ele>
        <time>2010-12-29T16:41:46Z</time>
      </trkpt>
      <trkpt lat="46.15022" lon="-1.15159">
        <ele>37.8619</ele>
        <time>2010-12-29T16:41:48Z</time>
      </trkpt>
      <trkpt lat="46.15021" lon="-1.15158">
        <ele>37.7676</ele>
        <time>2010-12-29T16:41:49Z</time>
      </trkpt>
      <trkpt lat="46.1502" lon="-1.15158">
        <ele>37.6616</ele>
        <time>2010-12-29T16:41:50Z</time>
      </trkpt>
      <trkpt lat="46.15019" lon="-1.15157">
        <ele>37.5567</ele>
        <time>2010-12-29T16:41:51Z</time>
      </trkpt>
      <trkpt lat="46.15018" lon="-1.15157">
        <ele>37.4526</ele>
        <time>2010-12-29T16:41:52Z</time>
      </trkpt>
      <trkpt lat="46.15017" lon="-1.15156">
        <ele>37.3523</ele>
        <time>2010-12-29T16:41:53Z</time>
      </trkpt>
      <trkpt lat="46.15015" lon="-1.15156">
        <ele>37.247</ele>
        <time>2010-12-29T16:41:54Z</time>
      </trkpt>
      <trkpt lat="46.15014" lon="-1.15155">
        <ele>37.1403</ele>
        <time>2010-12-29T16:41:55Z</time>
      </trkpt>
      <trkpt lat="46.15014" lon="-1.15155">
        <ele>37.0298</ele>
        <time>2010-12-29T16:41:56Z</time>
      </trkpt>
      <trkpt lat="46.15012" lon="-1.15154">
        <ele>36.9051</ele>
        <time>2010-12-29T16:41:57Z</time>
      </trkpt>
      <trkpt lat="46.15011" lon="-1.15154">
        <ele>36.7774</ele>
        <time>2010-12-29T16:41:58Z</time>
      </trkpt>
      <trkpt lat="46.1501" lon="-1.15153">
        <ele>36.6442</ele>
        <time>2010-12-29T16:41:59Z</time>
      </trkpt>
      <trkpt lat="46.15009" lon="-1.15153">
        <ele>36.4887</ele>
        <time>2010-12-29T16:42:00Z</time>
      </trkpt>
      <trkpt lat="46.15008" lon="-1.15152">
        <ele>36.3375</ele>
        <time>2010-12-29T16:42:01Z</time>
      </trkpt>
      <trkpt lat="46.15007" lon="-1.15152">
        <ele>36.1795</ele>
        <time>2010-12-29T16:42:02Z</time>
      </trkpt>
      <trkpt lat="46.15007" lon="-1.15151">
        <ele>36.0211</ele>
        <time>2010-12-29T16:42:03Z</time>
      </trkpt>
      <trkpt lat="46.15003" lon="-1.15151">
        <ele>35.421</ele>
        <time>2010-12-29T16:42:07Z</time>
      </trkpt>
      <trkpt lat="46.14998" lon="-1.1515">
        <ele>34.6426</ele>
        <time>2010-12-29T16:42:12Z</time>
      </trkpt>
      <trkpt lat="46.14996" lon="-1.1515">
        <ele>34.308</ele>
        <time>2010-12-29T16:42:14Z</time>
      </trkpt>
      <trkpt lat="46.14994" lon="-1.1515">
        <ele>34.1474</ele>
        <time>2010-12-29T16:42:15Z</time>
      </trkpt>
      <trkpt lat="46.14993" lon="-1.15149">
        <ele>33.9909</ele>
        <time>2010-12-29T16:42:16Z</time>
      </trkpt>
      <trkpt lat="46.14993" lon="-1.15149">
        <ele>33.8382</ele>
        <time>2010-12-29T16:42:17Z</time>
      </trkpt>
      <trkpt lat="46.14991" lon="-1.15149">
        <ele>33.6877</ele>
        <time>2010-12-29T16:42:18Z</time>
      </trkpt>
      <trkpt lat="46.1499" lon="-1.15149">
        <ele>33.5399</ele>
        <time>2010-12-29T16:42:19Z</time>
      </trkpt>
      <trkpt lat="46.14989" lon="-1.15149">
        <ele>33.3949</ele>
        <time>2010-12-29T16:42:20Z</time>
      </trkpt>
      <trkpt lat="46.14986" lon="-1.15148">
        <ele>32.9404</ele>
        <time>2010-12-29T16:42:23Z</time>
      </trkpt>
      <trkpt lat="46.14985" lon="-1.15148">
        <ele>32.7708</ele>
        <time>2010-12-29T16:42:24Z</time>
      </trkpt>
      <trkpt lat="46.14985" lon="-1.15147">
        <ele>32.5866</ele>
        <time>2010-12-29T16:42:25Z</time>
      </trkpt>
      <trkpt lat="46.1498" lon="-1.15143">
        <ele>31.5254</ele>
        <time>2010-12-29T16:42:30Z</time>
      </trkpt>
      <trkpt lat="46.14979" lon="-1.15143">
        <ele>31.3004</ele>
        <time>2010-12-29T16:42:31Z</time>
      </trkpt>
      <trkpt lat="46.14978" lon="-1.15142">
        <ele>31.0511</ele>
        <time>2010-12-29T16:42:32Z</time>
      </trkpt>
      <trkpt lat="46.14977" lon="-1.1514">
        <ele>30.7799</ele>
        <time>2010-12-29T16:42:33Z</time>
      </trkpt>
      <trkpt lat="46.14976" lon="-1.15139">
        <ele>30.491</ele>
        <time>2010-12-29T16:42:34Z</time>
      </trkpt>
      <trkpt lat="46.14975" lon="-1.15138">
        <ele>30.1882</ele>
        <time>2010-12-29T16:42:35Z</time>
      </trkpt>
      <trkpt lat="46.14974" lon="-1.15137">
        <ele>29.8851</ele>
        <time>2010-12-29T16:42:36Z</time>
      </trkpt>
      <trkpt lat="46.14973" lon="-1.15135">
        <ele>29.5813</ele>
        <time>2010-12-29T16:42:37Z</time>
      </trkpt>
      <trkpt lat="46.14973" lon="-1.15133">
        <ele>29.2147</ele>
        <time>2010-12-29T16:42:38Z</time>
      </trkpt>
      <trkpt lat="46.14972" lon="-1.15132">
        <ele>28.8507</ele>
        <time>2010-12-29T16:42:39Z</time>
      </trkpt>
      <trkpt lat="46.14971" lon="-1.1513">
        <ele>28.4886</ele>
        <time>2010-12-29T16:42:40Z</time>
      </trkpt>
      <trkpt lat="46.1497" lon="-1.15129">
        <ele>28.1285</ele>
        <time>2010-12-29T16:42:41Z</time>
      </trkpt>
      <trkpt lat="46.14969" lon="-1.15128">
        <ele>27.767</ele>
        <time>2010-12-29T16:42:42Z</time>
      </trkpt>
      <trkpt lat="46.14968" lon="-1.15127">
        <ele>27.4112</ele>
        <time>2010-12-29T16:42:43Z</time>
      </trkpt>
      <trkpt lat="46.14967" lon="-1.15127">
        <ele>27.0544</ele>
        <time>2010-12-29T16:42:44Z</time>
      </trkpt>
      <trkpt lat="46.14966" lon="-1.15126">
        <ele>26.7041</ele>
        <time>2010-12-29T16:42:45Z</time>
      </trkpt>
      <trkpt lat="46.14964" lon="-1.15126">
        <ele>26.3541</ele>
        <time>2010-12-29T16:42:46Z</time>
      </trkpt>
      <trkpt lat="46.14963" lon="-1.15125">
        <ele>26.0056</ele>
        <time>2010-12-29T16:42:47Z</time>
      </trkpt>
      <trkpt lat="46.14962" lon="-1.15125">
        <ele>25.6574</ele>
        <time>2010-12-29T16:42:48Z</time>
      </trkpt>
      <trkpt lat="46.14961" lon="-1.15124">
        <ele>25.3108</ele>
        <time>2010-12-29T16:42:49Z</time>
      </trkpt>
      <trkpt lat="46.1496" lon="-1.15124">
        <ele>24.9694</ele>
        <time>2010-12-29T16:42:50Z</time>
      </trkpt>
      <trkpt lat="46.14959" lon="-1.15124">
        <ele>24.6336</ele>
        <time>2010-12-29T16:42:51Z</time>
      </trkpt>
      <trkpt lat="46.14957" lon="-1.15123">
        <ele>24.3028</ele>
        <time>2010-12-29T16:42:52Z</time>
      </trkpt>
      <trkpt lat="46.14957" lon="-1.15123">
        <ele>23.9786</ele>
        <time>2010-12-29T16:42:53Z</time>
      </trkpt>
      <trkpt lat="46.14956" lon="-1.15123">
        <ele>23.6584</ele>
        <time>2010-12-29T16:42:54Z</time>
      </trkpt>
      <trkpt lat="46.14954" lon="-1.15123">
        <ele>23.3401</ele>
        <time>2010-12-29T16:42:55Z</time>
      </trkpt>
      <trkpt lat="46.14953" lon="-1.15123">
        <ele>23.0268</ele>
        <time>2010-12-29T16:42:56Z</time>
      </trkpt>
      <trkpt lat="46.14952" lon="-1.15123">
        <ele>22.7206</ele>
        <time>2010-12-29T16:42:57Z</time>
      </trkpt>
      <trkpt lat="46.14951" lon="-1.15123">
        <ele>22.4114</ele>
        <time>2010-12-29T16:42:58Z</time>
      </trkpt>
      <trkpt lat="46.14949" lon="-1.15122">
        <ele>22.1031</ele>
        <time>2010-12-29T16:42:59Z</time>
      </trkpt>
      <trkpt lat="46.14948" lon="-1.15122">
        <ele>21.7965</ele>
        <time>2010-12-29T16:43:00Z</time>
      </trkpt>
      <trkpt lat="46.14947" lon="-1.15122">
        <ele>21.4893</ele>
        <time>2010-12-29T16:43:01Z</time>
      </trkpt>
      <trkpt lat="46.14946" lon="-1.15122">
        <ele>21.1845</ele>
        <time>2010-12-29T16:43:02Z</time>
      </trkpt>
      <trkpt lat="46.14945" lon="-1.15122">
        <ele>20.8807</ele>
        <time>2010-12-29T16:43:03Z</time>
      </trkpt>
      <trkpt lat="46.14944" lon="-1.15122">
        <ele>20.5789</ele>
        <time>2010-12-29T16:43:04Z</time>
      </trkpt>
      <trkpt lat="46.14943" lon="-1.15122">
        <ele>20.2818</ele>
        <time>2010-12-29T16:43:05Z</time>
      </trkpt>
      <trkpt lat="46.14942" lon="-1.15121">
        <ele>19.991</ele>
        <time>2010-12-29T16:43:06Z</time>
      </trkpt>
      <trkpt lat="46.14941" lon="-1.15121">
        <ele>19.7039</ele>
        <time>2010-12-29T16:43:07Z</time>
      </trkpt>
      <trkpt lat="46.1494" lon="-1.15121">
        <ele>19.4197</ele>
        <time>2010-12-29T16:43:08Z</time>
      </trkpt>
      <trkpt lat="46.1494" lon="-1.15121">
        <ele>19.1398</ele>
        <time>2010-12-29T16:43:09Z</time>
      </trkpt>
      <trkpt lat="46.14938" lon="-1.15122">
        <ele>18.8642</ele>
        <time>2010-12-29T16:43:10Z</time>
      </trkpt>
      <trkpt lat="46.14938" lon="-1.15122">
        <ele>18.5938</ele>
        <time>2010-12-29T16:43:11Z</time>
      </trkpt>
      <trkpt lat="46.14936" lon="-1.15122">
        <ele>18.328</ele>
        <time>2010-12-29T16:43:12Z</time>
      </trkpt>
      <trkpt lat="46.14935" lon="-1.15122">
        <ele>18.0702</ele>
        <time>2010-12-29T16:43:13Z</time>
      </trkpt>
      <trkpt lat="46.14934" lon="-1.15122">
        <ele>17.8205</ele>
        <time>2010-12-29T16:43:14Z</time>
      </trkpt>
      <trkpt lat="46.14933" lon="-1.15122">
        <ele>17.5767</ele>
        <time>2010-12-29T16:43:15Z</time>
      </trkpt>
      <trkpt lat="46.14932" lon="-1.15121">
        <ele>17.3354</ele>
        <time>2010-12-29T16:43:16Z</time>
      </trkpt>
      <trkpt lat="46.14931" lon="-1.15121">
        <ele>17.0976</ele>
        <time>2010-12-29T16:43:17Z</time>
      </trkpt>
      <trkpt lat="46.1493" lon="-1.15121">
        <ele>16.862</ele>
        <time>2010-12-29T16:43:18Z</time>
      </trkpt>
      <trkpt lat="46.1493" lon="-1.1512">
        <ele>16.6307</ele>
        <time>2010-12-29T16:43:19Z</time>
      </trkpt>
      <trkpt lat="46.14929" lon="-1.15119">
        <ele>16.4043</ele>
        <time>2010-12-29T16:43:20Z</time>
      </trkpt>
      <trkpt lat="46.14928" lon="-1.15119">
        <ele>16.1831</ele>
        <time>2010-12-29T16:43:21Z</time>
      </trkpt>
      <trkpt lat="46.14927" lon="-1.15118">
        <ele>15.9668</ele>
        <time>2010-12-29T16:43:22Z</time>
      </trkpt>
      <trkpt lat="46.14927" lon="-1.15118">
        <ele>15.7542</ele>
        <time>2010-12-29T16:43:23Z</time>
      </trkpt>
      <trkpt lat="46.14925" lon="-1.15118">
        <ele>15.5452</ele>
        <time>2010-12-29T16:43:24Z</time>
      </trkpt>
      <trkpt lat="46.14925" lon="-1.15117">
        <ele>15.3391</ele>
        <time>2010-12-29T16:43:25Z</time>
      </trkpt>
      <trkpt lat="46.14924" lon="-1.15117">
        <ele>15.1355</ele>
        <time>2010-12-29T16:43:26Z</time>
      </trkpt>
      <trkpt lat="46.14923" lon="-1.15117">
        <ele>14.9339</ele>
        <time>2010-12-29T16:43:27Z</time>
      </trkpt>
      <trkpt lat="46.14921" lon="-1.15118">
        <ele>14.7353</ele>
        <time>2010-12-29T16:43:28Z</time>
      </trkpt>
      <trkpt lat="46.1492" lon="-1.15118">
        <ele>14.5397</ele>
        <time>2010-12-29T16:43:29Z</time>
      </trkpt>
      <trkpt lat="46.14919" lon="-1.15118">
        <ele>14.3477</ele>
        <time>2010-12-29T16:43:30Z</time>
      </trkpt>
      <trkpt lat="46.14918" lon="-1.15118">
        <ele>14.1586</ele>
        <time>2010-12-29T16:43:31Z</time>
      </trkpt>
      <trkpt lat="46.14917" lon="-1.15119">
        <ele>13.9725</ele>
        <time>2010-12-29T16:43:32Z</time>
      </trkpt>
      <trkpt lat="46.14916" lon="-1.15119">
        <ele>13.7897</ele>
        <time>2010-12-29T16:43:33Z</time>
      </trkpt>
      <trkpt lat="46.14915" lon="-1.15119">
        <ele>13.61</ele>
        <time>2010-12-29T16:43:34Z</time>
      </trkpt>
      <trkpt lat="46.14914" lon="-1.15118">
        <ele>13.4327</ele>
        <time>2010-12-29T16:43:35Z</time>
      </trkpt>
      <trkpt lat="46.14913" lon="-1.15118">
        <ele>13.2575</ele>
        <time>2010-12-29T16:43:36Z</time>
      </trkpt>
      <trkpt lat="46.14912" lon="-1.15117">
        <ele>13.0849</ele>
        <time>2010-12-29T16:43:37Z</time>
      </trkpt>
      <trkpt lat="46.14911" lon="-1.15117">
        <ele>12.915</ele>
        <time>2010-12-29T16:43:38Z</time>
      </trkpt>
    </trkseg>
  </trk>
</gpx>